<?xml version="1.0" encoding="UTF-8" standalone="no" ?>
<gpx xmlns="http://www.topografix.com/GPX/1/1" xmlns:xsi="http://www.w3.org/2001/XMLSchema-instance" xsi:schemaLocation="http://www.topografix.com/GPX/1/1 http://www.topografix.com/GPX/1/1/gpx.xsd" version="1.1" creator="VisuGPX - https://www.visugpx.com">
  <metadata>
    <name>78 - 92 De Viroflay RG à Meudon</name>
    <desc><![CDATA[Trace AlpineQuest 28/06/2022 08:00:57]]></desc>
  </metadata>
  <trk>
    <name><![CDATA[De Viroflay Rg à Meudon]]></name>
    <desc><![CDATA[Trace AlpineQuest 28/06/2022 08:00:57]]></desc>
    <extensions>
      <line xmlns="http://www.topografix.com/GPX/gpx_style/0/2">
        <color>0000FF</color>
        <width>4</width>
      </line>
    </extensions>
    <trkseg>
      <trkpt lat="48.80123" lon="2.17442">
        <ele>110.6</ele>
        <time>2022-06-28T06:00:57Z</time>
      </trkpt>
      <trkpt lat="48.80072" lon="2.17133">
        <ele>121.5</ele>
        <time>2022-06-28T06:01:04Z</time>
      </trkpt>
      <trkpt lat="48.8007" lon="2.17124">
        <ele>121.4</ele>
        <time>2022-06-28T06:01:23Z</time>
      </trkpt>
      <trkpt lat="48.80062" lon="2.17118">
        <ele>121.4</ele>
        <time>2022-06-28T06:02:55Z</time>
      </trkpt>
      <trkpt lat="48.80056" lon="2.17123">
        <ele>121.3</ele>
        <time>2022-06-28T06:03:11Z</time>
      </trkpt>
      <trkpt lat="48.8005" lon="2.17127">
        <ele>121.3</ele>
        <time>2022-06-28T06:03:16Z</time>
      </trkpt>
      <trkpt lat="48.80042" lon="2.17128">
        <ele>121.2</ele>
        <time>2022-06-28T06:03:23Z</time>
      </trkpt>
      <trkpt lat="48.80034" lon="2.17128">
        <ele>121.2</ele>
        <time>2022-06-28T06:03:31Z</time>
      </trkpt>
      <trkpt lat="48.80027" lon="2.17127">
        <ele>121.1</ele>
        <time>2022-06-28T06:03:37Z</time>
      </trkpt>
      <trkpt lat="48.8002" lon="2.17125">
        <ele>121.1</ele>
        <time>2022-06-28T06:03:42Z</time>
      </trkpt>
      <trkpt lat="48.80012" lon="2.17126">
        <ele>121.1</ele>
        <time>2022-06-28T06:03:47Z</time>
      </trkpt>
      <trkpt lat="48.80005" lon="2.17127">
        <ele>121</ele>
        <time>2022-06-28T06:03:52Z</time>
      </trkpt>
      <trkpt lat="48.79998" lon="2.17126">
        <ele>121.1</ele>
        <time>2022-06-28T06:03:58Z</time>
      </trkpt>
      <trkpt lat="48.79992" lon="2.1712">
        <ele>121.5</ele>
        <time>2022-06-28T06:04:06Z</time>
      </trkpt>
      <trkpt lat="48.79985" lon="2.17118">
        <ele>121.8</ele>
        <time>2022-06-28T06:04:12Z</time>
      </trkpt>
      <trkpt lat="48.79978" lon="2.17115">
        <ele>122.2</ele>
        <time>2022-06-28T06:04:19Z</time>
      </trkpt>
      <trkpt lat="48.79972" lon="2.1712">
        <ele>122.3</ele>
        <time>2022-06-28T06:04:25Z</time>
      </trkpt>
      <trkpt lat="48.79966" lon="2.17128">
        <ele>122.3</ele>
        <time>2022-06-28T06:04:31Z</time>
      </trkpt>
      <trkpt lat="48.79959" lon="2.17132">
        <ele>122.5</ele>
        <time>2022-06-28T06:04:37Z</time>
      </trkpt>
      <trkpt lat="48.79952" lon="2.17139">
        <ele>122.6</ele>
        <time>2022-06-28T06:04:44Z</time>
      </trkpt>
      <trkpt lat="48.79949" lon="2.17148">
        <ele>122.4</ele>
        <time>2022-06-28T06:04:50Z</time>
      </trkpt>
      <trkpt lat="48.79942" lon="2.17154">
        <ele>122.5</ele>
        <time>2022-06-28T06:04:55Z</time>
      </trkpt>
      <trkpt lat="48.79941" lon="2.17165">
        <ele>122.2</ele>
        <time>2022-06-28T06:05:02Z</time>
      </trkpt>
      <trkpt lat="48.79936" lon="2.17174">
        <ele>122.2</ele>
        <time>2022-06-28T06:05:08Z</time>
      </trkpt>
      <trkpt lat="48.79929" lon="2.17177">
        <ele>122.4</ele>
        <time>2022-06-28T06:05:13Z</time>
      </trkpt>
      <trkpt lat="48.79922" lon="2.17176">
        <ele>122.7</ele>
        <time>2022-06-28T06:05:21Z</time>
      </trkpt>
      <trkpt lat="48.79917" lon="2.1717">
        <ele>122.9</ele>
        <time>2022-06-28T06:05:28Z</time>
      </trkpt>
      <trkpt lat="48.7991" lon="2.17165">
        <ele>123.9</ele>
        <time>2022-06-28T06:05:35Z</time>
      </trkpt>
      <trkpt lat="48.79905" lon="2.17158">
        <ele>124.8</ele>
        <time>2022-06-28T06:05:40Z</time>
      </trkpt>
      <trkpt lat="48.799" lon="2.17151">
        <ele>125.7</ele>
        <time>2022-06-28T06:05:47Z</time>
      </trkpt>
      <trkpt lat="48.79895" lon="2.17143">
        <ele>126.5</ele>
        <time>2022-06-28T06:05:53Z</time>
      </trkpt>
      <trkpt lat="48.79889" lon="2.17138">
        <ele>127.3</ele>
        <time>2022-06-28T06:05:58Z</time>
      </trkpt>
      <trkpt lat="48.79882" lon="2.17134">
        <ele>128.3</ele>
        <time>2022-06-28T06:06:04Z</time>
      </trkpt>
      <trkpt lat="48.79876" lon="2.17139">
        <ele>128.9</ele>
        <time>2022-06-28T06:06:12Z</time>
      </trkpt>
      <trkpt lat="48.79872" lon="2.17148">
        <ele>129.2</ele>
        <time>2022-06-28T06:06:18Z</time>
      </trkpt>
      <trkpt lat="48.79867" lon="2.17159">
        <ele>129.7</ele>
        <time>2022-06-28T06:06:23Z</time>
      </trkpt>
      <trkpt lat="48.79861" lon="2.17171">
        <ele>130.4</ele>
        <time>2022-06-28T06:06:40Z</time>
      </trkpt>
      <trkpt lat="48.79853" lon="2.17176">
        <ele>131.5</ele>
        <time>2022-06-28T06:06:45Z</time>
      </trkpt>
      <trkpt lat="48.79849" lon="2.17183">
        <ele>132.1</ele>
        <time>2022-06-28T06:06:50Z</time>
      </trkpt>
      <trkpt lat="48.79842" lon="2.17188">
        <ele>133.1</ele>
        <time>2022-06-28T06:07:01Z</time>
      </trkpt>
      <trkpt lat="48.79835" lon="2.17192">
        <ele>134.1</ele>
        <time>2022-06-28T06:07:08Z</time>
      </trkpt>
      <trkpt lat="48.79828" lon="2.17192">
        <ele>135</ele>
        <time>2022-06-28T06:07:13Z</time>
      </trkpt>
      <trkpt lat="48.79827" lon="2.17202">
        <ele>135.2</ele>
        <time>2022-06-28T06:07:20Z</time>
      </trkpt>
      <trkpt lat="48.79827" lon="2.17214">
        <ele>135.4</ele>
        <time>2022-06-28T06:07:26Z</time>
      </trkpt>
      <trkpt lat="48.79828" lon="2.17224">
        <ele>135.4</ele>
        <time>2022-06-28T06:07:31Z</time>
      </trkpt>
      <trkpt lat="48.79827" lon="2.17237">
        <ele>135.7</ele>
        <time>2022-06-28T06:07:36Z</time>
      </trkpt>
      <trkpt lat="48.79826" lon="2.17248">
        <ele>135.9</ele>
        <time>2022-06-28T06:07:43Z</time>
      </trkpt>
      <trkpt lat="48.79827" lon="2.17259">
        <ele>135.4</ele>
        <time>2022-06-28T06:07:49Z</time>
      </trkpt>
      <trkpt lat="48.79827" lon="2.17269">
        <ele>134.9</ele>
        <time>2022-06-28T06:07:56Z</time>
      </trkpt>
      <trkpt lat="48.79825" lon="2.17281">
        <ele>134.6</ele>
        <time>2022-06-28T06:08:01Z</time>
      </trkpt>
      <trkpt lat="48.79823" lon="2.17291">
        <ele>134.5</ele>
        <time>2022-06-28T06:08:07Z</time>
      </trkpt>
      <trkpt lat="48.79824" lon="2.17303">
        <ele>133.8</ele>
        <time>2022-06-28T06:08:13Z</time>
      </trkpt>
      <trkpt lat="48.79822" lon="2.17316">
        <ele>133.4</ele>
        <time>2022-06-28T06:08:18Z</time>
      </trkpt>
      <trkpt lat="48.79817" lon="2.17325">
        <ele>133.7</ele>
        <time>2022-06-28T06:08:25Z</time>
      </trkpt>
      <trkpt lat="48.7981" lon="2.17322">
        <ele>134.9</ele>
        <time>2022-06-28T06:08:31Z</time>
      </trkpt>
      <trkpt lat="48.79804" lon="2.17314">
        <ele>136.1</ele>
        <time>2022-06-28T06:08:37Z</time>
      </trkpt>
      <trkpt lat="48.79801" lon="2.17305">
        <ele>136.9</ele>
        <time>2022-06-28T06:08:43Z</time>
      </trkpt>
      <trkpt lat="48.79796" lon="2.173">
        <ele>137.8</ele>
        <time>2022-06-28T06:08:49Z</time>
      </trkpt>
      <trkpt lat="48.7979" lon="2.17293">
        <ele>138.9</ele>
        <time>2022-06-28T06:08:57Z</time>
      </trkpt>
      <trkpt lat="48.79784" lon="2.17287">
        <ele>140</ele>
        <time>2022-06-28T06:09:04Z</time>
      </trkpt>
      <trkpt lat="48.79779" lon="2.17281">
        <ele>140.9</ele>
        <time>2022-06-28T06:09:09Z</time>
      </trkpt>
      <trkpt lat="48.79774" lon="2.17273">
        <ele>141.9</ele>
        <time>2022-06-28T06:09:15Z</time>
      </trkpt>
      <trkpt lat="48.79767" lon="2.17269">
        <ele>143</ele>
        <time>2022-06-28T06:09:23Z</time>
      </trkpt>
      <trkpt lat="48.7976" lon="2.17265">
        <ele>144.1</ele>
        <time>2022-06-28T06:09:28Z</time>
      </trkpt>
      <trkpt lat="48.79753" lon="2.17262">
        <ele>145.2</ele>
        <time>2022-06-28T06:09:34Z</time>
      </trkpt>
      <trkpt lat="48.79748" lon="2.17254">
        <ele>146.2</ele>
        <time>2022-06-28T06:09:43Z</time>
      </trkpt>
      <trkpt lat="48.79748" lon="2.17244">
        <ele>146.2</ele>
        <time>2022-06-28T06:09:49Z</time>
      </trkpt>
      <trkpt lat="48.79751" lon="2.17235">
        <ele>145.5</ele>
        <time>2022-06-28T06:09:54Z</time>
      </trkpt>
      <trkpt lat="48.79754" lon="2.17224">
        <ele>144.9</ele>
        <time>2022-06-28T06:10:00Z</time>
      </trkpt>
      <trkpt lat="48.79755" lon="2.17212">
        <ele>144.5</ele>
        <time>2022-06-28T06:10:05Z</time>
      </trkpt>
      <trkpt lat="48.79756" lon="2.172">
        <ele>144.1</ele>
        <time>2022-06-28T06:10:11Z</time>
      </trkpt>
      <trkpt lat="48.79757" lon="2.17189">
        <ele>143.7</ele>
        <time>2022-06-28T06:10:17Z</time>
      </trkpt>
      <trkpt lat="48.7976" lon="2.17179">
        <ele>143.1</ele>
        <time>2022-06-28T06:10:24Z</time>
      </trkpt>
      <trkpt lat="48.79765" lon="2.1717">
        <ele>142.3</ele>
        <time>2022-06-28T06:10:30Z</time>
      </trkpt>
      <trkpt lat="48.79768" lon="2.1716">
        <ele>141.9</ele>
        <time>2022-06-28T06:10:36Z</time>
      </trkpt>
      <trkpt lat="48.79769" lon="2.1715">
        <ele>141.9</ele>
        <time>2022-06-28T06:10:41Z</time>
      </trkpt>
      <trkpt lat="48.79769" lon="2.17138">
        <ele>142</ele>
        <time>2022-06-28T06:10:46Z</time>
      </trkpt>
      <trkpt lat="48.79772" lon="2.17128">
        <ele>141.7</ele>
        <time>2022-06-28T06:10:52Z</time>
      </trkpt>
      <trkpt lat="48.79773" lon="2.17117">
        <ele>141.7</ele>
        <time>2022-06-28T06:10:58Z</time>
      </trkpt>
      <trkpt lat="48.79775" lon="2.17107">
        <ele>141.5</ele>
        <time>2022-06-28T06:11:05Z</time>
      </trkpt>
      <trkpt lat="48.79774" lon="2.17097">
        <ele>141.7</ele>
        <time>2022-06-28T06:11:14Z</time>
      </trkpt>
      <trkpt lat="48.79774" lon="2.17085">
        <ele>141.8</ele>
        <time>2022-06-28T06:11:20Z</time>
      </trkpt>
      <trkpt lat="48.79776" lon="2.17075">
        <ele>141.9</ele>
        <time>2022-06-28T06:11:26Z</time>
      </trkpt>
      <trkpt lat="48.79778" lon="2.17064">
        <ele>142.1</ele>
        <time>2022-06-28T06:11:32Z</time>
      </trkpt>
      <trkpt lat="48.79781" lon="2.17053">
        <ele>142.1</ele>
        <time>2022-06-28T06:11:37Z</time>
      </trkpt>
      <trkpt lat="48.79784" lon="2.17041">
        <ele>142.2</ele>
        <time>2022-06-28T06:11:43Z</time>
      </trkpt>
      <trkpt lat="48.79786" lon="2.17029">
        <ele>142.5</ele>
        <time>2022-06-28T06:11:48Z</time>
      </trkpt>
      <trkpt lat="48.79781" lon="2.17022">
        <ele>143.4</ele>
        <time>2022-06-28T06:12:05Z</time>
      </trkpt>
      <trkpt lat="48.79778" lon="2.17013">
        <ele>144.1</ele>
        <time>2022-06-28T06:12:15Z</time>
      </trkpt>
      <trkpt lat="48.79775" lon="2.17003">
        <ele>144.9</ele>
        <time>2022-06-28T06:12:30Z</time>
      </trkpt>
      <trkpt lat="48.7977" lon="2.16997">
        <ele>145.8</ele>
        <time>2022-06-28T06:12:36Z</time>
      </trkpt>
      <trkpt lat="48.79763" lon="2.16994">
        <ele>146.8</ele>
        <time>2022-06-28T06:12:43Z</time>
      </trkpt>
      <trkpt lat="48.79757" lon="2.16988">
        <ele>148</ele>
        <time>2022-06-28T06:12:49Z</time>
      </trkpt>
      <trkpt lat="48.7975" lon="2.16985">
        <ele>149.1</ele>
        <time>2022-06-28T06:12:56Z</time>
      </trkpt>
      <trkpt lat="48.79745" lon="2.16979">
        <ele>150.6</ele>
        <time>2022-06-28T06:13:02Z</time>
      </trkpt>
      <trkpt lat="48.79738" lon="2.16976">
        <ele>152.3</ele>
        <time>2022-06-28T06:13:10Z</time>
      </trkpt>
      <trkpt lat="48.79734" lon="2.16969">
        <ele>153.7</ele>
        <time>2022-06-28T06:13:17Z</time>
      </trkpt>
      <trkpt lat="48.79728" lon="2.16962">
        <ele>155.4</ele>
        <time>2022-06-28T06:13:23Z</time>
      </trkpt>
      <trkpt lat="48.7972" lon="2.16961">
        <ele>157.1</ele>
        <time>2022-06-28T06:13:29Z</time>
      </trkpt>
      <trkpt lat="48.79714" lon="2.16958">
        <ele>158.6</ele>
        <time>2022-06-28T06:13:34Z</time>
      </trkpt>
      <trkpt lat="48.79707" lon="2.16957">
        <ele>160.1</ele>
        <time>2022-06-28T06:13:40Z</time>
      </trkpt>
      <trkpt lat="48.79701" lon="2.16954">
        <ele>161.5</ele>
        <time>2022-06-28T06:13:46Z</time>
      </trkpt>
      <trkpt lat="48.79694" lon="2.16954">
        <ele>163</ele>
        <time>2022-06-28T06:13:51Z</time>
      </trkpt>
      <trkpt lat="48.79688" lon="2.16948">
        <ele>164.5</ele>
        <time>2022-06-28T06:13:58Z</time>
      </trkpt>
      <trkpt lat="48.79684" lon="2.1694">
        <ele>165.7</ele>
        <time>2022-06-28T06:14:07Z</time>
      </trkpt>
      <trkpt lat="48.79681" lon="2.16931">
        <ele>166.6</ele>
        <time>2022-06-28T06:14:17Z</time>
      </trkpt>
      <trkpt lat="48.79675" lon="2.16925">
        <ele>168.1</ele>
        <time>2022-06-28T06:14:24Z</time>
      </trkpt>
      <trkpt lat="48.7967" lon="2.16918">
        <ele>169.3</ele>
        <time>2022-06-28T06:14:31Z</time>
      </trkpt>
      <trkpt lat="48.79663" lon="2.16913">
        <ele>170.6</ele>
        <time>2022-06-28T06:14:36Z</time>
      </trkpt>
      <trkpt lat="48.79658" lon="2.16906">
        <ele>171.5</ele>
        <time>2022-06-28T06:14:41Z</time>
      </trkpt>
      <trkpt lat="48.79652" lon="2.16903">
        <ele>172.3</ele>
        <time>2022-06-28T06:14:47Z</time>
      </trkpt>
      <trkpt lat="48.79646" lon="2.16898">
        <ele>173.2</ele>
        <time>2022-06-28T06:14:55Z</time>
      </trkpt>
      <trkpt lat="48.79641" lon="2.16891">
        <ele>173.9</ele>
        <time>2022-06-28T06:15:03Z</time>
      </trkpt>
      <trkpt lat="48.79639" lon="2.16881">
        <ele>174.5</ele>
        <time>2022-06-28T06:15:11Z</time>
      </trkpt>
      <trkpt lat="48.79636" lon="2.16872">
        <ele>175</ele>
        <time>2022-06-28T06:15:23Z</time>
      </trkpt>
      <trkpt lat="48.79644" lon="2.16863">
        <ele>174.6</ele>
        <time>2022-06-28T06:16:02Z</time>
      </trkpt>
      <trkpt lat="48.79648" lon="2.16878">
        <ele>173.7</ele>
        <time>2022-06-28T06:16:22Z</time>
      </trkpt>
      <trkpt lat="48.7964" lon="2.16874">
        <ele>174.6</ele>
        <time>2022-06-28T06:16:27Z</time>
      </trkpt>
      <trkpt lat="48.79632" lon="2.16868">
        <ele>175.5</ele>
        <time>2022-06-28T06:16:32Z</time>
      </trkpt>
      <trkpt lat="48.79626" lon="2.16863">
        <ele>176.2</ele>
        <time>2022-06-28T06:16:39Z</time>
      </trkpt>
      <trkpt lat="48.7962" lon="2.16859">
        <ele>176.8</ele>
        <time>2022-06-28T06:16:49Z</time>
      </trkpt>
      <trkpt lat="48.79617" lon="2.1685">
        <ele>177.3</ele>
        <time>2022-06-28T06:16:58Z</time>
      </trkpt>
      <trkpt lat="48.79614" lon="2.16841">
        <ele>177.7</ele>
        <time>2022-06-28T06:17:05Z</time>
      </trkpt>
      <trkpt lat="48.7961" lon="2.16833">
        <ele>178.1</ele>
        <time>2022-06-28T06:17:15Z</time>
      </trkpt>
      <trkpt lat="48.79604" lon="2.16828">
        <ele>178.3</ele>
        <time>2022-06-28T06:17:23Z</time>
      </trkpt>
      <trkpt lat="48.79599" lon="2.16821">
        <ele>178.4</ele>
        <time>2022-06-28T06:17:31Z</time>
      </trkpt>
      <trkpt lat="48.79594" lon="2.16814">
        <ele>178.4</ele>
        <time>2022-06-28T06:17:42Z</time>
      </trkpt>
      <trkpt lat="48.79588" lon="2.16811">
        <ele>178.7</ele>
        <time>2022-06-28T06:17:54Z</time>
      </trkpt>
      <trkpt lat="48.79581" lon="2.16807">
        <ele>178.7</ele>
        <time>2022-06-28T06:18:04Z</time>
      </trkpt>
      <trkpt lat="48.7958" lon="2.16798">
        <ele>178.3</ele>
        <time>2022-06-28T06:18:20Z</time>
      </trkpt>
      <trkpt lat="48.79574" lon="2.16791">
        <ele>177.9</ele>
        <time>2022-06-28T06:18:28Z</time>
      </trkpt>
      <trkpt lat="48.79577" lon="2.16783">
        <ele>177.5</ele>
        <time>2022-06-28T06:18:40Z</time>
      </trkpt>
      <trkpt lat="48.79582" lon="2.16773">
        <ele>177.1</ele>
        <time>2022-06-28T06:18:59Z</time>
      </trkpt>
      <trkpt lat="48.79589" lon="2.16768">
        <ele>176.7</ele>
        <time>2022-06-28T06:19:04Z</time>
      </trkpt>
      <trkpt lat="48.79594" lon="2.16759">
        <ele>176.1</ele>
        <time>2022-06-28T06:19:09Z</time>
      </trkpt>
      <trkpt lat="48.796" lon="2.16752">
        <ele>175.7</ele>
        <time>2022-06-28T06:19:15Z</time>
      </trkpt>
      <trkpt lat="48.79602" lon="2.16743">
        <ele>174.5</ele>
        <time>2022-06-28T06:19:20Z</time>
      </trkpt>
      <trkpt lat="48.796" lon="2.16733">
        <ele>173.2</ele>
        <time>2022-06-28T06:19:29Z</time>
      </trkpt>
      <trkpt lat="48.79593" lon="2.16728">
        <ele>172.6</ele>
        <time>2022-06-28T06:19:41Z</time>
      </trkpt>
      <trkpt lat="48.79587" lon="2.16726">
        <ele>172.5</ele>
        <time>2022-06-28T06:19:46Z</time>
      </trkpt>
      <trkpt lat="48.79579" lon="2.16721">
        <ele>171.7</ele>
        <time>2022-06-28T06:19:51Z</time>
      </trkpt>
      <trkpt lat="48.79574" lon="2.16715">
        <ele>170.7</ele>
        <time>2022-06-28T06:20:00Z</time>
      </trkpt>
      <trkpt lat="48.7957" lon="2.16706">
        <ele>169.3</ele>
        <time>2022-06-28T06:20:07Z</time>
      </trkpt>
      <trkpt lat="48.79565" lon="2.16699">
        <ele>168.1</ele>
        <time>2022-06-28T06:20:19Z</time>
      </trkpt>
      <trkpt lat="48.7956" lon="2.16706">
        <ele>169</ele>
        <time>2022-06-28T06:20:32Z</time>
      </trkpt>
      <trkpt lat="48.79555" lon="2.16711">
        <ele>169.5</ele>
        <time>2022-06-28T06:20:38Z</time>
      </trkpt>
      <trkpt lat="48.79549" lon="2.16715">
        <ele>170</ele>
        <time>2022-06-28T06:20:45Z</time>
      </trkpt>
      <trkpt lat="48.79542" lon="2.1672">
        <ele>170.5</ele>
        <time>2022-06-28T06:20:51Z</time>
      </trkpt>
      <trkpt lat="48.79537" lon="2.16727">
        <ele>171.4</ele>
        <time>2022-06-28T06:20:58Z</time>
      </trkpt>
      <trkpt lat="48.79532" lon="2.16736">
        <ele>172.6</ele>
        <time>2022-06-28T06:21:03Z</time>
      </trkpt>
      <trkpt lat="48.79528" lon="2.16745">
        <ele>173.9</ele>
        <time>2022-06-28T06:21:09Z</time>
      </trkpt>
      <trkpt lat="48.79524" lon="2.16755">
        <ele>174.9</ele>
        <time>2022-06-28T06:21:17Z</time>
      </trkpt>
      <trkpt lat="48.79517" lon="2.16756">
        <ele>174.8</ele>
        <time>2022-06-28T06:21:28Z</time>
      </trkpt>
      <trkpt lat="48.7951" lon="2.16762">
        <ele>175.1</ele>
        <time>2022-06-28T06:21:34Z</time>
      </trkpt>
      <trkpt lat="48.79502" lon="2.16766">
        <ele>175.2</ele>
        <time>2022-06-28T06:21:39Z</time>
      </trkpt>
      <trkpt lat="48.79494" lon="2.16769">
        <ele>175.7</ele>
        <time>2022-06-28T06:21:44Z</time>
      </trkpt>
      <trkpt lat="48.79487" lon="2.16769">
        <ele>176</ele>
        <time>2022-06-28T06:21:50Z</time>
      </trkpt>
      <trkpt lat="48.7948" lon="2.16769">
        <ele>176.3</ele>
        <time>2022-06-28T06:22:05Z</time>
      </trkpt>
      <trkpt lat="48.79474" lon="2.16773">
        <ele>176.9</ele>
        <time>2022-06-28T06:22:10Z</time>
      </trkpt>
      <trkpt lat="48.79468" lon="2.16776">
        <ele>177.3</ele>
        <time>2022-06-28T06:22:17Z</time>
      </trkpt>
      <trkpt lat="48.79461" lon="2.16779">
        <ele>177.8</ele>
        <time>2022-06-28T06:22:35Z</time>
      </trkpt>
      <trkpt lat="48.79454" lon="2.16783">
        <ele>178.3</ele>
        <time>2022-06-28T06:22:43Z</time>
      </trkpt>
      <trkpt lat="48.79449" lon="2.16789">
        <ele>178.7</ele>
        <time>2022-06-28T06:22:49Z</time>
      </trkpt>
      <trkpt lat="48.79442" lon="2.16792">
        <ele>179.1</ele>
        <time>2022-06-28T06:22:54Z</time>
      </trkpt>
      <trkpt lat="48.79435" lon="2.16788">
        <ele>179.2</ele>
        <time>2022-06-28T06:22:59Z</time>
      </trkpt>
      <trkpt lat="48.79428" lon="2.16786">
        <ele>179.4</ele>
        <time>2022-06-28T06:23:04Z</time>
      </trkpt>
      <trkpt lat="48.79421" lon="2.16784">
        <ele>179.6</ele>
        <time>2022-06-28T06:23:09Z</time>
      </trkpt>
      <trkpt lat="48.79412" lon="2.16778">
        <ele>179.5</ele>
        <time>2022-06-28T06:23:25Z</time>
      </trkpt>
      <trkpt lat="48.79408" lon="2.16786">
        <ele>179.5</ele>
        <time>2022-06-28T06:23:33Z</time>
      </trkpt>
      <trkpt lat="48.79401" lon="2.16788">
        <ele>179.2</ele>
        <time>2022-06-28T06:23:39Z</time>
      </trkpt>
      <trkpt lat="48.79394" lon="2.16791">
        <ele>178.9</ele>
        <time>2022-06-28T06:23:47Z</time>
      </trkpt>
      <trkpt lat="48.79386" lon="2.16794">
        <ele>178.5</ele>
        <time>2022-06-28T06:23:52Z</time>
      </trkpt>
      <trkpt lat="48.79379" lon="2.16794">
        <ele>178.2</ele>
        <time>2022-06-28T06:23:58Z</time>
      </trkpt>
      <trkpt lat="48.79372" lon="2.16797">
        <ele>177.8</ele>
        <time>2022-06-28T06:24:05Z</time>
      </trkpt>
      <trkpt lat="48.79365" lon="2.16799">
        <ele>177.5</ele>
        <time>2022-06-28T06:24:11Z</time>
      </trkpt>
      <trkpt lat="48.79359" lon="2.168">
        <ele>177.2</ele>
        <time>2022-06-28T06:24:16Z</time>
      </trkpt>
      <trkpt lat="48.79352" lon="2.16802">
        <ele>176.8</ele>
        <time>2022-06-28T06:24:21Z</time>
      </trkpt>
      <trkpt lat="48.79346" lon="2.16802">
        <ele>176.4</ele>
        <time>2022-06-28T06:24:26Z</time>
      </trkpt>
      <trkpt lat="48.79339" lon="2.16803">
        <ele>176</ele>
        <time>2022-06-28T06:24:35Z</time>
      </trkpt>
      <trkpt lat="48.79332" lon="2.16804">
        <ele>175.6</ele>
        <time>2022-06-28T06:24:46Z</time>
      </trkpt>
      <trkpt lat="48.79327" lon="2.16809">
        <ele>175.3</ele>
        <time>2022-06-28T06:24:55Z</time>
      </trkpt>
      <trkpt lat="48.7932" lon="2.16814">
        <ele>175</ele>
        <time>2022-06-28T06:25:03Z</time>
      </trkpt>
      <trkpt lat="48.79314" lon="2.16816">
        <ele>174.8</ele>
        <time>2022-06-28T06:25:08Z</time>
      </trkpt>
      <trkpt lat="48.79307" lon="2.1682">
        <ele>174.5</ele>
        <time>2022-06-28T06:25:13Z</time>
      </trkpt>
      <trkpt lat="48.79299" lon="2.16824">
        <ele>174.2</ele>
        <time>2022-06-28T06:25:18Z</time>
      </trkpt>
      <trkpt lat="48.7929" lon="2.16831">
        <ele>174</ele>
        <time>2022-06-28T06:25:23Z</time>
      </trkpt>
      <trkpt lat="48.79284" lon="2.16835">
        <ele>173.8</ele>
        <time>2022-06-28T06:25:29Z</time>
      </trkpt>
      <trkpt lat="48.79278" lon="2.16839">
        <ele>173.7</ele>
        <time>2022-06-28T06:25:36Z</time>
      </trkpt>
      <trkpt lat="48.79267" lon="2.16845">
        <ele>173.4</ele>
        <time>2022-06-28T06:25:41Z</time>
      </trkpt>
      <trkpt lat="48.79262" lon="2.16851">
        <ele>173.3</ele>
        <time>2022-06-28T06:25:46Z</time>
      </trkpt>
      <trkpt lat="48.79256" lon="2.16848">
        <ele>173.1</ele>
        <time>2022-06-28T06:25:51Z</time>
      </trkpt>
      <trkpt lat="48.79247" lon="2.16852">
        <ele>173.1</ele>
        <time>2022-06-28T06:25:58Z</time>
      </trkpt>
      <trkpt lat="48.79241" lon="2.16854">
        <ele>173.2</ele>
        <time>2022-06-28T06:26:04Z</time>
      </trkpt>
      <trkpt lat="48.79233" lon="2.16853">
        <ele>173.5</ele>
        <time>2022-06-28T06:26:09Z</time>
      </trkpt>
      <trkpt lat="48.79225" lon="2.16853">
        <ele>173.7</ele>
        <time>2022-06-28T06:26:16Z</time>
      </trkpt>
      <trkpt lat="48.79218" lon="2.16852">
        <ele>173.9</ele>
        <time>2022-06-28T06:26:21Z</time>
      </trkpt>
      <trkpt lat="48.79211" lon="2.16851">
        <ele>174</ele>
        <time>2022-06-28T06:26:26Z</time>
      </trkpt>
      <trkpt lat="48.79203" lon="2.16849">
        <ele>174.2</ele>
        <time>2022-06-28T06:26:32Z</time>
      </trkpt>
      <trkpt lat="48.79196" lon="2.16851">
        <ele>174.4</ele>
        <time>2022-06-28T06:26:38Z</time>
      </trkpt>
      <trkpt lat="48.7919" lon="2.16852">
        <ele>174.6</ele>
        <time>2022-06-28T06:26:45Z</time>
      </trkpt>
      <trkpt lat="48.79183" lon="2.16853">
        <ele>174.8</ele>
        <time>2022-06-28T06:26:50Z</time>
      </trkpt>
      <trkpt lat="48.79176" lon="2.16853">
        <ele>175</ele>
        <time>2022-06-28T06:26:55Z</time>
      </trkpt>
      <trkpt lat="48.79169" lon="2.16852">
        <ele>175.2</ele>
        <time>2022-06-28T06:27:00Z</time>
      </trkpt>
      <trkpt lat="48.79161" lon="2.16853">
        <ele>175.4</ele>
        <time>2022-06-28T06:27:05Z</time>
      </trkpt>
      <trkpt lat="48.79153" lon="2.16855">
        <ele>175.6</ele>
        <time>2022-06-28T06:27:11Z</time>
      </trkpt>
      <trkpt lat="48.79147" lon="2.16852">
        <ele>175.7</ele>
        <time>2022-06-28T06:27:17Z</time>
      </trkpt>
      <trkpt lat="48.7914" lon="2.16853">
        <ele>176</ele>
        <time>2022-06-28T06:27:23Z</time>
      </trkpt>
      <trkpt lat="48.79133" lon="2.16855">
        <ele>176.2</ele>
        <time>2022-06-28T06:27:29Z</time>
      </trkpt>
      <trkpt lat="48.79126" lon="2.16859">
        <ele>176.4</ele>
        <time>2022-06-28T06:27:36Z</time>
      </trkpt>
      <trkpt lat="48.79118" lon="2.1686">
        <ele>176.7</ele>
        <time>2022-06-28T06:27:44Z</time>
      </trkpt>
      <trkpt lat="48.79112" lon="2.16859">
        <ele>176.8</ele>
        <time>2022-06-28T06:27:50Z</time>
      </trkpt>
      <trkpt lat="48.79106" lon="2.16852">
        <ele>176.8</ele>
        <time>2022-06-28T06:27:57Z</time>
      </trkpt>
      <trkpt lat="48.79097" lon="2.16846">
        <ele>177</ele>
        <time>2022-06-28T06:28:25Z</time>
      </trkpt>
      <trkpt lat="48.79094" lon="2.16836">
        <ele>176.8</ele>
        <time>2022-06-28T06:28:47Z</time>
      </trkpt>
      <trkpt lat="48.79101" lon="2.16835">
        <ele>176.6</ele>
        <time>2022-06-28T06:29:00Z</time>
      </trkpt>
      <trkpt lat="48.79101" lon="2.16825">
        <ele>176.1</ele>
        <time>2022-06-28T06:29:15Z</time>
      </trkpt>
      <trkpt lat="48.79103" lon="2.16815">
        <ele>175.4</ele>
        <time>2022-06-28T06:29:23Z</time>
      </trkpt>
      <trkpt lat="48.79101" lon="2.16805">
        <ele>174.9</ele>
        <time>2022-06-28T06:29:33Z</time>
      </trkpt>
      <trkpt lat="48.79097" lon="2.16797">
        <ele>174.5</ele>
        <time>2022-06-28T06:29:38Z</time>
      </trkpt>
      <trkpt lat="48.79096" lon="2.16787">
        <ele>173.9</ele>
        <time>2022-06-28T06:29:44Z</time>
      </trkpt>
      <trkpt lat="48.79095" lon="2.16776">
        <ele>173.3</ele>
        <time>2022-06-28T06:29:50Z</time>
      </trkpt>
      <trkpt lat="48.79097" lon="2.16765">
        <ele>172.6</ele>
        <time>2022-06-28T06:29:58Z</time>
      </trkpt>
      <trkpt lat="48.79097" lon="2.16753">
        <ele>171.9</ele>
        <time>2022-06-28T06:30:05Z</time>
      </trkpt>
      <trkpt lat="48.79097" lon="2.16741">
        <ele>170.7</ele>
        <time>2022-06-28T06:30:10Z</time>
      </trkpt>
      <trkpt lat="48.79097" lon="2.16731">
        <ele>169.6</ele>
        <time>2022-06-28T06:30:16Z</time>
      </trkpt>
      <trkpt lat="48.79096" lon="2.1672">
        <ele>168.5</ele>
        <time>2022-06-28T06:30:23Z</time>
      </trkpt>
      <trkpt lat="48.79096" lon="2.1671">
        <ele>167.4</ele>
        <time>2022-06-28T06:30:29Z</time>
      </trkpt>
      <trkpt lat="48.79094" lon="2.16697">
        <ele>166</ele>
        <time>2022-06-28T06:30:35Z</time>
      </trkpt>
      <trkpt lat="48.79092" lon="2.16686">
        <ele>164.9</ele>
        <time>2022-06-28T06:30:42Z</time>
      </trkpt>
      <trkpt lat="48.79095" lon="2.16675">
        <ele>163.6</ele>
        <time>2022-06-28T06:30:47Z</time>
      </trkpt>
      <trkpt lat="48.79094" lon="2.16665">
        <ele>162.6</ele>
        <time>2022-06-28T06:31:06Z</time>
      </trkpt>
      <trkpt lat="48.79093" lon="2.16655">
        <ele>161.5</ele>
        <time>2022-06-28T06:31:11Z</time>
      </trkpt>
      <trkpt lat="48.79092" lon="2.16644">
        <ele>160.4</ele>
        <time>2022-06-28T06:31:19Z</time>
      </trkpt>
      <trkpt lat="48.79093" lon="2.16634">
        <ele>159.3</ele>
        <time>2022-06-28T06:31:26Z</time>
      </trkpt>
      <trkpt lat="48.7909" lon="2.16625">
        <ele>158.4</ele>
        <time>2022-06-28T06:31:33Z</time>
      </trkpt>
      <trkpt lat="48.79092" lon="2.16612">
        <ele>157</ele>
        <time>2022-06-28T06:31:38Z</time>
      </trkpt>
      <trkpt lat="48.79095" lon="2.16602">
        <ele>156</ele>
        <time>2022-06-28T06:31:43Z</time>
      </trkpt>
      <trkpt lat="48.79095" lon="2.1659">
        <ele>154.7</ele>
        <time>2022-06-28T06:31:54Z</time>
      </trkpt>
      <trkpt lat="48.79093" lon="2.16579">
        <ele>153.5</ele>
        <time>2022-06-28T06:32:02Z</time>
      </trkpt>
      <trkpt lat="48.79093" lon="2.16569">
        <ele>152.5</ele>
        <time>2022-06-28T06:32:09Z</time>
      </trkpt>
      <trkpt lat="48.79092" lon="2.16556">
        <ele>151.1</ele>
        <time>2022-06-28T06:32:14Z</time>
      </trkpt>
      <trkpt lat="48.79092" lon="2.16544">
        <ele>149.9</ele>
        <time>2022-06-28T06:32:19Z</time>
      </trkpt>
      <trkpt lat="48.79091" lon="2.16534">
        <ele>148.8</ele>
        <time>2022-06-28T06:32:26Z</time>
      </trkpt>
      <trkpt lat="48.79088" lon="2.16524">
        <ele>147.7</ele>
        <time>2022-06-28T06:32:32Z</time>
      </trkpt>
      <trkpt lat="48.79089" lon="2.16513">
        <ele>146.5</ele>
        <time>2022-06-28T06:32:38Z</time>
      </trkpt>
      <trkpt lat="48.7909" lon="2.16503">
        <ele>145.5</ele>
        <time>2022-06-28T06:32:43Z</time>
      </trkpt>
      <trkpt lat="48.79087" lon="2.16493">
        <ele>144.5</ele>
        <time>2022-06-28T06:32:49Z</time>
      </trkpt>
      <trkpt lat="48.79086" lon="2.16483">
        <ele>143.6</ele>
        <time>2022-06-28T06:32:57Z</time>
      </trkpt>
      <trkpt lat="48.7908" lon="2.16471">
        <ele>142.6</ele>
        <time>2022-06-28T06:33:05Z</time>
      </trkpt>
      <trkpt lat="48.79081" lon="2.16484">
        <ele>143.7</ele>
        <time>2022-06-28T06:33:42Z</time>
      </trkpt>
      <trkpt lat="48.79088" lon="2.16487">
        <ele>144</ele>
        <time>2022-06-28T06:33:56Z</time>
      </trkpt>
      <trkpt lat="48.79082" lon="2.16477">
        <ele>143.1</ele>
        <time>2022-06-28T06:34:01Z</time>
      </trkpt>
      <trkpt lat="48.79086" lon="2.16468">
        <ele>142.4</ele>
        <time>2022-06-28T06:34:08Z</time>
      </trkpt>
      <trkpt lat="48.79075" lon="2.16465">
        <ele>142.2</ele>
        <time>2022-06-28T06:34:29Z</time>
      </trkpt>
      <trkpt lat="48.79083" lon="2.16466">
        <ele>142.1</ele>
        <time>2022-06-28T06:34:42Z</time>
      </trkpt>
      <trkpt lat="48.79078" lon="2.16459">
        <ele>141.7</ele>
        <time>2022-06-28T06:34:57Z</time>
      </trkpt>
      <trkpt lat="48.79072" lon="2.16454">
        <ele>141.4</ele>
        <time>2022-06-28T06:35:04Z</time>
      </trkpt>
      <trkpt lat="48.79066" lon="2.16451">
        <ele>141.3</ele>
        <time>2022-06-28T06:35:11Z</time>
      </trkpt>
      <trkpt lat="48.79061" lon="2.16445">
        <ele>140.9</ele>
        <time>2022-06-28T06:35:19Z</time>
      </trkpt>
      <trkpt lat="48.79055" lon="2.1644">
        <ele>140.7</ele>
        <time>2022-06-28T06:35:26Z</time>
      </trkpt>
      <trkpt lat="48.79049" lon="2.16434">
        <ele>140.4</ele>
        <time>2022-06-28T06:35:32Z</time>
      </trkpt>
      <trkpt lat="48.79043" lon="2.16427">
        <ele>140.1</ele>
        <time>2022-06-28T06:35:42Z</time>
      </trkpt>
      <trkpt lat="48.79037" lon="2.16423">
        <ele>140.1</ele>
        <time>2022-06-28T06:35:50Z</time>
      </trkpt>
      <trkpt lat="48.7903" lon="2.1642">
        <ele>140.1</ele>
        <time>2022-06-28T06:35:55Z</time>
      </trkpt>
      <trkpt lat="48.79024" lon="2.16414">
        <ele>140.1</ele>
        <time>2022-06-28T06:36:00Z</time>
      </trkpt>
      <trkpt lat="48.79017" lon="2.16407">
        <ele>140.1</ele>
        <time>2022-06-28T06:36:05Z</time>
      </trkpt>
      <trkpt lat="48.79011" lon="2.16401">
        <ele>140.2</ele>
        <time>2022-06-28T06:36:11Z</time>
      </trkpt>
      <trkpt lat="48.79005" lon="2.16397">
        <ele>140.3</ele>
        <time>2022-06-28T06:36:16Z</time>
      </trkpt>
      <trkpt lat="48.78997" lon="2.16395">
        <ele>140.6</ele>
        <time>2022-06-28T06:36:22Z</time>
      </trkpt>
      <trkpt lat="48.78991" lon="2.16391">
        <ele>140.6</ele>
        <time>2022-06-28T06:36:27Z</time>
      </trkpt>
      <trkpt lat="48.78985" lon="2.16387">
        <ele>140.6</ele>
        <time>2022-06-28T06:36:39Z</time>
      </trkpt>
      <trkpt lat="48.78983" lon="2.16376">
        <ele>140.3</ele>
        <time>2022-06-28T06:36:48Z</time>
      </trkpt>
      <trkpt lat="48.78981" lon="2.16367">
        <ele>140.1</ele>
        <time>2022-06-28T06:36:55Z</time>
      </trkpt>
      <trkpt lat="48.78979" lon="2.16357">
        <ele>139.8</ele>
        <time>2022-06-28T06:37:01Z</time>
      </trkpt>
      <trkpt lat="48.78983" lon="2.16349">
        <ele>139.5</ele>
        <time>2022-06-28T06:37:12Z</time>
      </trkpt>
      <trkpt lat="48.78987" lon="2.16341">
        <ele>139.2</ele>
        <time>2022-06-28T06:37:17Z</time>
      </trkpt>
      <trkpt lat="48.7899" lon="2.16331">
        <ele>138.9</ele>
        <time>2022-06-28T06:37:22Z</time>
      </trkpt>
      <trkpt lat="48.78994" lon="2.1632">
        <ele>138.6</ele>
        <time>2022-06-28T06:37:30Z</time>
      </trkpt>
      <trkpt lat="48.78996" lon="2.1631">
        <ele>138.3</ele>
        <time>2022-06-28T06:37:35Z</time>
      </trkpt>
      <trkpt lat="48.78998" lon="2.163">
        <ele>137.9</ele>
        <time>2022-06-28T06:37:41Z</time>
      </trkpt>
      <trkpt lat="48.78998" lon="2.1629">
        <ele>137.6</ele>
        <time>2022-06-28T06:37:47Z</time>
      </trkpt>
      <trkpt lat="48.78999" lon="2.16279">
        <ele>137.1</ele>
        <time>2022-06-28T06:37:53Z</time>
      </trkpt>
      <trkpt lat="48.78999" lon="2.16269">
        <ele>136.8</ele>
        <time>2022-06-28T06:38:00Z</time>
      </trkpt>
      <trkpt lat="48.78995" lon="2.16255">
        <ele>136.7</ele>
        <time>2022-06-28T06:38:05Z</time>
      </trkpt>
      <trkpt lat="48.78992" lon="2.16246">
        <ele>136.9</ele>
        <time>2022-06-28T06:38:11Z</time>
      </trkpt>
      <trkpt lat="48.78993" lon="2.16235">
        <ele>136.9</ele>
        <time>2022-06-28T06:38:24Z</time>
      </trkpt>
      <trkpt lat="48.78993" lon="2.16247">
        <ele>136.8</ele>
        <time>2022-06-28T06:38:49Z</time>
      </trkpt>
      <trkpt lat="48.78991" lon="2.16256">
        <ele>137.1</ele>
        <time>2022-06-28T06:38:55Z</time>
      </trkpt>
      <trkpt lat="48.78989" lon="2.16266">
        <ele>137.5</ele>
        <time>2022-06-28T06:39:02Z</time>
      </trkpt>
      <trkpt lat="48.78985" lon="2.16275">
        <ele>138</ele>
        <time>2022-06-28T06:39:10Z</time>
      </trkpt>
      <trkpt lat="48.78979" lon="2.16282">
        <ele>138.5</ele>
        <time>2022-06-28T06:39:20Z</time>
      </trkpt>
      <trkpt lat="48.78975" lon="2.16289">
        <ele>138.8</ele>
        <time>2022-06-28T06:39:27Z</time>
      </trkpt>
      <trkpt lat="48.78986" lon="2.16293">
        <ele>138.3</ele>
        <time>2022-06-28T06:39:58Z</time>
      </trkpt>
      <trkpt lat="48.78992" lon="2.16288">
        <ele>137.8</ele>
        <time>2022-06-28T06:40:20Z</time>
      </trkpt>
      <trkpt lat="48.79" lon="2.1629">
        <ele>137.4</ele>
        <time>2022-06-28T06:40:25Z</time>
      </trkpt>
      <trkpt lat="48.79006" lon="2.16286">
        <ele>136.8</ele>
        <time>2022-06-28T06:40:30Z</time>
      </trkpt>
      <trkpt lat="48.79013" lon="2.1628">
        <ele>136.1</ele>
        <time>2022-06-28T06:40:37Z</time>
      </trkpt>
      <trkpt lat="48.79017" lon="2.16272">
        <ele>135.4</ele>
        <time>2022-06-28T06:40:42Z</time>
      </trkpt>
      <trkpt lat="48.79016" lon="2.16261">
        <ele>135</ele>
        <time>2022-06-28T06:40:50Z</time>
      </trkpt>
      <trkpt lat="48.79019" lon="2.16252">
        <ele>134.3</ele>
        <time>2022-06-28T06:40:58Z</time>
      </trkpt>
      <trkpt lat="48.79023" lon="2.16242">
        <ele>133.8</ele>
        <time>2022-06-28T06:41:08Z</time>
      </trkpt>
      <trkpt lat="48.79028" lon="2.16231">
        <ele>133.4</ele>
        <time>2022-06-28T06:41:13Z</time>
      </trkpt>
      <trkpt lat="48.79033" lon="2.16224">
        <ele>132.9</ele>
        <time>2022-06-28T06:41:21Z</time>
      </trkpt>
      <trkpt lat="48.7903" lon="2.16215">
        <ele>133.2</ele>
        <time>2022-06-28T06:41:42Z</time>
      </trkpt>
      <trkpt lat="48.79035" lon="2.16206">
        <ele>132.7</ele>
        <time>2022-06-28T06:41:48Z</time>
      </trkpt>
      <trkpt lat="48.79041" lon="2.16202">
        <ele>132.1</ele>
        <time>2022-06-28T06:41:57Z</time>
      </trkpt>
      <trkpt lat="48.79035" lon="2.16201">
        <ele>132.7</ele>
        <time>2022-06-28T06:42:24Z</time>
      </trkpt>
      <trkpt lat="48.79037" lon="2.16191">
        <ele>132.5</ele>
        <time>2022-06-28T06:42:32Z</time>
      </trkpt>
      <trkpt lat="48.79044" lon="2.16186">
        <ele>131.7</ele>
        <time>2022-06-28T06:42:37Z</time>
      </trkpt>
      <trkpt lat="48.79048" lon="2.16177">
        <ele>131.3</ele>
        <time>2022-06-28T06:42:43Z</time>
      </trkpt>
      <trkpt lat="48.79051" lon="2.16168">
        <ele>130.9</ele>
        <time>2022-06-28T06:42:49Z</time>
      </trkpt>
      <trkpt lat="48.79056" lon="2.1616">
        <ele>130.3</ele>
        <time>2022-06-28T06:42:55Z</time>
      </trkpt>
      <trkpt lat="48.79063" lon="2.16152">
        <ele>129.5</ele>
        <time>2022-06-28T06:43:00Z</time>
      </trkpt>
      <trkpt lat="48.79068" lon="2.16144">
        <ele>128.9</ele>
        <time>2022-06-28T06:43:05Z</time>
      </trkpt>
      <trkpt lat="48.79073" lon="2.16137">
        <ele>128.3</ele>
        <time>2022-06-28T06:43:12Z</time>
      </trkpt>
      <trkpt lat="48.79075" lon="2.16126">
        <ele>128</ele>
        <time>2022-06-28T06:43:34Z</time>
      </trkpt>
      <trkpt lat="48.79074" lon="2.16115">
        <ele>128.2</ele>
        <time>2022-06-28T06:43:51Z</time>
      </trkpt>
      <trkpt lat="48.79071" lon="2.16106">
        <ele>128.6</ele>
        <time>2022-06-28T06:43:58Z</time>
      </trkpt>
      <trkpt lat="48.79079" lon="2.16105">
        <ele>127.6</ele>
        <time>2022-06-28T06:44:03Z</time>
      </trkpt>
      <trkpt lat="48.79075" lon="2.16114">
        <ele>128.1</ele>
        <time>2022-06-28T06:44:14Z</time>
      </trkpt>
      <trkpt lat="48.79069" lon="2.16119">
        <ele>128.8</ele>
        <time>2022-06-28T06:44:22Z</time>
      </trkpt>
      <trkpt lat="48.79062" lon="2.16126">
        <ele>129.7</ele>
        <time>2022-06-28T06:44:28Z</time>
      </trkpt>
      <trkpt lat="48.79059" lon="2.16135">
        <ele>130</ele>
        <time>2022-06-28T06:44:34Z</time>
      </trkpt>
      <trkpt lat="48.79055" lon="2.16143">
        <ele>130.5</ele>
        <time>2022-06-28T06:44:41Z</time>
      </trkpt>
      <trkpt lat="48.79052" lon="2.16154">
        <ele>130.8</ele>
        <time>2022-06-28T06:44:46Z</time>
      </trkpt>
      <trkpt lat="48.7905" lon="2.16163">
        <ele>131</ele>
        <time>2022-06-28T06:44:51Z</time>
      </trkpt>
      <trkpt lat="48.79045" lon="2.16172">
        <ele>131.6</ele>
        <time>2022-06-28T06:44:56Z</time>
      </trkpt>
      <trkpt lat="48.79038" lon="2.16173">
        <ele>132.4</ele>
        <time>2022-06-28T06:45:01Z</time>
      </trkpt>
      <trkpt lat="48.79032" lon="2.16176">
        <ele>133.1</ele>
        <time>2022-06-28T06:45:08Z</time>
      </trkpt>
      <trkpt lat="48.79025" lon="2.16175">
        <ele>134</ele>
        <time>2022-06-28T06:45:17Z</time>
      </trkpt>
      <trkpt lat="48.79018" lon="2.16176">
        <ele>134.8</ele>
        <time>2022-06-28T06:45:22Z</time>
      </trkpt>
      <trkpt lat="48.79011" lon="2.16177">
        <ele>135.6</ele>
        <time>2022-06-28T06:45:28Z</time>
      </trkpt>
      <trkpt lat="48.79004" lon="2.16179">
        <ele>136.4</ele>
        <time>2022-06-28T06:45:33Z</time>
      </trkpt>
      <trkpt lat="48.78997" lon="2.16181">
        <ele>137.1</ele>
        <time>2022-06-28T06:45:39Z</time>
      </trkpt>
      <trkpt lat="48.78989" lon="2.16183">
        <ele>137.9</ele>
        <time>2022-06-28T06:45:46Z</time>
      </trkpt>
      <trkpt lat="48.78981" lon="2.1618">
        <ele>138.7</ele>
        <time>2022-06-28T06:45:52Z</time>
      </trkpt>
      <trkpt lat="48.78975" lon="2.16186">
        <ele>139.2</ele>
        <time>2022-06-28T06:46:03Z</time>
      </trkpt>
      <trkpt lat="48.7897" lon="2.16193">
        <ele>139.7</ele>
        <time>2022-06-28T06:46:24Z</time>
      </trkpt>
      <trkpt lat="48.78969" lon="2.16203">
        <ele>139.7</ele>
        <time>2022-06-28T06:46:30Z</time>
      </trkpt>
      <trkpt lat="48.78965" lon="2.16211">
        <ele>140.1</ele>
        <time>2022-06-28T06:46:36Z</time>
      </trkpt>
      <trkpt lat="48.78965" lon="2.16222">
        <ele>140</ele>
        <time>2022-06-28T06:46:42Z</time>
      </trkpt>
      <trkpt lat="48.78961" lon="2.16231">
        <ele>140.3</ele>
        <time>2022-06-28T06:46:48Z</time>
      </trkpt>
      <trkpt lat="48.78957" lon="2.1624">
        <ele>140.7</ele>
        <time>2022-06-28T06:46:53Z</time>
      </trkpt>
      <trkpt lat="48.78952" lon="2.16248">
        <ele>141.2</ele>
        <time>2022-06-28T06:46:58Z</time>
      </trkpt>
      <trkpt lat="48.78945" lon="2.16252">
        <ele>141.9</ele>
        <time>2022-06-28T06:47:05Z</time>
      </trkpt>
      <trkpt lat="48.78939" lon="2.1625">
        <ele>142.6</ele>
        <time>2022-06-28T06:47:13Z</time>
      </trkpt>
      <trkpt lat="48.78933" lon="2.16244">
        <ele>143.3</ele>
        <time>2022-06-28T06:47:28Z</time>
      </trkpt>
      <trkpt lat="48.78928" lon="2.16237">
        <ele>143.8</ele>
        <time>2022-06-28T06:47:40Z</time>
      </trkpt>
      <trkpt lat="48.78922" lon="2.1623">
        <ele>144.4</ele>
        <time>2022-06-28T06:47:48Z</time>
      </trkpt>
      <trkpt lat="48.78916" lon="2.16231">
        <ele>145.1</ele>
        <time>2022-06-28T06:47:57Z</time>
      </trkpt>
      <trkpt lat="48.78909" lon="2.1623">
        <ele>146</ele>
        <time>2022-06-28T06:48:06Z</time>
      </trkpt>
      <trkpt lat="48.78902" lon="2.16232">
        <ele>146.8</ele>
        <time>2022-06-28T06:48:15Z</time>
      </trkpt>
      <trkpt lat="48.78895" lon="2.16234">
        <ele>147.7</ele>
        <time>2022-06-28T06:48:20Z</time>
      </trkpt>
      <trkpt lat="48.78888" lon="2.16231">
        <ele>148.6</ele>
        <time>2022-06-28T06:48:25Z</time>
      </trkpt>
      <trkpt lat="48.78885" lon="2.16222">
        <ele>149.1</ele>
        <time>2022-06-28T06:48:31Z</time>
      </trkpt>
      <trkpt lat="48.78883" lon="2.1621">
        <ele>149.4</ele>
        <time>2022-06-28T06:48:38Z</time>
      </trkpt>
      <trkpt lat="48.78879" lon="2.16203">
        <ele>150</ele>
        <time>2022-06-28T06:48:45Z</time>
      </trkpt>
      <trkpt lat="48.78872" lon="2.16204">
        <ele>151</ele>
        <time>2022-06-28T06:48:51Z</time>
      </trkpt>
      <trkpt lat="48.78861" lon="2.16202">
        <ele>152.4</ele>
        <time>2022-06-28T06:48:56Z</time>
      </trkpt>
      <trkpt lat="48.78854" lon="2.16199">
        <ele>153.4</ele>
        <time>2022-06-28T06:49:02Z</time>
      </trkpt>
      <trkpt lat="48.78848" lon="2.16199">
        <ele>154.2</ele>
        <time>2022-06-28T06:49:08Z</time>
      </trkpt>
      <trkpt lat="48.78841" lon="2.16203">
        <ele>155.1</ele>
        <time>2022-06-28T06:49:16Z</time>
      </trkpt>
      <trkpt lat="48.78835" lon="2.16205">
        <ele>155.9</ele>
        <time>2022-06-28T06:49:23Z</time>
      </trkpt>
      <trkpt lat="48.78828" lon="2.16205">
        <ele>157.1</ele>
        <time>2022-06-28T06:49:32Z</time>
      </trkpt>
      <trkpt lat="48.7882" lon="2.16204">
        <ele>158.7</ele>
        <time>2022-06-28T06:49:38Z</time>
      </trkpt>
      <trkpt lat="48.78813" lon="2.16198">
        <ele>160.2</ele>
        <time>2022-06-28T06:49:43Z</time>
      </trkpt>
      <trkpt lat="48.78812" lon="2.16187">
        <ele>160.7</ele>
        <time>2022-06-28T06:50:01Z</time>
      </trkpt>
      <trkpt lat="48.78818" lon="2.1619">
        <ele>159.4</ele>
        <time>2022-06-28T06:50:26Z</time>
      </trkpt>
      <trkpt lat="48.78815" lon="2.16199">
        <ele>159.8</ele>
        <time>2022-06-28T06:50:33Z</time>
      </trkpt>
      <trkpt lat="48.78813" lon="2.16189">
        <ele>160.4</ele>
        <time>2022-06-28T06:50:48Z</time>
      </trkpt>
      <trkpt lat="48.78814" lon="2.16177">
        <ele>160.5</ele>
        <time>2022-06-28T06:50:59Z</time>
      </trkpt>
      <trkpt lat="48.78812" lon="2.16167">
        <ele>161.1</ele>
        <time>2022-06-28T06:51:06Z</time>
      </trkpt>
      <trkpt lat="48.78811" lon="2.16157">
        <ele>160.2</ele>
        <time>2022-06-28T06:51:14Z</time>
      </trkpt>
      <trkpt lat="48.78812" lon="2.16146">
        <ele>158.7</ele>
        <time>2022-06-28T06:51:36Z</time>
      </trkpt>
      <trkpt lat="48.78809" lon="2.16134">
        <ele>157.9</ele>
        <time>2022-06-28T06:51:54Z</time>
      </trkpt>
      <trkpt lat="48.78811" lon="2.16124">
        <ele>156.3</ele>
        <time>2022-06-28T06:52:00Z</time>
      </trkpt>
      <trkpt lat="48.78811" lon="2.16114">
        <ele>155.2</ele>
        <time>2022-06-28T06:52:06Z</time>
      </trkpt>
      <trkpt lat="48.78812" lon="2.16103">
        <ele>153.7</ele>
        <time>2022-06-28T06:52:23Z</time>
      </trkpt>
      <trkpt lat="48.78815" lon="2.16092">
        <ele>151.6</ele>
        <time>2022-06-28T06:52:29Z</time>
      </trkpt>
      <trkpt lat="48.78817" lon="2.16078">
        <ele>150</ele>
        <time>2022-06-28T06:52:34Z</time>
      </trkpt>
      <trkpt lat="48.78813" lon="2.16069">
        <ele>150.7</ele>
        <time>2022-06-28T06:52:41Z</time>
      </trkpt>
      <trkpt lat="48.78811" lon="2.16058">
        <ele>150.8</ele>
        <time>2022-06-28T06:52:49Z</time>
      </trkpt>
      <trkpt lat="48.78815" lon="2.16048">
        <ele>149.5</ele>
        <time>2022-06-28T06:52:54Z</time>
      </trkpt>
      <trkpt lat="48.78816" lon="2.16036">
        <ele>148.9</ele>
        <time>2022-06-28T06:53:03Z</time>
      </trkpt>
      <trkpt lat="48.78818" lon="2.16024">
        <ele>148</ele>
        <time>2022-06-28T06:53:08Z</time>
      </trkpt>
      <trkpt lat="48.78818" lon="2.16014">
        <ele>147.7</ele>
        <time>2022-06-28T06:53:16Z</time>
      </trkpt>
      <trkpt lat="48.78814" lon="2.16007">
        <ele>148.4</ele>
        <time>2022-06-28T06:53:22Z</time>
      </trkpt>
      <trkpt lat="48.7881" lon="2.15997">
        <ele>149.2</ele>
        <time>2022-06-28T06:53:27Z</time>
      </trkpt>
      <trkpt lat="48.78812" lon="2.15985">
        <ele>149.5</ele>
        <time>2022-06-28T06:53:34Z</time>
      </trkpt>
      <trkpt lat="48.78811" lon="2.15976">
        <ele>150.2</ele>
        <time>2022-06-28T06:53:39Z</time>
      </trkpt>
      <trkpt lat="48.7881" lon="2.15963">
        <ele>151.1</ele>
        <time>2022-06-28T06:53:44Z</time>
      </trkpt>
      <trkpt lat="48.78809" lon="2.15953">
        <ele>151.8</ele>
        <time>2022-06-28T06:53:51Z</time>
      </trkpt>
      <trkpt lat="48.78806" lon="2.15943">
        <ele>152.9</ele>
        <time>2022-06-28T06:54:01Z</time>
      </trkpt>
      <trkpt lat="48.7881" lon="2.15933">
        <ele>152.7</ele>
        <time>2022-06-28T06:54:09Z</time>
      </trkpt>
      <trkpt lat="48.78812" lon="2.15923">
        <ele>153</ele>
        <time>2022-06-28T06:54:20Z</time>
      </trkpt>
      <trkpt lat="48.78814" lon="2.15912">
        <ele>153.5</ele>
        <time>2022-06-28T06:54:26Z</time>
      </trkpt>
      <trkpt lat="48.78812" lon="2.15903">
        <ele>154.7</ele>
        <time>2022-06-28T06:54:42Z</time>
      </trkpt>
      <trkpt lat="48.78807" lon="2.15896">
        <ele>156.2</ele>
        <time>2022-06-28T06:54:55Z</time>
      </trkpt>
      <trkpt lat="48.788" lon="2.15893">
        <ele>157.6</ele>
        <time>2022-06-28T06:55:02Z</time>
      </trkpt>
      <trkpt lat="48.78794" lon="2.15893">
        <ele>158.5</ele>
        <time>2022-06-28T06:55:13Z</time>
      </trkpt>
      <trkpt lat="48.78787" lon="2.15897">
        <ele>159.2</ele>
        <time>2022-06-28T06:55:22Z</time>
      </trkpt>
      <trkpt lat="48.78781" lon="2.15899">
        <ele>160</ele>
        <time>2022-06-28T06:55:27Z</time>
      </trkpt>
      <trkpt lat="48.78773" lon="2.15898">
        <ele>161.4</ele>
        <time>2022-06-28T06:55:32Z</time>
      </trkpt>
      <trkpt lat="48.78768" lon="2.15892">
        <ele>162.8</ele>
        <time>2022-06-28T06:55:37Z</time>
      </trkpt>
      <trkpt lat="48.78761" lon="2.1589">
        <ele>164.1</ele>
        <time>2022-06-28T06:56:03Z</time>
      </trkpt>
      <trkpt lat="48.7876" lon="2.15878">
        <ele>165.6</ele>
        <time>2022-06-28T06:56:08Z</time>
      </trkpt>
      <trkpt lat="48.78761" lon="2.15868">
        <ele>166.5</ele>
        <time>2022-06-28T06:56:13Z</time>
      </trkpt>
      <trkpt lat="48.78763" lon="2.15858">
        <ele>167.2</ele>
        <time>2022-06-28T06:56:25Z</time>
      </trkpt>
      <trkpt lat="48.7876" lon="2.15848">
        <ele>168.8</ele>
        <time>2022-06-28T06:56:35Z</time>
      </trkpt>
      <trkpt lat="48.78753" lon="2.15846">
        <ele>170.1</ele>
        <time>2022-06-28T06:56:45Z</time>
      </trkpt>
      <trkpt lat="48.78753" lon="2.15836">
        <ele>171.2</ele>
        <time>2022-06-28T06:56:53Z</time>
      </trkpt>
      <trkpt lat="48.78751" lon="2.15826">
        <ele>172.5</ele>
        <time>2022-06-28T06:57:00Z</time>
      </trkpt>
      <trkpt lat="48.7875" lon="2.15815">
        <ele>173.5</ele>
        <time>2022-06-28T06:57:07Z</time>
      </trkpt>
      <trkpt lat="48.7875" lon="2.15805">
        <ele>174.4</ele>
        <time>2022-06-28T06:57:12Z</time>
      </trkpt>
      <trkpt lat="48.78752" lon="2.15793">
        <ele>175.1</ele>
        <time>2022-06-28T06:57:40Z</time>
      </trkpt>
      <trkpt lat="48.78745" lon="2.15796">
        <ele>175.5</ele>
        <time>2022-06-28T06:57:54Z</time>
      </trkpt>
      <trkpt lat="48.78739" lon="2.15799">
        <ele>175.6</ele>
        <time>2022-06-28T06:58:01Z</time>
      </trkpt>
      <trkpt lat="48.78732" lon="2.158">
        <ele>176.1</ele>
        <time>2022-06-28T06:58:08Z</time>
      </trkpt>
      <trkpt lat="48.78726" lon="2.15803">
        <ele>176.3</ele>
        <time>2022-06-28T06:58:15Z</time>
      </trkpt>
      <trkpt lat="48.78719" lon="2.15807">
        <ele>176.6</ele>
        <time>2022-06-28T06:58:23Z</time>
      </trkpt>
      <trkpt lat="48.78712" lon="2.15808">
        <ele>177.1</ele>
        <time>2022-06-28T06:58:30Z</time>
      </trkpt>
      <trkpt lat="48.78705" lon="2.15808">
        <ele>177.7</ele>
        <time>2022-06-28T06:58:37Z</time>
      </trkpt>
      <trkpt lat="48.78699" lon="2.15809">
        <ele>178.1</ele>
        <time>2022-06-28T06:58:42Z</time>
      </trkpt>
      <trkpt lat="48.78692" lon="2.15812">
        <ele>178.6</ele>
        <time>2022-06-28T06:58:49Z</time>
      </trkpt>
      <trkpt lat="48.78686" lon="2.15809">
        <ele>179.2</ele>
        <time>2022-06-28T06:58:55Z</time>
      </trkpt>
      <trkpt lat="48.7868" lon="2.15804">
        <ele>179.7</ele>
        <time>2022-06-28T06:59:06Z</time>
      </trkpt>
      <trkpt lat="48.78672" lon="2.15805">
        <ele>180.3</ele>
        <time>2022-06-28T06:59:12Z</time>
      </trkpt>
      <trkpt lat="48.78665" lon="2.15807">
        <ele>180.7</ele>
        <time>2022-06-28T06:59:19Z</time>
      </trkpt>
      <trkpt lat="48.78658" lon="2.15807">
        <ele>180.7</ele>
        <time>2022-06-28T06:59:24Z</time>
      </trkpt>
      <trkpt lat="48.78651" lon="2.1581">
        <ele>180.7</ele>
        <time>2022-06-28T06:59:30Z</time>
      </trkpt>
      <trkpt lat="48.78642" lon="2.15811">
        <ele>180.7</ele>
        <time>2022-06-28T06:59:35Z</time>
      </trkpt>
      <trkpt lat="48.78638" lon="2.15802">
        <ele>180.5</ele>
        <time>2022-06-28T06:59:46Z</time>
      </trkpt>
      <trkpt lat="48.78632" lon="2.15806">
        <ele>180.5</ele>
        <time>2022-06-28T06:59:56Z</time>
      </trkpt>
      <trkpt lat="48.78625" lon="2.15812">
        <ele>180.7</ele>
        <time>2022-06-28T07:00:03Z</time>
      </trkpt>
      <trkpt lat="48.78619" lon="2.15814">
        <ele>180.8</ele>
        <time>2022-06-28T07:00:08Z</time>
      </trkpt>
      <trkpt lat="48.78611" lon="2.15816">
        <ele>180.9</ele>
        <time>2022-06-28T07:00:13Z</time>
      </trkpt>
      <trkpt lat="48.78603" lon="2.15812">
        <ele>180.7</ele>
        <time>2022-06-28T07:00:18Z</time>
      </trkpt>
      <trkpt lat="48.78596" lon="2.15812">
        <ele>180.7</ele>
        <time>2022-06-28T07:00:23Z</time>
      </trkpt>
      <trkpt lat="48.78589" lon="2.15812">
        <ele>180.7</ele>
        <time>2022-06-28T07:00:29Z</time>
      </trkpt>
      <trkpt lat="48.78582" lon="2.1581">
        <ele>180.5</ele>
        <time>2022-06-28T07:00:37Z</time>
      </trkpt>
      <trkpt lat="48.78575" lon="2.15808">
        <ele>179.7</ele>
        <time>2022-06-28T07:00:44Z</time>
      </trkpt>
      <trkpt lat="48.78568" lon="2.15807">
        <ele>179.1</ele>
        <time>2022-06-28T07:00:49Z</time>
      </trkpt>
      <trkpt lat="48.78561" lon="2.15805">
        <ele>178.3</ele>
        <time>2022-06-28T07:00:54Z</time>
      </trkpt>
      <trkpt lat="48.78555" lon="2.15802">
        <ele>177.6</ele>
        <time>2022-06-28T07:01:00Z</time>
      </trkpt>
      <trkpt lat="48.78547" lon="2.15803">
        <ele>177</ele>
        <time>2022-06-28T07:01:06Z</time>
      </trkpt>
      <trkpt lat="48.7854" lon="2.15805">
        <ele>176.5</ele>
        <time>2022-06-28T07:01:11Z</time>
      </trkpt>
      <trkpt lat="48.78534" lon="2.15804">
        <ele>175.9</ele>
        <time>2022-06-28T07:01:19Z</time>
      </trkpt>
      <trkpt lat="48.78526" lon="2.15804">
        <ele>175.2</ele>
        <time>2022-06-28T07:01:25Z</time>
      </trkpt>
      <trkpt lat="48.78517" lon="2.15805">
        <ele>174.5</ele>
        <time>2022-06-28T07:01:30Z</time>
      </trkpt>
      <trkpt lat="48.7851" lon="2.15808">
        <ele>174.1</ele>
        <time>2022-06-28T07:01:36Z</time>
      </trkpt>
      <trkpt lat="48.78503" lon="2.15807">
        <ele>173.4</ele>
        <time>2022-06-28T07:01:41Z</time>
      </trkpt>
      <trkpt lat="48.78495" lon="2.15809">
        <ele>172.6</ele>
        <time>2022-06-28T07:01:48Z</time>
      </trkpt>
      <trkpt lat="48.78488" lon="2.15808">
        <ele>171.7</ele>
        <time>2022-06-28T07:01:53Z</time>
      </trkpt>
      <trkpt lat="48.78481" lon="2.15809">
        <ele>170.9</ele>
        <time>2022-06-28T07:01:58Z</time>
      </trkpt>
      <trkpt lat="48.78473" lon="2.15811">
        <ele>170.1</ele>
        <time>2022-06-28T07:02:03Z</time>
      </trkpt>
      <trkpt lat="48.78469" lon="2.1582">
        <ele>170.3</ele>
        <time>2022-06-28T07:02:19Z</time>
      </trkpt>
      <trkpt lat="48.78468" lon="2.1583">
        <ele>170.9</ele>
        <time>2022-06-28T07:02:41Z</time>
      </trkpt>
      <trkpt lat="48.78465" lon="2.1584">
        <ele>171.4</ele>
        <time>2022-06-28T07:02:47Z</time>
      </trkpt>
      <trkpt lat="48.78465" lon="2.1585">
        <ele>172.3</ele>
        <time>2022-06-28T07:02:53Z</time>
      </trkpt>
      <trkpt lat="48.78468" lon="2.1586">
        <ele>173.4</ele>
        <time>2022-06-28T07:02:59Z</time>
      </trkpt>
      <trkpt lat="48.78466" lon="2.15871">
        <ele>174.2</ele>
        <time>2022-06-28T07:03:04Z</time>
      </trkpt>
      <trkpt lat="48.78463" lon="2.15879">
        <ele>174.6</ele>
        <time>2022-06-28T07:03:09Z</time>
      </trkpt>
      <trkpt lat="48.78461" lon="2.1589">
        <ele>175.4</ele>
        <time>2022-06-28T07:03:16Z</time>
      </trkpt>
      <trkpt lat="48.78462" lon="2.159">
        <ele>176.3</ele>
        <time>2022-06-28T07:03:21Z</time>
      </trkpt>
      <trkpt lat="48.78467" lon="2.15909">
        <ele>177.6</ele>
        <time>2022-06-28T07:03:27Z</time>
      </trkpt>
      <trkpt lat="48.78469" lon="2.1592">
        <ele>178.6</ele>
        <time>2022-06-28T07:03:34Z</time>
      </trkpt>
      <trkpt lat="48.78467" lon="2.1593">
        <ele>179.1</ele>
        <time>2022-06-28T07:03:39Z</time>
      </trkpt>
      <trkpt lat="48.78465" lon="2.15941">
        <ele>179.7</ele>
        <time>2022-06-28T07:03:51Z</time>
      </trkpt>
      <trkpt lat="48.78463" lon="2.15951">
        <ele>180.3</ele>
        <time>2022-06-28T07:03:58Z</time>
      </trkpt>
      <trkpt lat="48.78459" lon="2.15959">
        <ele>180.6</ele>
        <time>2022-06-28T07:04:05Z</time>
      </trkpt>
      <trkpt lat="48.78453" lon="2.15963">
        <ele>180.5</ele>
        <time>2022-06-28T07:04:14Z</time>
      </trkpt>
      <trkpt lat="48.78448" lon="2.15972">
        <ele>180.9</ele>
        <time>2022-06-28T07:04:19Z</time>
      </trkpt>
      <trkpt lat="48.78445" lon="2.15981">
        <ele>181.5</ele>
        <time>2022-06-28T07:04:28Z</time>
      </trkpt>
      <trkpt lat="48.78439" lon="2.15989">
        <ele>181.9</ele>
        <time>2022-06-28T07:04:35Z</time>
      </trkpt>
      <trkpt lat="48.7844" lon="2.16">
        <ele>182.8</ele>
        <time>2022-06-28T07:04:43Z</time>
      </trkpt>
      <trkpt lat="48.78436" lon="2.1601">
        <ele>182.9</ele>
        <time>2022-06-28T07:04:49Z</time>
      </trkpt>
      <trkpt lat="48.78439" lon="2.16019">
        <ele>183.3</ele>
        <time>2022-06-28T07:05:01Z</time>
      </trkpt>
      <trkpt lat="48.78445" lon="2.16023">
        <ele>183.6</ele>
        <time>2022-06-28T07:05:06Z</time>
      </trkpt>
      <trkpt lat="48.78452" lon="2.16029">
        <ele>184</ele>
        <time>2022-06-28T07:05:11Z</time>
      </trkpt>
      <trkpt lat="48.78455" lon="2.16038">
        <ele>184.3</ele>
        <time>2022-06-28T07:05:19Z</time>
      </trkpt>
      <trkpt lat="48.78457" lon="2.16048">
        <ele>184.6</ele>
        <time>2022-06-28T07:05:24Z</time>
      </trkpt>
      <trkpt lat="48.78455" lon="2.16057">
        <ele>184.7</ele>
        <time>2022-06-28T07:05:31Z</time>
      </trkpt>
      <trkpt lat="48.78453" lon="2.16068">
        <ele>184.9</ele>
        <time>2022-06-28T07:05:38Z</time>
      </trkpt>
      <trkpt lat="48.78451" lon="2.16079">
        <ele>185.1</ele>
        <time>2022-06-28T07:05:43Z</time>
      </trkpt>
      <trkpt lat="48.78455" lon="2.16087">
        <ele>185.4</ele>
        <time>2022-06-28T07:05:51Z</time>
      </trkpt>
      <trkpt lat="48.78457" lon="2.16099">
        <ele>185.5</ele>
        <time>2022-06-28T07:05:59Z</time>
      </trkpt>
      <trkpt lat="48.78455" lon="2.16108">
        <ele>185.4</ele>
        <time>2022-06-28T07:06:04Z</time>
      </trkpt>
      <trkpt lat="48.78454" lon="2.1612">
        <ele>185.4</ele>
        <time>2022-06-28T07:06:10Z</time>
      </trkpt>
      <trkpt lat="48.78454" lon="2.1613">
        <ele>185.4</ele>
        <time>2022-06-28T07:06:20Z</time>
      </trkpt>
      <trkpt lat="48.7846" lon="2.16123">
        <ele>185.5</ele>
        <time>2022-06-28T07:06:40Z</time>
      </trkpt>
      <trkpt lat="48.78466" lon="2.16133">
        <ele>185.7</ele>
        <time>2022-06-28T07:06:45Z</time>
      </trkpt>
      <trkpt lat="48.78468" lon="2.16144">
        <ele>185.7</ele>
        <time>2022-06-28T07:06:50Z</time>
      </trkpt>
      <trkpt lat="48.78471" lon="2.16154">
        <ele>185.7</ele>
        <time>2022-06-28T07:06:56Z</time>
      </trkpt>
      <trkpt lat="48.78475" lon="2.16164">
        <ele>185.7</ele>
        <time>2022-06-28T07:07:02Z</time>
      </trkpt>
      <trkpt lat="48.78479" lon="2.16172">
        <ele>185.6</ele>
        <time>2022-06-28T07:07:09Z</time>
      </trkpt>
      <trkpt lat="48.78484" lon="2.1618">
        <ele>185.4</ele>
        <time>2022-06-28T07:07:16Z</time>
      </trkpt>
      <trkpt lat="48.78482" lon="2.1619">
        <ele>185.1</ele>
        <time>2022-06-28T07:07:23Z</time>
      </trkpt>
      <trkpt lat="48.78483" lon="2.162">
        <ele>184.8</ele>
        <time>2022-06-28T07:07:29Z</time>
      </trkpt>
      <trkpt lat="48.78487" lon="2.16209">
        <ele>184.6</ele>
        <time>2022-06-28T07:07:35Z</time>
      </trkpt>
      <trkpt lat="48.7849" lon="2.16219">
        <ele>184.2</ele>
        <time>2022-06-28T07:07:40Z</time>
      </trkpt>
      <trkpt lat="48.78493" lon="2.16228">
        <ele>183.9</ele>
        <time>2022-06-28T07:07:46Z</time>
      </trkpt>
      <trkpt lat="48.78498" lon="2.16236">
        <ele>183.5</ele>
        <time>2022-06-28T07:07:53Z</time>
      </trkpt>
      <trkpt lat="48.785" lon="2.16245">
        <ele>183.2</ele>
        <time>2022-06-28T07:08:01Z</time>
      </trkpt>
      <trkpt lat="48.78507" lon="2.16251">
        <ele>183.1</ele>
        <time>2022-06-28T07:08:06Z</time>
      </trkpt>
      <trkpt lat="48.78506" lon="2.16262">
        <ele>182.9</ele>
        <time>2022-06-28T07:08:12Z</time>
      </trkpt>
      <trkpt lat="48.78505" lon="2.16272">
        <ele>182.8</ele>
        <time>2022-06-28T07:08:18Z</time>
      </trkpt>
      <trkpt lat="48.7851" lon="2.1628">
        <ele>182.7</ele>
        <time>2022-06-28T07:08:24Z</time>
      </trkpt>
      <trkpt lat="48.78515" lon="2.16287">
        <ele>182.7</ele>
        <time>2022-06-28T07:08:31Z</time>
      </trkpt>
      <trkpt lat="48.78522" lon="2.16285">
        <ele>182.7</ele>
        <time>2022-06-28T07:08:36Z</time>
      </trkpt>
      <trkpt lat="48.78529" lon="2.16288">
        <ele>182.7</ele>
        <time>2022-06-28T07:08:43Z</time>
      </trkpt>
      <trkpt lat="48.78537" lon="2.16291">
        <ele>182.7</ele>
        <time>2022-06-28T07:08:48Z</time>
      </trkpt>
      <trkpt lat="48.78544" lon="2.16295">
        <ele>182.7</ele>
        <time>2022-06-28T07:08:53Z</time>
      </trkpt>
      <trkpt lat="48.7855" lon="2.16302">
        <ele>182.6</ele>
        <time>2022-06-28T07:08:59Z</time>
      </trkpt>
      <trkpt lat="48.78555" lon="2.1631">
        <ele>182.5</ele>
        <time>2022-06-28T07:09:05Z</time>
      </trkpt>
      <trkpt lat="48.78555" lon="2.1632">
        <ele>182.3</ele>
        <time>2022-06-28T07:09:10Z</time>
      </trkpt>
      <trkpt lat="48.78561" lon="2.16327">
        <ele>182.1</ele>
        <time>2022-06-28T07:09:17Z</time>
      </trkpt>
      <trkpt lat="48.78566" lon="2.16334">
        <ele>182</ele>
        <time>2022-06-28T07:09:27Z</time>
      </trkpt>
      <trkpt lat="48.78573" lon="2.16336">
        <ele>182</ele>
        <time>2022-06-28T07:09:32Z</time>
      </trkpt>
      <trkpt lat="48.78581" lon="2.16341">
        <ele>181.9</ele>
        <time>2022-06-28T07:09:37Z</time>
      </trkpt>
      <trkpt lat="48.78587" lon="2.1635">
        <ele>181.8</ele>
        <time>2022-06-28T07:09:42Z</time>
      </trkpt>
      <trkpt lat="48.78591" lon="2.1636">
        <ele>181.6</ele>
        <time>2022-06-28T07:09:49Z</time>
      </trkpt>
      <trkpt lat="48.78593" lon="2.1637">
        <ele>181.5</ele>
        <time>2022-06-28T07:09:56Z</time>
      </trkpt>
      <trkpt lat="48.78597" lon="2.16381">
        <ele>181.4</ele>
        <time>2022-06-28T07:10:03Z</time>
      </trkpt>
      <trkpt lat="48.78593" lon="2.16391">
        <ele>181.3</ele>
        <time>2022-06-28T07:10:22Z</time>
      </trkpt>
      <trkpt lat="48.78591" lon="2.164">
        <ele>181.2</ele>
        <time>2022-06-28T07:10:28Z</time>
      </trkpt>
      <trkpt lat="48.78589" lon="2.1641">
        <ele>181.1</ele>
        <time>2022-06-28T07:10:33Z</time>
      </trkpt>
      <trkpt lat="48.78589" lon="2.16422">
        <ele>181.1</ele>
        <time>2022-06-28T07:10:38Z</time>
      </trkpt>
      <trkpt lat="48.78586" lon="2.16432">
        <ele>181.2</ele>
        <time>2022-06-28T07:10:45Z</time>
      </trkpt>
      <trkpt lat="48.78591" lon="2.16441">
        <ele>181.2</ele>
        <time>2022-06-28T07:10:50Z</time>
      </trkpt>
      <trkpt lat="48.78595" lon="2.16448">
        <ele>181.3</ele>
        <time>2022-06-28T07:10:59Z</time>
      </trkpt>
      <trkpt lat="48.786" lon="2.16456">
        <ele>181.3</ele>
        <time>2022-06-28T07:11:09Z</time>
      </trkpt>
      <trkpt lat="48.78606" lon="2.16461">
        <ele>181.2</ele>
        <time>2022-06-28T07:11:15Z</time>
      </trkpt>
      <trkpt lat="48.78612" lon="2.16466">
        <ele>181.2</ele>
        <time>2022-06-28T07:11:21Z</time>
      </trkpt>
      <trkpt lat="48.78618" lon="2.16468">
        <ele>181.1</ele>
        <time>2022-06-28T07:11:27Z</time>
      </trkpt>
      <trkpt lat="48.78624" lon="2.16472">
        <ele>181</ele>
        <time>2022-06-28T07:11:33Z</time>
      </trkpt>
      <trkpt lat="48.78631" lon="2.16477">
        <ele>180.9</ele>
        <time>2022-06-28T07:11:40Z</time>
      </trkpt>
      <trkpt lat="48.78642" lon="2.16479">
        <ele>180.7</ele>
        <time>2022-06-28T07:11:45Z</time>
      </trkpt>
      <trkpt lat="48.78649" lon="2.16485">
        <ele>180.5</ele>
        <time>2022-06-28T07:11:50Z</time>
      </trkpt>
      <trkpt lat="48.78657" lon="2.16489">
        <ele>180.3</ele>
        <time>2022-06-28T07:11:55Z</time>
      </trkpt>
      <trkpt lat="48.78662" lon="2.16498">
        <ele>180.1</ele>
        <time>2022-06-28T07:12:00Z</time>
      </trkpt>
      <trkpt lat="48.78666" lon="2.16506">
        <ele>179.9</ele>
        <time>2022-06-28T07:12:05Z</time>
      </trkpt>
      <trkpt lat="48.78672" lon="2.16516">
        <ele>179.3</ele>
        <time>2022-06-28T07:12:10Z</time>
      </trkpt>
      <trkpt lat="48.78677" lon="2.16525">
        <ele>178.8</ele>
        <time>2022-06-28T07:12:16Z</time>
      </trkpt>
      <trkpt lat="48.78677" lon="2.16535">
        <ele>178.6</ele>
        <time>2022-06-28T07:12:22Z</time>
      </trkpt>
      <trkpt lat="48.78679" lon="2.16545">
        <ele>178.3</ele>
        <time>2022-06-28T07:12:28Z</time>
      </trkpt>
      <trkpt lat="48.78683" lon="2.16555">
        <ele>177.9</ele>
        <time>2022-06-28T07:12:43Z</time>
      </trkpt>
      <trkpt lat="48.78687" lon="2.16563">
        <ele>177.6</ele>
        <time>2022-06-28T07:12:50Z</time>
      </trkpt>
      <trkpt lat="48.78693" lon="2.16572">
        <ele>177.2</ele>
        <time>2022-06-28T07:12:56Z</time>
      </trkpt>
      <trkpt lat="48.78697" lon="2.16582">
        <ele>176.9</ele>
        <time>2022-06-28T07:13:01Z</time>
      </trkpt>
      <trkpt lat="48.787" lon="2.16591">
        <ele>176.9</ele>
        <time>2022-06-28T07:13:06Z</time>
      </trkpt>
      <trkpt lat="48.78704" lon="2.166">
        <ele>176.8</ele>
        <time>2022-06-28T07:13:12Z</time>
      </trkpt>
      <trkpt lat="48.78708" lon="2.16611">
        <ele>176.8</ele>
        <time>2022-06-28T07:13:17Z</time>
      </trkpt>
      <trkpt lat="48.78711" lon="2.16621">
        <ele>176.9</ele>
        <time>2022-06-28T07:13:23Z</time>
      </trkpt>
      <trkpt lat="48.78715" lon="2.16632">
        <ele>176.9</ele>
        <time>2022-06-28T07:13:29Z</time>
      </trkpt>
      <trkpt lat="48.78719" lon="2.16642">
        <ele>177</ele>
        <time>2022-06-28T07:13:34Z</time>
      </trkpt>
      <trkpt lat="48.78724" lon="2.16649">
        <ele>177</ele>
        <time>2022-06-28T07:13:39Z</time>
      </trkpt>
      <trkpt lat="48.78728" lon="2.16657">
        <ele>177.1</ele>
        <time>2022-06-28T07:13:44Z</time>
      </trkpt>
      <trkpt lat="48.78733" lon="2.16665">
        <ele>177.2</ele>
        <time>2022-06-28T07:13:49Z</time>
      </trkpt>
      <trkpt lat="48.78738" lon="2.16672">
        <ele>177.2</ele>
        <time>2022-06-28T07:13:54Z</time>
      </trkpt>
      <trkpt lat="48.78742" lon="2.1668">
        <ele>177.1</ele>
        <time>2022-06-28T07:13:59Z</time>
      </trkpt>
      <trkpt lat="48.78749" lon="2.16682">
        <ele>177</ele>
        <time>2022-06-28T07:14:13Z</time>
      </trkpt>
      <trkpt lat="48.78756" lon="2.1668">
        <ele>176.8</ele>
        <time>2022-06-28T07:14:19Z</time>
      </trkpt>
      <trkpt lat="48.78749" lon="2.16686">
        <ele>177</ele>
        <time>2022-06-28T07:14:37Z</time>
      </trkpt>
      <trkpt lat="48.78748" lon="2.16696">
        <ele>177</ele>
        <time>2022-06-28T07:14:43Z</time>
      </trkpt>
      <trkpt lat="48.78752" lon="2.16705">
        <ele>176.9</ele>
        <time>2022-06-28T07:14:50Z</time>
      </trkpt>
      <trkpt lat="48.78756" lon="2.16713">
        <ele>176.9</ele>
        <time>2022-06-28T07:14:55Z</time>
      </trkpt>
      <trkpt lat="48.7876" lon="2.16721">
        <ele>176.8</ele>
        <time>2022-06-28T07:15:00Z</time>
      </trkpt>
      <trkpt lat="48.78765" lon="2.16728">
        <ele>176.8</ele>
        <time>2022-06-28T07:15:05Z</time>
      </trkpt>
      <trkpt lat="48.78767" lon="2.16739">
        <ele>176.9</ele>
        <time>2022-06-28T07:15:12Z</time>
      </trkpt>
      <trkpt lat="48.78768" lon="2.16749">
        <ele>177</ele>
        <time>2022-06-28T07:15:17Z</time>
      </trkpt>
      <trkpt lat="48.78771" lon="2.16759">
        <ele>177</ele>
        <time>2022-06-28T07:15:22Z</time>
      </trkpt>
      <trkpt lat="48.78774" lon="2.1677">
        <ele>177</ele>
        <time>2022-06-28T07:15:28Z</time>
      </trkpt>
      <trkpt lat="48.78775" lon="2.16781">
        <ele>177</ele>
        <time>2022-06-28T07:15:33Z</time>
      </trkpt>
      <trkpt lat="48.78777" lon="2.16791">
        <ele>177</ele>
        <time>2022-06-28T07:15:38Z</time>
      </trkpt>
      <trkpt lat="48.78782" lon="2.16801">
        <ele>177</ele>
        <time>2022-06-28T07:15:43Z</time>
      </trkpt>
      <trkpt lat="48.78787" lon="2.16808">
        <ele>177</ele>
        <time>2022-06-28T07:15:48Z</time>
      </trkpt>
      <trkpt lat="48.78789" lon="2.16817">
        <ele>177</ele>
        <time>2022-06-28T07:15:54Z</time>
      </trkpt>
      <trkpt lat="48.78794" lon="2.16825">
        <ele>177</ele>
        <time>2022-06-28T07:16:01Z</time>
      </trkpt>
      <trkpt lat="48.788" lon="2.16831">
        <ele>177</ele>
        <time>2022-06-28T07:16:12Z</time>
      </trkpt>
      <trkpt lat="48.78806" lon="2.16835">
        <ele>177</ele>
        <time>2022-06-28T07:17:04Z</time>
      </trkpt>
      <trkpt lat="48.78813" lon="2.16838">
        <ele>177.1</ele>
        <time>2022-06-28T07:17:11Z</time>
      </trkpt>
      <trkpt lat="48.7882" lon="2.16839">
        <ele>177.1</ele>
        <time>2022-06-28T07:17:18Z</time>
      </trkpt>
      <trkpt lat="48.78828" lon="2.16841">
        <ele>177.2</ele>
        <time>2022-06-28T07:17:24Z</time>
      </trkpt>
      <trkpt lat="48.78835" lon="2.16836">
        <ele>177</ele>
        <time>2022-06-28T07:17:30Z</time>
      </trkpt>
      <trkpt lat="48.78841" lon="2.16831">
        <ele>176.9</ele>
        <time>2022-06-28T07:17:35Z</time>
      </trkpt>
      <trkpt lat="48.78847" lon="2.16824">
        <ele>176.7</ele>
        <time>2022-06-28T07:17:43Z</time>
      </trkpt>
      <trkpt lat="48.78851" lon="2.16816">
        <ele>176.5</ele>
        <time>2022-06-28T07:17:48Z</time>
      </trkpt>
      <trkpt lat="48.78854" lon="2.16807">
        <ele>176.3</ele>
        <time>2022-06-28T07:17:57Z</time>
      </trkpt>
      <trkpt lat="48.78861" lon="2.16802">
        <ele>175.9</ele>
        <time>2022-06-28T07:18:02Z</time>
      </trkpt>
      <trkpt lat="48.78869" lon="2.16798">
        <ele>175.5</ele>
        <time>2022-06-28T07:18:07Z</time>
      </trkpt>
      <trkpt lat="48.78878" lon="2.16794">
        <ele>174.9</ele>
        <time>2022-06-28T07:18:12Z</time>
      </trkpt>
      <trkpt lat="48.78885" lon="2.1679">
        <ele>174.4</ele>
        <time>2022-06-28T07:18:17Z</time>
      </trkpt>
      <trkpt lat="48.78891" lon="2.16783">
        <ele>173.8</ele>
        <time>2022-06-28T07:18:23Z</time>
      </trkpt>
      <trkpt lat="48.78895" lon="2.16775">
        <ele>173.2</ele>
        <time>2022-06-28T07:18:28Z</time>
      </trkpt>
      <trkpt lat="48.78902" lon="2.16768">
        <ele>172.3</ele>
        <time>2022-06-28T07:18:33Z</time>
      </trkpt>
      <trkpt lat="48.78909" lon="2.16765">
        <ele>171.6</ele>
        <time>2022-06-28T07:18:39Z</time>
      </trkpt>
      <trkpt lat="48.78915" lon="2.16761">
        <ele>170.9</ele>
        <time>2022-06-28T07:18:44Z</time>
      </trkpt>
      <trkpt lat="48.78922" lon="2.16759">
        <ele>170.7</ele>
        <time>2022-06-28T07:18:49Z</time>
      </trkpt>
      <trkpt lat="48.78929" lon="2.16758">
        <ele>170.6</ele>
        <time>2022-06-28T07:18:55Z</time>
      </trkpt>
      <trkpt lat="48.78935" lon="2.16754">
        <ele>170.3</ele>
        <time>2022-06-28T07:19:05Z</time>
      </trkpt>
      <trkpt lat="48.78943" lon="2.16752">
        <ele>170.2</ele>
        <time>2022-06-28T07:19:11Z</time>
      </trkpt>
      <trkpt lat="48.78949" lon="2.16751">
        <ele>170.1</ele>
        <time>2022-06-28T07:19:16Z</time>
      </trkpt>
      <trkpt lat="48.78956" lon="2.16751">
        <ele>170.1</ele>
        <time>2022-06-28T07:19:21Z</time>
      </trkpt>
      <trkpt lat="48.78963" lon="2.16749">
        <ele>169.9</ele>
        <time>2022-06-28T07:19:26Z</time>
      </trkpt>
      <trkpt lat="48.78969" lon="2.16753">
        <ele>170.2</ele>
        <time>2022-06-28T07:19:33Z</time>
      </trkpt>
      <trkpt lat="48.78976" lon="2.16754">
        <ele>170.3</ele>
        <time>2022-06-28T07:19:39Z</time>
      </trkpt>
      <trkpt lat="48.78984" lon="2.16753">
        <ele>170.2</ele>
        <time>2022-06-28T07:19:45Z</time>
      </trkpt>
      <trkpt lat="48.78991" lon="2.16752">
        <ele>170.2</ele>
        <time>2022-06-28T07:19:51Z</time>
      </trkpt>
      <trkpt lat="48.78998" lon="2.16756">
        <ele>170.5</ele>
        <time>2022-06-28T07:19:56Z</time>
      </trkpt>
      <trkpt lat="48.79004" lon="2.16759">
        <ele>170.8</ele>
        <time>2022-06-28T07:20:04Z</time>
      </trkpt>
      <trkpt lat="48.79011" lon="2.16763">
        <ele>171.3</ele>
        <time>2022-06-28T07:20:09Z</time>
      </trkpt>
      <trkpt lat="48.79019" lon="2.16766">
        <ele>171.7</ele>
        <time>2022-06-28T07:20:14Z</time>
      </trkpt>
      <trkpt lat="48.79024" lon="2.16771">
        <ele>172.2</ele>
        <time>2022-06-28T07:20:21Z</time>
      </trkpt>
      <trkpt lat="48.79031" lon="2.16775">
        <ele>172.6</ele>
        <time>2022-06-28T07:20:27Z</time>
      </trkpt>
      <trkpt lat="48.79038" lon="2.1678">
        <ele>173.1</ele>
        <time>2022-06-28T07:20:33Z</time>
      </trkpt>
      <trkpt lat="48.79044" lon="2.16784">
        <ele>173.5</ele>
        <time>2022-06-28T07:20:39Z</time>
      </trkpt>
      <trkpt lat="48.79049" lon="2.16792">
        <ele>174.1</ele>
        <time>2022-06-28T07:20:45Z</time>
      </trkpt>
      <trkpt lat="48.79055" lon="2.16797">
        <ele>174.5</ele>
        <time>2022-06-28T07:20:51Z</time>
      </trkpt>
      <trkpt lat="48.79062" lon="2.16803">
        <ele>175</ele>
        <time>2022-06-28T07:20:56Z</time>
      </trkpt>
      <trkpt lat="48.79067" lon="2.16809">
        <ele>175.4</ele>
        <time>2022-06-28T07:21:01Z</time>
      </trkpt>
      <trkpt lat="48.79073" lon="2.16816">
        <ele>175.9</ele>
        <time>2022-06-28T07:21:09Z</time>
      </trkpt>
      <trkpt lat="48.79075" lon="2.16826">
        <ele>176.5</ele>
        <time>2022-06-28T07:21:15Z</time>
      </trkpt>
      <trkpt lat="48.79081" lon="2.16826">
        <ele>176.6</ele>
        <time>2022-06-28T07:21:20Z</time>
      </trkpt>
      <trkpt lat="48.79087" lon="2.16834">
        <ele>176.9</ele>
        <time>2022-06-28T07:21:26Z</time>
      </trkpt>
      <trkpt lat="48.79092" lon="2.16841">
        <ele>177</ele>
        <time>2022-06-28T07:21:31Z</time>
      </trkpt>
      <trkpt lat="48.79097" lon="2.16849">
        <ele>177</ele>
        <time>2022-06-28T07:21:59Z</time>
      </trkpt>
      <trkpt lat="48.79106" lon="2.16851">
        <ele>176.8</ele>
        <time>2022-06-28T07:22:04Z</time>
      </trkpt>
      <trkpt lat="48.79097" lon="2.16854">
        <ele>177.1</ele>
        <time>2022-06-28T07:23:33Z</time>
      </trkpt>
      <trkpt lat="48.79103" lon="2.16852">
        <ele>176.9</ele>
        <time>2022-06-28T07:23:47Z</time>
      </trkpt>
      <trkpt lat="48.79099" lon="2.1686">
        <ele>177.2</ele>
        <time>2022-06-28T07:24:05Z</time>
      </trkpt>
      <trkpt lat="48.79093" lon="2.16861">
        <ele>177.4</ele>
        <time>2022-06-28T07:24:14Z</time>
      </trkpt>
      <trkpt lat="48.79087" lon="2.16856">
        <ele>177.4</ele>
        <time>2022-06-28T07:24:20Z</time>
      </trkpt>
      <trkpt lat="48.7908" lon="2.1685">
        <ele>177.4</ele>
        <time>2022-06-28T07:24:30Z</time>
      </trkpt>
      <trkpt lat="48.79074" lon="2.16845">
        <ele>177.3</ele>
        <time>2022-06-28T07:24:36Z</time>
      </trkpt>
      <trkpt lat="48.79068" lon="2.16844">
        <ele>177.2</ele>
        <time>2022-06-28T07:24:41Z</time>
      </trkpt>
      <trkpt lat="48.79061" lon="2.16841">
        <ele>177.2</ele>
        <time>2022-06-28T07:24:46Z</time>
      </trkpt>
      <trkpt lat="48.79054" lon="2.16833">
        <ele>177</ele>
        <time>2022-06-28T07:24:54Z</time>
      </trkpt>
      <trkpt lat="48.79051" lon="2.16823">
        <ele>176.3</ele>
        <time>2022-06-28T07:25:00Z</time>
      </trkpt>
      <trkpt lat="48.79046" lon="2.16814">
        <ele>175.6</ele>
        <time>2022-06-28T07:25:06Z</time>
      </trkpt>
      <trkpt lat="48.79041" lon="2.16805">
        <ele>175</ele>
        <time>2022-06-28T07:25:13Z</time>
      </trkpt>
      <trkpt lat="48.79037" lon="2.16795">
        <ele>174.2</ele>
        <time>2022-06-28T07:25:19Z</time>
      </trkpt>
      <trkpt lat="48.79032" lon="2.16787">
        <ele>173.5</ele>
        <time>2022-06-28T07:25:26Z</time>
      </trkpt>
      <trkpt lat="48.79025" lon="2.16789">
        <ele>173.6</ele>
        <time>2022-06-28T07:25:31Z</time>
      </trkpt>
      <trkpt lat="48.79019" lon="2.16784">
        <ele>173.1</ele>
        <time>2022-06-28T07:25:39Z</time>
      </trkpt>
      <trkpt lat="48.79012" lon="2.16784">
        <ele>173</ele>
        <time>2022-06-28T07:25:44Z</time>
      </trkpt>
      <trkpt lat="48.79006" lon="2.16784">
        <ele>172.9</ele>
        <time>2022-06-28T07:25:51Z</time>
      </trkpt>
      <trkpt lat="48.78999" lon="2.16788">
        <ele>173.2</ele>
        <time>2022-06-28T07:25:56Z</time>
      </trkpt>
      <trkpt lat="48.79001" lon="2.168">
        <ele>174.2</ele>
        <time>2022-06-28T07:26:11Z</time>
      </trkpt>
      <trkpt lat="48.78998" lon="2.1681">
        <ele>175</ele>
        <time>2022-06-28T07:26:16Z</time>
      </trkpt>
      <trkpt lat="48.78999" lon="2.1682">
        <ele>175.9</ele>
        <time>2022-06-28T07:26:25Z</time>
      </trkpt>
      <trkpt lat="48.79003" lon="2.16838">
        <ele>177.1</ele>
        <time>2022-06-28T07:26:30Z</time>
      </trkpt>
      <trkpt lat="48.79004" lon="2.16849">
        <ele>177.2</ele>
        <time>2022-06-28T07:26:38Z</time>
      </trkpt>
      <trkpt lat="48.79008" lon="2.16858">
        <ele>177.3</ele>
        <time>2022-06-28T07:26:46Z</time>
      </trkpt>
      <trkpt lat="48.79009" lon="2.16871">
        <ele>177.5</ele>
        <time>2022-06-28T07:26:53Z</time>
      </trkpt>
      <trkpt lat="48.79015" lon="2.16877">
        <ele>177.6</ele>
        <time>2022-06-28T07:26:59Z</time>
      </trkpt>
      <trkpt lat="48.79007" lon="2.16885">
        <ele>177.7</ele>
        <time>2022-06-28T07:27:05Z</time>
      </trkpt>
      <trkpt lat="48.79011" lon="2.16893">
        <ele>177.8</ele>
        <time>2022-06-28T07:27:29Z</time>
      </trkpt>
      <trkpt lat="48.79015" lon="2.16903">
        <ele>178</ele>
        <time>2022-06-28T07:27:34Z</time>
      </trkpt>
      <trkpt lat="48.79017" lon="2.16913">
        <ele>178.2</ele>
        <time>2022-06-28T07:27:40Z</time>
      </trkpt>
      <trkpt lat="48.79022" lon="2.16922">
        <ele>178.1</ele>
        <time>2022-06-28T07:27:47Z</time>
      </trkpt>
      <trkpt lat="48.79022" lon="2.16932">
        <ele>177.9</ele>
        <time>2022-06-28T07:27:53Z</time>
      </trkpt>
      <trkpt lat="48.7902" lon="2.16942">
        <ele>177.5</ele>
        <time>2022-06-28T07:28:00Z</time>
      </trkpt>
      <trkpt lat="48.79022" lon="2.16952">
        <ele>177.3</ele>
        <time>2022-06-28T07:28:08Z</time>
      </trkpt>
      <trkpt lat="48.79027" lon="2.16958">
        <ele>177.3</ele>
        <time>2022-06-28T07:28:17Z</time>
      </trkpt>
      <trkpt lat="48.79033" lon="2.16965">
        <ele>177.3</ele>
        <time>2022-06-28T07:28:23Z</time>
      </trkpt>
      <trkpt lat="48.79038" lon="2.16972">
        <ele>177.4</ele>
        <time>2022-06-28T07:28:28Z</time>
      </trkpt>
      <trkpt lat="48.79037" lon="2.16981">
        <ele>177.2</ele>
        <time>2022-06-28T07:28:34Z</time>
      </trkpt>
      <trkpt lat="48.79033" lon="2.16992">
        <ele>176.8</ele>
        <time>2022-06-28T07:28:39Z</time>
      </trkpt>
      <trkpt lat="48.79028" lon="2.16999">
        <ele>176.4</ele>
        <time>2022-06-28T07:28:45Z</time>
      </trkpt>
      <trkpt lat="48.79024" lon="2.17009">
        <ele>176.3</ele>
        <time>2022-06-28T07:28:51Z</time>
      </trkpt>
      <trkpt lat="48.79022" lon="2.1702">
        <ele>176.3</ele>
        <time>2022-06-28T07:28:57Z</time>
      </trkpt>
      <trkpt lat="48.79023" lon="2.17032">
        <ele>176.6</ele>
        <time>2022-06-28T07:29:05Z</time>
      </trkpt>
      <trkpt lat="48.79024" lon="2.17049">
        <ele>176.8</ele>
        <time>2022-06-28T07:29:12Z</time>
      </trkpt>
      <trkpt lat="48.79031" lon="2.17056">
        <ele>177.1</ele>
        <time>2022-06-28T07:29:17Z</time>
      </trkpt>
      <trkpt lat="48.79037" lon="2.17064">
        <ele>177.3</ele>
        <time>2022-06-28T07:29:23Z</time>
      </trkpt>
      <trkpt lat="48.79039" lon="2.17075">
        <ele>177.4</ele>
        <time>2022-06-28T07:29:31Z</time>
      </trkpt>
      <trkpt lat="48.79039" lon="2.17086">
        <ele>177.6</ele>
        <time>2022-06-28T07:29:39Z</time>
      </trkpt>
      <trkpt lat="48.79038" lon="2.17096">
        <ele>177.9</ele>
        <time>2022-06-28T07:29:46Z</time>
      </trkpt>
      <trkpt lat="48.79038" lon="2.17106">
        <ele>178.2</ele>
        <time>2022-06-28T07:29:55Z</time>
      </trkpt>
      <trkpt lat="48.79042" lon="2.17116">
        <ele>178.5</ele>
        <time>2022-06-28T07:30:01Z</time>
      </trkpt>
      <trkpt lat="48.79046" lon="2.17125">
        <ele>178.7</ele>
        <time>2022-06-28T07:30:08Z</time>
      </trkpt>
      <trkpt lat="48.79051" lon="2.17132">
        <ele>178.9</ele>
        <time>2022-06-28T07:30:17Z</time>
      </trkpt>
      <trkpt lat="48.79057" lon="2.17142">
        <ele>179.1</ele>
        <time>2022-06-28T07:30:22Z</time>
      </trkpt>
      <trkpt lat="48.79063" lon="2.17147">
        <ele>179.1</ele>
        <time>2022-06-28T07:30:28Z</time>
      </trkpt>
      <trkpt lat="48.79057" lon="2.17155">
        <ele>179.4</ele>
        <time>2022-06-28T07:30:34Z</time>
      </trkpt>
      <trkpt lat="48.79052" lon="2.17165">
        <ele>179.7</ele>
        <time>2022-06-28T07:30:41Z</time>
      </trkpt>
      <trkpt lat="48.79049" lon="2.17174">
        <ele>180</ele>
        <time>2022-06-28T07:30:47Z</time>
      </trkpt>
      <trkpt lat="48.79049" lon="2.17185">
        <ele>180.2</ele>
        <time>2022-06-28T07:30:54Z</time>
      </trkpt>
      <trkpt lat="48.79049" lon="2.17195">
        <ele>180.4</ele>
        <time>2022-06-28T07:31:00Z</time>
      </trkpt>
      <trkpt lat="48.79045" lon="2.17206">
        <ele>180.8</ele>
        <time>2022-06-28T07:31:05Z</time>
      </trkpt>
      <trkpt lat="48.79044" lon="2.17219">
        <ele>181.1</ele>
        <time>2022-06-28T07:31:10Z</time>
      </trkpt>
      <trkpt lat="48.7904" lon="2.17234">
        <ele>181.7</ele>
        <time>2022-06-28T07:31:15Z</time>
      </trkpt>
      <trkpt lat="48.79036" lon="2.17243">
        <ele>182.2</ele>
        <time>2022-06-28T07:31:27Z</time>
      </trkpt>
      <trkpt lat="48.79031" lon="2.17251">
        <ele>182.8</ele>
        <time>2022-06-28T07:31:32Z</time>
      </trkpt>
      <trkpt lat="48.79029" lon="2.1726">
        <ele>183.2</ele>
        <time>2022-06-28T07:31:38Z</time>
      </trkpt>
      <trkpt lat="48.79024" lon="2.17267">
        <ele>183.7</ele>
        <time>2022-06-28T07:31:49Z</time>
      </trkpt>
      <trkpt lat="48.7903" lon="2.17267">
        <ele>183.3</ele>
        <time>2022-06-28T07:32:00Z</time>
      </trkpt>
      <trkpt lat="48.79036" lon="2.17272">
        <ele>183</ele>
        <time>2022-06-28T07:32:06Z</time>
      </trkpt>
      <trkpt lat="48.79043" lon="2.17274">
        <ele>182.6</ele>
        <time>2022-06-28T07:32:11Z</time>
      </trkpt>
      <trkpt lat="48.79046" lon="2.17283">
        <ele>182.7</ele>
        <time>2022-06-28T07:32:16Z</time>
      </trkpt>
      <trkpt lat="48.79058" lon="2.17289">
        <ele>182.3</ele>
        <time>2022-06-28T07:32:21Z</time>
      </trkpt>
      <trkpt lat="48.79065" lon="2.17293">
        <ele>182</ele>
        <time>2022-06-28T07:32:26Z</time>
      </trkpt>
      <trkpt lat="48.79071" lon="2.17297">
        <ele>181.9</ele>
        <time>2022-06-28T07:32:32Z</time>
      </trkpt>
      <trkpt lat="48.79066" lon="2.17307">
        <ele>182.6</ele>
        <time>2022-06-28T07:32:37Z</time>
      </trkpt>
      <trkpt lat="48.79063" lon="2.17316">
        <ele>183.1</ele>
        <time>2022-06-28T07:32:43Z</time>
      </trkpt>
      <trkpt lat="48.79063" lon="2.17326">
        <ele>183.4</ele>
        <time>2022-06-28T07:32:50Z</time>
      </trkpt>
      <trkpt lat="48.7906" lon="2.17336">
        <ele>183.8</ele>
        <time>2022-06-28T07:32:55Z</time>
      </trkpt>
      <trkpt lat="48.79058" lon="2.17347">
        <ele>183.7</ele>
        <time>2022-06-28T07:33:02Z</time>
      </trkpt>
      <trkpt lat="48.79056" lon="2.17358">
        <ele>183.6</ele>
        <time>2022-06-28T07:33:07Z</time>
      </trkpt>
      <trkpt lat="48.79055" lon="2.1737">
        <ele>183.4</ele>
        <time>2022-06-28T07:33:12Z</time>
      </trkpt>
      <trkpt lat="48.79052" lon="2.1738">
        <ele>183.4</ele>
        <time>2022-06-28T07:33:20Z</time>
      </trkpt>
      <trkpt lat="48.79048" lon="2.1739">
        <ele>183.3</ele>
        <time>2022-06-28T07:33:26Z</time>
      </trkpt>
      <trkpt lat="48.79047" lon="2.17401">
        <ele>183.1</ele>
        <time>2022-06-28T07:33:32Z</time>
      </trkpt>
      <trkpt lat="48.79045" lon="2.17412">
        <ele>183</ele>
        <time>2022-06-28T07:33:38Z</time>
      </trkpt>
      <trkpt lat="48.79042" lon="2.17423">
        <ele>182.8</ele>
        <time>2022-06-28T07:33:43Z</time>
      </trkpt>
      <trkpt lat="48.79038" lon="2.17431">
        <ele>182.6</ele>
        <time>2022-06-28T07:33:48Z</time>
      </trkpt>
      <trkpt lat="48.79036" lon="2.17441">
        <ele>182.3</ele>
        <time>2022-06-28T07:33:56Z</time>
      </trkpt>
      <trkpt lat="48.79035" lon="2.17452">
        <ele>182</ele>
        <time>2022-06-28T07:34:11Z</time>
      </trkpt>
      <trkpt lat="48.79031" lon="2.17462">
        <ele>181.7</ele>
        <time>2022-06-28T07:34:16Z</time>
      </trkpt>
      <trkpt lat="48.79028" lon="2.17472">
        <ele>181.3</ele>
        <time>2022-06-28T07:34:21Z</time>
      </trkpt>
      <trkpt lat="48.79026" lon="2.17481">
        <ele>181</ele>
        <time>2022-06-28T07:34:27Z</time>
      </trkpt>
      <trkpt lat="48.7902" lon="2.17488">
        <ele>180.7</ele>
        <time>2022-06-28T07:34:36Z</time>
      </trkpt>
      <trkpt lat="48.79013" lon="2.17489">
        <ele>180.6</ele>
        <time>2022-06-28T07:34:42Z</time>
      </trkpt>
      <trkpt lat="48.79007" lon="2.17494">
        <ele>180.4</ele>
        <time>2022-06-28T07:34:47Z</time>
      </trkpt>
      <trkpt lat="48.79002" lon="2.17502">
        <ele>179.9</ele>
        <time>2022-06-28T07:34:52Z</time>
      </trkpt>
      <trkpt lat="48.78996" lon="2.17508">
        <ele>179.6</ele>
        <time>2022-06-28T07:35:01Z</time>
      </trkpt>
      <trkpt lat="48.78992" lon="2.1752">
        <ele>179</ele>
        <time>2022-06-28T07:35:07Z</time>
      </trkpt>
      <trkpt lat="48.78985" lon="2.17518">
        <ele>179</ele>
        <time>2022-06-28T07:35:25Z</time>
      </trkpt>
      <trkpt lat="48.78977" lon="2.17521">
        <ele>178.8</ele>
        <time>2022-06-28T07:35:33Z</time>
      </trkpt>
      <trkpt lat="48.78971" lon="2.17527">
        <ele>178.5</ele>
        <time>2022-06-28T07:35:40Z</time>
      </trkpt>
      <trkpt lat="48.78965" lon="2.17533">
        <ele>178.2</ele>
        <time>2022-06-28T07:35:45Z</time>
      </trkpt>
      <trkpt lat="48.7896" lon="2.17545">
        <ele>177.6</ele>
        <time>2022-06-28T07:35:50Z</time>
      </trkpt>
      <trkpt lat="48.78961" lon="2.17556">
        <ele>177.2</ele>
        <time>2022-06-28T07:35:59Z</time>
      </trkpt>
      <trkpt lat="48.78968" lon="2.17557">
        <ele>177.1</ele>
        <time>2022-06-28T07:36:04Z</time>
      </trkpt>
      <trkpt lat="48.78974" lon="2.17564">
        <ele>176.9</ele>
        <time>2022-06-28T07:36:11Z</time>
      </trkpt>
      <trkpt lat="48.78979" lon="2.17572">
        <ele>176.5</ele>
        <time>2022-06-28T07:36:17Z</time>
      </trkpt>
      <trkpt lat="48.78984" lon="2.1758">
        <ele>176.2</ele>
        <time>2022-06-28T07:36:22Z</time>
      </trkpt>
      <trkpt lat="48.78992" lon="2.17582">
        <ele>176.1</ele>
        <time>2022-06-28T07:36:27Z</time>
      </trkpt>
      <trkpt lat="48.79" lon="2.17586">
        <ele>176</ele>
        <time>2022-06-28T07:36:32Z</time>
      </trkpt>
      <trkpt lat="48.79007" lon="2.17592">
        <ele>176.1</ele>
        <time>2022-06-28T07:36:37Z</time>
      </trkpt>
      <trkpt lat="48.79012" lon="2.17597">
        <ele>176.2</ele>
        <time>2022-06-28T07:36:42Z</time>
      </trkpt>
      <trkpt lat="48.79017" lon="2.17606">
        <ele>176.3</ele>
        <time>2022-06-28T07:36:47Z</time>
      </trkpt>
      <trkpt lat="48.79023" lon="2.17613">
        <ele>176.4</ele>
        <time>2022-06-28T07:36:52Z</time>
      </trkpt>
      <trkpt lat="48.7903" lon="2.17616">
        <ele>176.5</ele>
        <time>2022-06-28T07:36:57Z</time>
      </trkpt>
      <trkpt lat="48.79036" lon="2.1762">
        <ele>176.7</ele>
        <time>2022-06-28T07:37:03Z</time>
      </trkpt>
      <trkpt lat="48.79041" lon="2.17627">
        <ele>176.7</ele>
        <time>2022-06-28T07:37:09Z</time>
      </trkpt>
      <trkpt lat="48.79047" lon="2.17633">
        <ele>176.8</ele>
        <time>2022-06-28T07:37:15Z</time>
      </trkpt>
      <trkpt lat="48.79047" lon="2.17644">
        <ele>176.6</ele>
        <time>2022-06-28T07:37:20Z</time>
      </trkpt>
      <trkpt lat="48.79054" lon="2.17642">
        <ele>176.8</ele>
        <time>2022-06-28T07:37:40Z</time>
      </trkpt>
      <trkpt lat="48.79062" lon="2.17642">
        <ele>177</ele>
        <time>2022-06-28T07:37:45Z</time>
      </trkpt>
      <trkpt lat="48.79068" lon="2.17648">
        <ele>177</ele>
        <time>2022-06-28T07:37:50Z</time>
      </trkpt>
      <trkpt lat="48.79072" lon="2.17658">
        <ele>176.9</ele>
        <time>2022-06-28T07:37:55Z</time>
      </trkpt>
      <trkpt lat="48.79079" lon="2.17661">
        <ele>177</ele>
        <time>2022-06-28T07:38:00Z</time>
      </trkpt>
      <trkpt lat="48.79086" lon="2.17662">
        <ele>177.1</ele>
        <time>2022-06-28T07:38:05Z</time>
      </trkpt>
      <trkpt lat="48.79091" lon="2.17669">
        <ele>177.1</ele>
        <time>2022-06-28T07:38:10Z</time>
      </trkpt>
      <trkpt lat="48.79097" lon="2.17674">
        <ele>177.1</ele>
        <time>2022-06-28T07:38:15Z</time>
      </trkpt>
      <trkpt lat="48.79104" lon="2.17683">
        <ele>177.2</ele>
        <time>2022-06-28T07:38:20Z</time>
      </trkpt>
      <trkpt lat="48.7911" lon="2.17688">
        <ele>177.2</ele>
        <time>2022-06-28T07:38:25Z</time>
      </trkpt>
      <trkpt lat="48.79117" lon="2.17688">
        <ele>177.2</ele>
        <time>2022-06-28T07:38:32Z</time>
      </trkpt>
      <trkpt lat="48.79119" lon="2.17679">
        <ele>177.3</ele>
        <time>2022-06-28T07:38:45Z</time>
      </trkpt>
      <trkpt lat="48.79114" lon="2.17687">
        <ele>177.2</ele>
        <time>2022-06-28T07:38:57Z</time>
      </trkpt>
      <trkpt lat="48.79109" lon="2.17696">
        <ele>177.1</ele>
        <time>2022-06-28T07:39:08Z</time>
      </trkpt>
      <trkpt lat="48.79102" lon="2.17701">
        <ele>177</ele>
        <time>2022-06-28T07:39:14Z</time>
      </trkpt>
      <trkpt lat="48.79097" lon="2.17707">
        <ele>177</ele>
        <time>2022-06-28T07:39:20Z</time>
      </trkpt>
      <trkpt lat="48.79092" lon="2.17714">
        <ele>177</ele>
        <time>2022-06-28T07:39:26Z</time>
      </trkpt>
      <trkpt lat="48.79087" lon="2.17721">
        <ele>177</ele>
        <time>2022-06-28T07:39:31Z</time>
      </trkpt>
      <trkpt lat="48.79079" lon="2.17727">
        <ele>177</ele>
        <time>2022-06-28T07:39:39Z</time>
      </trkpt>
      <trkpt lat="48.79073" lon="2.17732">
        <ele>176.9</ele>
        <time>2022-06-28T07:39:44Z</time>
      </trkpt>
      <trkpt lat="48.79068" lon="2.17739">
        <ele>177</ele>
        <time>2022-06-28T07:39:50Z</time>
      </trkpt>
      <trkpt lat="48.79062" lon="2.17744">
        <ele>177</ele>
        <time>2022-06-28T07:39:56Z</time>
      </trkpt>
      <trkpt lat="48.79055" lon="2.17748">
        <ele>177</ele>
        <time>2022-06-28T07:40:01Z</time>
      </trkpt>
      <trkpt lat="48.79047" lon="2.17749">
        <ele>177</ele>
        <time>2022-06-28T07:40:07Z</time>
      </trkpt>
      <trkpt lat="48.7904" lon="2.17752">
        <ele>177</ele>
        <time>2022-06-28T07:40:15Z</time>
      </trkpt>
      <trkpt lat="48.79033" lon="2.17757">
        <ele>177.1</ele>
        <time>2022-06-28T07:40:20Z</time>
      </trkpt>
      <trkpt lat="48.79028" lon="2.17765">
        <ele>177.1</ele>
        <time>2022-06-28T07:40:26Z</time>
      </trkpt>
      <trkpt lat="48.79022" lon="2.17771">
        <ele>177.2</ele>
        <time>2022-06-28T07:40:31Z</time>
      </trkpt>
      <trkpt lat="48.79014" lon="2.17778">
        <ele>177.3</ele>
        <time>2022-06-28T07:40:36Z</time>
      </trkpt>
      <trkpt lat="48.79005" lon="2.17782">
        <ele>177.4</ele>
        <time>2022-06-28T07:40:41Z</time>
      </trkpt>
      <trkpt lat="48.79" lon="2.17787">
        <ele>177.4</ele>
        <time>2022-06-28T07:40:47Z</time>
      </trkpt>
      <trkpt lat="48.78992" lon="2.17791">
        <ele>177.2</ele>
        <time>2022-06-28T07:40:52Z</time>
      </trkpt>
      <trkpt lat="48.78987" lon="2.178">
        <ele>177.1</ele>
        <time>2022-06-28T07:40:57Z</time>
      </trkpt>
      <trkpt lat="48.7898" lon="2.17805">
        <ele>176.9</ele>
        <time>2022-06-28T07:41:03Z</time>
      </trkpt>
      <trkpt lat="48.78974" lon="2.17813">
        <ele>176.7</ele>
        <time>2022-06-28T07:41:08Z</time>
      </trkpt>
      <trkpt lat="48.78967" lon="2.17817">
        <ele>176.4</ele>
        <time>2022-06-28T07:41:13Z</time>
      </trkpt>
      <trkpt lat="48.78961" lon="2.17822">
        <ele>176.1</ele>
        <time>2022-06-28T07:41:19Z</time>
      </trkpt>
      <trkpt lat="48.78954" lon="2.17827">
        <ele>175.8</ele>
        <time>2022-06-28T07:41:25Z</time>
      </trkpt>
      <trkpt lat="48.78948" lon="2.17833">
        <ele>175.5</ele>
        <time>2022-06-28T07:41:31Z</time>
      </trkpt>
      <trkpt lat="48.78942" lon="2.17839">
        <ele>175.1</ele>
        <time>2022-06-28T07:41:36Z</time>
      </trkpt>
      <trkpt lat="48.78936" lon="2.17847">
        <ele>174.6</ele>
        <time>2022-06-28T07:41:41Z</time>
      </trkpt>
      <trkpt lat="48.78928" lon="2.17851">
        <ele>174.2</ele>
        <time>2022-06-28T07:41:46Z</time>
      </trkpt>
      <trkpt lat="48.78923" lon="2.17858">
        <ele>173.9</ele>
        <time>2022-06-28T07:41:52Z</time>
      </trkpt>
      <trkpt lat="48.78917" lon="2.17863">
        <ele>173.7</ele>
        <time>2022-06-28T07:41:58Z</time>
      </trkpt>
      <trkpt lat="48.78912" lon="2.1787">
        <ele>173.6</ele>
        <time>2022-06-28T07:42:05Z</time>
      </trkpt>
      <trkpt lat="48.78906" lon="2.17871">
        <ele>173.7</ele>
        <time>2022-06-28T07:42:10Z</time>
      </trkpt>
      <trkpt lat="48.78898" lon="2.17872">
        <ele>173.9</ele>
        <time>2022-06-28T07:42:18Z</time>
      </trkpt>
      <trkpt lat="48.78892" lon="2.17876">
        <ele>173.9</ele>
        <time>2022-06-28T07:42:23Z</time>
      </trkpt>
      <trkpt lat="48.78886" lon="2.17882">
        <ele>174</ele>
        <time>2022-06-28T07:42:29Z</time>
      </trkpt>
      <trkpt lat="48.78878" lon="2.1789">
        <ele>174.1</ele>
        <time>2022-06-28T07:42:34Z</time>
      </trkpt>
      <trkpt lat="48.78871" lon="2.17894">
        <ele>174.2</ele>
        <time>2022-06-28T07:42:39Z</time>
      </trkpt>
      <trkpt lat="48.78866" lon="2.179">
        <ele>174.3</ele>
        <time>2022-06-28T07:42:44Z</time>
      </trkpt>
      <trkpt lat="48.78861" lon="2.17907">
        <ele>174.4</ele>
        <time>2022-06-28T07:42:50Z</time>
      </trkpt>
      <trkpt lat="48.78854" lon="2.17912">
        <ele>174.5</ele>
        <time>2022-06-28T07:42:57Z</time>
      </trkpt>
      <trkpt lat="48.78847" lon="2.17912">
        <ele>174.7</ele>
        <time>2022-06-28T07:43:03Z</time>
      </trkpt>
      <trkpt lat="48.78844" lon="2.17922">
        <ele>174.8</ele>
        <time>2022-06-28T07:43:14Z</time>
      </trkpt>
      <trkpt lat="48.78842" lon="2.17932">
        <ele>174.8</ele>
        <time>2022-06-28T07:43:19Z</time>
      </trkpt>
      <trkpt lat="48.78841" lon="2.17942">
        <ele>174.9</ele>
        <time>2022-06-28T07:43:24Z</time>
      </trkpt>
      <trkpt lat="48.78839" lon="2.1796">
        <ele>174.9</ele>
        <time>2022-06-28T07:43:29Z</time>
      </trkpt>
      <trkpt lat="48.78837" lon="2.17971">
        <ele>175</ele>
        <time>2022-06-28T07:43:35Z</time>
      </trkpt>
      <trkpt lat="48.78835" lon="2.17981">
        <ele>175</ele>
        <time>2022-06-28T07:43:40Z</time>
      </trkpt>
      <trkpt lat="48.7883" lon="2.17989">
        <ele>175</ele>
        <time>2022-06-28T07:43:48Z</time>
      </trkpt>
      <trkpt lat="48.78823" lon="2.17998">
        <ele>175.1</ele>
        <time>2022-06-28T07:43:53Z</time>
      </trkpt>
      <trkpt lat="48.78818" lon="2.18006">
        <ele>175.2</ele>
        <time>2022-06-28T07:44:02Z</time>
      </trkpt>
      <trkpt lat="48.7882" lon="2.18016">
        <ele>175.1</ele>
        <time>2022-06-28T07:44:11Z</time>
      </trkpt>
      <trkpt lat="48.78823" lon="2.18026">
        <ele>175.1</ele>
        <time>2022-06-28T07:44:19Z</time>
      </trkpt>
      <trkpt lat="48.7883" lon="2.18031">
        <ele>175</ele>
        <time>2022-06-28T07:44:25Z</time>
      </trkpt>
      <trkpt lat="48.78837" lon="2.18035">
        <ele>175.1</ele>
        <time>2022-06-28T07:44:30Z</time>
      </trkpt>
      <trkpt lat="48.78845" lon="2.18036">
        <ele>175.2</ele>
        <time>2022-06-28T07:44:36Z</time>
      </trkpt>
      <trkpt lat="48.78849" lon="2.18044">
        <ele>175.4</ele>
        <time>2022-06-28T07:44:43Z</time>
      </trkpt>
      <trkpt lat="48.78855" lon="2.1805">
        <ele>175.6</ele>
        <time>2022-06-28T07:44:48Z</time>
      </trkpt>
      <trkpt lat="48.78862" lon="2.1805">
        <ele>175.8</ele>
        <time>2022-06-28T07:44:53Z</time>
      </trkpt>
      <trkpt lat="48.78868" lon="2.18054">
        <ele>176.1</ele>
        <time>2022-06-28T07:44:58Z</time>
      </trkpt>
      <trkpt lat="48.7887" lon="2.18066">
        <ele>176.4</ele>
        <time>2022-06-28T07:45:03Z</time>
      </trkpt>
      <trkpt lat="48.78876" lon="2.1807">
        <ele>176.7</ele>
        <time>2022-06-28T07:45:08Z</time>
      </trkpt>
      <trkpt lat="48.78883" lon="2.18074">
        <ele>177.1</ele>
        <time>2022-06-28T07:45:13Z</time>
      </trkpt>
      <trkpt lat="48.78893" lon="2.18076">
        <ele>177.6</ele>
        <time>2022-06-28T07:45:18Z</time>
      </trkpt>
      <trkpt lat="48.78903" lon="2.18076">
        <ele>178</ele>
        <time>2022-06-28T07:45:23Z</time>
      </trkpt>
      <trkpt lat="48.78909" lon="2.18079">
        <ele>178.4</ele>
        <time>2022-06-28T07:45:29Z</time>
      </trkpt>
      <trkpt lat="48.78915" lon="2.18087">
        <ele>179</ele>
        <time>2022-06-28T07:45:36Z</time>
      </trkpt>
      <trkpt lat="48.78921" lon="2.18093">
        <ele>179.3</ele>
        <time>2022-06-28T07:45:42Z</time>
      </trkpt>
      <trkpt lat="48.78932" lon="2.18096">
        <ele>179.3</ele>
        <time>2022-06-28T07:45:47Z</time>
      </trkpt>
      <trkpt lat="48.78939" lon="2.18101">
        <ele>179.4</ele>
        <time>2022-06-28T07:45:52Z</time>
      </trkpt>
      <trkpt lat="48.78944" lon="2.18112">
        <ele>179.7</ele>
        <time>2022-06-28T07:45:57Z</time>
      </trkpt>
      <trkpt lat="48.78947" lon="2.18122">
        <ele>180</ele>
        <time>2022-06-28T07:46:02Z</time>
      </trkpt>
      <trkpt lat="48.78956" lon="2.18125">
        <ele>180</ele>
        <time>2022-06-28T07:46:07Z</time>
      </trkpt>
      <trkpt lat="48.78963" lon="2.18126">
        <ele>180</ele>
        <time>2022-06-28T07:46:12Z</time>
      </trkpt>
      <trkpt lat="48.78972" lon="2.18127">
        <ele>179.9</ele>
        <time>2022-06-28T07:46:17Z</time>
      </trkpt>
      <trkpt lat="48.78979" lon="2.1813">
        <ele>179.9</ele>
        <time>2022-06-28T07:46:22Z</time>
      </trkpt>
      <trkpt lat="48.78985" lon="2.18137">
        <ele>180.1</ele>
        <time>2022-06-28T07:46:27Z</time>
      </trkpt>
      <trkpt lat="48.78988" lon="2.18147">
        <ele>180.4</ele>
        <time>2022-06-28T07:46:37Z</time>
      </trkpt>
      <trkpt lat="48.78993" lon="2.18156">
        <ele>180.7</ele>
        <time>2022-06-28T07:46:43Z</time>
      </trkpt>
      <trkpt lat="48.78996" lon="2.18168">
        <ele>181.1</ele>
        <time>2022-06-28T07:46:49Z</time>
      </trkpt>
      <trkpt lat="48.78998" lon="2.18178">
        <ele>181.3</ele>
        <time>2022-06-28T07:46:54Z</time>
      </trkpt>
      <trkpt lat="48.79001" lon="2.18187">
        <ele>181.5</ele>
        <time>2022-06-28T07:47:01Z</time>
      </trkpt>
      <trkpt lat="48.79006" lon="2.18193">
        <ele>181.5</ele>
        <time>2022-06-28T07:47:07Z</time>
      </trkpt>
      <trkpt lat="48.79014" lon="2.18198">
        <ele>181.4</ele>
        <time>2022-06-28T07:47:12Z</time>
      </trkpt>
      <trkpt lat="48.7902" lon="2.18205">
        <ele>181.4</ele>
        <time>2022-06-28T07:47:17Z</time>
      </trkpt>
      <trkpt lat="48.79027" lon="2.18208">
        <ele>181.3</ele>
        <time>2022-06-28T07:47:22Z</time>
      </trkpt>
      <trkpt lat="48.79032" lon="2.18215">
        <ele>181.5</ele>
        <time>2022-06-28T07:47:27Z</time>
      </trkpt>
      <trkpt lat="48.79037" lon="2.18223">
        <ele>181.6</ele>
        <time>2022-06-28T07:47:32Z</time>
      </trkpt>
      <trkpt lat="48.79041" lon="2.18231">
        <ele>181.8</ele>
        <time>2022-06-28T07:47:37Z</time>
      </trkpt>
      <trkpt lat="48.79046" lon="2.18239">
        <ele>182</ele>
        <time>2022-06-28T07:47:43Z</time>
      </trkpt>
      <trkpt lat="48.79051" lon="2.18247">
        <ele>182.3</ele>
        <time>2022-06-28T07:47:49Z</time>
      </trkpt>
      <trkpt lat="48.79057" lon="2.18255">
        <ele>182.3</ele>
        <time>2022-06-28T07:47:54Z</time>
      </trkpt>
      <trkpt lat="48.79063" lon="2.18258">
        <ele>182.1</ele>
        <time>2022-06-28T07:47:59Z</time>
      </trkpt>
      <trkpt lat="48.7907" lon="2.18264">
        <ele>182</ele>
        <time>2022-06-28T07:48:05Z</time>
      </trkpt>
      <trkpt lat="48.79078" lon="2.18271">
        <ele>181.8</ele>
        <time>2022-06-28T07:48:10Z</time>
      </trkpt>
      <trkpt lat="48.79083" lon="2.1828">
        <ele>181.6</ele>
        <time>2022-06-28T07:48:15Z</time>
      </trkpt>
      <trkpt lat="48.79088" lon="2.18289">
        <ele>181.4</ele>
        <time>2022-06-28T07:48:20Z</time>
      </trkpt>
      <trkpt lat="48.79094" lon="2.18297">
        <ele>181.3</ele>
        <time>2022-06-28T07:48:25Z</time>
      </trkpt>
      <trkpt lat="48.79099" lon="2.18304">
        <ele>181.2</ele>
        <time>2022-06-28T07:48:30Z</time>
      </trkpt>
      <trkpt lat="48.79103" lon="2.18312">
        <ele>181.1</ele>
        <time>2022-06-28T07:48:36Z</time>
      </trkpt>
      <trkpt lat="48.79101" lon="2.18321">
        <ele>181.1</ele>
        <time>2022-06-28T07:49:06Z</time>
      </trkpt>
      <trkpt lat="48.79099" lon="2.18339">
        <ele>181</ele>
        <time>2022-06-28T07:49:15Z</time>
      </trkpt>
      <trkpt lat="48.79105" lon="2.18347">
        <ele>181</ele>
        <time>2022-06-28T07:49:24Z</time>
      </trkpt>
      <trkpt lat="48.79107" lon="2.18337">
        <ele>181</ele>
        <time>2022-06-28T07:49:30Z</time>
      </trkpt>
      <trkpt lat="48.79106" lon="2.18327">
        <ele>181</ele>
        <time>2022-06-28T07:49:35Z</time>
      </trkpt>
      <trkpt lat="48.79102" lon="2.1832">
        <ele>181.1</ele>
        <time>2022-06-28T07:49:40Z</time>
      </trkpt>
      <trkpt lat="48.79095" lon="2.1832">
        <ele>181.1</ele>
        <time>2022-06-28T07:49:45Z</time>
      </trkpt>
      <trkpt lat="48.79102" lon="2.18324">
        <ele>181</ele>
        <time>2022-06-28T07:50:09Z</time>
      </trkpt>
      <trkpt lat="48.79099" lon="2.18334">
        <ele>181</ele>
        <time>2022-06-28T07:50:19Z</time>
      </trkpt>
      <trkpt lat="48.79093" lon="2.18342">
        <ele>181</ele>
        <time>2022-06-28T07:50:27Z</time>
      </trkpt>
      <trkpt lat="48.79087" lon="2.1835">
        <ele>181</ele>
        <time>2022-06-28T07:50:32Z</time>
      </trkpt>
      <trkpt lat="48.79081" lon="2.18356">
        <ele>181</ele>
        <time>2022-06-28T07:50:39Z</time>
      </trkpt>
      <trkpt lat="48.79076" lon="2.18362">
        <ele>181</ele>
        <time>2022-06-28T07:50:44Z</time>
      </trkpt>
      <trkpt lat="48.7907" lon="2.1837">
        <ele>181</ele>
        <time>2022-06-28T07:50:50Z</time>
      </trkpt>
      <trkpt lat="48.79066" lon="2.18379">
        <ele>181</ele>
        <time>2022-06-28T07:50:58Z</time>
      </trkpt>
      <trkpt lat="48.79061" lon="2.18387">
        <ele>180.9</ele>
        <time>2022-06-28T07:51:07Z</time>
      </trkpt>
      <trkpt lat="48.79055" lon="2.18397">
        <ele>180.8</ele>
        <time>2022-06-28T07:51:12Z</time>
      </trkpt>
      <trkpt lat="48.79051" lon="2.18407">
        <ele>180.7</ele>
        <time>2022-06-28T07:51:17Z</time>
      </trkpt>
      <trkpt lat="48.79046" lon="2.18415">
        <ele>180.6</ele>
        <time>2022-06-28T07:51:25Z</time>
      </trkpt>
      <trkpt lat="48.79042" lon="2.18423">
        <ele>180.4</ele>
        <time>2022-06-28T07:51:30Z</time>
      </trkpt>
      <trkpt lat="48.79037" lon="2.1843">
        <ele>180.3</ele>
        <time>2022-06-28T07:51:38Z</time>
      </trkpt>
      <trkpt lat="48.79032" lon="2.18438">
        <ele>180.1</ele>
        <time>2022-06-28T07:51:43Z</time>
      </trkpt>
      <trkpt lat="48.79026" lon="2.18446">
        <ele>180</ele>
        <time>2022-06-28T07:51:48Z</time>
      </trkpt>
      <trkpt lat="48.7902" lon="2.18454">
        <ele>179.8</ele>
        <time>2022-06-28T07:51:53Z</time>
      </trkpt>
      <trkpt lat="48.79012" lon="2.18464">
        <ele>179.6</ele>
        <time>2022-06-28T07:51:58Z</time>
      </trkpt>
      <trkpt lat="48.79008" lon="2.18473">
        <ele>179.4</ele>
        <time>2022-06-28T07:52:06Z</time>
      </trkpt>
      <trkpt lat="48.79003" lon="2.18482">
        <ele>179.3</ele>
        <time>2022-06-28T07:52:11Z</time>
      </trkpt>
      <trkpt lat="48.78996" lon="2.18494">
        <ele>179.3</ele>
        <time>2022-06-28T07:52:16Z</time>
      </trkpt>
      <trkpt lat="48.78991" lon="2.18503">
        <ele>179.6</ele>
        <time>2022-06-28T07:52:21Z</time>
      </trkpt>
      <trkpt lat="48.78985" lon="2.18509">
        <ele>180</ele>
        <time>2022-06-28T07:52:27Z</time>
      </trkpt>
      <trkpt lat="48.78979" lon="2.18518">
        <ele>180.4</ele>
        <time>2022-06-28T07:52:32Z</time>
      </trkpt>
      <trkpt lat="48.78972" lon="2.18528">
        <ele>180.8</ele>
        <time>2022-06-28T07:52:37Z</time>
      </trkpt>
      <trkpt lat="48.78967" lon="2.18535">
        <ele>181.1</ele>
        <time>2022-06-28T07:52:42Z</time>
      </trkpt>
      <trkpt lat="48.78964" lon="2.18543">
        <ele>181.2</ele>
        <time>2022-06-28T07:52:47Z</time>
      </trkpt>
      <trkpt lat="48.78958" lon="2.18551">
        <ele>181.5</ele>
        <time>2022-06-28T07:52:52Z</time>
      </trkpt>
      <trkpt lat="48.78952" lon="2.18558">
        <ele>181.8</ele>
        <time>2022-06-28T07:52:57Z</time>
      </trkpt>
      <trkpt lat="48.78946" lon="2.18566">
        <ele>182</ele>
        <time>2022-06-28T07:53:02Z</time>
      </trkpt>
      <trkpt lat="48.78942" lon="2.18574">
        <ele>182.1</ele>
        <time>2022-06-28T07:53:07Z</time>
      </trkpt>
      <trkpt lat="48.78938" lon="2.18583">
        <ele>182.2</ele>
        <time>2022-06-28T07:53:14Z</time>
      </trkpt>
      <trkpt lat="48.78934" lon="2.1859">
        <ele>182.5</ele>
        <time>2022-06-28T07:53:19Z</time>
      </trkpt>
      <trkpt lat="48.78927" lon="2.18595">
        <ele>182.9</ele>
        <time>2022-06-28T07:53:25Z</time>
      </trkpt>
      <trkpt lat="48.78922" lon="2.18605">
        <ele>183.3</ele>
        <time>2022-06-28T07:53:30Z</time>
      </trkpt>
      <trkpt lat="48.78919" lon="2.18617">
        <ele>183.7</ele>
        <time>2022-06-28T07:53:35Z</time>
      </trkpt>
      <trkpt lat="48.78913" lon="2.18626">
        <ele>184.1</ele>
        <time>2022-06-28T07:53:42Z</time>
      </trkpt>
      <trkpt lat="48.78908" lon="2.18633">
        <ele>184.4</ele>
        <time>2022-06-28T07:53:47Z</time>
      </trkpt>
      <trkpt lat="48.78901" lon="2.1864">
        <ele>184.7</ele>
        <time>2022-06-28T07:53:52Z</time>
      </trkpt>
      <trkpt lat="48.7889" lon="2.18648">
        <ele>185</ele>
        <time>2022-06-28T07:53:57Z</time>
      </trkpt>
      <trkpt lat="48.78887" lon="2.18638">
        <ele>184.9</ele>
        <time>2022-06-28T07:54:18Z</time>
      </trkpt>
      <trkpt lat="48.78887" lon="2.18629">
        <ele>184.8</ele>
        <time>2022-06-28T07:54:28Z</time>
      </trkpt>
      <trkpt lat="48.78878" lon="2.18627">
        <ele>185</ele>
        <time>2022-06-28T07:54:35Z</time>
      </trkpt>
      <trkpt lat="48.78875" lon="2.18617">
        <ele>184.9</ele>
        <time>2022-06-28T07:54:40Z</time>
      </trkpt>
      <trkpt lat="48.7887" lon="2.18607">
        <ele>184.9</ele>
        <time>2022-06-28T07:54:45Z</time>
      </trkpt>
      <trkpt lat="48.78866" lon="2.18599">
        <ele>185</ele>
        <time>2022-06-28T07:54:50Z</time>
      </trkpt>
      <trkpt lat="48.78865" lon="2.18589">
        <ele>184.9</ele>
        <time>2022-06-28T07:54:55Z</time>
      </trkpt>
      <trkpt lat="48.78863" lon="2.18579">
        <ele>184.8</ele>
        <time>2022-06-28T07:55:00Z</time>
      </trkpt>
      <trkpt lat="48.78854" lon="2.18578">
        <ele>185.1</ele>
        <time>2022-06-28T07:55:06Z</time>
      </trkpt>
      <trkpt lat="48.78855" lon="2.18567">
        <ele>184.7</ele>
        <time>2022-06-28T07:55:12Z</time>
      </trkpt>
      <trkpt lat="48.7885" lon="2.1856">
        <ele>184.6</ele>
        <time>2022-06-28T07:55:24Z</time>
      </trkpt>
      <trkpt lat="48.78859" lon="2.18562">
        <ele>184.4</ele>
        <time>2022-06-28T07:55:44Z</time>
      </trkpt>
      <trkpt lat="48.78865" lon="2.18558">
        <ele>184.2</ele>
        <time>2022-06-28T07:56:14Z</time>
      </trkpt>
      <trkpt lat="48.78857" lon="2.18555">
        <ele>184.3</ele>
        <time>2022-06-28T07:56:25Z</time>
      </trkpt>
      <trkpt lat="48.78852" lon="2.18563">
        <ele>184.6</ele>
        <time>2022-06-28T07:56:31Z</time>
      </trkpt>
      <trkpt lat="48.78853" lon="2.18573">
        <ele>184.9</ele>
        <time>2022-06-28T07:56:37Z</time>
      </trkpt>
      <trkpt lat="48.78857" lon="2.18582">
        <ele>185.1</ele>
        <time>2022-06-28T07:57:45Z</time>
      </trkpt>
      <trkpt lat="48.7885" lon="2.18584">
        <ele>185.4</ele>
        <time>2022-06-28T07:58:02Z</time>
      </trkpt>
      <trkpt lat="48.78847" lon="2.18593">
        <ele>185.5</ele>
        <time>2022-06-28T07:58:11Z</time>
      </trkpt>
      <trkpt lat="48.78854" lon="2.18597">
        <ele>185.3</ele>
        <time>2022-06-28T07:58:16Z</time>
      </trkpt>
      <trkpt lat="48.78853" lon="2.18607">
        <ele>185.4</ele>
        <time>2022-06-28T07:58:21Z</time>
      </trkpt>
      <trkpt lat="48.78852" lon="2.18617">
        <ele>185.5</ele>
        <time>2022-06-28T07:58:26Z</time>
      </trkpt>
      <trkpt lat="48.7885" lon="2.18628">
        <ele>185.6</ele>
        <time>2022-06-28T07:58:31Z</time>
      </trkpt>
      <trkpt lat="48.78848" lon="2.18639">
        <ele>185.7</ele>
        <time>2022-06-28T07:58:36Z</time>
      </trkpt>
      <trkpt lat="48.78846" lon="2.18649">
        <ele>185.8</ele>
        <time>2022-06-28T07:58:41Z</time>
      </trkpt>
      <trkpt lat="48.78843" lon="2.18661">
        <ele>185.9</ele>
        <time>2022-06-28T07:58:46Z</time>
      </trkpt>
      <trkpt lat="48.78838" lon="2.18672">
        <ele>185.8</ele>
        <time>2022-06-28T07:58:51Z</time>
      </trkpt>
      <trkpt lat="48.78836" lon="2.18682">
        <ele>185.4</ele>
        <time>2022-06-28T07:58:56Z</time>
      </trkpt>
      <trkpt lat="48.78834" lon="2.18693">
        <ele>185</ele>
        <time>2022-06-28T07:59:03Z</time>
      </trkpt>
      <trkpt lat="48.78833" lon="2.18704">
        <ele>184.6</ele>
        <time>2022-06-28T07:59:08Z</time>
      </trkpt>
      <trkpt lat="48.78829" lon="2.18715">
        <ele>184.2</ele>
        <time>2022-06-28T07:59:13Z</time>
      </trkpt>
      <trkpt lat="48.78826" lon="2.18724">
        <ele>183.8</ele>
        <time>2022-06-28T07:59:18Z</time>
      </trkpt>
      <trkpt lat="48.78825" lon="2.18736">
        <ele>183.4</ele>
        <time>2022-06-28T07:59:23Z</time>
      </trkpt>
      <trkpt lat="48.78825" lon="2.18747">
        <ele>183</ele>
        <time>2022-06-28T07:59:31Z</time>
      </trkpt>
      <trkpt lat="48.78824" lon="2.18758">
        <ele>183.1</ele>
        <time>2022-06-28T07:59:36Z</time>
      </trkpt>
      <trkpt lat="48.78821" lon="2.18768">
        <ele>183.2</ele>
        <time>2022-06-28T07:59:49Z</time>
      </trkpt>
      <trkpt lat="48.78821" lon="2.18777">
        <ele>183.4</ele>
        <time>2022-06-28T07:59:54Z</time>
      </trkpt>
      <trkpt lat="48.78819" lon="2.18789">
        <ele>183.6</ele>
        <time>2022-06-28T07:59:59Z</time>
      </trkpt>
      <trkpt lat="48.78815" lon="2.18807">
        <ele>183.8</ele>
        <time>2022-06-28T08:00:06Z</time>
      </trkpt>
      <trkpt lat="48.78822" lon="2.1881">
        <ele>184.1</ele>
        <time>2022-06-28T08:00:12Z</time>
      </trkpt>
      <trkpt lat="48.78824" lon="2.1882">
        <ele>184.4</ele>
        <time>2022-06-28T08:00:28Z</time>
      </trkpt>
      <trkpt lat="48.78823" lon="2.1883">
        <ele>184.6</ele>
        <time>2022-06-28T08:00:46Z</time>
      </trkpt>
      <trkpt lat="48.78824" lon="2.18841">
        <ele>184.6</ele>
        <time>2022-06-28T08:00:56Z</time>
      </trkpt>
      <trkpt lat="48.78827" lon="2.1885">
        <ele>184.6</ele>
        <time>2022-06-28T08:01:04Z</time>
      </trkpt>
      <trkpt lat="48.78826" lon="2.18862">
        <ele>184.4</ele>
        <time>2022-06-28T08:01:09Z</time>
      </trkpt>
      <trkpt lat="48.78821" lon="2.1887">
        <ele>184.2</ele>
        <time>2022-06-28T08:01:14Z</time>
      </trkpt>
      <trkpt lat="48.78811" lon="2.18878">
        <ele>183.8</ele>
        <time>2022-06-28T08:01:19Z</time>
      </trkpt>
      <trkpt lat="48.78817" lon="2.18879">
        <ele>184</ele>
        <time>2022-06-28T08:01:24Z</time>
      </trkpt>
      <trkpt lat="48.78824" lon="2.18882">
        <ele>184.1</ele>
        <time>2022-06-28T08:01:32Z</time>
      </trkpt>
      <trkpt lat="48.78833" lon="2.18898">
        <ele>184.2</ele>
        <time>2022-06-28T08:01:45Z</time>
      </trkpt>
      <trkpt lat="48.78833" lon="2.18912">
        <ele>184</ele>
        <time>2022-06-28T08:01:50Z</time>
      </trkpt>
      <trkpt lat="48.78833" lon="2.18922">
        <ele>183.9</ele>
        <time>2022-06-28T08:01:57Z</time>
      </trkpt>
      <trkpt lat="48.78834" lon="2.18934">
        <ele>183.6</ele>
        <time>2022-06-28T08:02:03Z</time>
      </trkpt>
      <trkpt lat="48.78829" lon="2.18941">
        <ele>183.3</ele>
        <time>2022-06-28T08:02:09Z</time>
      </trkpt>
      <trkpt lat="48.78827" lon="2.18953">
        <ele>183</ele>
        <time>2022-06-28T08:02:14Z</time>
      </trkpt>
      <trkpt lat="48.78823" lon="2.18945">
        <ele>183.2</ele>
        <time>2022-06-28T08:02:22Z</time>
      </trkpt>
      <trkpt lat="48.78822" lon="2.18932">
        <ele>183.4</ele>
        <time>2022-06-28T08:02:39Z</time>
      </trkpt>
      <trkpt lat="48.78822" lon="2.18922">
        <ele>183.6</ele>
        <time>2022-06-28T08:02:44Z</time>
      </trkpt>
      <trkpt lat="48.78813" lon="2.18927">
        <ele>183.3</ele>
        <time>2022-06-28T08:02:51Z</time>
      </trkpt>
      <trkpt lat="48.7882" lon="2.18919">
        <ele>183.6</ele>
        <time>2022-06-28T08:03:22Z</time>
      </trkpt>
      <trkpt lat="48.78832" lon="2.18911">
        <ele>184</ele>
        <time>2022-06-28T08:03:38Z</time>
      </trkpt>
      <trkpt lat="48.78828" lon="2.18921">
        <ele>183.8</ele>
        <time>2022-06-28T08:03:56Z</time>
      </trkpt>
      <trkpt lat="48.78834" lon="2.18914">
        <ele>184</ele>
        <time>2022-06-28T08:04:04Z</time>
      </trkpt>
      <trkpt lat="48.78844" lon="2.1891">
        <ele>184.1</ele>
        <time>2022-06-28T08:04:09Z</time>
      </trkpt>
      <trkpt lat="48.7884" lon="2.18918">
        <ele>184</ele>
        <time>2022-06-28T08:04:41Z</time>
      </trkpt>
      <trkpt lat="48.78833" lon="2.18922">
        <ele>183.9</ele>
        <time>2022-06-28T08:04:47Z</time>
      </trkpt>
      <trkpt lat="48.78829" lon="2.18931">
        <ele>183.6</ele>
        <time>2022-06-28T08:04:55Z</time>
      </trkpt>
      <trkpt lat="48.78825" lon="2.18941">
        <ele>183.3</ele>
        <time>2022-06-28T08:05:03Z</time>
      </trkpt>
      <trkpt lat="48.78821" lon="2.1895">
        <ele>183</ele>
        <time>2022-06-28T08:05:08Z</time>
      </trkpt>
      <trkpt lat="48.78819" lon="2.18962">
        <ele>182.8</ele>
        <time>2022-06-28T08:05:13Z</time>
      </trkpt>
      <trkpt lat="48.78821" lon="2.18972">
        <ele>182.6</ele>
        <time>2022-06-28T08:05:18Z</time>
      </trkpt>
      <trkpt lat="48.78818" lon="2.18983">
        <ele>182.3</ele>
        <time>2022-06-28T08:05:23Z</time>
      </trkpt>
      <trkpt lat="48.78815" lon="2.18992">
        <ele>182.1</ele>
        <time>2022-06-28T08:05:32Z</time>
      </trkpt>
      <trkpt lat="48.78814" lon="2.19002">
        <ele>182</ele>
        <time>2022-06-28T08:05:41Z</time>
      </trkpt>
      <trkpt lat="48.78814" lon="2.19013">
        <ele>182.2</ele>
        <time>2022-06-28T08:05:47Z</time>
      </trkpt>
      <trkpt lat="48.7881" lon="2.19021">
        <ele>182.4</ele>
        <time>2022-06-28T08:05:54Z</time>
      </trkpt>
      <trkpt lat="48.78806" lon="2.19035">
        <ele>182.7</ele>
        <time>2022-06-28T08:05:59Z</time>
      </trkpt>
      <trkpt lat="48.78802" lon="2.19046">
        <ele>183</ele>
        <time>2022-06-28T08:06:04Z</time>
      </trkpt>
      <trkpt lat="48.788" lon="2.19056">
        <ele>183.2</ele>
        <time>2022-06-28T08:06:10Z</time>
      </trkpt>
      <trkpt lat="48.78798" lon="2.19067">
        <ele>183.5</ele>
        <time>2022-06-28T08:06:16Z</time>
      </trkpt>
      <trkpt lat="48.78795" lon="2.19078">
        <ele>183.8</ele>
        <time>2022-06-28T08:06:23Z</time>
      </trkpt>
      <trkpt lat="48.78794" lon="2.1909">
        <ele>183.9</ele>
        <time>2022-06-28T08:06:29Z</time>
      </trkpt>
      <trkpt lat="48.78796" lon="2.19101">
        <ele>183.7</ele>
        <time>2022-06-28T08:06:34Z</time>
      </trkpt>
      <trkpt lat="48.78799" lon="2.1911">
        <ele>183.6</ele>
        <time>2022-06-28T08:06:39Z</time>
      </trkpt>
      <trkpt lat="48.78797" lon="2.19121">
        <ele>183.5</ele>
        <time>2022-06-28T08:06:44Z</time>
      </trkpt>
      <trkpt lat="48.78795" lon="2.19131">
        <ele>183.4</ele>
        <time>2022-06-28T08:06:50Z</time>
      </trkpt>
      <trkpt lat="48.78795" lon="2.19142">
        <ele>183.3</ele>
        <time>2022-06-28T08:06:56Z</time>
      </trkpt>
      <trkpt lat="48.78792" lon="2.19153">
        <ele>183.2</ele>
        <time>2022-06-28T08:07:01Z</time>
      </trkpt>
      <trkpt lat="48.78788" lon="2.19163">
        <ele>183</ele>
        <time>2022-06-28T08:07:06Z</time>
      </trkpt>
      <trkpt lat="48.78788" lon="2.19173">
        <ele>182.9</ele>
        <time>2022-06-28T08:07:12Z</time>
      </trkpt>
      <trkpt lat="48.78785" lon="2.19182">
        <ele>182.7</ele>
        <time>2022-06-28T08:07:21Z</time>
      </trkpt>
      <trkpt lat="48.7878" lon="2.19189">
        <ele>182.5</ele>
        <time>2022-06-28T08:07:26Z</time>
      </trkpt>
      <trkpt lat="48.78775" lon="2.19196">
        <ele>182.4</ele>
        <time>2022-06-28T08:07:31Z</time>
      </trkpt>
      <trkpt lat="48.78773" lon="2.19207">
        <ele>182.2</ele>
        <time>2022-06-28T08:07:37Z</time>
      </trkpt>
      <trkpt lat="48.78772" lon="2.19219">
        <ele>182</ele>
        <time>2022-06-28T08:07:42Z</time>
      </trkpt>
      <trkpt lat="48.78772" lon="2.1923">
        <ele>181.8</ele>
        <time>2022-06-28T08:07:47Z</time>
      </trkpt>
      <trkpt lat="48.78773" lon="2.19241">
        <ele>181.6</ele>
        <time>2022-06-28T08:07:52Z</time>
      </trkpt>
      <trkpt lat="48.78773" lon="2.19252">
        <ele>181.4</ele>
        <time>2022-06-28T08:07:58Z</time>
      </trkpt>
      <trkpt lat="48.78769" lon="2.19262">
        <ele>181.1</ele>
        <time>2022-06-28T08:08:07Z</time>
      </trkpt>
      <trkpt lat="48.78763" lon="2.19266">
        <ele>181.1</ele>
        <time>2022-06-28T08:08:12Z</time>
      </trkpt>
      <trkpt lat="48.78757" lon="2.19274">
        <ele>180.9</ele>
        <time>2022-06-28T08:08:17Z</time>
      </trkpt>
      <trkpt lat="48.78753" lon="2.19282">
        <ele>180.8</ele>
        <time>2022-06-28T08:08:24Z</time>
      </trkpt>
      <trkpt lat="48.78749" lon="2.19291">
        <ele>180.5</ele>
        <time>2022-06-28T08:08:30Z</time>
      </trkpt>
      <trkpt lat="48.78746" lon="2.193">
        <ele>180.1</ele>
        <time>2022-06-28T08:08:36Z</time>
      </trkpt>
      <trkpt lat="48.7874" lon="2.19309">
        <ele>179.6</ele>
        <time>2022-06-28T08:08:41Z</time>
      </trkpt>
      <trkpt lat="48.78733" lon="2.19312">
        <ele>179.3</ele>
        <time>2022-06-28T08:08:47Z</time>
      </trkpt>
      <trkpt lat="48.78727" lon="2.19309">
        <ele>179.3</ele>
        <time>2022-06-28T08:08:53Z</time>
      </trkpt>
      <trkpt lat="48.78721" lon="2.19305">
        <ele>179.3</ele>
        <time>2022-06-28T08:08:58Z</time>
      </trkpt>
      <trkpt lat="48.78715" lon="2.19302">
        <ele>179.3</ele>
        <time>2022-06-28T08:09:04Z</time>
      </trkpt>
      <trkpt lat="48.78708" lon="2.19301">
        <ele>179.2</ele>
        <time>2022-06-28T08:09:13Z</time>
      </trkpt>
      <trkpt lat="48.78702" lon="2.19299">
        <ele>179.2</ele>
        <time>2022-06-28T08:09:19Z</time>
      </trkpt>
      <trkpt lat="48.78693" lon="2.19297">
        <ele>179.2</ele>
        <time>2022-06-28T08:09:24Z</time>
      </trkpt>
      <trkpt lat="48.78686" lon="2.19294">
        <ele>179.2</ele>
        <time>2022-06-28T08:09:30Z</time>
      </trkpt>
      <trkpt lat="48.7868" lon="2.19292">
        <ele>179.2</ele>
        <time>2022-06-28T08:09:38Z</time>
      </trkpt>
      <trkpt lat="48.78673" lon="2.19287">
        <ele>179.4</ele>
        <time>2022-06-28T08:09:44Z</time>
      </trkpt>
      <trkpt lat="48.78666" lon="2.19282">
        <ele>179.7</ele>
        <time>2022-06-28T08:09:49Z</time>
      </trkpt>
      <trkpt lat="48.78656" lon="2.1928">
        <ele>179.8</ele>
        <time>2022-06-28T08:09:54Z</time>
      </trkpt>
      <trkpt lat="48.7865" lon="2.19275">
        <ele>180.1</ele>
        <time>2022-06-28T08:09:59Z</time>
      </trkpt>
      <trkpt lat="48.78655" lon="2.19283">
        <ele>179.6</ele>
        <time>2022-06-28T08:10:15Z</time>
      </trkpt>
      <trkpt lat="48.7865" lon="2.19291">
        <ele>179.1</ele>
        <time>2022-06-28T08:10:21Z</time>
      </trkpt>
      <trkpt lat="48.78649" lon="2.19302">
        <ele>178.5</ele>
        <time>2022-06-28T08:10:55Z</time>
      </trkpt>
      <trkpt lat="48.78645" lon="2.1931">
        <ele>178.1</ele>
        <time>2022-06-28T08:11:02Z</time>
      </trkpt>
      <trkpt lat="48.78641" lon="2.1932">
        <ele>177.6</ele>
        <time>2022-06-28T08:11:08Z</time>
      </trkpt>
      <trkpt lat="48.78639" lon="2.19331">
        <ele>177.1</ele>
        <time>2022-06-28T08:11:14Z</time>
      </trkpt>
      <trkpt lat="48.7864" lon="2.19341">
        <ele>176.2</ele>
        <time>2022-06-28T08:11:22Z</time>
      </trkpt>
      <trkpt lat="48.78646" lon="2.19346">
        <ele>175.5</ele>
        <time>2022-06-28T08:11:38Z</time>
      </trkpt>
      <trkpt lat="48.78647" lon="2.19357">
        <ele>174.4</ele>
        <time>2022-06-28T08:11:47Z</time>
      </trkpt>
      <trkpt lat="48.7865" lon="2.19365">
        <ele>173.4</ele>
        <time>2022-06-28T08:11:54Z</time>
      </trkpt>
      <trkpt lat="48.78652" lon="2.19375">
        <ele>172.3</ele>
        <time>2022-06-28T08:12:01Z</time>
      </trkpt>
      <trkpt lat="48.78656" lon="2.19383">
        <ele>171.2</ele>
        <time>2022-06-28T08:12:10Z</time>
      </trkpt>
      <trkpt lat="48.78659" lon="2.19392">
        <ele>170.1</ele>
        <time>2022-06-28T08:12:15Z</time>
      </trkpt>
      <trkpt lat="48.78658" lon="2.19402">
        <ele>169.2</ele>
        <time>2022-06-28T08:12:23Z</time>
      </trkpt>
      <trkpt lat="48.78658" lon="2.19413">
        <ele>168</ele>
        <time>2022-06-28T08:12:30Z</time>
      </trkpt>
      <trkpt lat="48.78657" lon="2.19423">
        <ele>167.2</ele>
        <time>2022-06-28T08:12:35Z</time>
      </trkpt>
      <trkpt lat="48.78653" lon="2.19433">
        <ele>166.7</ele>
        <time>2022-06-28T08:12:42Z</time>
      </trkpt>
      <trkpt lat="48.78652" lon="2.19444">
        <ele>166</ele>
        <time>2022-06-28T08:12:49Z</time>
      </trkpt>
      <trkpt lat="48.78653" lon="2.19455">
        <ele>165.1</ele>
        <time>2022-06-28T08:12:56Z</time>
      </trkpt>
      <trkpt lat="48.78649" lon="2.19464">
        <ele>164.6</ele>
        <time>2022-06-28T08:13:01Z</time>
      </trkpt>
      <trkpt lat="48.78644" lon="2.19472">
        <ele>164.3</ele>
        <time>2022-06-28T08:13:08Z</time>
      </trkpt>
      <trkpt lat="48.78644" lon="2.19482">
        <ele>163.5</ele>
        <time>2022-06-28T08:13:15Z</time>
      </trkpt>
      <trkpt lat="48.78638" lon="2.19484">
        <ele>163.7</ele>
        <time>2022-06-28T08:13:22Z</time>
      </trkpt>
      <trkpt lat="48.78631" lon="2.19485">
        <ele>163.9</ele>
        <time>2022-06-28T08:13:31Z</time>
      </trkpt>
      <trkpt lat="48.78623" lon="2.19494">
        <ele>163.6</ele>
        <time>2022-06-28T08:13:47Z</time>
      </trkpt>
      <trkpt lat="48.78628" lon="2.19501">
        <ele>162.8</ele>
        <time>2022-06-28T08:13:58Z</time>
      </trkpt>
      <trkpt lat="48.78634" lon="2.19504">
        <ele>162.4</ele>
        <time>2022-06-28T08:14:03Z</time>
      </trkpt>
      <trkpt lat="48.78639" lon="2.1951">
        <ele>161.9</ele>
        <time>2022-06-28T08:14:12Z</time>
      </trkpt>
      <trkpt lat="48.7864" lon="2.19521">
        <ele>161.4</ele>
        <time>2022-06-28T08:14:22Z</time>
      </trkpt>
      <trkpt lat="48.78644" lon="2.19531">
        <ele>160.8</ele>
        <time>2022-06-28T08:14:48Z</time>
      </trkpt>
      <trkpt lat="48.78649" lon="2.19538">
        <ele>160.2</ele>
        <time>2022-06-28T08:14:54Z</time>
      </trkpt>
      <trkpt lat="48.78649" lon="2.1955">
        <ele>159.7</ele>
        <time>2022-06-28T08:15:00Z</time>
      </trkpt>
      <trkpt lat="48.78646" lon="2.1956">
        <ele>159.5</ele>
        <time>2022-06-28T08:15:05Z</time>
      </trkpt>
      <trkpt lat="48.78649" lon="2.19569">
        <ele>158.9</ele>
        <time>2022-06-28T08:15:14Z</time>
      </trkpt>
      <trkpt lat="48.78653" lon="2.19579">
        <ele>158.2</ele>
        <time>2022-06-28T08:15:21Z</time>
      </trkpt>
      <trkpt lat="48.78653" lon="2.19589">
        <ele>157.6</ele>
        <time>2022-06-28T08:15:26Z</time>
      </trkpt>
      <trkpt lat="48.78654" lon="2.19601">
        <ele>156.8</ele>
        <time>2022-06-28T08:15:31Z</time>
      </trkpt>
      <trkpt lat="48.78655" lon="2.19611">
        <ele>156.1</ele>
        <time>2022-06-28T08:15:37Z</time>
      </trkpt>
      <trkpt lat="48.78652" lon="2.19621">
        <ele>155.7</ele>
        <time>2022-06-28T08:15:43Z</time>
      </trkpt>
      <trkpt lat="48.78652" lon="2.19632">
        <ele>155.1</ele>
        <time>2022-06-28T08:15:49Z</time>
      </trkpt>
      <trkpt lat="48.78651" lon="2.19643">
        <ele>154.5</ele>
        <time>2022-06-28T08:15:55Z</time>
      </trkpt>
      <trkpt lat="48.78651" lon="2.19653">
        <ele>153.9</ele>
        <time>2022-06-28T08:16:03Z</time>
      </trkpt>
      <trkpt lat="48.78647" lon="2.19662">
        <ele>153.9</ele>
        <time>2022-06-28T08:16:11Z</time>
      </trkpt>
      <trkpt lat="48.78641" lon="2.19666">
        <ele>154.4</ele>
        <time>2022-06-28T08:16:17Z</time>
      </trkpt>
      <trkpt lat="48.78636" lon="2.1966">
        <ele>155.4</ele>
        <time>2022-06-28T08:16:30Z</time>
      </trkpt>
      <trkpt lat="48.78631" lon="2.19652">
        <ele>156.4</ele>
        <time>2022-06-28T08:16:40Z</time>
      </trkpt>
      <trkpt lat="48.78637" lon="2.19663">
        <ele>155.1</ele>
        <time>2022-06-28T08:17:05Z</time>
      </trkpt>
      <trkpt lat="48.78633" lon="2.19671">
        <ele>155.2</ele>
        <time>2022-06-28T08:18:06Z</time>
      </trkpt>
      <trkpt lat="48.78626" lon="2.19668">
        <ele>156.3</ele>
        <time>2022-06-28T08:18:48Z</time>
      </trkpt>
      <trkpt lat="48.78633" lon="2.19678">
        <ele>154.7</ele>
        <time>2022-06-28T08:19:04Z</time>
      </trkpt>
      <trkpt lat="48.78628" lon="2.1967">
        <ele>155.9</ele>
        <time>2022-06-28T08:19:18Z</time>
      </trkpt>
      <trkpt lat="48.78616" lon="2.19665">
        <ele>157.7</ele>
        <time>2022-06-28T08:19:33Z</time>
      </trkpt>
      <trkpt lat="48.78623" lon="2.19673">
        <ele>156.3</ele>
        <time>2022-06-28T08:19:54Z</time>
      </trkpt>
      <trkpt lat="48.78614" lon="2.19662">
        <ele>158.1</ele>
        <time>2022-06-28T08:20:17Z</time>
      </trkpt>
      <trkpt lat="48.78611" lon="2.19653">
        <ele>158.8</ele>
        <time>2022-06-28T08:20:28Z</time>
      </trkpt>
      <trkpt lat="48.78609" lon="2.19667">
        <ele>158.6</ele>
        <time>2022-06-28T08:21:03Z</time>
      </trkpt>
      <trkpt lat="48.78616" lon="2.19671">
        <ele>157.4</ele>
        <time>2022-06-28T08:21:15Z</time>
      </trkpt>
      <trkpt lat="48.78623" lon="2.19667">
        <ele>156.7</ele>
        <time>2022-06-28T08:21:20Z</time>
      </trkpt>
      <trkpt lat="48.78629" lon="2.19668">
        <ele>155.9</ele>
        <time>2022-06-28T08:21:30Z</time>
      </trkpt>
      <trkpt lat="48.78631" lon="2.19678">
        <ele>155</ele>
        <time>2022-06-28T08:22:02Z</time>
      </trkpt>
      <trkpt lat="48.78637" lon="2.19683">
        <ele>153.9</ele>
        <time>2022-06-28T08:22:07Z</time>
      </trkpt>
      <trkpt lat="48.78638" lon="2.19693">
        <ele>153.1</ele>
        <time>2022-06-28T08:22:14Z</time>
      </trkpt>
      <trkpt lat="48.78635" lon="2.19704">
        <ele>152.8</ele>
        <time>2022-06-28T08:22:22Z</time>
      </trkpt>
      <trkpt lat="48.78641" lon="2.19707">
        <ele>151.8</ele>
        <time>2022-06-28T08:22:51Z</time>
      </trkpt>
      <trkpt lat="48.78644" lon="2.19718">
        <ele>150.7</ele>
        <time>2022-06-28T08:23:20Z</time>
      </trkpt>
      <trkpt lat="48.78639" lon="2.19729">
        <ele>150.7</ele>
        <time>2022-06-28T08:23:26Z</time>
      </trkpt>
      <trkpt lat="48.78646" lon="2.19725">
        <ele>150.1</ele>
        <time>2022-06-28T08:23:47Z</time>
      </trkpt>
      <trkpt lat="48.78652" lon="2.19721">
        <ele>149.6</ele>
        <time>2022-06-28T08:23:56Z</time>
      </trkpt>
      <trkpt lat="48.78648" lon="2.19728">
        <ele>149.6</ele>
        <time>2022-06-28T08:24:37Z</time>
      </trkpt>
      <trkpt lat="48.78648" lon="2.19717">
        <ele>150.3</ele>
        <time>2022-06-28T08:25:03Z</time>
      </trkpt>
      <trkpt lat="48.78654" lon="2.19721">
        <ele>149.3</ele>
        <time>2022-06-28T08:25:13Z</time>
      </trkpt>
      <trkpt lat="48.78661" lon="2.19726">
        <ele>148.1</ele>
        <time>2022-06-28T08:25:19Z</time>
      </trkpt>
      <trkpt lat="48.78664" lon="2.19735">
        <ele>147.2</ele>
        <time>2022-06-28T08:25:29Z</time>
      </trkpt>
      <trkpt lat="48.78666" lon="2.1975">
        <ele>146.1</ele>
        <time>2022-06-28T08:25:42Z</time>
      </trkpt>
      <trkpt lat="48.78664" lon="2.19738">
        <ele>147</ele>
        <time>2022-06-28T08:26:19Z</time>
      </trkpt>
      <trkpt lat="48.7867" lon="2.19743">
        <ele>146.9</ele>
        <time>2022-06-28T08:26:56Z</time>
      </trkpt>
      <trkpt lat="48.78672" lon="2.19753">
        <ele>147</ele>
        <time>2022-06-28T08:27:23Z</time>
      </trkpt>
      <trkpt lat="48.78672" lon="2.19764">
        <ele>147.9</ele>
        <time>2022-06-28T08:27:55Z</time>
      </trkpt>
      <trkpt lat="48.7867" lon="2.19752">
        <ele>146.6</ele>
        <time>2022-06-28T08:28:42Z</time>
      </trkpt>
      <trkpt lat="48.78673" lon="2.19743">
        <ele>147.3</ele>
        <time>2022-06-28T08:28:50Z</time>
      </trkpt>
      <trkpt lat="48.78679" lon="2.1974">
        <ele>148.2</ele>
        <time>2022-06-28T08:29:02Z</time>
      </trkpt>
      <trkpt lat="48.78687" lon="2.19744">
        <ele>149.1</ele>
        <time>2022-06-28T08:29:07Z</time>
      </trkpt>
      <trkpt lat="48.78696" lon="2.19749">
        <ele>149.9</ele>
        <time>2022-06-28T08:29:12Z</time>
      </trkpt>
      <trkpt lat="48.78699" lon="2.1976">
        <ele>150.8</ele>
        <time>2022-06-28T08:29:21Z</time>
      </trkpt>
      <trkpt lat="48.78702" lon="2.1977">
        <ele>151.6</ele>
        <time>2022-06-28T08:29:28Z</time>
      </trkpt>
      <trkpt lat="48.78707" lon="2.19776">
        <ele>152.3</ele>
        <time>2022-06-28T08:29:55Z</time>
      </trkpt>
      <trkpt lat="48.78706" lon="2.19786">
        <ele>152.6</ele>
        <time>2022-06-28T08:30:02Z</time>
      </trkpt>
      <trkpt lat="48.78701" lon="2.19794">
        <ele>152.6</ele>
        <time>2022-06-28T08:30:33Z</time>
      </trkpt>
      <trkpt lat="48.78697" lon="2.198">
        <ele>152.6</ele>
        <time>2022-06-28T08:30:41Z</time>
      </trkpt>
      <trkpt lat="48.78693" lon="2.19809">
        <ele>152.9</ele>
        <time>2022-06-28T08:30:46Z</time>
      </trkpt>
      <trkpt lat="48.78688" lon="2.19816">
        <ele>153.1</ele>
        <time>2022-06-28T08:30:55Z</time>
      </trkpt>
      <trkpt lat="48.78681" lon="2.19821">
        <ele>153.2</ele>
        <time>2022-06-28T08:31:00Z</time>
      </trkpt>
      <trkpt lat="48.78674" lon="2.19825">
        <ele>153.4</ele>
        <time>2022-06-28T08:31:05Z</time>
      </trkpt>
      <trkpt lat="48.78669" lon="2.19831">
        <ele>153.8</ele>
        <time>2022-06-28T08:31:12Z</time>
      </trkpt>
      <trkpt lat="48.78664" lon="2.1982">
        <ele>152.8</ele>
        <time>2022-06-28T08:31:38Z</time>
      </trkpt>
      <trkpt lat="48.78659" lon="2.19813">
        <ele>152.4</ele>
        <time>2022-06-28T08:31:47Z</time>
      </trkpt>
      <trkpt lat="48.78653" lon="2.19818">
        <ele>153.1</ele>
        <time>2022-06-28T08:32:00Z</time>
      </trkpt>
      <trkpt lat="48.78648" lon="2.19825">
        <ele>153.8</ele>
        <time>2022-06-28T08:32:05Z</time>
      </trkpt>
      <trkpt lat="48.78647" lon="2.19835">
        <ele>154.6</ele>
        <time>2022-06-28T08:32:15Z</time>
      </trkpt>
      <trkpt lat="48.78638" lon="2.1984">
        <ele>155.3</ele>
        <time>2022-06-28T08:32:20Z</time>
      </trkpt>
      <trkpt lat="48.78632" lon="2.19845">
        <ele>155.8</ele>
        <time>2022-06-28T08:32:28Z</time>
      </trkpt>
      <trkpt lat="48.78625" lon="2.19844">
        <ele>155.8</ele>
        <time>2022-06-28T08:32:33Z</time>
      </trkpt>
      <trkpt lat="48.78618" lon="2.19839">
        <ele>155.6</ele>
        <time>2022-06-28T08:32:45Z</time>
      </trkpt>
      <trkpt lat="48.78612" lon="2.19833">
        <ele>155.3</ele>
        <time>2022-06-28T08:32:53Z</time>
      </trkpt>
      <trkpt lat="48.78606" lon="2.19827">
        <ele>155.3</ele>
        <time>2022-06-28T08:33:00Z</time>
      </trkpt>
      <trkpt lat="48.786" lon="2.19824">
        <ele>155.4</ele>
        <time>2022-06-28T08:33:08Z</time>
      </trkpt>
      <trkpt lat="48.78599" lon="2.19814">
        <ele>155.3</ele>
        <time>2022-06-28T08:33:15Z</time>
      </trkpt>
      <trkpt lat="48.78592" lon="2.19815">
        <ele>155.6</ele>
        <time>2022-06-28T08:33:42Z</time>
      </trkpt>
      <trkpt lat="48.78586" lon="2.19817">
        <ele>155.9</ele>
        <time>2022-06-28T08:33:50Z</time>
      </trkpt>
      <trkpt lat="48.78579" lon="2.1982">
        <ele>156.6</ele>
        <time>2022-06-28T08:33:59Z</time>
      </trkpt>
      <trkpt lat="48.78573" lon="2.19812">
        <ele>157.4</ele>
        <time>2022-06-28T08:34:17Z</time>
      </trkpt>
      <trkpt lat="48.78571" lon="2.19803">
        <ele>157.6</ele>
        <time>2022-06-28T08:34:32Z</time>
      </trkpt>
      <trkpt lat="48.78577" lon="2.19816">
        <ele>156.8</ele>
        <time>2022-06-28T08:34:59Z</time>
      </trkpt>
      <trkpt lat="48.78573" lon="2.19824">
        <ele>157.4</ele>
        <time>2022-06-28T08:35:12Z</time>
      </trkpt>
      <trkpt lat="48.78573" lon="2.19834">
        <ele>157.5</ele>
        <time>2022-06-28T08:35:50Z</time>
      </trkpt>
      <trkpt lat="48.7857" lon="2.19843">
        <ele>158.3</ele>
        <time>2022-06-28T08:36:01Z</time>
      </trkpt>
      <trkpt lat="48.78563" lon="2.19847">
        <ele>159.4</ele>
        <time>2022-06-28T08:36:06Z</time>
      </trkpt>
      <trkpt lat="48.78559" lon="2.19857">
        <ele>160.3</ele>
        <time>2022-06-28T08:36:14Z</time>
      </trkpt>
      <trkpt lat="48.7856" lon="2.19868">
        <ele>160.6</ele>
        <time>2022-06-28T08:36:23Z</time>
      </trkpt>
      <trkpt lat="48.78566" lon="2.19875">
        <ele>160.1</ele>
        <time>2022-06-28T08:36:31Z</time>
      </trkpt>
      <trkpt lat="48.78572" lon="2.19882">
        <ele>159.7</ele>
        <time>2022-06-28T08:36:39Z</time>
      </trkpt>
      <trkpt lat="48.78579" lon="2.19883">
        <ele>158.9</ele>
        <time>2022-06-28T08:36:44Z</time>
      </trkpt>
      <trkpt lat="48.78586" lon="2.19889">
        <ele>158.7</ele>
        <time>2022-06-28T08:36:51Z</time>
      </trkpt>
      <trkpt lat="48.78593" lon="2.19893">
        <ele>159</ele>
        <time>2022-06-28T08:36:58Z</time>
      </trkpt>
      <trkpt lat="48.78601" lon="2.19896">
        <ele>159.4</ele>
        <time>2022-06-28T08:37:05Z</time>
      </trkpt>
      <trkpt lat="48.78606" lon="2.19904">
        <ele>160</ele>
        <time>2022-06-28T08:37:11Z</time>
      </trkpt>
      <trkpt lat="48.7861" lon="2.19913">
        <ele>160.7</ele>
        <time>2022-06-28T08:37:16Z</time>
      </trkpt>
      <trkpt lat="48.78614" lon="2.19921">
        <ele>161.5</ele>
        <time>2022-06-28T08:37:27Z</time>
      </trkpt>
      <trkpt lat="48.7862" lon="2.19932">
        <ele>162.9</ele>
        <time>2022-06-28T08:37:36Z</time>
      </trkpt>
      <trkpt lat="48.78626" lon="2.19938">
        <ele>163.9</ele>
        <time>2022-06-28T08:37:42Z</time>
      </trkpt>
      <trkpt lat="48.7863" lon="2.1995">
        <ele>165.4</ele>
        <time>2022-06-28T08:37:47Z</time>
      </trkpt>
      <trkpt lat="48.78633" lon="2.1996">
        <ele>166.7</ele>
        <time>2022-06-28T08:37:54Z</time>
      </trkpt>
      <trkpt lat="48.78637" lon="2.19969">
        <ele>167.9</ele>
        <time>2022-06-28T08:38:03Z</time>
      </trkpt>
      <trkpt lat="48.7864" lon="2.19979">
        <ele>169.3</ele>
        <time>2022-06-28T08:38:09Z</time>
      </trkpt>
      <trkpt lat="48.78642" lon="2.19989">
        <ele>170.6</ele>
        <time>2022-06-28T08:38:14Z</time>
      </trkpt>
      <trkpt lat="48.78647" lon="2.19999">
        <ele>172.2</ele>
        <time>2022-06-28T08:38:19Z</time>
      </trkpt>
      <trkpt lat="48.78645" lon="2.19988">
        <ele>170.7</ele>
        <time>2022-06-28T08:38:34Z</time>
      </trkpt>
      <trkpt lat="48.78644" lon="2.19978">
        <ele>169.5</ele>
        <time>2022-06-28T08:38:40Z</time>
      </trkpt>
      <trkpt lat="48.78637" lon="2.19972">
        <ele>168.3</ele>
        <time>2022-06-28T08:38:45Z</time>
      </trkpt>
      <trkpt lat="48.78632" lon="2.19965">
        <ele>167.2</ele>
        <time>2022-06-28T08:38:51Z</time>
      </trkpt>
      <trkpt lat="48.78628" lon="2.19957">
        <ele>166</ele>
        <time>2022-06-28T08:38:58Z</time>
      </trkpt>
      <trkpt lat="48.78626" lon="2.19947">
        <ele>164.8</ele>
        <time>2022-06-28T08:39:05Z</time>
      </trkpt>
      <trkpt lat="48.78623" lon="2.19938">
        <ele>163.7</ele>
        <time>2022-06-28T08:39:12Z</time>
      </trkpt>
      <trkpt lat="48.78619" lon="2.19929">
        <ele>162.6</ele>
        <time>2022-06-28T08:39:17Z</time>
      </trkpt>
      <trkpt lat="48.78616" lon="2.1992">
        <ele>161.5</ele>
        <time>2022-06-28T08:39:24Z</time>
      </trkpt>
      <trkpt lat="48.7862" lon="2.1991">
        <ele>160.8</ele>
        <time>2022-06-28T08:39:30Z</time>
      </trkpt>
      <trkpt lat="48.78614" lon="2.19907">
        <ele>160.4</ele>
        <time>2022-06-28T08:40:04Z</time>
      </trkpt>
      <trkpt lat="48.78611" lon="2.19896">
        <ele>159.6</ele>
        <time>2022-06-28T08:40:12Z</time>
      </trkpt>
      <trkpt lat="48.78616" lon="2.19888">
        <ele>159.1</ele>
        <time>2022-06-28T08:40:17Z</time>
      </trkpt>
      <trkpt lat="48.78622" lon="2.19879">
        <ele>158.5</ele>
        <time>2022-06-28T08:40:22Z</time>
      </trkpt>
      <trkpt lat="48.78627" lon="2.19871">
        <ele>157.9</ele>
        <time>2022-06-28T08:40:28Z</time>
      </trkpt>
      <trkpt lat="48.78632" lon="2.19863">
        <ele>157.3</ele>
        <time>2022-06-28T08:40:35Z</time>
      </trkpt>
      <trkpt lat="48.78639" lon="2.19863">
        <ele>157.3</ele>
        <time>2022-06-28T08:40:43Z</time>
      </trkpt>
      <trkpt lat="48.78647" lon="2.19854">
        <ele>156.4</ele>
        <time>2022-06-28T08:40:50Z</time>
      </trkpt>
      <trkpt lat="48.78654" lon="2.19847">
        <ele>155.7</ele>
        <time>2022-06-28T08:40:55Z</time>
      </trkpt>
      <trkpt lat="48.7866" lon="2.19843">
        <ele>155.2</ele>
        <time>2022-06-28T08:41:02Z</time>
      </trkpt>
      <trkpt lat="48.78666" lon="2.19836">
        <ele>154.3</ele>
        <time>2022-06-28T08:41:07Z</time>
      </trkpt>
      <trkpt lat="48.78671" lon="2.19828">
        <ele>153.6</ele>
        <time>2022-06-28T08:41:13Z</time>
      </trkpt>
      <trkpt lat="48.78677" lon="2.1982">
        <ele>153</ele>
        <time>2022-06-28T08:41:19Z</time>
      </trkpt>
      <trkpt lat="48.78683" lon="2.19814">
        <ele>152.8</ele>
        <time>2022-06-28T08:41:24Z</time>
      </trkpt>
      <trkpt lat="48.78687" lon="2.19806">
        <ele>152.4</ele>
        <time>2022-06-28T08:41:30Z</time>
      </trkpt>
      <trkpt lat="48.78693" lon="2.19799">
        <ele>152.3</ele>
        <time>2022-06-28T08:41:38Z</time>
      </trkpt>
      <trkpt lat="48.787" lon="2.19794">
        <ele>152.5</ele>
        <time>2022-06-28T08:41:46Z</time>
      </trkpt>
      <trkpt lat="48.78706" lon="2.19791">
        <ele>152.8</ele>
        <time>2022-06-28T08:41:54Z</time>
      </trkpt>
      <trkpt lat="48.78713" lon="2.19789">
        <ele>153.3</ele>
        <time>2022-06-28T08:41:59Z</time>
      </trkpt>
      <trkpt lat="48.7872" lon="2.1979">
        <ele>153.8</ele>
        <time>2022-06-28T08:42:07Z</time>
      </trkpt>
      <trkpt lat="48.78722" lon="2.19781">
        <ele>153.8</ele>
        <time>2022-06-28T08:42:15Z</time>
      </trkpt>
      <trkpt lat="48.78727" lon="2.19774">
        <ele>154.2</ele>
        <time>2022-06-28T08:42:21Z</time>
      </trkpt>
      <trkpt lat="48.78728" lon="2.19764">
        <ele>154.2</ele>
        <time>2022-06-28T08:42:28Z</time>
      </trkpt>
      <trkpt lat="48.78729" lon="2.19754">
        <ele>154.3</ele>
        <time>2022-06-28T08:42:34Z</time>
      </trkpt>
      <trkpt lat="48.78731" lon="2.19744">
        <ele>154.9</ele>
        <time>2022-06-28T08:42:41Z</time>
      </trkpt>
      <trkpt lat="48.78733" lon="2.19735">
        <ele>155.8</ele>
        <time>2022-06-28T08:42:47Z</time>
      </trkpt>
      <trkpt lat="48.78734" lon="2.19724">
        <ele>156.7</ele>
        <time>2022-06-28T08:42:55Z</time>
      </trkpt>
      <trkpt lat="48.78739" lon="2.19715">
        <ele>158</ele>
        <time>2022-06-28T08:43:00Z</time>
      </trkpt>
      <trkpt lat="48.78743" lon="2.19707">
        <ele>159.1</ele>
        <time>2022-06-28T08:43:06Z</time>
      </trkpt>
      <trkpt lat="48.78748" lon="2.197">
        <ele>160.3</ele>
        <time>2022-06-28T08:43:12Z</time>
      </trkpt>
      <trkpt lat="48.78753" lon="2.19692">
        <ele>161.4</ele>
        <time>2022-06-28T08:43:19Z</time>
      </trkpt>
      <trkpt lat="48.78754" lon="2.19682">
        <ele>162.2</ele>
        <time>2022-06-28T08:43:29Z</time>
      </trkpt>
      <trkpt lat="48.78757" lon="2.19672">
        <ele>163.2</ele>
        <time>2022-06-28T08:43:35Z</time>
      </trkpt>
      <trkpt lat="48.7876" lon="2.19662">
        <ele>163.9</ele>
        <time>2022-06-28T08:43:40Z</time>
      </trkpt>
      <trkpt lat="48.78765" lon="2.19653">
        <ele>164.4</ele>
        <time>2022-06-28T08:43:46Z</time>
      </trkpt>
      <trkpt lat="48.78769" lon="2.19645">
        <ele>164.8</ele>
        <time>2022-06-28T08:43:55Z</time>
      </trkpt>
      <trkpt lat="48.78771" lon="2.19632">
        <ele>165.1</ele>
        <time>2022-06-28T08:44:01Z</time>
      </trkpt>
      <trkpt lat="48.78774" lon="2.19621">
        <ele>165.4</ele>
        <time>2022-06-28T08:44:06Z</time>
      </trkpt>
      <trkpt lat="48.78778" lon="2.19612">
        <ele>165.8</ele>
        <time>2022-06-28T08:44:13Z</time>
      </trkpt>
      <trkpt lat="48.78783" lon="2.19604">
        <ele>166.2</ele>
        <time>2022-06-28T08:44:18Z</time>
      </trkpt>
      <trkpt lat="48.78783" lon="2.19587">
        <ele>166.3</ele>
        <time>2022-06-28T08:44:23Z</time>
      </trkpt>
      <trkpt lat="48.78785" lon="2.19578">
        <ele>166.7</ele>
        <time>2022-06-28T08:44:28Z</time>
      </trkpt>
      <trkpt lat="48.78788" lon="2.19568">
        <ele>167.1</ele>
        <time>2022-06-28T08:44:34Z</time>
      </trkpt>
      <trkpt lat="48.78792" lon="2.19559">
        <ele>167.6</ele>
        <time>2022-06-28T08:44:40Z</time>
      </trkpt>
      <trkpt lat="48.78794" lon="2.19549">
        <ele>168</ele>
        <time>2022-06-28T08:44:48Z</time>
      </trkpt>
      <trkpt lat="48.78797" lon="2.1954">
        <ele>168.4</ele>
        <time>2022-06-28T08:44:56Z</time>
      </trkpt>
      <trkpt lat="48.78801" lon="2.19531">
        <ele>168.8</ele>
        <time>2022-06-28T08:45:03Z</time>
      </trkpt>
      <trkpt lat="48.78806" lon="2.19523">
        <ele>169.2</ele>
        <time>2022-06-28T08:45:08Z</time>
      </trkpt>
      <trkpt lat="48.7881" lon="2.19516">
        <ele>169.6</ele>
        <time>2022-06-28T08:45:15Z</time>
      </trkpt>
      <trkpt lat="48.78814" lon="2.19507">
        <ele>169.9</ele>
        <time>2022-06-28T08:45:22Z</time>
      </trkpt>
      <trkpt lat="48.7882" lon="2.19498">
        <ele>170.4</ele>
        <time>2022-06-28T08:45:27Z</time>
      </trkpt>
      <trkpt lat="48.78822" lon="2.19486">
        <ele>170.8</ele>
        <time>2022-06-28T08:45:34Z</time>
      </trkpt>
      <trkpt lat="48.78824" lon="2.19475">
        <ele>171.2</ele>
        <time>2022-06-28T08:45:44Z</time>
      </trkpt>
      <trkpt lat="48.78828" lon="2.19467">
        <ele>171.6</ele>
        <time>2022-06-28T08:45:50Z</time>
      </trkpt>
      <trkpt lat="48.7883" lon="2.19457">
        <ele>171.9</ele>
        <time>2022-06-28T08:45:56Z</time>
      </trkpt>
      <trkpt lat="48.78831" lon="2.19447">
        <ele>172.2</ele>
        <time>2022-06-28T08:46:03Z</time>
      </trkpt>
      <trkpt lat="48.78836" lon="2.19437">
        <ele>172.6</ele>
        <time>2022-06-28T08:46:08Z</time>
      </trkpt>
      <trkpt lat="48.78842" lon="2.1943">
        <ele>172.9</ele>
        <time>2022-06-28T08:46:33Z</time>
      </trkpt>
      <trkpt lat="48.78844" lon="2.1942">
        <ele>173.2</ele>
        <time>2022-06-28T08:46:39Z</time>
      </trkpt>
      <trkpt lat="48.78848" lon="2.19411">
        <ele>173.5</ele>
        <time>2022-06-28T08:46:45Z</time>
      </trkpt>
      <trkpt lat="48.78851" lon="2.19402">
        <ele>173.9</ele>
        <time>2022-06-28T08:46:50Z</time>
      </trkpt>
      <trkpt lat="48.78854" lon="2.19391">
        <ele>174.3</ele>
        <time>2022-06-28T08:46:55Z</time>
      </trkpt>
      <trkpt lat="48.78857" lon="2.19382">
        <ele>174.6</ele>
        <time>2022-06-28T08:47:00Z</time>
      </trkpt>
      <trkpt lat="48.78858" lon="2.19372">
        <ele>174.9</ele>
        <time>2022-06-28T08:47:09Z</time>
      </trkpt>
      <trkpt lat="48.78861" lon="2.19362">
        <ele>175.2</ele>
        <time>2022-06-28T08:47:14Z</time>
      </trkpt>
      <trkpt lat="48.78864" lon="2.19352">
        <ele>175.5</ele>
        <time>2022-06-28T08:47:21Z</time>
      </trkpt>
      <trkpt lat="48.78868" lon="2.19341">
        <ele>175.8</ele>
        <time>2022-06-28T08:47:26Z</time>
      </trkpt>
      <trkpt lat="48.78868" lon="2.19328">
        <ele>176.2</ele>
        <time>2022-06-28T08:47:31Z</time>
      </trkpt>
      <trkpt lat="48.78876" lon="2.19325">
        <ele>176.3</ele>
        <time>2022-06-28T08:47:40Z</time>
      </trkpt>
      <trkpt lat="48.78881" lon="2.19331">
        <ele>176.1</ele>
        <time>2022-06-28T08:47:47Z</time>
      </trkpt>
      <trkpt lat="48.78887" lon="2.19338">
        <ele>175.9</ele>
        <time>2022-06-28T08:47:59Z</time>
      </trkpt>
      <trkpt lat="48.78893" lon="2.19343">
        <ele>175.8</ele>
        <time>2022-06-28T08:48:07Z</time>
      </trkpt>
      <trkpt lat="48.789" lon="2.19345">
        <ele>175.8</ele>
        <time>2022-06-28T08:48:12Z</time>
      </trkpt>
      <trkpt lat="48.78907" lon="2.19347">
        <ele>175.8</ele>
        <time>2022-06-28T08:48:18Z</time>
      </trkpt>
      <trkpt lat="48.78914" lon="2.19347">
        <ele>175.8</ele>
        <time>2022-06-28T08:48:24Z</time>
      </trkpt>
      <trkpt lat="48.78919" lon="2.19352">
        <ele>175.6</ele>
        <time>2022-06-28T08:48:30Z</time>
      </trkpt>
      <trkpt lat="48.78927" lon="2.19357">
        <ele>175</ele>
        <time>2022-06-28T08:48:35Z</time>
      </trkpt>
      <trkpt lat="48.78934" lon="2.19361">
        <ele>174.6</ele>
        <time>2022-06-28T08:48:40Z</time>
      </trkpt>
      <trkpt lat="48.78942" lon="2.19364">
        <ele>174</ele>
        <time>2022-06-28T08:48:45Z</time>
      </trkpt>
      <trkpt lat="48.78952" lon="2.19369">
        <ele>173.4</ele>
        <time>2022-06-28T08:48:50Z</time>
      </trkpt>
      <trkpt lat="48.78962" lon="2.19373">
        <ele>172.8</ele>
        <time>2022-06-28T08:48:55Z</time>
      </trkpt>
      <trkpt lat="48.78968" lon="2.19378">
        <ele>172.4</ele>
        <time>2022-06-28T08:49:01Z</time>
      </trkpt>
      <trkpt lat="48.78974" lon="2.19384">
        <ele>172.1</ele>
        <time>2022-06-28T08:49:06Z</time>
      </trkpt>
      <trkpt lat="48.78981" lon="2.19388">
        <ele>171.7</ele>
        <time>2022-06-28T08:49:11Z</time>
      </trkpt>
      <trkpt lat="48.78986" lon="2.19396">
        <ele>171.5</ele>
        <time>2022-06-28T08:49:19Z</time>
      </trkpt>
      <trkpt lat="48.78993" lon="2.19399">
        <ele>171.2</ele>
        <time>2022-06-28T08:49:26Z</time>
      </trkpt>
      <trkpt lat="48.79" lon="2.19404">
        <ele>170.8</ele>
        <time>2022-06-28T08:49:34Z</time>
      </trkpt>
      <trkpt lat="48.79006" lon="2.19409">
        <ele>169.9</ele>
        <time>2022-06-28T08:49:43Z</time>
      </trkpt>
      <trkpt lat="48.79012" lon="2.19413">
        <ele>168.9</ele>
        <time>2022-06-28T08:49:48Z</time>
      </trkpt>
      <trkpt lat="48.79018" lon="2.19419">
        <ele>167.9</ele>
        <time>2022-06-28T08:49:54Z</time>
      </trkpt>
      <trkpt lat="48.79024" lon="2.19423">
        <ele>166.8</ele>
        <time>2022-06-28T08:50:00Z</time>
      </trkpt>
      <trkpt lat="48.79031" lon="2.19426">
        <ele>165.5</ele>
        <time>2022-06-28T08:50:07Z</time>
      </trkpt>
      <trkpt lat="48.79039" lon="2.19427">
        <ele>164.2</ele>
        <time>2022-06-28T08:50:12Z</time>
      </trkpt>
      <trkpt lat="48.79046" lon="2.1943">
        <ele>163</ele>
        <time>2022-06-28T08:50:17Z</time>
      </trkpt>
      <trkpt lat="48.7905" lon="2.19439">
        <ele>162.2</ele>
        <time>2022-06-28T08:50:22Z</time>
      </trkpt>
      <trkpt lat="48.79056" lon="2.1944">
        <ele>161.2</ele>
        <time>2022-06-28T08:50:27Z</time>
      </trkpt>
      <trkpt lat="48.79063" lon="2.1944">
        <ele>160.1</ele>
        <time>2022-06-28T08:50:33Z</time>
      </trkpt>
      <trkpt lat="48.79069" lon="2.19447">
        <ele>159.2</ele>
        <time>2022-06-28T08:50:49Z</time>
      </trkpt>
      <trkpt lat="48.79075" lon="2.19452">
        <ele>158.2</ele>
        <time>2022-06-28T08:50:55Z</time>
      </trkpt>
      <trkpt lat="48.79079" lon="2.19461">
        <ele>157.6</ele>
        <time>2022-06-28T08:51:01Z</time>
      </trkpt>
      <trkpt lat="48.79086" lon="2.19464">
        <ele>156.5</ele>
        <time>2022-06-28T08:51:06Z</time>
      </trkpt>
      <trkpt lat="48.79092" lon="2.19467">
        <ele>155.5</ele>
        <time>2022-06-28T08:51:11Z</time>
      </trkpt>
      <trkpt lat="48.79099" lon="2.19471">
        <ele>154.4</ele>
        <time>2022-06-28T08:51:16Z</time>
      </trkpt>
      <trkpt lat="48.79103" lon="2.19462">
        <ele>153.6</ele>
        <time>2022-06-28T08:51:26Z</time>
      </trkpt>
      <trkpt lat="48.79107" lon="2.19452">
        <ele>152.8</ele>
        <time>2022-06-28T08:51:32Z</time>
      </trkpt>
      <trkpt lat="48.79109" lon="2.19442">
        <ele>152.4</ele>
        <time>2022-06-28T08:51:39Z</time>
      </trkpt>
      <trkpt lat="48.79114" lon="2.19433">
        <ele>151.3</ele>
        <time>2022-06-28T08:51:44Z</time>
      </trkpt>
      <trkpt lat="48.79114" lon="2.19423">
        <ele>151.2</ele>
        <time>2022-06-28T08:51:53Z</time>
      </trkpt>
      <trkpt lat="48.79106" lon="2.19418">
        <ele>152.7</ele>
        <time>2022-06-28T08:52:01Z</time>
      </trkpt>
      <trkpt lat="48.79109" lon="2.19408">
        <ele>151.8</ele>
        <time>2022-06-28T08:52:11Z</time>
      </trkpt>
      <trkpt lat="48.79105" lon="2.19398">
        <ele>152.2</ele>
        <time>2022-06-28T08:52:20Z</time>
      </trkpt>
      <trkpt lat="48.79103" lon="2.19388">
        <ele>152.2</ele>
        <time>2022-06-28T08:52:26Z</time>
      </trkpt>
      <trkpt lat="48.79098" lon="2.19378">
        <ele>152.8</ele>
        <time>2022-06-28T08:52:31Z</time>
      </trkpt>
      <trkpt lat="48.79094" lon="2.19369">
        <ele>153.2</ele>
        <time>2022-06-28T08:52:38Z</time>
      </trkpt>
      <trkpt lat="48.79092" lon="2.19359">
        <ele>153.3</ele>
        <time>2022-06-28T08:52:44Z</time>
      </trkpt>
      <trkpt lat="48.79092" lon="2.19349">
        <ele>152.9</ele>
        <time>2022-06-28T08:52:50Z</time>
      </trkpt>
      <trkpt lat="48.79088" lon="2.1934">
        <ele>153.3</ele>
        <time>2022-06-28T08:52:56Z</time>
      </trkpt>
      <trkpt lat="48.79084" lon="2.19332">
        <ele>153.8</ele>
        <time>2022-06-28T08:53:04Z</time>
      </trkpt>
      <trkpt lat="48.79081" lon="2.19321">
        <ele>153.6</ele>
        <time>2022-06-28T08:53:09Z</time>
      </trkpt>
      <trkpt lat="48.79076" lon="2.19314">
        <ele>154.1</ele>
        <time>2022-06-28T08:53:14Z</time>
      </trkpt>
      <trkpt lat="48.79075" lon="2.19303">
        <ele>153.6</ele>
        <time>2022-06-28T08:53:22Z</time>
      </trkpt>
      <trkpt lat="48.79076" lon="2.19293">
        <ele>152.7</ele>
        <time>2022-06-28T08:53:27Z</time>
      </trkpt>
      <trkpt lat="48.7908" lon="2.19284">
        <ele>151.2</ele>
        <time>2022-06-28T08:53:33Z</time>
      </trkpt>
      <trkpt lat="48.79083" lon="2.19275">
        <ele>149.9</ele>
        <time>2022-06-28T08:53:40Z</time>
      </trkpt>
      <trkpt lat="48.79086" lon="2.19266">
        <ele>148.7</ele>
        <time>2022-06-28T08:53:47Z</time>
      </trkpt>
      <trkpt lat="48.7909" lon="2.19257">
        <ele>147.3</ele>
        <time>2022-06-28T08:53:52Z</time>
      </trkpt>
      <trkpt lat="48.79093" lon="2.19247">
        <ele>146.3</ele>
        <time>2022-06-28T08:53:58Z</time>
      </trkpt>
      <trkpt lat="48.79103" lon="2.19251">
        <ele>144.5</ele>
        <time>2022-06-28T08:54:34Z</time>
      </trkpt>
      <trkpt lat="48.79097" lon="2.19256">
        <ele>146</ele>
        <time>2022-06-28T08:54:39Z</time>
      </trkpt>
      <trkpt lat="48.79089" lon="2.19265">
        <ele>148</ele>
        <time>2022-06-28T08:55:36Z</time>
      </trkpt>
      <trkpt lat="48.79094" lon="2.19258">
        <ele>146.6</ele>
        <time>2022-06-28T08:55:47Z</time>
      </trkpt>
      <trkpt lat="48.79098" lon="2.19245">
        <ele>145.4</ele>
        <time>2022-06-28T08:55:52Z</time>
      </trkpt>
      <trkpt lat="48.79089" lon="2.19243">
        <ele>147</ele>
        <time>2022-06-28T08:56:00Z</time>
      </trkpt>
      <trkpt lat="48.7909" lon="2.19232">
        <ele>146.8</ele>
        <time>2022-06-28T08:56:14Z</time>
      </trkpt>
      <trkpt lat="48.79094" lon="2.19224">
        <ele>146.2</ele>
        <time>2022-06-28T08:56:24Z</time>
      </trkpt>
      <trkpt lat="48.79098" lon="2.19217">
        <ele>145.5</ele>
        <time>2022-06-28T08:56:31Z</time>
      </trkpt>
      <trkpt lat="48.79101" lon="2.19207">
        <ele>145</ele>
        <time>2022-06-28T08:56:38Z</time>
      </trkpt>
      <trkpt lat="48.79102" lon="2.19197">
        <ele>144.9</ele>
        <time>2022-06-28T08:56:43Z</time>
      </trkpt>
      <trkpt lat="48.79108" lon="2.19187">
        <ele>144</ele>
        <time>2022-06-28T08:56:48Z</time>
      </trkpt>
      <trkpt lat="48.79106" lon="2.19176">
        <ele>144.4</ele>
        <time>2022-06-28T08:57:02Z</time>
      </trkpt>
      <trkpt lat="48.79107" lon="2.19166">
        <ele>144.4</ele>
        <time>2022-06-28T08:57:09Z</time>
      </trkpt>
      <trkpt lat="48.79106" lon="2.19157">
        <ele>145.1</ele>
        <time>2022-06-28T08:57:14Z</time>
      </trkpt>
      <trkpt lat="48.79104" lon="2.19147">
        <ele>146.2</ele>
        <time>2022-06-28T08:57:22Z</time>
      </trkpt>
      <trkpt lat="48.79101" lon="2.19138">
        <ele>147.4</ele>
        <time>2022-06-28T08:57:29Z</time>
      </trkpt>
      <trkpt lat="48.79108" lon="2.19136">
        <ele>146.3</ele>
        <time>2022-06-28T08:57:34Z</time>
      </trkpt>
      <trkpt lat="48.79117" lon="2.19133">
        <ele>144.9</ele>
        <time>2022-06-28T08:57:39Z</time>
      </trkpt>
      <trkpt lat="48.79123" lon="2.19135">
        <ele>143.7</ele>
        <time>2022-06-28T08:57:44Z</time>
      </trkpt>
      <trkpt lat="48.79125" lon="2.19145">
        <ele>142.8</ele>
        <time>2022-06-28T08:57:49Z</time>
      </trkpt>
      <trkpt lat="48.7913" lon="2.19153">
        <ele>141.5</ele>
        <time>2022-06-28T08:57:55Z</time>
      </trkpt>
      <trkpt lat="48.79126" lon="2.19163">
        <ele>141.6</ele>
        <time>2022-06-28T08:58:00Z</time>
      </trkpt>
      <trkpt lat="48.7913" lon="2.19173">
        <ele>140.6</ele>
        <time>2022-06-28T08:58:06Z</time>
      </trkpt>
      <trkpt lat="48.79134" lon="2.19182">
        <ele>139.9</ele>
        <time>2022-06-28T08:58:11Z</time>
      </trkpt>
      <trkpt lat="48.79138" lon="2.19194">
        <ele>139</ele>
        <time>2022-06-28T08:58:16Z</time>
      </trkpt>
      <trkpt lat="48.79141" lon="2.19203">
        <ele>138.4</ele>
        <time>2022-06-28T08:58:22Z</time>
      </trkpt>
      <trkpt lat="48.79145" lon="2.19213">
        <ele>137.6</ele>
        <time>2022-06-28T08:58:29Z</time>
      </trkpt>
      <trkpt lat="48.79145" lon="2.19223">
        <ele>137.4</ele>
        <time>2022-06-28T08:58:34Z</time>
      </trkpt>
      <trkpt lat="48.79146" lon="2.19234">
        <ele>137</ele>
        <time>2022-06-28T08:58:40Z</time>
      </trkpt>
      <trkpt lat="48.79143" lon="2.19243">
        <ele>137.4</ele>
        <time>2022-06-28T08:58:48Z</time>
      </trkpt>
      <trkpt lat="48.79137" lon="2.19246">
        <ele>138.4</ele>
        <time>2022-06-28T08:58:53Z</time>
      </trkpt>
      <trkpt lat="48.79138" lon="2.19261">
        <ele>138.9</ele>
        <time>2022-06-28T08:59:34Z</time>
      </trkpt>
      <trkpt lat="48.79144" lon="2.19259">
        <ele>137.6</ele>
        <time>2022-06-28T08:59:47Z</time>
      </trkpt>
      <trkpt lat="48.79151" lon="2.19261">
        <ele>136.5</ele>
        <time>2022-06-28T08:59:52Z</time>
      </trkpt>
      <trkpt lat="48.79144" lon="2.19268">
        <ele>138.2</ele>
        <time>2022-06-28T09:00:07Z</time>
      </trkpt>
      <trkpt lat="48.79148" lon="2.19259">
        <ele>136.9</ele>
        <time>2022-06-28T09:00:25Z</time>
      </trkpt>
      <trkpt lat="48.79142" lon="2.19263">
        <ele>138.3</ele>
        <time>2022-06-28T09:00:42Z</time>
      </trkpt>
      <trkpt lat="48.79138" lon="2.19251">
        <ele>138.2</ele>
        <time>2022-06-28T09:02:13Z</time>
      </trkpt>
      <trkpt lat="48.79139" lon="2.1926">
        <ele>138.6</ele>
        <time>2022-06-28T09:02:26Z</time>
      </trkpt>
      <trkpt lat="48.79141" lon="2.1925">
        <ele>137.6</ele>
        <time>2022-06-28T09:02:37Z</time>
      </trkpt>
      <trkpt lat="48.79138" lon="2.1924">
        <ele>138.3</ele>
        <time>2022-06-28T09:02:56Z</time>
      </trkpt>
      <trkpt lat="48.79144" lon="2.19248">
        <ele>137.1</ele>
        <time>2022-06-28T09:03:52Z</time>
      </trkpt>
      <trkpt lat="48.79143" lon="2.19258">
        <ele>137.8</ele>
        <time>2022-06-28T09:04:02Z</time>
      </trkpt>
      <trkpt lat="48.79144" lon="2.19247">
        <ele>137.1</ele>
        <time>2022-06-28T09:04:21Z</time>
      </trkpt>
      <trkpt lat="48.79141" lon="2.19238">
        <ele>137.8</ele>
        <time>2022-06-28T09:04:31Z</time>
      </trkpt>
      <trkpt lat="48.79144" lon="2.19227">
        <ele>137.5</ele>
        <time>2022-06-28T09:04:36Z</time>
      </trkpt>
      <trkpt lat="48.79143" lon="2.19217">
        <ele>137.8</ele>
        <time>2022-06-28T09:04:43Z</time>
      </trkpt>
      <trkpt lat="48.79141" lon="2.19207">
        <ele>138.3</ele>
        <time>2022-06-28T09:04:49Z</time>
      </trkpt>
      <trkpt lat="48.79136" lon="2.192">
        <ele>139.3</ele>
        <time>2022-06-28T09:05:02Z</time>
      </trkpt>
      <trkpt lat="48.79137" lon="2.19188">
        <ele>139.3</ele>
        <time>2022-06-28T09:05:09Z</time>
      </trkpt>
      <trkpt lat="48.79136" lon="2.19177">
        <ele>139.6</ele>
        <time>2022-06-28T09:05:17Z</time>
      </trkpt>
      <trkpt lat="48.79135" lon="2.19188">
        <ele>139.6</ele>
        <time>2022-06-28T09:05:40Z</time>
      </trkpt>
      <trkpt lat="48.79142" lon="2.19189">
        <ele>138.5</ele>
        <time>2022-06-28T09:05:46Z</time>
      </trkpt>
      <trkpt lat="48.79137" lon="2.19198">
        <ele>139.1</ele>
        <time>2022-06-28T09:05:55Z</time>
      </trkpt>
      <trkpt lat="48.79141" lon="2.19208">
        <ele>138.3</ele>
        <time>2022-06-28T09:06:01Z</time>
      </trkpt>
      <trkpt lat="48.79145" lon="2.19216">
        <ele>137.5</ele>
        <time>2022-06-28T09:06:07Z</time>
      </trkpt>
      <trkpt lat="48.79148" lon="2.19229">
        <ele>136.8</ele>
        <time>2022-06-28T09:06:12Z</time>
      </trkpt>
      <trkpt lat="48.79154" lon="2.19232">
        <ele>135.6</ele>
        <time>2022-06-28T09:06:18Z</time>
      </trkpt>
      <trkpt lat="48.79157" lon="2.19222">
        <ele>135.3</ele>
        <time>2022-06-28T09:06:24Z</time>
      </trkpt>
      <trkpt lat="48.79158" lon="2.19212">
        <ele>135.4</ele>
        <time>2022-06-28T09:06:29Z</time>
      </trkpt>
      <trkpt lat="48.79163" lon="2.19203">
        <ele>134.7</ele>
        <time>2022-06-28T09:06:34Z</time>
      </trkpt>
      <trkpt lat="48.79166" lon="2.19194">
        <ele>134.5</ele>
        <time>2022-06-28T09:06:39Z</time>
      </trkpt>
      <trkpt lat="48.79169" lon="2.19185">
        <ele>134.4</ele>
        <time>2022-06-28T09:06:45Z</time>
      </trkpt>
      <trkpt lat="48.79171" lon="2.19174">
        <ele>134.5</ele>
        <time>2022-06-28T09:06:51Z</time>
      </trkpt>
      <trkpt lat="48.79172" lon="2.19164">
        <ele>134.7</ele>
        <time>2022-06-28T09:07:02Z</time>
      </trkpt>
      <trkpt lat="48.79178" lon="2.19153">
        <ele>134.6</ele>
        <time>2022-06-28T09:07:07Z</time>
      </trkpt>
      <trkpt lat="48.7918" lon="2.19143">
        <ele>134.8</ele>
        <time>2022-06-28T09:07:12Z</time>
      </trkpt>
      <trkpt lat="48.7918" lon="2.19133">
        <ele>135.2</ele>
        <time>2022-06-28T09:07:18Z</time>
      </trkpt>
      <trkpt lat="48.79182" lon="2.19123">
        <ele>135.5</ele>
        <time>2022-06-28T09:07:24Z</time>
      </trkpt>
      <trkpt lat="48.79185" lon="2.19113">
        <ele>135.7</ele>
        <time>2022-06-28T09:07:31Z</time>
      </trkpt>
      <trkpt lat="48.79188" lon="2.19102">
        <ele>135.9</ele>
        <time>2022-06-28T09:07:37Z</time>
      </trkpt>
      <trkpt lat="48.79193" lon="2.19094">
        <ele>136</ele>
        <time>2022-06-28T09:07:45Z</time>
      </trkpt>
      <trkpt lat="48.79201" lon="2.19086">
        <ele>135.8</ele>
        <time>2022-06-28T09:08:02Z</time>
      </trkpt>
      <trkpt lat="48.79202" lon="2.19076">
        <ele>136.3</ele>
        <time>2022-06-28T09:08:13Z</time>
      </trkpt>
      <trkpt lat="48.79201" lon="2.19066">
        <ele>136.9</ele>
        <time>2022-06-28T09:08:21Z</time>
      </trkpt>
      <trkpt lat="48.79196" lon="2.19058">
        <ele>137.7</ele>
        <time>2022-06-28T09:08:29Z</time>
      </trkpt>
      <trkpt lat="48.79198" lon="2.19048">
        <ele>138.1</ele>
        <time>2022-06-28T09:08:36Z</time>
      </trkpt>
      <trkpt lat="48.79195" lon="2.1904">
        <ele>138.7</ele>
        <time>2022-06-28T09:08:59Z</time>
      </trkpt>
      <trkpt lat="48.79198" lon="2.19031">
        <ele>139.1</ele>
        <time>2022-06-28T09:09:04Z</time>
      </trkpt>
      <trkpt lat="48.79202" lon="2.19022">
        <ele>139.4</ele>
        <time>2022-06-28T09:09:09Z</time>
      </trkpt>
      <trkpt lat="48.79205" lon="2.19013">
        <ele>139.9</ele>
        <time>2022-06-28T09:09:14Z</time>
      </trkpt>
      <trkpt lat="48.79207" lon="2.19003">
        <ele>140.4</ele>
        <time>2022-06-28T09:09:20Z</time>
      </trkpt>
      <trkpt lat="48.7921" lon="2.18992">
        <ele>141.1</ele>
        <time>2022-06-28T09:09:28Z</time>
      </trkpt>
      <trkpt lat="48.79214" lon="2.18983">
        <ele>141.6</ele>
        <time>2022-06-28T09:09:35Z</time>
      </trkpt>
      <trkpt lat="48.79217" lon="2.18972">
        <ele>142.4</ele>
        <time>2022-06-28T09:09:40Z</time>
      </trkpt>
      <trkpt lat="48.79221" lon="2.18955">
        <ele>143.6</ele>
        <time>2022-06-28T09:09:45Z</time>
      </trkpt>
      <trkpt lat="48.79223" lon="2.18945">
        <ele>144.4</ele>
        <time>2022-06-28T09:09:53Z</time>
      </trkpt>
      <trkpt lat="48.79227" lon="2.18937">
        <ele>144.9</ele>
        <time>2022-06-28T09:09:59Z</time>
      </trkpt>
      <trkpt lat="48.79228" lon="2.18926">
        <ele>145.8</ele>
        <time>2022-06-28T09:10:06Z</time>
      </trkpt>
      <trkpt lat="48.79233" lon="2.18918">
        <ele>146.3</ele>
        <time>2022-06-28T09:10:14Z</time>
      </trkpt>
      <trkpt lat="48.79236" lon="2.18907">
        <ele>147.1</ele>
        <time>2022-06-28T09:10:19Z</time>
      </trkpt>
      <trkpt lat="48.79239" lon="2.18894">
        <ele>148.2</ele>
        <time>2022-06-28T09:10:24Z</time>
      </trkpt>
      <trkpt lat="48.79241" lon="2.18884">
        <ele>149</ele>
        <time>2022-06-28T09:10:29Z</time>
      </trkpt>
      <trkpt lat="48.79247" lon="2.18878">
        <ele>149.3</ele>
        <time>2022-06-28T09:10:34Z</time>
      </trkpt>
      <trkpt lat="48.79254" lon="2.18875">
        <ele>149</ele>
        <time>2022-06-28T09:10:39Z</time>
      </trkpt>
      <trkpt lat="48.79261" lon="2.18873">
        <ele>148.4</ele>
        <time>2022-06-28T09:10:45Z</time>
      </trkpt>
      <trkpt lat="48.79268" lon="2.18871">
        <ele>147.7</ele>
        <time>2022-06-28T09:10:52Z</time>
      </trkpt>
      <trkpt lat="48.79273" lon="2.18864">
        <ele>147.6</ele>
        <time>2022-06-28T09:11:15Z</time>
      </trkpt>
      <trkpt lat="48.79279" lon="2.18859">
        <ele>147.2</ele>
        <time>2022-06-28T09:11:24Z</time>
      </trkpt>
      <trkpt lat="48.79286" lon="2.18859">
        <ele>146.3</ele>
        <time>2022-06-28T09:11:30Z</time>
      </trkpt>
      <trkpt lat="48.79292" lon="2.18852">
        <ele>145.9</ele>
        <time>2022-06-28T09:11:39Z</time>
      </trkpt>
      <trkpt lat="48.79287" lon="2.18845">
        <ele>147</ele>
        <time>2022-06-28T09:12:14Z</time>
      </trkpt>
      <trkpt lat="48.79292" lon="2.18836">
        <ele>146.8</ele>
        <time>2022-06-28T09:12:39Z</time>
      </trkpt>
      <trkpt lat="48.79298" lon="2.18831">
        <ele>146.1</ele>
        <time>2022-06-28T09:12:44Z</time>
      </trkpt>
      <trkpt lat="48.79302" lon="2.18823">
        <ele>145.3</ele>
        <time>2022-06-28T09:12:52Z</time>
      </trkpt>
      <trkpt lat="48.79307" lon="2.18816">
        <ele>144.4</ele>
        <time>2022-06-28T09:13:00Z</time>
      </trkpt>
      <trkpt lat="48.79314" lon="2.18816">
        <ele>143.4</ele>
        <time>2022-06-28T09:13:08Z</time>
      </trkpt>
      <trkpt lat="48.79322" lon="2.18814">
        <ele>142.1</ele>
        <time>2022-06-28T09:13:16Z</time>
      </trkpt>
      <trkpt lat="48.79329" lon="2.18815">
        <ele>141</ele>
        <time>2022-06-28T09:13:24Z</time>
      </trkpt>
      <trkpt lat="48.79336" lon="2.18809">
        <ele>139.7</ele>
        <time>2022-06-28T09:13:29Z</time>
      </trkpt>
      <trkpt lat="48.79342" lon="2.18805">
        <ele>138.6</ele>
        <time>2022-06-28T09:13:34Z</time>
      </trkpt>
      <trkpt lat="48.79348" lon="2.1881">
        <ele>137.7</ele>
        <time>2022-06-28T09:13:39Z</time>
      </trkpt>
      <trkpt lat="48.79353" lon="2.18815">
        <ele>137.1</ele>
        <time>2022-06-28T09:13:50Z</time>
      </trkpt>
      <trkpt lat="48.79357" lon="2.188">
        <ele>135.9</ele>
        <time>2022-06-28T09:16:35Z</time>
      </trkpt>
      <trkpt lat="48.79363" lon="2.18802">
        <ele>135</ele>
        <time>2022-06-28T09:17:09Z</time>
      </trkpt>
      <trkpt lat="48.79371" lon="2.18814">
        <ele>134.1</ele>
        <time>2022-06-28T09:17:15Z</time>
      </trkpt>
      <trkpt lat="48.79367" lon="2.18801">
        <ele>134.3</ele>
        <time>2022-06-28T09:17:24Z</time>
      </trkpt>
      <trkpt lat="48.79367" lon="2.18816">
        <ele>134.8</ele>
        <time>2022-06-28T09:17:39Z</time>
      </trkpt>
      <trkpt lat="48.79359" lon="2.18808">
        <ele>135.9</ele>
        <time>2022-06-28T09:18:49Z</time>
      </trkpt>
      <trkpt lat="48.79366" lon="2.18816">
        <ele>135</ele>
        <time>2022-06-28T09:19:38Z</time>
      </trkpt>
      <trkpt lat="48.79366" lon="2.18803">
        <ele>134.6</ele>
        <time>2022-06-28T09:20:05Z</time>
      </trkpt>
      <trkpt lat="48.79369" lon="2.18812">
        <ele>134.3</ele>
        <time>2022-06-28T09:20:25Z</time>
      </trkpt>
      <trkpt lat="48.79357" lon="2.18823">
        <ele>136.7</ele>
        <time>2022-06-28T09:20:38Z</time>
      </trkpt>
      <trkpt lat="48.79366" lon="2.18817">
        <ele>135</ele>
        <time>2022-06-28T09:20:50Z</time>
      </trkpt>
      <trkpt lat="48.79372" lon="2.18823">
        <ele>134.2</ele>
        <time>2022-06-28T09:21:28Z</time>
      </trkpt>
      <trkpt lat="48.79364" lon="2.18819">
        <ele>135.4</ele>
        <time>2022-06-28T09:21:36Z</time>
      </trkpt>
      <trkpt lat="48.7936" lon="2.18812">
        <ele>135.8</ele>
        <time>2022-06-28T09:21:47Z</time>
      </trkpt>
      <trkpt lat="48.79356" lon="2.18799">
        <ele>136.1</ele>
        <time>2022-06-28T09:21:53Z</time>
      </trkpt>
      <trkpt lat="48.79353" lon="2.18788">
        <ele>136.2</ele>
        <time>2022-06-28T09:21:59Z</time>
      </trkpt>
      <trkpt lat="48.79354" lon="2.18777">
        <ele>135.7</ele>
        <time>2022-06-28T09:22:08Z</time>
      </trkpt>
      <trkpt lat="48.79353" lon="2.18765">
        <ele>135.4</ele>
        <time>2022-06-28T09:22:15Z</time>
      </trkpt>
      <trkpt lat="48.79354" lon="2.18755">
        <ele>134.9</ele>
        <time>2022-06-28T09:22:20Z</time>
      </trkpt>
      <trkpt lat="48.79361" lon="2.18735">
        <ele>134.5</ele>
        <time>2022-06-28T09:22:47Z</time>
      </trkpt>
      <trkpt lat="48.79355" lon="2.1874">
        <ele>135.1</ele>
        <time>2022-06-28T09:23:18Z</time>
      </trkpt>
      <trkpt lat="48.79354" lon="2.1873">
        <ele>135.7</ele>
        <time>2022-06-28T09:23:31Z</time>
      </trkpt>
      <trkpt lat="48.79359" lon="2.18722">
        <ele>135.4</ele>
        <time>2022-06-28T09:23:36Z</time>
      </trkpt>
      <trkpt lat="48.79365" lon="2.18715">
        <ele>135</ele>
        <time>2022-06-28T09:23:42Z</time>
      </trkpt>
      <trkpt lat="48.79376" lon="2.18709">
        <ele>133.8</ele>
        <time>2022-06-28T09:23:47Z</time>
      </trkpt>
      <trkpt lat="48.79383" lon="2.18706">
        <ele>133.1</ele>
        <time>2022-06-28T09:23:52Z</time>
      </trkpt>
      <trkpt lat="48.79391" lon="2.18706">
        <ele>132</ele>
        <time>2022-06-28T09:23:58Z</time>
      </trkpt>
      <trkpt lat="48.79398" lon="2.18705">
        <ele>131.2</ele>
        <time>2022-06-28T09:24:07Z</time>
      </trkpt>
      <trkpt lat="48.79405" lon="2.18706">
        <ele>130.2</ele>
        <time>2022-06-28T09:24:12Z</time>
      </trkpt>
      <trkpt lat="48.79411" lon="2.18711">
        <ele>129</ele>
        <time>2022-06-28T09:24:21Z</time>
      </trkpt>
      <trkpt lat="48.79418" lon="2.18711">
        <ele>128.2</ele>
        <time>2022-06-28T09:24:51Z</time>
      </trkpt>
      <trkpt lat="48.79425" lon="2.18712">
        <ele>127.7</ele>
        <time>2022-06-28T09:24:56Z</time>
      </trkpt>
      <trkpt lat="48.79432" lon="2.18709">
        <ele>127.5</ele>
        <time>2022-06-28T09:25:03Z</time>
      </trkpt>
      <trkpt lat="48.79439" lon="2.18709">
        <ele>127.1</ele>
        <time>2022-06-28T09:25:15Z</time>
      </trkpt>
      <trkpt lat="48.79438" lon="2.18719">
        <ele>126.3</ele>
        <time>2022-06-28T09:25:24Z</time>
      </trkpt>
      <trkpt lat="48.7944" lon="2.18706">
        <ele>127.3</ele>
        <time>2022-06-28T09:27:20Z</time>
      </trkpt>
      <trkpt lat="48.79445" lon="2.18713">
        <ele>126.4</ele>
        <time>2022-06-28T09:27:40Z</time>
      </trkpt>
      <trkpt lat="48.79452" lon="2.18716">
        <ele>125.7</ele>
        <time>2022-06-28T09:27:53Z</time>
      </trkpt>
      <trkpt lat="48.79445" lon="2.18718">
        <ele>126</ele>
        <time>2022-06-28T09:28:24Z</time>
      </trkpt>
      <trkpt lat="48.79451" lon="2.18722">
        <ele>125.3</ele>
        <time>2022-06-28T09:28:30Z</time>
      </trkpt>
      <trkpt lat="48.79456" lon="2.18729">
        <ele>124.4</ele>
        <time>2022-06-28T09:28:36Z</time>
      </trkpt>
      <trkpt lat="48.79452" lon="2.18741">
        <ele>123.6</ele>
        <time>2022-06-28T09:28:43Z</time>
      </trkpt>
      <trkpt lat="48.79452" lon="2.18751">
        <ele>122.9</ele>
        <time>2022-06-28T09:28:49Z</time>
      </trkpt>
      <trkpt lat="48.79448" lon="2.1876">
        <ele>123.4</ele>
        <time>2022-06-28T09:29:05Z</time>
      </trkpt>
      <trkpt lat="48.79449" lon="2.1877">
        <ele>123.5</ele>
        <time>2022-06-28T09:29:14Z</time>
      </trkpt>
      <trkpt lat="48.79448" lon="2.1878">
        <ele>123.8</ele>
        <time>2022-06-28T09:29:25Z</time>
      </trkpt>
      <trkpt lat="48.79449" lon="2.1879">
        <ele>124</ele>
        <time>2022-06-28T09:29:30Z</time>
      </trkpt>
      <trkpt lat="48.79447" lon="2.188">
        <ele>124.4</ele>
        <time>2022-06-28T09:29:37Z</time>
      </trkpt>
      <trkpt lat="48.79441" lon="2.18806">
        <ele>124.9</ele>
        <time>2022-06-28T09:30:03Z</time>
      </trkpt>
      <trkpt lat="48.79442" lon="2.18817">
        <ele>125.1</ele>
        <time>2022-06-28T09:30:08Z</time>
      </trkpt>
      <trkpt lat="48.79438" lon="2.18827">
        <ele>125.6</ele>
        <time>2022-06-28T09:30:15Z</time>
      </trkpt>
      <trkpt lat="48.79433" lon="2.18817">
        <ele>125.6</ele>
        <time>2022-06-28T09:30:21Z</time>
      </trkpt>
      <trkpt lat="48.7944" lon="2.1882">
        <ele>125.3</ele>
        <time>2022-06-28T09:31:09Z</time>
      </trkpt>
      <trkpt lat="48.79439" lon="2.18831">
        <ele>125.6</ele>
        <time>2022-06-28T09:31:15Z</time>
      </trkpt>
      <trkpt lat="48.79444" lon="2.18839">
        <ele>125.8</ele>
        <time>2022-06-28T09:31:20Z</time>
      </trkpt>
      <trkpt lat="48.79441" lon="2.18848">
        <ele>126.6</ele>
        <time>2022-06-28T09:31:25Z</time>
      </trkpt>
      <trkpt lat="48.79438" lon="2.18858">
        <ele>127.6</ele>
        <time>2022-06-28T09:31:30Z</time>
      </trkpt>
      <trkpt lat="48.79434" lon="2.18867">
        <ele>128.5</ele>
        <time>2022-06-28T09:31:37Z</time>
      </trkpt>
      <trkpt lat="48.79435" lon="2.18878">
        <ele>129.2</ele>
        <time>2022-06-28T09:31:48Z</time>
      </trkpt>
      <trkpt lat="48.79431" lon="2.18886">
        <ele>130</ele>
        <time>2022-06-28T09:31:55Z</time>
      </trkpt>
      <trkpt lat="48.79427" lon="2.18895">
        <ele>130.9</ele>
        <time>2022-06-28T09:32:01Z</time>
      </trkpt>
      <trkpt lat="48.79426" lon="2.18905">
        <ele>131.7</ele>
        <time>2022-06-28T09:32:09Z</time>
      </trkpt>
      <trkpt lat="48.79426" lon="2.18915">
        <ele>132.4</ele>
        <time>2022-06-28T09:32:16Z</time>
      </trkpt>
      <trkpt lat="48.79426" lon="2.18934">
        <ele>133.2</ele>
        <time>2022-06-28T09:32:21Z</time>
      </trkpt>
      <trkpt lat="48.79423" lon="2.18945">
        <ele>133.8</ele>
        <time>2022-06-28T09:32:26Z</time>
      </trkpt>
      <trkpt lat="48.79421" lon="2.18955">
        <ele>134.2</ele>
        <time>2022-06-28T09:32:32Z</time>
      </trkpt>
      <trkpt lat="48.79419" lon="2.18966">
        <ele>134.7</ele>
        <time>2022-06-28T09:32:37Z</time>
      </trkpt>
      <trkpt lat="48.7942" lon="2.18976">
        <ele>135</ele>
        <time>2022-06-28T09:32:42Z</time>
      </trkpt>
      <trkpt lat="48.79417" lon="2.18987">
        <ele>135.5</ele>
        <time>2022-06-28T09:32:50Z</time>
      </trkpt>
      <trkpt lat="48.7942" lon="2.18997">
        <ele>135.8</ele>
        <time>2022-06-28T09:33:05Z</time>
      </trkpt>
      <trkpt lat="48.79413" lon="2.18999">
        <ele>136</ele>
        <time>2022-06-28T09:33:10Z</time>
      </trkpt>
      <trkpt lat="48.79417" lon="2.18991">
        <ele>135.7</ele>
        <time>2022-06-28T09:33:47Z</time>
      </trkpt>
      <trkpt lat="48.79422" lon="2.18999">
        <ele>135.8</ele>
        <time>2022-06-28T09:33:53Z</time>
      </trkpt>
      <trkpt lat="48.79429" lon="2.19006">
        <ele>135.5</ele>
        <time>2022-06-28T09:33:58Z</time>
      </trkpt>
      <trkpt lat="48.79436" lon="2.19012">
        <ele>135.2</ele>
        <time>2022-06-28T09:34:06Z</time>
      </trkpt>
      <trkpt lat="48.79442" lon="2.19018">
        <ele>134.9</ele>
        <time>2022-06-28T09:34:12Z</time>
      </trkpt>
      <trkpt lat="48.79452" lon="2.19024">
        <ele>134.7</ele>
        <time>2022-06-28T09:34:17Z</time>
      </trkpt>
      <trkpt lat="48.79461" lon="2.19028">
        <ele>134.5</ele>
        <time>2022-06-28T09:34:22Z</time>
      </trkpt>
      <trkpt lat="48.79469" lon="2.19032">
        <ele>134.3</ele>
        <time>2022-06-28T09:34:30Z</time>
      </trkpt>
      <trkpt lat="48.79476" lon="2.19037">
        <ele>134.2</ele>
        <time>2022-06-28T09:34:37Z</time>
      </trkpt>
      <trkpt lat="48.79485" lon="2.19044">
        <ele>134.1</ele>
        <time>2022-06-28T09:34:42Z</time>
      </trkpt>
      <trkpt lat="48.79491" lon="2.19047">
        <ele>134</ele>
        <time>2022-06-28T09:34:47Z</time>
      </trkpt>
      <trkpt lat="48.79498" lon="2.19051">
        <ele>134</ele>
        <time>2022-06-28T09:34:55Z</time>
      </trkpt>
      <trkpt lat="48.79504" lon="2.19055">
        <ele>133.9</ele>
        <time>2022-06-28T09:35:02Z</time>
      </trkpt>
      <trkpt lat="48.79512" lon="2.19058">
        <ele>133.8</ele>
        <time>2022-06-28T09:35:07Z</time>
      </trkpt>
      <trkpt lat="48.79518" lon="2.19063">
        <ele>133.7</ele>
        <time>2022-06-28T09:35:14Z</time>
      </trkpt>
      <trkpt lat="48.79524" lon="2.19067">
        <ele>133.6</ele>
        <time>2022-06-28T09:35:23Z</time>
      </trkpt>
      <trkpt lat="48.79531" lon="2.19071">
        <ele>133.5</ele>
        <time>2022-06-28T09:35:34Z</time>
      </trkpt>
      <trkpt lat="48.79537" lon="2.19076">
        <ele>133.5</ele>
        <time>2022-06-28T09:35:40Z</time>
      </trkpt>
      <trkpt lat="48.79549" lon="2.19088">
        <ele>133.3</ele>
        <time>2022-06-28T09:35:45Z</time>
      </trkpt>
      <trkpt lat="48.79555" lon="2.19092">
        <ele>133.2</ele>
        <time>2022-06-28T09:35:51Z</time>
      </trkpt>
      <trkpt lat="48.79562" lon="2.19094">
        <ele>133.1</ele>
        <time>2022-06-28T09:35:56Z</time>
      </trkpt>
      <trkpt lat="48.79568" lon="2.19101">
        <ele>132.9</ele>
        <time>2022-06-28T09:36:02Z</time>
      </trkpt>
      <trkpt lat="48.79573" lon="2.19109">
        <ele>132.7</ele>
        <time>2022-06-28T09:36:09Z</time>
      </trkpt>
      <trkpt lat="48.7958" lon="2.19111">
        <ele>132.7</ele>
        <time>2022-06-28T09:36:17Z</time>
      </trkpt>
      <trkpt lat="48.79588" lon="2.19115">
        <ele>132.4</ele>
        <time>2022-06-28T09:36:22Z</time>
      </trkpt>
      <trkpt lat="48.79594" lon="2.19118">
        <ele>132</ele>
        <time>2022-06-28T09:36:27Z</time>
      </trkpt>
      <trkpt lat="48.79601" lon="2.19122">
        <ele>131.6</ele>
        <time>2022-06-28T09:36:32Z</time>
      </trkpt>
      <trkpt lat="48.79606" lon="2.19127">
        <ele>131.3</ele>
        <time>2022-06-28T09:36:39Z</time>
      </trkpt>
      <trkpt lat="48.79613" lon="2.19133">
        <ele>130.8</ele>
        <time>2022-06-28T09:36:45Z</time>
      </trkpt>
      <trkpt lat="48.7962" lon="2.19134">
        <ele>130.5</ele>
        <time>2022-06-28T09:36:56Z</time>
      </trkpt>
      <trkpt lat="48.79625" lon="2.19139">
        <ele>130.2</ele>
        <time>2022-06-28T09:37:04Z</time>
      </trkpt>
      <trkpt lat="48.79631" lon="2.19146">
        <ele>129.8</ele>
        <time>2022-06-28T09:37:10Z</time>
      </trkpt>
      <trkpt lat="48.79639" lon="2.19152">
        <ele>129.4</ele>
        <time>2022-06-28T09:37:15Z</time>
      </trkpt>
      <trkpt lat="48.79632" lon="2.19152">
        <ele>129.7</ele>
        <time>2022-06-28T09:37:49Z</time>
      </trkpt>
      <trkpt lat="48.79627" lon="2.19159">
        <ele>129.9</ele>
        <time>2022-06-28T09:37:55Z</time>
      </trkpt>
      <trkpt lat="48.79623" lon="2.19167">
        <ele>130.1</ele>
        <time>2022-06-28T09:38:02Z</time>
      </trkpt>
      <trkpt lat="48.79623" lon="2.19178">
        <ele>129.3</ele>
        <time>2022-06-28T09:38:08Z</time>
      </trkpt>
      <trkpt lat="48.7962" lon="2.19187">
        <ele>128.8</ele>
        <time>2022-06-28T09:38:15Z</time>
      </trkpt>
      <trkpt lat="48.79615" lon="2.19196">
        <ele>128.4</ele>
        <time>2022-06-28T09:38:21Z</time>
      </trkpt>
      <trkpt lat="48.79609" lon="2.19204">
        <ele>128.1</ele>
        <time>2022-06-28T09:38:27Z</time>
      </trkpt>
      <trkpt lat="48.79599" lon="2.19214">
        <ele>127.8</ele>
        <time>2022-06-28T09:38:32Z</time>
      </trkpt>
      <trkpt lat="48.79594" lon="2.19222">
        <ele>127.5</ele>
        <time>2022-06-28T09:38:38Z</time>
      </trkpt>
      <trkpt lat="48.79588" lon="2.19229">
        <ele>127.3</ele>
        <time>2022-06-28T09:38:44Z</time>
      </trkpt>
      <trkpt lat="48.79583" lon="2.19236">
        <ele>127</ele>
        <time>2022-06-28T09:38:49Z</time>
      </trkpt>
      <trkpt lat="48.79578" lon="2.19242">
        <ele>126.6</ele>
        <time>2022-06-28T09:38:55Z</time>
      </trkpt>
      <trkpt lat="48.79572" lon="2.19247">
        <ele>126.3</ele>
        <time>2022-06-28T09:39:00Z</time>
      </trkpt>
      <trkpt lat="48.79565" lon="2.19252">
        <ele>126.2</ele>
        <time>2022-06-28T09:39:05Z</time>
      </trkpt>
      <trkpt lat="48.79559" lon="2.19259">
        <ele>126</ele>
        <time>2022-06-28T09:39:13Z</time>
      </trkpt>
      <trkpt lat="48.79554" lon="2.19265">
        <ele>125.9</ele>
        <time>2022-06-28T09:39:20Z</time>
      </trkpt>
      <trkpt lat="48.79559" lon="2.19258">
        <ele>126</ele>
        <time>2022-06-28T09:39:41Z</time>
      </trkpt>
      <trkpt lat="48.79566" lon="2.19257">
        <ele>126</ele>
        <time>2022-06-28T09:39:46Z</time>
      </trkpt>
      <trkpt lat="48.79566" lon="2.19268">
        <ele>125.7</ele>
        <time>2022-06-28T09:39:53Z</time>
      </trkpt>
      <trkpt lat="48.79567" lon="2.1928">
        <ele>125.3</ele>
        <time>2022-06-28T09:39:59Z</time>
      </trkpt>
      <trkpt lat="48.7957" lon="2.1929">
        <ele>125</ele>
        <time>2022-06-28T09:40:05Z</time>
      </trkpt>
      <trkpt lat="48.79574" lon="2.19301">
        <ele>124.8</ele>
        <time>2022-06-28T09:40:10Z</time>
      </trkpt>
      <trkpt lat="48.79577" lon="2.19311">
        <ele>124.5</ele>
        <time>2022-06-28T09:40:16Z</time>
      </trkpt>
      <trkpt lat="48.79579" lon="2.19321">
        <ele>124.3</ele>
        <time>2022-06-28T09:40:22Z</time>
      </trkpt>
      <trkpt lat="48.79584" lon="2.1933">
        <ele>124.1</ele>
        <time>2022-06-28T09:40:36Z</time>
      </trkpt>
      <trkpt lat="48.79587" lon="2.1934">
        <ele>124</ele>
        <time>2022-06-28T09:40:42Z</time>
      </trkpt>
      <trkpt lat="48.79591" lon="2.19349">
        <ele>124</ele>
        <time>2022-06-28T09:40:49Z</time>
      </trkpt>
      <trkpt lat="48.79594" lon="2.19359">
        <ele>124</ele>
        <time>2022-06-28T09:40:56Z</time>
      </trkpt>
      <trkpt lat="48.79598" lon="2.19368">
        <ele>124.1</ele>
        <time>2022-06-28T09:41:02Z</time>
      </trkpt>
      <trkpt lat="48.79602" lon="2.19378">
        <ele>124.2</ele>
        <time>2022-06-28T09:41:07Z</time>
      </trkpt>
      <trkpt lat="48.79606" lon="2.19386">
        <ele>124.3</ele>
        <time>2022-06-28T09:41:12Z</time>
      </trkpt>
      <trkpt lat="48.7961" lon="2.19396">
        <ele>124.5</ele>
        <time>2022-06-28T09:41:19Z</time>
      </trkpt>
      <trkpt lat="48.79614" lon="2.19405">
        <ele>124.7</ele>
        <time>2022-06-28T09:41:24Z</time>
      </trkpt>
      <trkpt lat="48.79616" lon="2.19415">
        <ele>125</ele>
        <time>2022-06-28T09:41:30Z</time>
      </trkpt>
      <trkpt lat="48.79617" lon="2.19425">
        <ele>124.9</ele>
        <time>2022-06-28T09:41:35Z</time>
      </trkpt>
      <trkpt lat="48.7962" lon="2.19437">
        <ele>124.7</ele>
        <time>2022-06-28T09:41:40Z</time>
      </trkpt>
      <trkpt lat="48.79622" lon="2.19446">
        <ele>124.5</ele>
        <time>2022-06-28T09:41:47Z</time>
      </trkpt>
      <trkpt lat="48.79618" lon="2.19456">
        <ele>124.4</ele>
        <time>2022-06-28T09:41:56Z</time>
      </trkpt>
      <trkpt lat="48.79613" lon="2.19463">
        <ele>124.4</ele>
        <time>2022-06-28T09:42:03Z</time>
      </trkpt>
      <trkpt lat="48.79614" lon="2.19474">
        <ele>124.2</ele>
        <time>2022-06-28T09:42:10Z</time>
      </trkpt>
      <trkpt lat="48.79609" lon="2.19482">
        <ele>124.3</ele>
        <time>2022-06-28T09:42:15Z</time>
      </trkpt>
      <trkpt lat="48.79603" lon="2.19487">
        <ele>124.4</ele>
        <time>2022-06-28T09:42:22Z</time>
      </trkpt>
      <trkpt lat="48.79598" lon="2.19496">
        <ele>124.5</ele>
        <time>2022-06-28T09:42:32Z</time>
      </trkpt>
      <trkpt lat="48.79593" lon="2.19503">
        <ele>124.7</ele>
        <time>2022-06-28T09:42:38Z</time>
      </trkpt>
      <trkpt lat="48.79587" lon="2.19505">
        <ele>125</ele>
        <time>2022-06-28T09:42:43Z</time>
      </trkpt>
      <trkpt lat="48.79581" lon="2.1951">
        <ele>125.3</ele>
        <time>2022-06-28T09:42:48Z</time>
      </trkpt>
      <trkpt lat="48.79574" lon="2.19511">
        <ele>125.5</ele>
        <time>2022-06-28T09:42:54Z</time>
      </trkpt>
      <trkpt lat="48.79567" lon="2.19517">
        <ele>126</ele>
        <time>2022-06-28T09:43:01Z</time>
      </trkpt>
      <trkpt lat="48.79561" lon="2.1952">
        <ele>126.3</ele>
        <time>2022-06-28T09:43:06Z</time>
      </trkpt>
      <trkpt lat="48.79554" lon="2.19522">
        <ele>126.6</ele>
        <time>2022-06-28T09:43:13Z</time>
      </trkpt>
      <trkpt lat="48.79548" lon="2.19527">
        <ele>127</ele>
        <time>2022-06-28T09:43:31Z</time>
      </trkpt>
      <trkpt lat="48.79547" lon="2.19538">
        <ele>127.6</ele>
        <time>2022-06-28T09:43:38Z</time>
      </trkpt>
      <trkpt lat="48.79548" lon="2.19548">
        <ele>128</ele>
        <time>2022-06-28T09:43:44Z</time>
      </trkpt>
      <trkpt lat="48.79548" lon="2.1956">
        <ele>128.5</ele>
        <time>2022-06-28T09:43:52Z</time>
      </trkpt>
      <trkpt lat="48.79546" lon="2.1957">
        <ele>129.1</ele>
        <time>2022-06-28T09:43:57Z</time>
      </trkpt>
      <trkpt lat="48.79543" lon="2.19579">
        <ele>129.7</ele>
        <time>2022-06-28T09:44:03Z</time>
      </trkpt>
      <trkpt lat="48.79538" lon="2.19588">
        <ele>130.4</ele>
        <time>2022-06-28T09:44:09Z</time>
      </trkpt>
      <trkpt lat="48.7953" lon="2.19595">
        <ele>131.1</ele>
        <time>2022-06-28T09:44:14Z</time>
      </trkpt>
      <trkpt lat="48.7953" lon="2.19606">
        <ele>131.4</ele>
        <time>2022-06-28T09:44:21Z</time>
      </trkpt>
      <trkpt lat="48.79526" lon="2.19616">
        <ele>132.1</ele>
        <time>2022-06-28T09:44:28Z</time>
      </trkpt>
      <trkpt lat="48.79523" lon="2.19625">
        <ele>132.7</ele>
        <time>2022-06-28T09:44:34Z</time>
      </trkpt>
      <trkpt lat="48.79517" lon="2.19632">
        <ele>133.5</ele>
        <time>2022-06-28T09:44:39Z</time>
      </trkpt>
      <trkpt lat="48.79518" lon="2.19643">
        <ele>133.8</ele>
        <time>2022-06-28T09:44:45Z</time>
      </trkpt>
      <trkpt lat="48.79514" lon="2.19652">
        <ele>134.6</ele>
        <time>2022-06-28T09:44:53Z</time>
      </trkpt>
      <trkpt lat="48.79511" lon="2.19661">
        <ele>135.3</ele>
        <time>2022-06-28T09:44:59Z</time>
      </trkpt>
      <trkpt lat="48.79508" lon="2.1967">
        <ele>136</ele>
        <time>2022-06-28T09:45:08Z</time>
      </trkpt>
      <trkpt lat="48.79504" lon="2.19677">
        <ele>136.6</ele>
        <time>2022-06-28T09:45:15Z</time>
      </trkpt>
      <trkpt lat="48.795" lon="2.19688">
        <ele>137.3</ele>
        <time>2022-06-28T09:45:23Z</time>
      </trkpt>
      <trkpt lat="48.79501" lon="2.19699">
        <ele>137.2</ele>
        <time>2022-06-28T09:45:28Z</time>
      </trkpt>
      <trkpt lat="48.79497" lon="2.19706">
        <ele>137.4</ele>
        <time>2022-06-28T09:45:35Z</time>
      </trkpt>
      <trkpt lat="48.79492" lon="2.19714">
        <ele>137.5</ele>
        <time>2022-06-28T09:45:46Z</time>
      </trkpt>
      <trkpt lat="48.79485" lon="2.19711">
        <ele>137.4</ele>
        <time>2022-06-28T09:46:02Z</time>
      </trkpt>
      <trkpt lat="48.79479" lon="2.19705">
        <ele>137.2</ele>
        <time>2022-06-28T09:46:15Z</time>
      </trkpt>
      <trkpt lat="48.79472" lon="2.19697">
        <ele>136.9</ele>
        <time>2022-06-28T09:46:29Z</time>
      </trkpt>
      <trkpt lat="48.79466" lon="2.19693">
        <ele>136.8</ele>
        <time>2022-06-28T09:46:35Z</time>
      </trkpt>
      <trkpt lat="48.79456" lon="2.19692">
        <ele>136.6</ele>
        <time>2022-06-28T09:46:40Z</time>
      </trkpt>
      <trkpt lat="48.7945" lon="2.19687">
        <ele>136.3</ele>
        <time>2022-06-28T09:46:47Z</time>
      </trkpt>
      <trkpt lat="48.79443" lon="2.19684">
        <ele>136.1</ele>
        <time>2022-06-28T09:46:53Z</time>
      </trkpt>
      <trkpt lat="48.79438" lon="2.19679">
        <ele>135.9</ele>
        <time>2022-06-28T09:46:59Z</time>
      </trkpt>
      <trkpt lat="48.79431" lon="2.19675">
        <ele>135.6</ele>
        <time>2022-06-28T09:47:07Z</time>
      </trkpt>
      <trkpt lat="48.79423" lon="2.1967">
        <ele>135.3</ele>
        <time>2022-06-28T09:47:16Z</time>
      </trkpt>
      <trkpt lat="48.79417" lon="2.19663">
        <ele>135</ele>
        <time>2022-06-28T09:47:21Z</time>
      </trkpt>
      <trkpt lat="48.7941" lon="2.19659">
        <ele>135.6</ele>
        <time>2022-06-28T09:47:27Z</time>
      </trkpt>
      <trkpt lat="48.79403" lon="2.19657">
        <ele>136.1</ele>
        <time>2022-06-28T09:47:33Z</time>
      </trkpt>
      <trkpt lat="48.79397" lon="2.19653">
        <ele>136.6</ele>
        <time>2022-06-28T09:47:42Z</time>
      </trkpt>
      <trkpt lat="48.7939" lon="2.19647">
        <ele>137.2</ele>
        <time>2022-06-28T09:47:48Z</time>
      </trkpt>
      <trkpt lat="48.79381" lon="2.19642">
        <ele>137.9</ele>
        <time>2022-06-28T09:47:53Z</time>
      </trkpt>
      <trkpt lat="48.79374" lon="2.1964">
        <ele>138.4</ele>
        <time>2022-06-28T09:48:00Z</time>
      </trkpt>
      <trkpt lat="48.79368" lon="2.19637">
        <ele>138.9</ele>
        <time>2022-06-28T09:48:06Z</time>
      </trkpt>
      <trkpt lat="48.79361" lon="2.19635">
        <ele>139.4</ele>
        <time>2022-06-28T09:48:11Z</time>
      </trkpt>
      <trkpt lat="48.79354" lon="2.19631">
        <ele>139.9</ele>
        <time>2022-06-28T09:48:17Z</time>
      </trkpt>
      <trkpt lat="48.79344" lon="2.19626">
        <ele>140.7</ele>
        <time>2022-06-28T09:48:22Z</time>
      </trkpt>
      <trkpt lat="48.79337" lon="2.19621">
        <ele>141.2</ele>
        <time>2022-06-28T09:48:27Z</time>
      </trkpt>
      <trkpt lat="48.79331" lon="2.19618">
        <ele>141.4</ele>
        <time>2022-06-28T09:48:33Z</time>
      </trkpt>
      <trkpt lat="48.79326" lon="2.19611">
        <ele>141.3</ele>
        <time>2022-06-28T09:48:38Z</time>
      </trkpt>
      <trkpt lat="48.79318" lon="2.19605">
        <ele>141.1</ele>
        <time>2022-06-28T09:48:45Z</time>
      </trkpt>
      <trkpt lat="48.79309" lon="2.19609">
        <ele>141.1</ele>
        <time>2022-06-28T09:48:53Z</time>
      </trkpt>
      <trkpt lat="48.79303" lon="2.19615">
        <ele>141.2</ele>
        <time>2022-06-28T09:49:08Z</time>
      </trkpt>
      <trkpt lat="48.79296" lon="2.19615">
        <ele>141.1</ele>
        <time>2022-06-28T09:49:13Z</time>
      </trkpt>
      <trkpt lat="48.79289" lon="2.19611">
        <ele>141</ele>
        <time>2022-06-28T09:49:22Z</time>
      </trkpt>
      <trkpt lat="48.79289" lon="2.19621">
        <ele>141.2</ele>
        <time>2022-06-28T09:50:01Z</time>
      </trkpt>
      <trkpt lat="48.79289" lon="2.19633">
        <ele>141.4</ele>
        <time>2022-06-28T09:50:07Z</time>
      </trkpt>
      <trkpt lat="48.7929" lon="2.19643">
        <ele>141.6</ele>
        <time>2022-06-28T09:50:13Z</time>
      </trkpt>
      <trkpt lat="48.79288" lon="2.19653">
        <ele>141.7</ele>
        <time>2022-06-28T09:50:18Z</time>
      </trkpt>
      <trkpt lat="48.79287" lon="2.19667">
        <ele>142</ele>
        <time>2022-06-28T09:50:23Z</time>
      </trkpt>
      <trkpt lat="48.79286" lon="2.19678">
        <ele>141.7</ele>
        <time>2022-06-28T09:50:28Z</time>
      </trkpt>
      <trkpt lat="48.79284" lon="2.19688">
        <ele>141.5</ele>
        <time>2022-06-28T09:50:33Z</time>
      </trkpt>
      <trkpt lat="48.79281" lon="2.19698">
        <ele>141.2</ele>
        <time>2022-06-28T09:50:39Z</time>
      </trkpt>
      <trkpt lat="48.79282" lon="2.19711">
        <ele>140.9</ele>
        <time>2022-06-28T09:50:44Z</time>
      </trkpt>
      <trkpt lat="48.79281" lon="2.19722">
        <ele>140.7</ele>
        <time>2022-06-28T09:50:53Z</time>
      </trkpt>
      <trkpt lat="48.79277" lon="2.19731">
        <ele>140.5</ele>
        <time>2022-06-28T09:50:58Z</time>
      </trkpt>
      <trkpt lat="48.79275" lon="2.19742">
        <ele>140.2</ele>
        <time>2022-06-28T09:51:03Z</time>
      </trkpt>
      <trkpt lat="48.79276" lon="2.19752">
        <ele>139.9</ele>
        <time>2022-06-28T09:51:10Z</time>
      </trkpt>
      <trkpt lat="48.79273" lon="2.19761">
        <ele>139.5</ele>
        <time>2022-06-28T09:51:17Z</time>
      </trkpt>
      <trkpt lat="48.79267" lon="2.19769">
        <ele>139.1</ele>
        <time>2022-06-28T09:51:28Z</time>
      </trkpt>
      <trkpt lat="48.79267" lon="2.1978">
        <ele>138.6</ele>
        <time>2022-06-28T09:51:34Z</time>
      </trkpt>
      <trkpt lat="48.79265" lon="2.19791">
        <ele>138</ele>
        <time>2022-06-28T09:51:40Z</time>
      </trkpt>
      <trkpt lat="48.79259" lon="2.19794">
        <ele>137.9</ele>
        <time>2022-06-28T09:51:51Z</time>
      </trkpt>
      <trkpt lat="48.79253" lon="2.1979">
        <ele>138.1</ele>
        <time>2022-06-28T09:52:03Z</time>
      </trkpt>
      <trkpt lat="48.79261" lon="2.19781">
        <ele>138.5</ele>
        <time>2022-06-28T09:53:23Z</time>
      </trkpt>
      <trkpt lat="48.79263" lon="2.19791">
        <ele>138</ele>
        <time>2022-06-28T09:54:06Z</time>
      </trkpt>
      <trkpt lat="48.79266" lon="2.19802">
        <ele>137.5</ele>
        <time>2022-06-28T09:54:46Z</time>
      </trkpt>
      <trkpt lat="48.79263" lon="2.1981">
        <ele>137.1</ele>
        <time>2022-06-28T09:54:51Z</time>
      </trkpt>
      <trkpt lat="48.79261" lon="2.19821">
        <ele>136.6</ele>
        <time>2022-06-28T09:54:58Z</time>
      </trkpt>
      <trkpt lat="48.79258" lon="2.1983">
        <ele>136.2</ele>
        <time>2022-06-28T09:55:03Z</time>
      </trkpt>
      <trkpt lat="48.79256" lon="2.1984">
        <ele>136</ele>
        <time>2022-06-28T09:55:08Z</time>
      </trkpt>
      <trkpt lat="48.79256" lon="2.1985">
        <ele>136</ele>
        <time>2022-06-28T09:55:15Z</time>
      </trkpt>
      <trkpt lat="48.79253" lon="2.19859">
        <ele>136</ele>
        <time>2022-06-28T09:55:22Z</time>
      </trkpt>
      <trkpt lat="48.7925" lon="2.19871">
        <ele>136</ele>
        <time>2022-06-28T09:55:27Z</time>
      </trkpt>
      <trkpt lat="48.79248" lon="2.1988">
        <ele>136.1</ele>
        <time>2022-06-28T09:55:33Z</time>
      </trkpt>
      <trkpt lat="48.79245" lon="2.19891">
        <ele>136.3</ele>
        <time>2022-06-28T09:55:38Z</time>
      </trkpt>
      <trkpt lat="48.79242" lon="2.19901">
        <ele>136.6</ele>
        <time>2022-06-28T09:55:43Z</time>
      </trkpt>
      <trkpt lat="48.7924" lon="2.1991">
        <ele>136.7</ele>
        <time>2022-06-28T09:55:48Z</time>
      </trkpt>
      <trkpt lat="48.79238" lon="2.1992">
        <ele>137</ele>
        <time>2022-06-28T09:55:57Z</time>
      </trkpt>
      <trkpt lat="48.79237" lon="2.19931">
        <ele>137.5</ele>
        <time>2022-06-28T09:56:02Z</time>
      </trkpt>
      <trkpt lat="48.79236" lon="2.19941">
        <ele>138</ele>
        <time>2022-06-28T09:56:09Z</time>
      </trkpt>
      <trkpt lat="48.79236" lon="2.19952">
        <ele>138.5</ele>
        <time>2022-06-28T09:56:15Z</time>
      </trkpt>
      <trkpt lat="48.79235" lon="2.19962">
        <ele>139</ele>
        <time>2022-06-28T09:56:20Z</time>
      </trkpt>
      <trkpt lat="48.79233" lon="2.19974">
        <ele>139.6</ele>
        <time>2022-06-28T09:56:26Z</time>
      </trkpt>
      <trkpt lat="48.79229" lon="2.19983">
        <ele>140.1</ele>
        <time>2022-06-28T09:56:32Z</time>
      </trkpt>
      <trkpt lat="48.79227" lon="2.19994">
        <ele>140.6</ele>
        <time>2022-06-28T09:56:38Z</time>
      </trkpt>
      <trkpt lat="48.79227" lon="2.20006">
        <ele>140.9</ele>
        <time>2022-06-28T09:56:43Z</time>
      </trkpt>
      <trkpt lat="48.79224" lon="2.20015">
        <ele>141.1</ele>
        <time>2022-06-28T09:56:49Z</time>
      </trkpt>
      <trkpt lat="48.79221" lon="2.20024">
        <ele>141.3</ele>
        <time>2022-06-28T09:56:55Z</time>
      </trkpt>
      <trkpt lat="48.79216" lon="2.20033">
        <ele>141.6</ele>
        <time>2022-06-28T09:57:01Z</time>
      </trkpt>
      <trkpt lat="48.79216" lon="2.20043">
        <ele>141.7</ele>
        <time>2022-06-28T09:57:07Z</time>
      </trkpt>
      <trkpt lat="48.79215" lon="2.20053">
        <ele>141.9</ele>
        <time>2022-06-28T09:57:14Z</time>
      </trkpt>
      <trkpt lat="48.79212" lon="2.20064">
        <ele>142.1</ele>
        <time>2022-06-28T09:57:19Z</time>
      </trkpt>
      <trkpt lat="48.79211" lon="2.20077">
        <ele>142.3</ele>
        <time>2022-06-28T09:57:24Z</time>
      </trkpt>
      <trkpt lat="48.79211" lon="2.20089">
        <ele>142.6</ele>
        <time>2022-06-28T09:57:29Z</time>
      </trkpt>
      <trkpt lat="48.79205" lon="2.20097">
        <ele>143.1</ele>
        <time>2022-06-28T09:57:35Z</time>
      </trkpt>
      <trkpt lat="48.79202" lon="2.20106">
        <ele>143.6</ele>
        <time>2022-06-28T09:57:40Z</time>
      </trkpt>
      <trkpt lat="48.792" lon="2.20117">
        <ele>144.1</ele>
        <time>2022-06-28T09:57:46Z</time>
      </trkpt>
      <trkpt lat="48.79198" lon="2.20127">
        <ele>144.6</ele>
        <time>2022-06-28T09:57:51Z</time>
      </trkpt>
      <trkpt lat="48.79195" lon="2.20138">
        <ele>145.2</ele>
        <time>2022-06-28T09:57:56Z</time>
      </trkpt>
      <trkpt lat="48.79193" lon="2.20148">
        <ele>145.7</ele>
        <time>2022-06-28T09:58:01Z</time>
      </trkpt>
      <trkpt lat="48.79192" lon="2.20158">
        <ele>146.1</ele>
        <time>2022-06-28T09:58:06Z</time>
      </trkpt>
      <trkpt lat="48.79191" lon="2.20169">
        <ele>146.6</ele>
        <time>2022-06-28T09:58:12Z</time>
      </trkpt>
      <trkpt lat="48.7919" lon="2.2018">
        <ele>146.8</ele>
        <time>2022-06-28T09:58:18Z</time>
      </trkpt>
      <trkpt lat="48.79188" lon="2.20189">
        <ele>147.1</ele>
        <time>2022-06-28T09:58:23Z</time>
      </trkpt>
      <trkpt lat="48.79186" lon="2.20199">
        <ele>147.3</ele>
        <time>2022-06-28T09:58:29Z</time>
      </trkpt>
      <trkpt lat="48.79183" lon="2.2021">
        <ele>147.6</ele>
        <time>2022-06-28T09:58:34Z</time>
      </trkpt>
      <trkpt lat="48.7918" lon="2.20223">
        <ele>148</ele>
        <time>2022-06-28T09:58:39Z</time>
      </trkpt>
      <trkpt lat="48.79179" lon="2.20235">
        <ele>148.2</ele>
        <time>2022-06-28T09:58:44Z</time>
      </trkpt>
      <trkpt lat="48.79184" lon="2.20242">
        <ele>148.1</ele>
        <time>2022-06-28T09:58:55Z</time>
      </trkpt>
      <trkpt lat="48.79178" lon="2.20251">
        <ele>148.4</ele>
        <time>2022-06-28T09:59:05Z</time>
      </trkpt>
      <trkpt lat="48.79178" lon="2.20261">
        <ele>148.2</ele>
        <time>2022-06-28T09:59:12Z</time>
      </trkpt>
      <trkpt lat="48.79174" lon="2.20271">
        <ele>148.1</ele>
        <time>2022-06-28T09:59:19Z</time>
      </trkpt>
      <trkpt lat="48.7917" lon="2.20281">
        <ele>148.1</ele>
        <time>2022-06-28T09:59:26Z</time>
      </trkpt>
      <trkpt lat="48.79169" lon="2.20292">
        <ele>147.9</ele>
        <time>2022-06-28T09:59:31Z</time>
      </trkpt>
      <trkpt lat="48.79167" lon="2.20302">
        <ele>147.7</ele>
        <time>2022-06-28T09:59:38Z</time>
      </trkpt>
      <trkpt lat="48.79164" lon="2.20313">
        <ele>147.4</ele>
        <time>2022-06-28T09:59:44Z</time>
      </trkpt>
      <trkpt lat="48.79161" lon="2.20324">
        <ele>147.1</ele>
        <time>2022-06-28T09:59:49Z</time>
      </trkpt>
      <trkpt lat="48.7916" lon="2.20334">
        <ele>146.9</ele>
        <time>2022-06-28T09:59:56Z</time>
      </trkpt>
      <trkpt lat="48.79157" lon="2.20344">
        <ele>146.4</ele>
        <time>2022-06-28T10:00:01Z</time>
      </trkpt>
      <trkpt lat="48.79159" lon="2.20355">
        <ele>146</ele>
        <time>2022-06-28T10:00:06Z</time>
      </trkpt>
      <trkpt lat="48.79157" lon="2.20366">
        <ele>145.5</ele>
        <time>2022-06-28T10:00:17Z</time>
      </trkpt>
      <trkpt lat="48.79156" lon="2.20377">
        <ele>145.1</ele>
        <time>2022-06-28T10:00:23Z</time>
      </trkpt>
      <trkpt lat="48.79153" lon="2.20387">
        <ele>144.8</ele>
        <time>2022-06-28T10:00:28Z</time>
      </trkpt>
      <trkpt lat="48.79149" lon="2.20397">
        <ele>144.5</ele>
        <time>2022-06-28T10:00:34Z</time>
      </trkpt>
      <trkpt lat="48.79146" lon="2.20406">
        <ele>144.3</ele>
        <time>2022-06-28T10:00:39Z</time>
      </trkpt>
      <trkpt lat="48.79147" lon="2.20417">
        <ele>144</ele>
        <time>2022-06-28T10:00:44Z</time>
      </trkpt>
      <trkpt lat="48.79145" lon="2.20429">
        <ele>145</ele>
        <time>2022-06-28T10:00:50Z</time>
      </trkpt>
      <trkpt lat="48.79145" lon="2.2044">
        <ele>145.9</ele>
        <time>2022-06-28T10:00:58Z</time>
      </trkpt>
      <trkpt lat="48.79142" lon="2.20449">
        <ele>146.7</ele>
        <time>2022-06-28T10:01:03Z</time>
      </trkpt>
      <trkpt lat="48.79133" lon="2.20455">
        <ele>147.5</ele>
        <time>2022-06-28T10:01:22Z</time>
      </trkpt>
      <trkpt lat="48.79134" lon="2.20466">
        <ele>148.2</ele>
        <time>2022-06-28T10:01:36Z</time>
      </trkpt>
      <trkpt lat="48.7914" lon="2.20471">
        <ele>148.4</ele>
        <time>2022-06-28T10:01:41Z</time>
      </trkpt>
      <trkpt lat="48.79147" lon="2.20471">
        <ele>148.2</ele>
        <time>2022-06-28T10:01:57Z</time>
      </trkpt>
      <trkpt lat="48.79155" lon="2.2048">
        <ele>148.7</ele>
        <time>2022-06-28T10:02:02Z</time>
      </trkpt>
      <trkpt lat="48.79163" lon="2.20483">
        <ele>148.7</ele>
        <time>2022-06-28T10:02:08Z</time>
      </trkpt>
      <trkpt lat="48.79172" lon="2.20482">
        <ele>148</ele>
        <time>2022-06-28T10:02:13Z</time>
      </trkpt>
      <trkpt lat="48.79179" lon="2.20487">
        <ele>147.6</ele>
        <time>2022-06-28T10:02:18Z</time>
      </trkpt>
      <trkpt lat="48.79186" lon="2.20489">
        <ele>147.1</ele>
        <time>2022-06-28T10:02:28Z</time>
      </trkpt>
      <trkpt lat="48.79193" lon="2.20488">
        <ele>146.3</ele>
        <time>2022-06-28T10:02:33Z</time>
      </trkpt>
      <trkpt lat="48.79204" lon="2.20485">
        <ele>144.9</ele>
        <time>2022-06-28T10:02:38Z</time>
      </trkpt>
      <trkpt lat="48.79213" lon="2.20487">
        <ele>144.2</ele>
        <time>2022-06-28T10:02:43Z</time>
      </trkpt>
      <trkpt lat="48.79211" lon="2.20497">
        <ele>145</ele>
        <time>2022-06-28T10:03:09Z</time>
      </trkpt>
      <trkpt lat="48.79209" lon="2.2051">
        <ele>147.3</ele>
        <time>2022-06-28T10:03:27Z</time>
      </trkpt>
      <trkpt lat="48.79208" lon="2.2052">
        <ele>149.4</ele>
        <time>2022-06-28T10:03:37Z</time>
      </trkpt>
      <trkpt lat="48.79208" lon="2.2053">
        <ele>151.3</ele>
        <time>2022-06-28T10:03:48Z</time>
      </trkpt>
      <trkpt lat="48.79214" lon="2.20536">
        <ele>151.9</ele>
        <time>2022-06-28T10:04:00Z</time>
      </trkpt>
      <trkpt lat="48.7921" lon="2.20549">
        <ele>154.8</ele>
        <time>2022-06-28T10:04:24Z</time>
      </trkpt>
      <trkpt lat="48.79205" lon="2.20556">
        <ele>156.6</ele>
        <time>2022-06-28T10:04:38Z</time>
      </trkpt>
      <trkpt lat="48.79202" lon="2.20567">
        <ele>158.9</ele>
        <time>2022-06-28T10:04:51Z</time>
      </trkpt>
      <trkpt lat="48.79207" lon="2.20573">
        <ele>159.6</ele>
        <time>2022-06-28T10:05:02Z</time>
      </trkpt>
      <trkpt lat="48.79203" lon="2.20582">
        <ele>161.7</ele>
        <time>2022-06-28T10:05:20Z</time>
      </trkpt>
      <trkpt lat="48.79206" lon="2.20592">
        <ele>162.5</ele>
        <time>2022-06-28T10:05:35Z</time>
      </trkpt>
      <trkpt lat="48.7921" lon="2.20601">
        <ele>163.1</ele>
        <time>2022-06-28T10:05:53Z</time>
      </trkpt>
      <trkpt lat="48.79209" lon="2.20611">
        <ele>164.1</ele>
        <time>2022-06-28T10:06:05Z</time>
      </trkpt>
      <trkpt lat="48.79212" lon="2.20622">
        <ele>164.9</ele>
        <time>2022-06-28T10:06:15Z</time>
      </trkpt>
      <trkpt lat="48.79216" lon="2.20629">
        <ele>165.2</ele>
        <time>2022-06-28T10:06:24Z</time>
      </trkpt>
      <trkpt lat="48.79218" lon="2.20639">
        <ele>166</ele>
        <time>2022-06-28T10:06:33Z</time>
      </trkpt>
      <trkpt lat="48.79213" lon="2.20645">
        <ele>167</ele>
        <time>2022-06-28T10:07:13Z</time>
      </trkpt>
      <trkpt lat="48.79206" lon="2.2065">
        <ele>168.1</ele>
        <time>2022-06-28T10:07:22Z</time>
      </trkpt>
      <trkpt lat="48.79204" lon="2.2066">
        <ele>169.2</ele>
        <time>2022-06-28T10:07:44Z</time>
      </trkpt>
      <trkpt lat="48.79208" lon="2.2065">
        <ele>167.9</ele>
        <time>2022-06-28T10:07:50Z</time>
      </trkpt>
      <trkpt lat="48.79212" lon="2.20642">
        <ele>166.8</ele>
        <time>2022-06-28T10:07:57Z</time>
      </trkpt>
      <trkpt lat="48.79219" lon="2.2064">
        <ele>166</ele>
        <time>2022-06-28T10:08:05Z</time>
      </trkpt>
      <trkpt lat="48.79225" lon="2.20638">
        <ele>165.3</ele>
        <time>2022-06-28T10:08:12Z</time>
      </trkpt>
      <trkpt lat="48.79232" lon="2.20637">
        <ele>164.7</ele>
        <time>2022-06-28T10:08:18Z</time>
      </trkpt>
      <trkpt lat="48.79239" lon="2.20639">
        <ele>164.3</ele>
        <time>2022-06-28T10:08:24Z</time>
      </trkpt>
      <trkpt lat="48.79248" lon="2.20644">
        <ele>164</ele>
        <time>2022-06-28T10:08:29Z</time>
      </trkpt>
      <trkpt lat="48.79253" lon="2.20651">
        <ele>164.6</ele>
        <time>2022-06-28T10:08:34Z</time>
      </trkpt>
      <trkpt lat="48.79258" lon="2.2066">
        <ele>165.7</ele>
        <time>2022-06-28T10:08:40Z</time>
      </trkpt>
      <trkpt lat="48.79261" lon="2.20671">
        <ele>166.6</ele>
        <time>2022-06-28T10:08:46Z</time>
      </trkpt>
      <trkpt lat="48.79266" lon="2.20678">
        <ele>167</ele>
        <time>2022-06-28T10:08:51Z</time>
      </trkpt>
      <trkpt lat="48.79269" lon="2.20687">
        <ele>167.3</ele>
        <time>2022-06-28T10:08:56Z</time>
      </trkpt>
      <trkpt lat="48.79271" lon="2.20698">
        <ele>167.7</ele>
        <time>2022-06-28T10:09:02Z</time>
      </trkpt>
      <trkpt lat="48.79267" lon="2.20706">
        <ele>167.7</ele>
        <time>2022-06-28T10:09:10Z</time>
      </trkpt>
      <trkpt lat="48.79266" lon="2.20717">
        <ele>167.9</ele>
        <time>2022-06-28T10:09:22Z</time>
      </trkpt>
      <trkpt lat="48.79265" lon="2.20727">
        <ele>168</ele>
        <time>2022-06-28T10:09:27Z</time>
      </trkpt>
      <trkpt lat="48.79262" lon="2.20737">
        <ele>168.1</ele>
        <time>2022-06-28T10:09:33Z</time>
      </trkpt>
      <trkpt lat="48.79257" lon="2.20745">
        <ele>168.1</ele>
        <time>2022-06-28T10:09:39Z</time>
      </trkpt>
      <trkpt lat="48.79252" lon="2.20754">
        <ele>168.1</ele>
        <time>2022-06-28T10:09:46Z</time>
      </trkpt>
      <trkpt lat="48.79249" lon="2.20763">
        <ele>168.1</ele>
        <time>2022-06-28T10:09:52Z</time>
      </trkpt>
      <trkpt lat="48.79244" lon="2.20773">
        <ele>168.5</ele>
        <time>2022-06-28T10:09:57Z</time>
      </trkpt>
      <trkpt lat="48.7924" lon="2.20786">
        <ele>168.9</ele>
        <time>2022-06-28T10:10:02Z</time>
      </trkpt>
      <trkpt lat="48.79237" lon="2.20796">
        <ele>169.3</ele>
        <time>2022-06-28T10:10:07Z</time>
      </trkpt>
      <trkpt lat="48.79232" lon="2.20806">
        <ele>169.8</ele>
        <time>2022-06-28T10:10:12Z</time>
      </trkpt>
      <trkpt lat="48.79233" lon="2.20817">
        <ele>169.8</ele>
        <time>2022-06-28T10:10:24Z</time>
      </trkpt>
      <trkpt lat="48.79233" lon="2.20827">
        <ele>169.8</ele>
        <time>2022-06-28T10:10:31Z</time>
      </trkpt>
      <trkpt lat="48.79237" lon="2.20837">
        <ele>169.4</ele>
        <time>2022-06-28T10:10:36Z</time>
      </trkpt>
      <trkpt lat="48.7924" lon="2.20848">
        <ele>169.2</ele>
        <time>2022-06-28T10:10:43Z</time>
      </trkpt>
      <trkpt lat="48.79246" lon="2.20853">
        <ele>168.6</ele>
        <time>2022-06-28T10:10:48Z</time>
      </trkpt>
      <trkpt lat="48.79251" lon="2.20861">
        <ele>168.3</ele>
        <time>2022-06-28T10:10:54Z</time>
      </trkpt>
      <trkpt lat="48.79258" lon="2.20866">
        <ele>168.5</ele>
        <time>2022-06-28T10:10:59Z</time>
      </trkpt>
      <trkpt lat="48.79265" lon="2.20872">
        <ele>168.7</ele>
        <time>2022-06-28T10:11:04Z</time>
      </trkpt>
      <trkpt lat="48.79273" lon="2.20878">
        <ele>168.8</ele>
        <time>2022-06-28T10:11:09Z</time>
      </trkpt>
      <trkpt lat="48.7928" lon="2.20885">
        <ele>168.9</ele>
        <time>2022-06-28T10:11:14Z</time>
      </trkpt>
      <trkpt lat="48.79286" lon="2.20889">
        <ele>169</ele>
        <time>2022-06-28T10:11:20Z</time>
      </trkpt>
      <trkpt lat="48.79292" lon="2.20896">
        <ele>169</ele>
        <time>2022-06-28T10:11:26Z</time>
      </trkpt>
      <trkpt lat="48.79299" lon="2.209">
        <ele>169</ele>
        <time>2022-06-28T10:11:33Z</time>
      </trkpt>
      <trkpt lat="48.79305" lon="2.20905">
        <ele>169</ele>
        <time>2022-06-28T10:11:44Z</time>
      </trkpt>
      <trkpt lat="48.79312" lon="2.20906">
        <ele>169.1</ele>
        <time>2022-06-28T10:11:50Z</time>
      </trkpt>
      <trkpt lat="48.79319" lon="2.20905">
        <ele>169.1</ele>
        <time>2022-06-28T10:11:55Z</time>
      </trkpt>
      <trkpt lat="48.79326" lon="2.20902">
        <ele>169.1</ele>
        <time>2022-06-28T10:12:00Z</time>
      </trkpt>
      <trkpt lat="48.79332" lon="2.20897">
        <ele>169.2</ele>
        <time>2022-06-28T10:12:05Z</time>
      </trkpt>
      <trkpt lat="48.7934" lon="2.20892">
        <ele>169.5</ele>
        <time>2022-06-28T10:12:10Z</time>
      </trkpt>
      <trkpt lat="48.79348" lon="2.20889">
        <ele>169.8</ele>
        <time>2022-06-28T10:12:15Z</time>
      </trkpt>
      <trkpt lat="48.79354" lon="2.20885">
        <ele>170</ele>
        <time>2022-06-28T10:12:21Z</time>
      </trkpt>
      <trkpt lat="48.79357" lon="2.20875">
        <ele>170.2</ele>
        <time>2022-06-28T10:12:26Z</time>
      </trkpt>
      <trkpt lat="48.79362" lon="2.20869">
        <ele>170.4</ele>
        <time>2022-06-28T10:12:31Z</time>
      </trkpt>
      <trkpt lat="48.79369" lon="2.20864">
        <ele>170.6</ele>
        <time>2022-06-28T10:12:36Z</time>
      </trkpt>
      <trkpt lat="48.79376" lon="2.20865">
        <ele>170.8</ele>
        <time>2022-06-28T10:12:41Z</time>
      </trkpt>
      <trkpt lat="48.79384" lon="2.20866">
        <ele>171.1</ele>
        <time>2022-06-28T10:12:46Z</time>
      </trkpt>
      <trkpt lat="48.79391" lon="2.20864">
        <ele>171.3</ele>
        <time>2022-06-28T10:12:56Z</time>
      </trkpt>
      <trkpt lat="48.79397" lon="2.20859">
        <ele>171.5</ele>
        <time>2022-06-28T10:13:07Z</time>
      </trkpt>
      <trkpt lat="48.79404" lon="2.20855">
        <ele>171.7</ele>
        <time>2022-06-28T10:13:13Z</time>
      </trkpt>
      <trkpt lat="48.7941" lon="2.2085">
        <ele>171.8</ele>
        <time>2022-06-28T10:13:18Z</time>
      </trkpt>
      <trkpt lat="48.79417" lon="2.20847">
        <ele>172</ele>
        <time>2022-06-28T10:13:24Z</time>
      </trkpt>
      <trkpt lat="48.79425" lon="2.20848">
        <ele>171.9</ele>
        <time>2022-06-28T10:13:30Z</time>
      </trkpt>
      <trkpt lat="48.79431" lon="2.20849">
        <ele>171.8</ele>
        <time>2022-06-28T10:13:35Z</time>
      </trkpt>
      <trkpt lat="48.79438" lon="2.20849">
        <ele>171.7</ele>
        <time>2022-06-28T10:13:41Z</time>
      </trkpt>
      <trkpt lat="48.79446" lon="2.20848">
        <ele>171.6</ele>
        <time>2022-06-28T10:14:10Z</time>
      </trkpt>
      <trkpt lat="48.79444" lon="2.20838">
        <ele>171.4</ele>
        <time>2022-06-28T10:14:18Z</time>
      </trkpt>
      <trkpt lat="48.7945" lon="2.20841">
        <ele>171.4</ele>
        <time>2022-06-28T10:14:29Z</time>
      </trkpt>
      <trkpt lat="48.79444" lon="2.20837">
        <ele>171.4</ele>
        <time>2022-06-28T10:14:51Z</time>
      </trkpt>
      <trkpt lat="48.79449" lon="2.20844">
        <ele>171.5</ele>
        <time>2022-06-28T10:15:05Z</time>
      </trkpt>
      <trkpt lat="48.79457" lon="2.20847">
        <ele>171.4</ele>
        <time>2022-06-28T10:15:10Z</time>
      </trkpt>
      <trkpt lat="48.79464" lon="2.20849">
        <ele>171.4</ele>
        <time>2022-06-28T10:15:17Z</time>
      </trkpt>
      <trkpt lat="48.7947" lon="2.20853">
        <ele>171.5</ele>
        <time>2022-06-28T10:15:25Z</time>
      </trkpt>
      <trkpt lat="48.79474" lon="2.20862">
        <ele>171.8</ele>
        <time>2022-06-28T10:15:37Z</time>
      </trkpt>
      <trkpt lat="48.79479" lon="2.20867">
        <ele>172</ele>
        <time>2022-06-28T10:15:45Z</time>
      </trkpt>
      <trkpt lat="48.79485" lon="2.20873">
        <ele>172.3</ele>
        <time>2022-06-28T10:15:50Z</time>
      </trkpt>
      <trkpt lat="48.79489" lon="2.20866">
        <ele>172</ele>
        <time>2022-06-28T10:16:05Z</time>
      </trkpt>
      <trkpt lat="48.79494" lon="2.20874">
        <ele>172.4</ele>
        <time>2022-06-28T10:16:11Z</time>
      </trkpt>
      <trkpt lat="48.79486" lon="2.2087">
        <ele>172.2</ele>
        <time>2022-06-28T10:16:18Z</time>
      </trkpt>
      <trkpt lat="48.79483" lon="2.20858">
        <ele>171.6</ele>
        <time>2022-06-28T10:16:23Z</time>
      </trkpt>
      <trkpt lat="48.79476" lon="2.20858">
        <ele>171.6</ele>
        <time>2022-06-28T10:16:44Z</time>
      </trkpt>
      <trkpt lat="48.79471" lon="2.20864">
        <ele>171.9</ele>
        <time>2022-06-28T10:16:57Z</time>
      </trkpt>
      <trkpt lat="48.7947" lon="2.20875">
        <ele>172.3</ele>
        <time>2022-06-28T10:17:06Z</time>
      </trkpt>
      <trkpt lat="48.79474" lon="2.20885">
        <ele>172.8</ele>
        <time>2022-06-28T10:17:15Z</time>
      </trkpt>
      <trkpt lat="48.7948" lon="2.20894">
        <ele>173.2</ele>
        <time>2022-06-28T10:17:20Z</time>
      </trkpt>
      <trkpt lat="48.79483" lon="2.20904">
        <ele>173.8</ele>
        <time>2022-06-28T10:17:25Z</time>
      </trkpt>
      <trkpt lat="48.79486" lon="2.20913">
        <ele>174.3</ele>
        <time>2022-06-28T10:17:30Z</time>
      </trkpt>
      <trkpt lat="48.79482" lon="2.2092">
        <ele>174.4</ele>
        <time>2022-06-28T10:17:43Z</time>
      </trkpt>
      <trkpt lat="48.79478" lon="2.20929">
        <ele>174.4</ele>
        <time>2022-06-28T10:18:18Z</time>
      </trkpt>
      <trkpt lat="48.79471" lon="2.20933">
        <ele>174.2</ele>
        <time>2022-06-28T10:18:26Z</time>
      </trkpt>
      <trkpt lat="48.79465" lon="2.20941">
        <ele>174.2</ele>
        <time>2022-06-28T10:18:32Z</time>
      </trkpt>
      <trkpt lat="48.7946" lon="2.20948">
        <ele>174.1</ele>
        <time>2022-06-28T10:18:37Z</time>
      </trkpt>
      <trkpt lat="48.79454" lon="2.20952">
        <ele>174</ele>
        <time>2022-06-28T10:18:42Z</time>
      </trkpt>
      <trkpt lat="48.79447" lon="2.20957">
        <ele>173.9</ele>
        <time>2022-06-28T10:18:48Z</time>
      </trkpt>
      <trkpt lat="48.79441" lon="2.20965">
        <ele>173.9</ele>
        <time>2022-06-28T10:18:53Z</time>
      </trkpt>
      <trkpt lat="48.79434" lon="2.2097">
        <ele>173.8</ele>
        <time>2022-06-28T10:18:59Z</time>
      </trkpt>
      <trkpt lat="48.79429" lon="2.20975">
        <ele>173.7</ele>
        <time>2022-06-28T10:19:04Z</time>
      </trkpt>
      <trkpt lat="48.79421" lon="2.20978">
        <ele>173.6</ele>
        <time>2022-06-28T10:19:11Z</time>
      </trkpt>
      <trkpt lat="48.79414" lon="2.20982">
        <ele>173.5</ele>
        <time>2022-06-28T10:19:20Z</time>
      </trkpt>
      <trkpt lat="48.79407" lon="2.20982">
        <ele>173.2</ele>
        <time>2022-06-28T10:19:25Z</time>
      </trkpt>
      <trkpt lat="48.794" lon="2.20986">
        <ele>173.1</ele>
        <time>2022-06-28T10:19:33Z</time>
      </trkpt>
      <trkpt lat="48.79393" lon="2.20986">
        <ele>172.8</ele>
        <time>2022-06-28T10:19:42Z</time>
      </trkpt>
      <trkpt lat="48.79387" lon="2.20991">
        <ele>172.7</ele>
        <time>2022-06-28T10:19:56Z</time>
      </trkpt>
      <trkpt lat="48.79388" lon="2.21002">
        <ele>173</ele>
        <time>2022-06-28T10:20:14Z</time>
      </trkpt>
      <trkpt lat="48.79386" lon="2.21012">
        <ele>173.4</ele>
        <time>2022-06-28T10:20:22Z</time>
      </trkpt>
      <trkpt lat="48.79387" lon="2.21023">
        <ele>173.9</ele>
        <time>2022-06-28T10:20:29Z</time>
      </trkpt>
      <trkpt lat="48.79386" lon="2.21033">
        <ele>174.2</ele>
        <time>2022-06-28T10:20:37Z</time>
      </trkpt>
      <trkpt lat="48.79386" lon="2.21044">
        <ele>174.7</ele>
        <time>2022-06-28T10:20:43Z</time>
      </trkpt>
      <trkpt lat="48.79386" lon="2.21054">
        <ele>175.1</ele>
        <time>2022-06-28T10:20:50Z</time>
      </trkpt>
      <trkpt lat="48.79387" lon="2.21065">
        <ele>175.5</ele>
        <time>2022-06-28T10:20:55Z</time>
      </trkpt>
      <trkpt lat="48.79388" lon="2.21076">
        <ele>176</ele>
        <time>2022-06-28T10:21:00Z</time>
      </trkpt>
      <trkpt lat="48.79386" lon="2.21088">
        <ele>176.4</ele>
        <time>2022-06-28T10:21:05Z</time>
      </trkpt>
      <trkpt lat="48.79386" lon="2.21099">
        <ele>176.8</ele>
        <time>2022-06-28T10:21:11Z</time>
      </trkpt>
      <trkpt lat="48.79388" lon="2.21109">
        <ele>177.1</ele>
        <time>2022-06-28T10:21:17Z</time>
      </trkpt>
      <trkpt lat="48.79388" lon="2.21119">
        <ele>177.5</ele>
        <time>2022-06-28T10:21:22Z</time>
      </trkpt>
      <trkpt lat="48.79389" lon="2.2113">
        <ele>177.8</ele>
        <time>2022-06-28T10:21:27Z</time>
      </trkpt>
      <trkpt lat="48.79388" lon="2.21141">
        <ele>178.2</ele>
        <time>2022-06-28T10:21:34Z</time>
      </trkpt>
      <trkpt lat="48.79388" lon="2.21152">
        <ele>178.5</ele>
        <time>2022-06-28T10:21:40Z</time>
      </trkpt>
      <trkpt lat="48.79387" lon="2.21162">
        <ele>178.8</ele>
        <time>2022-06-28T10:21:47Z</time>
      </trkpt>
      <trkpt lat="48.79388" lon="2.21171">
        <ele>179.2</ele>
        <time>2022-06-28T10:21:58Z</time>
      </trkpt>
      <trkpt lat="48.79395" lon="2.21177">
        <ele>179.4</ele>
        <time>2022-06-28T10:22:08Z</time>
      </trkpt>
      <trkpt lat="48.79402" lon="2.21178">
        <ele>179.5</ele>
        <time>2022-06-28T10:22:13Z</time>
      </trkpt>
      <trkpt lat="48.79408" lon="2.21174">
        <ele>179.3</ele>
        <time>2022-06-28T10:22:24Z</time>
      </trkpt>
      <trkpt lat="48.79414" lon="2.21176">
        <ele>179.3</ele>
        <time>2022-06-28T10:22:42Z</time>
      </trkpt>
      <trkpt lat="48.79421" lon="2.21178">
        <ele>179.3</ele>
        <time>2022-06-28T10:22:50Z</time>
      </trkpt>
      <trkpt lat="48.79428" lon="2.21181">
        <ele>179.2</ele>
        <time>2022-06-28T10:22:55Z</time>
      </trkpt>
      <trkpt lat="48.79435" lon="2.21183">
        <ele>179.1</ele>
        <time>2022-06-28T10:23:04Z</time>
      </trkpt>
      <trkpt lat="48.79441" lon="2.21184">
        <ele>178.9</ele>
        <time>2022-06-28T10:23:11Z</time>
      </trkpt>
      <trkpt lat="48.79448" lon="2.21182">
        <ele>178.7</ele>
        <time>2022-06-28T10:23:17Z</time>
      </trkpt>
      <trkpt lat="48.79455" lon="2.21182">
        <ele>178.5</ele>
        <time>2022-06-28T10:23:24Z</time>
      </trkpt>
      <trkpt lat="48.79462" lon="2.21186">
        <ele>178.4</ele>
        <time>2022-06-28T10:23:48Z</time>
      </trkpt>
      <trkpt lat="48.79468" lon="2.21191">
        <ele>178.3</ele>
        <time>2022-06-28T10:23:53Z</time>
      </trkpt>
      <trkpt lat="48.79475" lon="2.21194">
        <ele>178.1</ele>
        <time>2022-06-28T10:23:59Z</time>
      </trkpt>
      <trkpt lat="48.79483" lon="2.21194">
        <ele>177.9</ele>
        <time>2022-06-28T10:24:04Z</time>
      </trkpt>
      <trkpt lat="48.79489" lon="2.21198">
        <ele>177.7</ele>
        <time>2022-06-28T10:24:11Z</time>
      </trkpt>
      <trkpt lat="48.79496" lon="2.21198">
        <ele>177.5</ele>
        <time>2022-06-28T10:24:16Z</time>
      </trkpt>
      <trkpt lat="48.79504" lon="2.21199">
        <ele>177.4</ele>
        <time>2022-06-28T10:24:21Z</time>
      </trkpt>
      <trkpt lat="48.79514" lon="2.21199">
        <ele>177.5</ele>
        <time>2022-06-28T10:24:26Z</time>
      </trkpt>
      <trkpt lat="48.79521" lon="2.21201">
        <ele>177.5</ele>
        <time>2022-06-28T10:24:31Z</time>
      </trkpt>
      <trkpt lat="48.79528" lon="2.21202">
        <ele>177.6</ele>
        <time>2022-06-28T10:24:38Z</time>
      </trkpt>
      <trkpt lat="48.79535" lon="2.21201">
        <ele>177.6</ele>
        <time>2022-06-28T10:24:43Z</time>
      </trkpt>
      <trkpt lat="48.79543" lon="2.21201">
        <ele>177.6</ele>
        <time>2022-06-28T10:25:12Z</time>
      </trkpt>
      <trkpt lat="48.79549" lon="2.212">
        <ele>177.6</ele>
        <time>2022-06-28T10:25:22Z</time>
      </trkpt>
      <trkpt lat="48.79557" lon="2.212">
        <ele>177.7</ele>
        <time>2022-06-28T10:25:30Z</time>
      </trkpt>
      <trkpt lat="48.79563" lon="2.21196">
        <ele>177.6</ele>
        <time>2022-06-28T10:25:40Z</time>
      </trkpt>
      <trkpt lat="48.79557" lon="2.21196">
        <ele>177.6</ele>
        <time>2022-06-28T10:25:49Z</time>
      </trkpt>
      <trkpt lat="48.79563" lon="2.21194">
        <ele>177.6</ele>
        <time>2022-06-28T10:26:12Z</time>
      </trkpt>
      <trkpt lat="48.79565" lon="2.21205">
        <ele>177.8</ele>
        <time>2022-06-28T10:26:50Z</time>
      </trkpt>
      <trkpt lat="48.79571" lon="2.2121">
        <ele>178</ele>
        <time>2022-06-28T10:26:56Z</time>
      </trkpt>
      <trkpt lat="48.79577" lon="2.21216">
        <ele>178.1</ele>
        <time>2022-06-28T10:27:12Z</time>
      </trkpt>
      <trkpt lat="48.79572" lon="2.21232">
        <ele>178.5</ele>
        <time>2022-06-28T10:27:32Z</time>
      </trkpt>
      <trkpt lat="48.79574" lon="2.21221">
        <ele>178.2</ele>
        <time>2022-06-28T10:28:01Z</time>
      </trkpt>
      <trkpt lat="48.79578" lon="2.21229">
        <ele>178.4</ele>
        <time>2022-06-28T10:28:14Z</time>
      </trkpt>
      <trkpt lat="48.79584" lon="2.21234">
        <ele>178.6</ele>
        <time>2022-06-28T10:28:19Z</time>
      </trkpt>
      <trkpt lat="48.7959" lon="2.2124">
        <ele>178.8</ele>
        <time>2022-06-28T10:28:26Z</time>
      </trkpt>
      <trkpt lat="48.79596" lon="2.21246">
        <ele>179</ele>
        <time>2022-06-28T10:28:31Z</time>
      </trkpt>
      <trkpt lat="48.79601" lon="2.21252">
        <ele>179.2</ele>
        <time>2022-06-28T10:28:36Z</time>
      </trkpt>
      <trkpt lat="48.79605" lon="2.2126">
        <ele>179.3</ele>
        <time>2022-06-28T10:28:42Z</time>
      </trkpt>
      <trkpt lat="48.7961" lon="2.21269">
        <ele>179.3</ele>
        <time>2022-06-28T10:28:49Z</time>
      </trkpt>
      <trkpt lat="48.79616" lon="2.21276">
        <ele>179.2</ele>
        <time>2022-06-28T10:29:21Z</time>
      </trkpt>
      <trkpt lat="48.79621" lon="2.21284">
        <ele>179.1</ele>
        <time>2022-06-28T10:29:26Z</time>
      </trkpt>
      <trkpt lat="48.79628" lon="2.21289">
        <ele>179</ele>
        <time>2022-06-28T10:29:31Z</time>
      </trkpt>
      <trkpt lat="48.79633" lon="2.21296">
        <ele>178.8</ele>
        <time>2022-06-28T10:29:37Z</time>
      </trkpt>
      <trkpt lat="48.7964" lon="2.21303">
        <ele>178.6</ele>
        <time>2022-06-28T10:29:43Z</time>
      </trkpt>
      <trkpt lat="48.79645" lon="2.21312">
        <ele>178.3</ele>
        <time>2022-06-28T10:29:48Z</time>
      </trkpt>
      <trkpt lat="48.79649" lon="2.21321">
        <ele>178</ele>
        <time>2022-06-28T10:29:55Z</time>
      </trkpt>
      <trkpt lat="48.79655" lon="2.21329">
        <ele>177.5</ele>
        <time>2022-06-28T10:30:01Z</time>
      </trkpt>
      <trkpt lat="48.79659" lon="2.21337">
        <ele>177.1</ele>
        <time>2022-06-28T10:30:09Z</time>
      </trkpt>
      <trkpt lat="48.79665" lon="2.21339">
        <ele>176.8</ele>
        <time>2022-06-28T10:30:17Z</time>
      </trkpt>
      <trkpt lat="48.79666" lon="2.21353">
        <ele>176.1</ele>
        <time>2022-06-28T10:31:07Z</time>
      </trkpt>
      <trkpt lat="48.79674" lon="2.21356">
        <ele>176</ele>
        <time>2022-06-28T10:31:22Z</time>
      </trkpt>
      <trkpt lat="48.79679" lon="2.21363">
        <ele>175.7</ele>
        <time>2022-06-28T10:31:51Z</time>
      </trkpt>
      <trkpt lat="48.79683" lon="2.21372">
        <ele>175.2</ele>
        <time>2022-06-28T10:32:32Z</time>
      </trkpt>
      <trkpt lat="48.79688" lon="2.21379">
        <ele>174.9</ele>
        <time>2022-06-28T10:32:37Z</time>
      </trkpt>
      <trkpt lat="48.79693" lon="2.21386">
        <ele>174.6</ele>
        <time>2022-06-28T10:32:43Z</time>
      </trkpt>
      <trkpt lat="48.79698" lon="2.21393">
        <ele>174.2</ele>
        <time>2022-06-28T10:32:49Z</time>
      </trkpt>
      <trkpt lat="48.79704" lon="2.214">
        <ele>173.9</ele>
        <time>2022-06-28T10:32:59Z</time>
      </trkpt>
      <trkpt lat="48.79708" lon="2.21408">
        <ele>173.5</ele>
        <time>2022-06-28T10:33:06Z</time>
      </trkpt>
      <trkpt lat="48.79714" lon="2.21417">
        <ele>173</ele>
        <time>2022-06-28T10:33:11Z</time>
      </trkpt>
      <trkpt lat="48.79719" lon="2.21425">
        <ele>172.9</ele>
        <time>2022-06-28T10:33:18Z</time>
      </trkpt>
      <trkpt lat="48.79724" lon="2.21432">
        <ele>172.7</ele>
        <time>2022-06-28T10:33:24Z</time>
      </trkpt>
      <trkpt lat="48.7973" lon="2.21438">
        <ele>172.6</ele>
        <time>2022-06-28T10:33:31Z</time>
      </trkpt>
      <trkpt lat="48.79734" lon="2.21445">
        <ele>172.5</ele>
        <time>2022-06-28T10:33:38Z</time>
      </trkpt>
      <trkpt lat="48.79738" lon="2.21454">
        <ele>172.2</ele>
        <time>2022-06-28T10:33:43Z</time>
      </trkpt>
      <trkpt lat="48.79743" lon="2.21462">
        <ele>172</ele>
        <time>2022-06-28T10:33:54Z</time>
      </trkpt>
      <trkpt lat="48.79753" lon="2.21466">
        <ele>172</ele>
        <time>2022-06-28T10:33:59Z</time>
      </trkpt>
      <trkpt lat="48.7976" lon="2.21469">
        <ele>172.5</ele>
        <time>2022-06-28T10:34:06Z</time>
      </trkpt>
      <trkpt lat="48.79765" lon="2.21478">
        <ele>172.7</ele>
        <time>2022-06-28T10:34:11Z</time>
      </trkpt>
      <trkpt lat="48.79769" lon="2.21486">
        <ele>172.7</ele>
        <time>2022-06-28T10:34:16Z</time>
      </trkpt>
      <trkpt lat="48.79773" lon="2.21494">
        <ele>172.8</ele>
        <time>2022-06-28T10:34:22Z</time>
      </trkpt>
      <trkpt lat="48.79776" lon="2.21505">
        <ele>173</ele>
        <time>2022-06-28T10:34:27Z</time>
      </trkpt>
      <trkpt lat="48.7978" lon="2.21515">
        <ele>173.5</ele>
        <time>2022-06-28T10:34:32Z</time>
      </trkpt>
      <trkpt lat="48.79784" lon="2.21521">
        <ele>173.9</ele>
        <time>2022-06-28T10:34:39Z</time>
      </trkpt>
      <trkpt lat="48.79788" lon="2.21532">
        <ele>174.4</ele>
        <time>2022-06-28T10:34:45Z</time>
      </trkpt>
      <trkpt lat="48.79793" lon="2.21537">
        <ele>174.7</ele>
        <time>2022-06-28T10:34:50Z</time>
      </trkpt>
      <trkpt lat="48.798" lon="2.21542">
        <ele>175.2</ele>
        <time>2022-06-28T10:34:55Z</time>
      </trkpt>
      <trkpt lat="48.79803" lon="2.21552">
        <ele>175.5</ele>
        <time>2022-06-28T10:35:01Z</time>
      </trkpt>
      <trkpt lat="48.79809" lon="2.2156">
        <ele>175.9</ele>
        <time>2022-06-28T10:35:10Z</time>
      </trkpt>
      <trkpt lat="48.79814" lon="2.21569">
        <ele>176.2</ele>
        <time>2022-06-28T10:35:16Z</time>
      </trkpt>
      <trkpt lat="48.79816" lon="2.2158">
        <ele>176.4</ele>
        <time>2022-06-28T10:35:22Z</time>
      </trkpt>
      <trkpt lat="48.79815" lon="2.2159">
        <ele>176</ele>
        <time>2022-06-28T10:35:27Z</time>
      </trkpt>
      <trkpt lat="48.79812" lon="2.21599">
        <ele>175.6</ele>
        <time>2022-06-28T10:35:32Z</time>
      </trkpt>
      <trkpt lat="48.7981" lon="2.21609">
        <ele>175.1</ele>
        <time>2022-06-28T10:35:38Z</time>
      </trkpt>
      <trkpt lat="48.79812" lon="2.2162">
        <ele>174.7</ele>
        <time>2022-06-28T10:35:47Z</time>
      </trkpt>
      <trkpt lat="48.79813" lon="2.2163">
        <ele>174.3</ele>
        <time>2022-06-28T10:35:54Z</time>
      </trkpt>
      <trkpt lat="48.79816" lon="2.21638">
        <ele>173.9</ele>
        <time>2022-06-28T10:36:08Z</time>
      </trkpt>
      <trkpt lat="48.79824" lon="2.21641">
        <ele>173.7</ele>
        <time>2022-06-28T10:36:19Z</time>
      </trkpt>
      <trkpt lat="48.79819" lon="2.21659">
        <ele>172.9</ele>
        <time>2022-06-28T10:36:24Z</time>
      </trkpt>
      <trkpt lat="48.79816" lon="2.21694">
        <ele>171.8</ele>
        <time>2022-06-28T10:36:29Z</time>
      </trkpt>
      <trkpt lat="48.79818" lon="2.21707">
        <ele>171.3</ele>
        <time>2022-06-28T10:36:34Z</time>
      </trkpt>
      <trkpt lat="48.79819" lon="2.21718">
        <ele>171</ele>
        <time>2022-06-28T10:36:40Z</time>
      </trkpt>
      <trkpt lat="48.79819" lon="2.21736">
        <ele>170.4</ele>
        <time>2022-06-28T10:38:49Z</time>
      </trkpt>
      <trkpt lat="48.79811" lon="2.21734">
        <ele>170.5</ele>
        <time>2022-06-28T10:40:25Z</time>
      </trkpt>
      <trkpt lat="48.79818" lon="2.21737">
        <ele>170.4</ele>
        <time>2022-06-28T10:40:45Z</time>
      </trkpt>
      <trkpt lat="48.79814" lon="2.21746">
        <ele>170.1</ele>
        <time>2022-06-28T10:40:51Z</time>
      </trkpt>
      <trkpt lat="48.79815" lon="2.21756">
        <ele>169.8</ele>
        <time>2022-06-28T10:40:58Z</time>
      </trkpt>
      <trkpt lat="48.79813" lon="2.21767">
        <ele>169.4</ele>
        <time>2022-06-28T10:41:04Z</time>
      </trkpt>
      <trkpt lat="48.79811" lon="2.21777">
        <ele>169.1</ele>
        <time>2022-06-28T10:41:12Z</time>
      </trkpt>
      <trkpt lat="48.79811" lon="2.21789">
        <ele>168.8</ele>
        <time>2022-06-28T10:41:17Z</time>
      </trkpt>
      <trkpt lat="48.7981" lon="2.218">
        <ele>168.4</ele>
        <time>2022-06-28T10:41:22Z</time>
      </trkpt>
      <trkpt lat="48.7981" lon="2.21811">
        <ele>168.1</ele>
        <time>2022-06-28T10:41:28Z</time>
      </trkpt>
      <trkpt lat="48.7981" lon="2.21822">
        <ele>167.8</ele>
        <time>2022-06-28T10:41:33Z</time>
      </trkpt>
      <trkpt lat="48.79809" lon="2.21832">
        <ele>167.5</ele>
        <time>2022-06-28T10:41:38Z</time>
      </trkpt>
      <trkpt lat="48.79806" lon="2.21843">
        <ele>167.5</ele>
        <time>2022-06-28T10:41:44Z</time>
      </trkpt>
      <trkpt lat="48.79804" lon="2.21855">
        <ele>167.4</ele>
        <time>2022-06-28T10:41:49Z</time>
      </trkpt>
      <trkpt lat="48.79805" lon="2.21865">
        <ele>167.2</ele>
        <time>2022-06-28T10:41:54Z</time>
      </trkpt>
      <trkpt lat="48.79805" lon="2.21876">
        <ele>167</ele>
        <time>2022-06-28T10:42:01Z</time>
      </trkpt>
      <trkpt lat="48.79802" lon="2.21887">
        <ele>167.1</ele>
        <time>2022-06-28T10:42:11Z</time>
      </trkpt>
      <trkpt lat="48.798" lon="2.21897">
        <ele>167.1</ele>
        <time>2022-06-28T10:42:16Z</time>
      </trkpt>
      <trkpt lat="48.79806" lon="2.21904">
        <ele>166.5</ele>
        <time>2022-06-28T10:42:40Z</time>
      </trkpt>
      <trkpt lat="48.7981" lon="2.21913">
        <ele>166</ele>
        <time>2022-06-28T10:42:47Z</time>
      </trkpt>
      <trkpt lat="48.79808" lon="2.21922">
        <ele>165.9</ele>
        <time>2022-06-28T10:42:54Z</time>
      </trkpt>
      <trkpt lat="48.79804" lon="2.21931">
        <ele>166</ele>
        <time>2022-06-28T10:43:21Z</time>
      </trkpt>
      <trkpt lat="48.79809" lon="2.21922">
        <ele>165.8</ele>
        <time>2022-06-28T10:44:44Z</time>
      </trkpt>
      <trkpt lat="48.79821" lon="2.21917">
        <ele>165</ele>
        <time>2022-06-28T10:45:11Z</time>
      </trkpt>
      <trkpt lat="48.79827" lon="2.21918">
        <ele>164.5</ele>
        <time>2022-06-28T10:45:30Z</time>
      </trkpt>
      <trkpt lat="48.79833" lon="2.21924">
        <ele>163.7</ele>
        <time>2022-06-28T10:45:37Z</time>
      </trkpt>
      <trkpt lat="48.79825" lon="2.21943">
        <ele>163.5</ele>
        <time>2022-06-28T10:45:54Z</time>
      </trkpt>
      <trkpt lat="48.79832" lon="2.21943">
        <ele>162.9</ele>
        <time>2022-06-28T10:46:23Z</time>
      </trkpt>
      <trkpt lat="48.79839" lon="2.21946">
        <ele>162.6</ele>
        <time>2022-06-28T10:46:32Z</time>
      </trkpt>
      <trkpt lat="48.79841" lon="2.21956">
        <ele>162.2</ele>
        <time>2022-06-28T10:46:38Z</time>
      </trkpt>
      <trkpt lat="48.79844" lon="2.21965">
        <ele>161.8</ele>
        <time>2022-06-28T10:46:44Z</time>
      </trkpt>
      <trkpt lat="48.79844" lon="2.21975">
        <ele>161.4</ele>
        <time>2022-06-28T10:46:51Z</time>
      </trkpt>
      <trkpt lat="48.79835" lon="2.21974">
        <ele>161.3</ele>
        <time>2022-06-28T10:47:22Z</time>
      </trkpt>
      <trkpt lat="48.79841" lon="2.21976">
        <ele>161.3</ele>
        <time>2022-06-28T10:47:44Z</time>
      </trkpt>
      <trkpt lat="48.79844" lon="2.21994">
        <ele>160.6</ele>
        <time>2022-06-28T10:48:37Z</time>
      </trkpt>
      <trkpt lat="48.79847" lon="2.21985">
        <ele>161.1</ele>
        <time>2022-06-28T10:49:21Z</time>
      </trkpt>
      <trkpt lat="48.79851" lon="2.21994">
        <ele>160.9</ele>
        <time>2022-06-28T10:49:29Z</time>
      </trkpt>
      <trkpt lat="48.79852" lon="2.22004">
        <ele>160.5</ele>
        <time>2022-06-28T10:49:36Z</time>
      </trkpt>
      <trkpt lat="48.7985" lon="2.22016">
        <ele>160.1</ele>
        <time>2022-06-28T10:49:41Z</time>
      </trkpt>
      <trkpt lat="48.79852" lon="2.22026">
        <ele>159.9</ele>
        <time>2022-06-28T10:49:55Z</time>
      </trkpt>
      <trkpt lat="48.7985" lon="2.22036">
        <ele>159.5</ele>
        <time>2022-06-28T10:50:02Z</time>
      </trkpt>
      <trkpt lat="48.79852" lon="2.22047">
        <ele>159.2</ele>
        <time>2022-06-28T10:50:09Z</time>
      </trkpt>
      <trkpt lat="48.79854" lon="2.22058">
        <ele>159</ele>
        <time>2022-06-28T10:50:18Z</time>
      </trkpt>
      <trkpt lat="48.79854" lon="2.2207">
        <ele>158.6</ele>
        <time>2022-06-28T10:50:23Z</time>
      </trkpt>
      <trkpt lat="48.7985" lon="2.22079">
        <ele>158.1</ele>
        <time>2022-06-28T10:50:29Z</time>
      </trkpt>
      <trkpt lat="48.79846" lon="2.22088">
        <ele>158</ele>
        <time>2022-06-28T10:50:36Z</time>
      </trkpt>
      <trkpt lat="48.79843" lon="2.22097">
        <ele>158.2</ele>
        <time>2022-06-28T10:50:41Z</time>
      </trkpt>
      <trkpt lat="48.79842" lon="2.22109">
        <ele>158.8</ele>
        <time>2022-06-28T10:50:46Z</time>
      </trkpt>
      <trkpt lat="48.79838" lon="2.22118">
        <ele>158.9</ele>
        <time>2022-06-28T10:50:51Z</time>
      </trkpt>
      <trkpt lat="48.79838" lon="2.22128">
        <ele>159.4</ele>
        <time>2022-06-28T10:50:57Z</time>
      </trkpt>
      <trkpt lat="48.79837" lon="2.22139">
        <ele>159.9</ele>
        <time>2022-06-28T10:51:05Z</time>
      </trkpt>
      <trkpt lat="48.79833" lon="2.22148">
        <ele>160.1</ele>
        <time>2022-06-28T10:51:10Z</time>
      </trkpt>
      <trkpt lat="48.79831" lon="2.2216">
        <ele>160.8</ele>
        <time>2022-06-28T10:51:15Z</time>
      </trkpt>
      <trkpt lat="48.79833" lon="2.22171">
        <ele>161.1</ele>
        <time>2022-06-28T10:51:23Z</time>
      </trkpt>
      <trkpt lat="48.79833" lon="2.22181">
        <ele>161.2</ele>
        <time>2022-06-28T10:51:30Z</time>
      </trkpt>
      <trkpt lat="48.79831" lon="2.22192">
        <ele>161.4</ele>
        <time>2022-06-28T10:51:42Z</time>
      </trkpt>
      <trkpt lat="48.79828" lon="2.222">
        <ele>161.7</ele>
        <time>2022-06-28T10:51:50Z</time>
      </trkpt>
      <trkpt lat="48.79818" lon="2.22197">
        <ele>162.2</ele>
        <time>2022-06-28T10:52:09Z</time>
      </trkpt>
      <trkpt lat="48.79821" lon="2.22207">
        <ele>162.1</ele>
        <time>2022-06-28T10:53:14Z</time>
      </trkpt>
      <trkpt lat="48.79823" lon="2.22216">
        <ele>162.1</ele>
        <time>2022-06-28T10:53:51Z</time>
      </trkpt>
      <trkpt lat="48.79818" lon="2.22211">
        <ele>162.3</ele>
        <time>2022-06-28T10:54:18Z</time>
      </trkpt>
      <trkpt lat="48.79821" lon="2.22201">
        <ele>162</ele>
        <time>2022-06-28T10:54:26Z</time>
      </trkpt>
      <trkpt lat="48.79814" lon="2.22202">
        <ele>162.4</ele>
        <time>2022-06-28T10:54:33Z</time>
      </trkpt>
      <trkpt lat="48.79807" lon="2.22197">
        <ele>162.7</ele>
        <time>2022-06-28T10:54:57Z</time>
      </trkpt>
      <trkpt lat="48.79799" lon="2.22198">
        <ele>163.1</ele>
        <time>2022-06-28T10:55:02Z</time>
      </trkpt>
      <trkpt lat="48.79791" lon="2.22195">
        <ele>163.5</ele>
        <time>2022-06-28T10:55:09Z</time>
      </trkpt>
      <trkpt lat="48.79785" lon="2.22192">
        <ele>163.9</ele>
        <time>2022-06-28T10:55:14Z</time>
      </trkpt>
      <trkpt lat="48.79777" lon="2.22193">
        <ele>164.3</ele>
        <time>2022-06-28T10:55:22Z</time>
      </trkpt>
      <trkpt lat="48.7977" lon="2.2219">
        <ele>164.7</ele>
        <time>2022-06-28T10:55:29Z</time>
      </trkpt>
      <trkpt lat="48.79774" lon="2.22183">
        <ele>164.5</ele>
        <time>2022-06-28T10:55:39Z</time>
      </trkpt>
      <trkpt lat="48.79767" lon="2.22193">
        <ele>164.8</ele>
        <time>2022-06-28T10:56:12Z</time>
      </trkpt>
      <trkpt lat="48.79759" lon="2.22204">
        <ele>165.1</ele>
        <time>2022-06-28T11:02:51Z</time>
      </trkpt>
      <trkpt lat="48.79764" lon="2.22192">
        <ele>165</ele>
        <time>2022-06-28T11:03:09Z</time>
      </trkpt>
      <trkpt lat="48.7977" lon="2.22175">
        <ele>164.7</ele>
        <time>2022-06-28T11:07:32Z</time>
      </trkpt>
      <trkpt lat="48.79774" lon="2.22185">
        <ele>164.5</ele>
        <time>2022-06-28T11:07:51Z</time>
      </trkpt>
      <trkpt lat="48.79771" lon="2.22194">
        <ele>164.6</ele>
        <time>2022-06-28T11:07:59Z</time>
      </trkpt>
      <trkpt lat="48.79768" lon="2.22204">
        <ele>164.7</ele>
        <time>2022-06-28T11:08:11Z</time>
      </trkpt>
      <trkpt lat="48.79775" lon="2.22205">
        <ele>164.3</ele>
        <time>2022-06-28T11:08:24Z</time>
      </trkpt>
      <trkpt lat="48.79782" lon="2.22207">
        <ele>164</ele>
        <time>2022-06-28T11:08:30Z</time>
      </trkpt>
      <trkpt lat="48.7979" lon="2.22209">
        <ele>163.6</ele>
        <time>2022-06-28T11:08:36Z</time>
      </trkpt>
      <trkpt lat="48.79797" lon="2.22213">
        <ele>163.3</ele>
        <time>2022-06-28T11:08:42Z</time>
      </trkpt>
      <trkpt lat="48.79807" lon="2.22216">
        <ele>162.8</ele>
        <time>2022-06-28T11:08:47Z</time>
      </trkpt>
      <trkpt lat="48.79814" lon="2.22218">
        <ele>162.5</ele>
        <time>2022-06-28T11:08:54Z</time>
      </trkpt>
      <trkpt lat="48.79821" lon="2.22222">
        <ele>162.2</ele>
        <time>2022-06-28T11:08:59Z</time>
      </trkpt>
      <trkpt lat="48.79828" lon="2.22223">
        <ele>161.9</ele>
        <time>2022-06-28T11:09:06Z</time>
      </trkpt>
      <trkpt lat="48.79835" lon="2.22226">
        <ele>161.8</ele>
        <time>2022-06-28T11:09:13Z</time>
      </trkpt>
      <trkpt lat="48.7984" lon="2.22232">
        <ele>162.1</ele>
        <time>2022-06-28T11:09:28Z</time>
      </trkpt>
      <trkpt lat="48.79847" lon="2.22237">
        <ele>162.4</ele>
        <time>2022-06-28T11:09:33Z</time>
      </trkpt>
      <trkpt lat="48.79853" lon="2.22238">
        <ele>162.6</ele>
        <time>2022-06-28T11:09:40Z</time>
      </trkpt>
      <trkpt lat="48.79846" lon="2.22239">
        <ele>162.4</ele>
        <time>2022-06-28T11:09:46Z</time>
      </trkpt>
      <trkpt lat="48.79851" lon="2.22247">
        <ele>162.6</ele>
        <time>2022-06-28T11:10:03Z</time>
      </trkpt>
      <trkpt lat="48.79847" lon="2.22256">
        <ele>162</ele>
        <time>2022-06-28T11:10:16Z</time>
      </trkpt>
      <trkpt lat="48.79846" lon="2.22267">
        <ele>161.1</ele>
        <time>2022-06-28T11:10:24Z</time>
      </trkpt>
      <trkpt lat="48.79843" lon="2.22276">
        <ele>160.2</ele>
        <time>2022-06-28T11:10:31Z</time>
      </trkpt>
      <trkpt lat="48.79839" lon="2.22287">
        <ele>159.2</ele>
        <time>2022-06-28T11:10:37Z</time>
      </trkpt>
      <trkpt lat="48.79836" lon="2.22296">
        <ele>158.3</ele>
        <time>2022-06-28T11:10:42Z</time>
      </trkpt>
      <trkpt lat="48.79834" lon="2.22306">
        <ele>157.3</ele>
        <time>2022-06-28T11:10:49Z</time>
      </trkpt>
      <trkpt lat="48.79828" lon="2.22312">
        <ele>157.1</ele>
        <time>2022-06-28T11:10:56Z</time>
      </trkpt>
      <trkpt lat="48.79824" lon="2.22321">
        <ele>156.6</ele>
        <time>2022-06-28T11:11:01Z</time>
      </trkpt>
      <trkpt lat="48.7982" lon="2.22329">
        <ele>156.1</ele>
        <time>2022-06-28T11:11:07Z</time>
      </trkpt>
      <trkpt lat="48.79813" lon="2.22331">
        <ele>156.4</ele>
        <time>2022-06-28T11:11:29Z</time>
      </trkpt>
      <trkpt lat="48.79808" lon="2.22339">
        <ele>155.9</ele>
        <time>2022-06-28T11:11:35Z</time>
      </trkpt>
      <trkpt lat="48.79803" lon="2.22348">
        <ele>155.3</ele>
        <time>2022-06-28T11:11:40Z</time>
      </trkpt>
      <trkpt lat="48.79796" lon="2.22349">
        <ele>155.6</ele>
        <time>2022-06-28T11:11:47Z</time>
      </trkpt>
      <trkpt lat="48.79796" lon="2.2236">
        <ele>154.4</ele>
        <time>2022-06-28T11:11:59Z</time>
      </trkpt>
      <trkpt lat="48.79797" lon="2.2237">
        <ele>153.3</ele>
        <time>2022-06-28T11:12:05Z</time>
      </trkpt>
      <trkpt lat="48.79798" lon="2.22382">
        <ele>152</ele>
        <time>2022-06-28T11:12:12Z</time>
      </trkpt>
      <trkpt lat="48.79798" lon="2.22392">
        <ele>150.9</ele>
        <time>2022-06-28T11:12:22Z</time>
      </trkpt>
      <trkpt lat="48.79795" lon="2.22401">
        <ele>150.1</ele>
        <time>2022-06-28T11:12:28Z</time>
      </trkpt>
      <trkpt lat="48.79791" lon="2.22415">
        <ele>148.7</ele>
        <time>2022-06-28T11:12:33Z</time>
      </trkpt>
      <trkpt lat="48.79789" lon="2.22425">
        <ele>147.8</ele>
        <time>2022-06-28T11:12:39Z</time>
      </trkpt>
      <trkpt lat="48.79788" lon="2.22436">
        <ele>146.9</ele>
        <time>2022-06-28T11:12:44Z</time>
      </trkpt>
      <trkpt lat="48.79795" lon="2.22451">
        <ele>145.3</ele>
        <time>2022-06-28T11:13:09Z</time>
      </trkpt>
      <trkpt lat="48.79792" lon="2.22461">
        <ele>144.5</ele>
        <time>2022-06-28T11:13:17Z</time>
      </trkpt>
      <trkpt lat="48.7979" lon="2.22471">
        <ele>143.7</ele>
        <time>2022-06-28T11:13:23Z</time>
      </trkpt>
      <trkpt lat="48.79787" lon="2.22483">
        <ele>142.7</ele>
        <time>2022-06-28T11:13:29Z</time>
      </trkpt>
      <trkpt lat="48.79782" lon="2.22488">
        <ele>142.3</ele>
        <time>2022-06-28T11:13:34Z</time>
      </trkpt>
      <trkpt lat="48.79774" lon="2.2248">
        <ele>143.3</ele>
        <time>2022-06-28T11:13:39Z</time>
      </trkpt>
      <trkpt lat="48.79768" lon="2.22473">
        <ele>144.1</ele>
        <time>2022-06-28T11:14:02Z</time>
      </trkpt>
      <trkpt lat="48.79755" lon="2.22461">
        <ele>145.6</ele>
        <time>2022-06-28T11:14:16Z</time>
      </trkpt>
      <trkpt lat="48.79763" lon="2.22465">
        <ele>145</ele>
        <time>2022-06-28T11:14:46Z</time>
      </trkpt>
      <trkpt lat="48.79767" lon="2.22477">
        <ele>143.7</ele>
        <time>2022-06-28T11:14:52Z</time>
      </trkpt>
      <trkpt lat="48.79756" lon="2.22466">
        <ele>145.1</ele>
        <time>2022-06-28T11:15:04Z</time>
      </trkpt>
      <trkpt lat="48.7975" lon="2.22467">
        <ele>145.2</ele>
        <time>2022-06-28T11:15:11Z</time>
      </trkpt>
      <trkpt lat="48.79744" lon="2.22463">
        <ele>146.1</ele>
        <time>2022-06-28T11:15:21Z</time>
      </trkpt>
      <trkpt lat="48.79733" lon="2.22479">
        <ele>145.6</ele>
        <time>2022-06-28T11:15:26Z</time>
      </trkpt>
      <trkpt lat="48.79728" lon="2.22487">
        <ele>145.4</ele>
        <time>2022-06-28T11:15:32Z</time>
      </trkpt>
      <trkpt lat="48.79721" lon="2.22488">
        <ele>145.9</ele>
        <time>2022-06-28T11:15:37Z</time>
      </trkpt>
      <trkpt lat="48.79722" lon="2.22512">
        <ele>144</ele>
        <time>2022-06-28T11:16:07Z</time>
      </trkpt>
      <trkpt lat="48.79727" lon="2.22523">
        <ele>142.9</ele>
        <time>2022-06-28T11:16:39Z</time>
      </trkpt>
      <trkpt lat="48.79722" lon="2.22515">
        <ele>143.8</ele>
        <time>2022-06-28T11:16:50Z</time>
      </trkpt>
      <trkpt lat="48.79716" lon="2.22513">
        <ele>144.4</ele>
        <time>2022-06-28T11:16:57Z</time>
      </trkpt>
      <trkpt lat="48.79723" lon="2.22511">
        <ele>143.9</ele>
        <time>2022-06-28T11:17:21Z</time>
      </trkpt>
      <trkpt lat="48.79727" lon="2.22503">
        <ele>144</ele>
        <time>2022-06-28T11:17:44Z</time>
      </trkpt>
      <trkpt lat="48.79734" lon="2.22489">
        <ele>144.6</ele>
        <time>2022-06-28T11:17:56Z</time>
      </trkpt>
      <trkpt lat="48.79724" lon="2.2249">
        <ele>145.5</ele>
        <time>2022-06-28T11:18:26Z</time>
      </trkpt>
      <trkpt lat="48.79717" lon="2.22495">
        <ele>145.6</ele>
        <time>2022-06-28T11:19:27Z</time>
      </trkpt>
      <trkpt lat="48.7972" lon="2.22509">
        <ele>144.3</ele>
        <time>2022-06-28T11:19:51Z</time>
      </trkpt>
      <trkpt lat="48.79717" lon="2.22498">
        <ele>145.4</ele>
        <time>2022-06-28T11:20:03Z</time>
      </trkpt>
      <trkpt lat="48.79717" lon="2.22485">
        <ele>146.6</ele>
        <time>2022-06-28T11:20:08Z</time>
      </trkpt>
      <trkpt lat="48.7971" lon="2.22485">
        <ele>147.3</ele>
        <time>2022-06-28T11:20:15Z</time>
      </trkpt>
      <trkpt lat="48.79705" lon="2.22491">
        <ele>147.2</ele>
        <time>2022-06-28T11:20:22Z</time>
      </trkpt>
      <trkpt lat="48.79698" lon="2.22493">
        <ele>147.7</ele>
        <time>2022-06-28T11:20:29Z</time>
      </trkpt>
      <trkpt lat="48.79692" lon="2.22498">
        <ele>147.8</ele>
        <time>2022-06-28T11:20:34Z</time>
      </trkpt>
      <trkpt lat="48.79688" lon="2.22506">
        <ele>147.5</ele>
        <time>2022-06-28T11:20:39Z</time>
      </trkpt>
      <trkpt lat="48.79686" lon="2.22516">
        <ele>146.9</ele>
        <time>2022-06-28T11:20:50Z</time>
      </trkpt>
      <trkpt lat="48.79687" lon="2.22527">
        <ele>146</ele>
        <time>2022-06-28T11:20:55Z</time>
      </trkpt>
      <trkpt lat="48.79684" lon="2.22536">
        <ele>145.6</ele>
        <time>2022-06-28T11:21:02Z</time>
      </trkpt>
      <trkpt lat="48.7968" lon="2.22546">
        <ele>145.1</ele>
        <time>2022-06-28T11:21:07Z</time>
      </trkpt>
      <trkpt lat="48.79678" lon="2.22556">
        <ele>144.5</ele>
        <time>2022-06-28T11:21:13Z</time>
      </trkpt>
      <trkpt lat="48.79676" lon="2.22566">
        <ele>143.8</ele>
        <time>2022-06-28T11:21:21Z</time>
      </trkpt>
      <trkpt lat="48.79673" lon="2.22575">
        <ele>143.3</ele>
        <time>2022-06-28T11:21:33Z</time>
      </trkpt>
      <trkpt lat="48.79674" lon="2.22585">
        <ele>142.5</ele>
        <time>2022-06-28T11:21:40Z</time>
      </trkpt>
      <trkpt lat="48.7967" lon="2.22593">
        <ele>142.2</ele>
        <time>2022-06-28T11:21:46Z</time>
      </trkpt>
      <trkpt lat="48.79668" lon="2.22604">
        <ele>141.7</ele>
        <time>2022-06-28T11:21:54Z</time>
      </trkpt>
      <trkpt lat="48.79668" lon="2.22614">
        <ele>141.1</ele>
        <time>2022-06-28T11:22:02Z</time>
      </trkpt>
      <trkpt lat="48.79666" lon="2.22624">
        <ele>140.6</ele>
        <time>2022-06-28T11:22:08Z</time>
      </trkpt>
      <trkpt lat="48.79664" lon="2.22634">
        <ele>140</ele>
        <time>2022-06-28T11:22:14Z</time>
      </trkpt>
      <trkpt lat="48.79663" lon="2.22645">
        <ele>139.4</ele>
        <time>2022-06-28T11:22:21Z</time>
      </trkpt>
      <trkpt lat="48.79661" lon="2.22654">
        <ele>138.8</ele>
        <time>2022-06-28T11:22:26Z</time>
      </trkpt>
      <trkpt lat="48.79662" lon="2.22665">
        <ele>138.2</ele>
        <time>2022-06-28T11:22:33Z</time>
      </trkpt>
      <trkpt lat="48.79666" lon="2.22673">
        <ele>137.9</ele>
        <time>2022-06-28T11:22:39Z</time>
      </trkpt>
      <trkpt lat="48.79674" lon="2.22675">
        <ele>137.4</ele>
        <time>2022-06-28T11:22:44Z</time>
      </trkpt>
      <trkpt lat="48.79666" lon="2.22669">
        <ele>138</ele>
        <time>2022-06-28T11:22:49Z</time>
      </trkpt>
      <trkpt lat="48.79669" lon="2.22678">
        <ele>137.7</ele>
        <time>2022-06-28T11:23:01Z</time>
      </trkpt>
      <trkpt lat="48.79675" lon="2.22685">
        <ele>137.2</ele>
        <time>2022-06-28T11:23:25Z</time>
      </trkpt>
      <trkpt lat="48.7968" lon="2.22692">
        <ele>136.7</ele>
        <time>2022-06-28T11:23:33Z</time>
      </trkpt>
      <trkpt lat="48.79688" lon="2.22697">
        <ele>136.1</ele>
        <time>2022-06-28T11:23:41Z</time>
      </trkpt>
      <trkpt lat="48.79694" lon="2.227">
        <ele>135.6</ele>
        <time>2022-06-28T11:23:47Z</time>
      </trkpt>
      <trkpt lat="48.79701" lon="2.22704">
        <ele>135.1</ele>
        <time>2022-06-28T11:23:54Z</time>
      </trkpt>
      <trkpt lat="48.79709" lon="2.22709">
        <ele>134.4</ele>
        <time>2022-06-28T11:24:01Z</time>
      </trkpt>
      <trkpt lat="48.79716" lon="2.22711">
        <ele>133.9</ele>
        <time>2022-06-28T11:24:06Z</time>
      </trkpt>
      <trkpt lat="48.79721" lon="2.22716">
        <ele>133.5</ele>
        <time>2022-06-28T11:24:13Z</time>
      </trkpt>
      <trkpt lat="48.79728" lon="2.22719">
        <ele>133</ele>
        <time>2022-06-28T11:24:18Z</time>
      </trkpt>
      <trkpt lat="48.79735" lon="2.22721">
        <ele>132.4</ele>
        <time>2022-06-28T11:24:24Z</time>
      </trkpt>
      <trkpt lat="48.79742" lon="2.22721">
        <ele>131.9</ele>
        <time>2022-06-28T11:24:29Z</time>
      </trkpt>
      <trkpt lat="48.7975" lon="2.22725">
        <ele>131.3</ele>
        <time>2022-06-28T11:24:39Z</time>
      </trkpt>
      <trkpt lat="48.79759" lon="2.22724">
        <ele>131.8</ele>
        <time>2022-06-28T11:24:44Z</time>
      </trkpt>
      <trkpt lat="48.7976" lon="2.22736">
        <ele>131.7</ele>
        <time>2022-06-28T11:25:16Z</time>
      </trkpt>
      <trkpt lat="48.79762" lon="2.22746">
        <ele>131.8</ele>
        <time>2022-06-28T11:25:27Z</time>
      </trkpt>
      <trkpt lat="48.79758" lon="2.22755">
        <ele>131.4</ele>
        <time>2022-06-28T11:25:33Z</time>
      </trkpt>
      <trkpt lat="48.79761" lon="2.22763">
        <ele>131.5</ele>
        <time>2022-06-28T11:25:46Z</time>
      </trkpt>
      <trkpt lat="48.79762" lon="2.22774">
        <ele>131.3</ele>
        <time>2022-06-28T11:25:59Z</time>
      </trkpt>
      <trkpt lat="48.79757" lon="2.22782">
        <ele>131</ele>
        <time>2022-06-28T11:26:25Z</time>
      </trkpt>
      <trkpt lat="48.79754" lon="2.22791">
        <ele>130.7</ele>
        <time>2022-06-28T11:26:32Z</time>
      </trkpt>
      <trkpt lat="48.79749" lon="2.22798">
        <ele>130.5</ele>
        <time>2022-06-28T11:26:42Z</time>
      </trkpt>
      <trkpt lat="48.79748" lon="2.22808">
        <ele>130.5</ele>
        <time>2022-06-28T11:26:48Z</time>
      </trkpt>
      <trkpt lat="48.79749" lon="2.2282">
        <ele>130.3</ele>
        <time>2022-06-28T11:27:01Z</time>
      </trkpt>
      <trkpt lat="48.79745" lon="2.22829">
        <ele>130.6</ele>
        <time>2022-06-28T11:27:12Z</time>
      </trkpt>
      <trkpt lat="48.79747" lon="2.2284">
        <ele>130.2</ele>
        <time>2022-06-28T11:27:17Z</time>
      </trkpt>
      <trkpt lat="48.79747" lon="2.22851">
        <ele>130</ele>
        <time>2022-06-28T11:27:24Z</time>
      </trkpt>
      <trkpt lat="48.79749" lon="2.22861">
        <ele>129.5</ele>
        <time>2022-06-28T11:27:32Z</time>
      </trkpt>
      <trkpt lat="48.79753" lon="2.22871">
        <ele>129.2</ele>
        <time>2022-06-28T11:27:37Z</time>
      </trkpt>
      <trkpt lat="48.79751" lon="2.22882">
        <ele>128.9</ele>
        <time>2022-06-28T11:27:44Z</time>
      </trkpt>
      <trkpt lat="48.79754" lon="2.22892">
        <ele>128.8</ele>
        <time>2022-06-28T11:27:50Z</time>
      </trkpt>
      <trkpt lat="48.79754" lon="2.22903">
        <ele>128.5</ele>
        <time>2022-06-28T11:27:58Z</time>
      </trkpt>
      <trkpt lat="48.79757" lon="2.22914">
        <ele>128.4</ele>
        <time>2022-06-28T11:28:04Z</time>
      </trkpt>
      <trkpt lat="48.7976" lon="2.22923">
        <ele>128.4</ele>
        <time>2022-06-28T11:28:10Z</time>
      </trkpt>
      <trkpt lat="48.79761" lon="2.22934">
        <ele>128.3</ele>
        <time>2022-06-28T11:28:17Z</time>
      </trkpt>
      <trkpt lat="48.79763" lon="2.22944">
        <ele>128.3</ele>
        <time>2022-06-28T11:28:24Z</time>
      </trkpt>
      <trkpt lat="48.79765" lon="2.22956">
        <ele>128.3</ele>
        <time>2022-06-28T11:28:30Z</time>
      </trkpt>
      <trkpt lat="48.79767" lon="2.22967">
        <ele>128.3</ele>
        <time>2022-06-28T11:28:35Z</time>
      </trkpt>
      <trkpt lat="48.79772" lon="2.22976">
        <ele>128.5</ele>
        <time>2022-06-28T11:28:40Z</time>
      </trkpt>
      <trkpt lat="48.79773" lon="2.22986">
        <ele>128.5</ele>
        <time>2022-06-28T11:28:45Z</time>
      </trkpt>
      <trkpt lat="48.79774" lon="2.22995">
        <ele>128.5</ele>
        <time>2022-06-28T11:28:50Z</time>
      </trkpt>
      <trkpt lat="48.79776" lon="2.23008">
        <ele>128.5</ele>
        <time>2022-06-28T11:28:57Z</time>
      </trkpt>
      <trkpt lat="48.79776" lon="2.23019">
        <ele>128.3</ele>
        <time>2022-06-28T11:29:05Z</time>
      </trkpt>
      <trkpt lat="48.79778" lon="2.2303">
        <ele>128.3</ele>
        <time>2022-06-28T11:29:11Z</time>
      </trkpt>
      <trkpt lat="48.7978" lon="2.2304">
        <ele>128.3</ele>
        <time>2022-06-28T11:29:16Z</time>
      </trkpt>
      <trkpt lat="48.79783" lon="2.23049">
        <ele>128.3</ele>
        <time>2022-06-28T11:29:22Z</time>
      </trkpt>
      <trkpt lat="48.7978" lon="2.23059">
        <ele>128</ele>
        <time>2022-06-28T11:29:28Z</time>
      </trkpt>
      <trkpt lat="48.79782" lon="2.23069">
        <ele>128</ele>
        <time>2022-06-28T11:29:33Z</time>
      </trkpt>
      <trkpt lat="48.79781" lon="2.23079">
        <ele>127.8</ele>
        <time>2022-06-28T11:29:45Z</time>
      </trkpt>
      <trkpt lat="48.79783" lon="2.2309">
        <ele>127.4</ele>
        <time>2022-06-28T11:29:51Z</time>
      </trkpt>
      <trkpt lat="48.79778" lon="2.23099">
        <ele>126.9</ele>
        <time>2022-06-28T11:29:58Z</time>
      </trkpt>
      <trkpt lat="48.79777" lon="2.23111">
        <ele>126.2</ele>
        <time>2022-06-28T11:30:05Z</time>
      </trkpt>
      <trkpt lat="48.79776" lon="2.23122">
        <ele>125.6</ele>
        <time>2022-06-28T11:30:11Z</time>
      </trkpt>
      <trkpt lat="48.79772" lon="2.23131">
        <ele>125.1</ele>
        <time>2022-06-28T11:30:17Z</time>
      </trkpt>
      <trkpt lat="48.7977" lon="2.23141">
        <ele>124.5</ele>
        <time>2022-06-28T11:30:22Z</time>
      </trkpt>
      <trkpt lat="48.79769" lon="2.23152">
        <ele>124</ele>
        <time>2022-06-28T11:30:31Z</time>
      </trkpt>
      <trkpt lat="48.79764" lon="2.2316">
        <ele>123.5</ele>
        <time>2022-06-28T11:30:37Z</time>
      </trkpt>
      <trkpt lat="48.7976" lon="2.23169">
        <ele>123</ele>
        <time>2022-06-28T11:30:43Z</time>
      </trkpt>
      <trkpt lat="48.79758" lon="2.23179">
        <ele>122.6</ele>
        <time>2022-06-28T11:30:48Z</time>
      </trkpt>
      <trkpt lat="48.79754" lon="2.23189">
        <ele>122.2</ele>
        <time>2022-06-28T11:30:54Z</time>
      </trkpt>
      <trkpt lat="48.79748" lon="2.23196">
        <ele>122</ele>
        <time>2022-06-28T11:31:00Z</time>
      </trkpt>
      <trkpt lat="48.79742" lon="2.23203">
        <ele>122</ele>
        <time>2022-06-28T11:31:12Z</time>
      </trkpt>
      <trkpt lat="48.79733" lon="2.23209">
        <ele>122.1</ele>
        <time>2022-06-28T11:31:17Z</time>
      </trkpt>
      <trkpt lat="48.79728" lon="2.23218">
        <ele>121.9</ele>
        <time>2022-06-28T11:31:24Z</time>
      </trkpt>
      <trkpt lat="48.79727" lon="2.23228">
        <ele>121.5</ele>
        <time>2022-06-28T11:31:30Z</time>
      </trkpt>
      <trkpt lat="48.79729" lon="2.23238">
        <ele>121</ele>
        <time>2022-06-28T11:31:37Z</time>
      </trkpt>
      <trkpt lat="48.79731" lon="2.23249">
        <ele>120.5</ele>
        <time>2022-06-28T11:31:44Z</time>
      </trkpt>
      <trkpt lat="48.79728" lon="2.23259">
        <ele>120</ele>
        <time>2022-06-28T11:31:50Z</time>
      </trkpt>
      <trkpt lat="48.79724" lon="2.23268">
        <ele>119.7</ele>
        <time>2022-06-28T11:31:56Z</time>
      </trkpt>
      <trkpt lat="48.79721" lon="2.23277">
        <ele>119.3</ele>
        <time>2022-06-28T11:32:03Z</time>
      </trkpt>
      <trkpt lat="48.79715" lon="2.23286">
        <ele>119</ele>
        <time>2022-06-28T11:32:08Z</time>
      </trkpt>
      <trkpt lat="48.79709" lon="2.23293">
        <ele>118.9</ele>
        <time>2022-06-28T11:32:13Z</time>
      </trkpt>
      <trkpt lat="48.79701" lon="2.23297">
        <ele>119</ele>
        <time>2022-06-28T11:32:18Z</time>
      </trkpt>
      <trkpt lat="48.79695" lon="2.23303">
        <ele>119</ele>
        <time>2022-06-28T11:32:23Z</time>
      </trkpt>
      <trkpt lat="48.79689" lon="2.23307">
        <ele>119</ele>
        <time>2022-06-28T11:32:29Z</time>
      </trkpt>
      <trkpt lat="48.79683" lon="2.23313">
        <ele>119</ele>
        <time>2022-06-28T11:32:35Z</time>
      </trkpt>
      <trkpt lat="48.79678" lon="2.23322">
        <ele>118.9</ele>
        <time>2022-06-28T11:32:42Z</time>
      </trkpt>
      <trkpt lat="48.79671" lon="2.23329">
        <ele>119</ele>
        <time>2022-06-28T11:32:47Z</time>
      </trkpt>
      <trkpt lat="48.79665" lon="2.23335">
        <ele>118.9</ele>
        <time>2022-06-28T11:32:55Z</time>
      </trkpt>
      <trkpt lat="48.79664" lon="2.23345">
        <ele>118.2</ele>
        <time>2022-06-28T11:33:17Z</time>
      </trkpt>
      <trkpt lat="48.79659" lon="2.23352">
        <ele>117.8</ele>
        <time>2022-06-28T11:33:23Z</time>
      </trkpt>
      <trkpt lat="48.7965" lon="2.23356">
        <ele>117.7</ele>
        <time>2022-06-28T11:33:28Z</time>
      </trkpt>
      <trkpt lat="48.79645" lon="2.23364">
        <ele>117.4</ele>
        <time>2022-06-28T11:33:35Z</time>
      </trkpt>
      <trkpt lat="48.79638" lon="2.23369">
        <ele>117.3</ele>
        <time>2022-06-28T11:33:40Z</time>
      </trkpt>
      <trkpt lat="48.79634" lon="2.23376">
        <ele>117.1</ele>
        <time>2022-06-28T11:33:49Z</time>
      </trkpt>
      <trkpt lat="48.79626" lon="2.23384">
        <ele>117.1</ele>
        <time>2022-06-28T11:33:54Z</time>
      </trkpt>
      <trkpt lat="48.79621" lon="2.23392">
        <ele>117.1</ele>
        <time>2022-06-28T11:34:00Z</time>
      </trkpt>
      <trkpt lat="48.79614" lon="2.23395">
        <ele>117.4</ele>
        <time>2022-06-28T11:34:06Z</time>
      </trkpt>
      <trkpt lat="48.79609" lon="2.23401">
        <ele>117.5</ele>
        <time>2022-06-28T11:34:13Z</time>
      </trkpt>
      <trkpt lat="48.79602" lon="2.23408">
        <ele>117.8</ele>
        <time>2022-06-28T11:34:20Z</time>
      </trkpt>
      <trkpt lat="48.79598" lon="2.23416">
        <ele>118</ele>
        <time>2022-06-28T11:34:26Z</time>
      </trkpt>
      <trkpt lat="48.79592" lon="2.23423">
        <ele>118.7</ele>
        <time>2022-06-28T11:34:32Z</time>
      </trkpt>
      <trkpt lat="48.79586" lon="2.23428">
        <ele>119.5</ele>
        <time>2022-06-28T11:34:37Z</time>
      </trkpt>
      <trkpt lat="48.79579" lon="2.23436">
        <ele>120.4</ele>
        <time>2022-06-28T11:34:42Z</time>
      </trkpt>
      <trkpt lat="48.79573" lon="2.23442">
        <ele>121.1</ele>
        <time>2022-06-28T11:34:47Z</time>
      </trkpt>
      <trkpt lat="48.79567" lon="2.23449">
        <ele>122</ele>
        <time>2022-06-28T11:34:53Z</time>
      </trkpt>
      <trkpt lat="48.79561" lon="2.23455">
        <ele>122.7</ele>
        <time>2022-06-28T11:35:01Z</time>
      </trkpt>
      <trkpt lat="48.79555" lon="2.23461">
        <ele>123.6</ele>
        <time>2022-06-28T11:35:06Z</time>
      </trkpt>
      <trkpt lat="48.79549" lon="2.23467">
        <ele>124.4</ele>
        <time>2022-06-28T11:35:13Z</time>
      </trkpt>
      <trkpt lat="48.79546" lon="2.23475">
        <ele>125.2</ele>
        <time>2022-06-28T11:35:18Z</time>
      </trkpt>
      <trkpt lat="48.79547" lon="2.23485">
        <ele>125.9</ele>
        <time>2022-06-28T11:35:25Z</time>
      </trkpt>
      <trkpt lat="48.79551" lon="2.23495">
        <ele>126.3</ele>
        <time>2022-06-28T11:35:50Z</time>
      </trkpt>
      <trkpt lat="48.79551" lon="2.23506">
        <ele>126.8</ele>
        <time>2022-06-28T11:35:57Z</time>
      </trkpt>
      <trkpt lat="48.79553" lon="2.23516">
        <ele>126.9</ele>
        <time>2022-06-28T11:36:04Z</time>
      </trkpt>
      <trkpt lat="48.7955" lon="2.23526">
        <ele>127.3</ele>
        <time>2022-06-28T11:36:55Z</time>
      </trkpt>
      <trkpt lat="48.79548" lon="2.23536">
        <ele>127.6</ele>
        <time>2022-06-28T11:37:02Z</time>
      </trkpt>
      <trkpt lat="48.79551" lon="2.23546">
        <ele>127.6</ele>
        <time>2022-06-28T11:37:08Z</time>
      </trkpt>
      <trkpt lat="48.79553" lon="2.23556">
        <ele>127.6</ele>
        <time>2022-06-28T11:37:14Z</time>
      </trkpt>
      <trkpt lat="48.79558" lon="2.23565">
        <ele>127.5</ele>
        <time>2022-06-28T11:37:21Z</time>
      </trkpt>
      <trkpt lat="48.79561" lon="2.23576">
        <ele>127.5</ele>
        <time>2022-06-28T11:37:28Z</time>
      </trkpt>
      <trkpt lat="48.79566" lon="2.23584">
        <ele>127.2</ele>
        <time>2022-06-28T11:37:34Z</time>
      </trkpt>
      <trkpt lat="48.79566" lon="2.23595">
        <ele>126.8</ele>
        <time>2022-06-28T11:37:43Z</time>
      </trkpt>
      <trkpt lat="48.79562" lon="2.23603">
        <ele>126.8</ele>
        <time>2022-06-28T11:37:48Z</time>
      </trkpt>
      <trkpt lat="48.79559" lon="2.23593">
        <ele>127.4</ele>
        <time>2022-06-28T11:38:14Z</time>
      </trkpt>
      <trkpt lat="48.7956" lon="2.23583">
        <ele>127.7</ele>
        <time>2022-06-28T11:38:23Z</time>
      </trkpt>
      <trkpt lat="48.79556" lon="2.23575">
        <ele>127.8</ele>
        <time>2022-06-28T11:38:28Z</time>
      </trkpt>
      <trkpt lat="48.79556" lon="2.23565">
        <ele>127.6</ele>
        <time>2022-06-28T11:38:35Z</time>
      </trkpt>
      <trkpt lat="48.79552" lon="2.23555">
        <ele>127.7</ele>
        <time>2022-06-28T11:38:41Z</time>
      </trkpt>
      <trkpt lat="48.79546" lon="2.23547">
        <ele>128</ele>
        <time>2022-06-28T11:38:46Z</time>
      </trkpt>
      <trkpt lat="48.79543" lon="2.23537">
        <ele>128.1</ele>
        <time>2022-06-28T11:38:51Z</time>
      </trkpt>
      <trkpt lat="48.79542" lon="2.23525">
        <ele>127.9</ele>
        <time>2022-06-28T11:38:58Z</time>
      </trkpt>
      <trkpt lat="48.79545" lon="2.23515">
        <ele>127.5</ele>
        <time>2022-06-28T11:39:05Z</time>
      </trkpt>
      <trkpt lat="48.79541" lon="2.23504">
        <ele>127.6</ele>
        <time>2022-06-28T11:39:12Z</time>
      </trkpt>
      <trkpt lat="48.7954" lon="2.23494">
        <ele>127.2</ele>
        <time>2022-06-28T11:39:19Z</time>
      </trkpt>
      <trkpt lat="48.79546" lon="2.23486">
        <ele>126.1</ele>
        <time>2022-06-28T11:39:24Z</time>
      </trkpt>
      <trkpt lat="48.7954" lon="2.2348">
        <ele>126.1</ele>
        <time>2022-06-28T11:39:47Z</time>
      </trkpt>
      <trkpt lat="48.79539" lon="2.2347">
        <ele>125.3</ele>
        <time>2022-06-28T11:39:55Z</time>
      </trkpt>
      <trkpt lat="48.79533" lon="2.23462">
        <ele>125.1</ele>
        <time>2022-06-28T11:40:00Z</time>
      </trkpt>
      <trkpt lat="48.79528" lon="2.23456">
        <ele>125</ele>
        <time>2022-06-28T11:40:10Z</time>
      </trkpt>
      <trkpt lat="48.7952" lon="2.23455">
        <ele>125.4</ele>
        <time>2022-06-28T11:40:15Z</time>
      </trkpt>
      <trkpt lat="48.79513" lon="2.23447">
        <ele>125.1</ele>
        <time>2022-06-28T11:40:21Z</time>
      </trkpt>
      <trkpt lat="48.79507" lon="2.23441">
        <ele>124.9</ele>
        <time>2022-06-28T11:40:28Z</time>
      </trkpt>
      <trkpt lat="48.79502" lon="2.23432">
        <ele>124.4</ele>
        <time>2022-06-28T11:40:33Z</time>
      </trkpt>
      <trkpt lat="48.795" lon="2.23422">
        <ele>123.5</ele>
        <time>2022-06-28T11:40:39Z</time>
      </trkpt>
      <trkpt lat="48.795" lon="2.23412">
        <ele>123.2</ele>
        <time>2022-06-28T11:40:49Z</time>
      </trkpt>
      <trkpt lat="48.79497" lon="2.23421">
        <ele>123.6</ele>
        <time>2022-06-28T11:41:50Z</time>
      </trkpt>
      <trkpt lat="48.7949" lon="2.23425">
        <ele>124.2</ele>
        <time>2022-06-28T11:41:58Z</time>
      </trkpt>
      <trkpt lat="48.79482" lon="2.23426">
        <ele>124.7</ele>
        <time>2022-06-28T11:42:17Z</time>
      </trkpt>
      <trkpt lat="48.79475" lon="2.23422">
        <ele>124.6</ele>
        <time>2022-06-28T11:42:24Z</time>
      </trkpt>
      <trkpt lat="48.79464" lon="2.2343">
        <ele>125.7</ele>
        <time>2022-06-28T11:44:16Z</time>
      </trkpt>
      <trkpt lat="48.79471" lon="2.23414">
        <ele>124.5</ele>
        <time>2022-06-28T11:44:33Z</time>
      </trkpt>
      <trkpt lat="48.79464" lon="2.23417">
        <ele>124.8</ele>
        <time>2022-06-28T11:44:56Z</time>
      </trkpt>
      <trkpt lat="48.79476" lon="2.23415">
        <ele>124.2</ele>
        <time>2022-06-28T11:45:27Z</time>
      </trkpt>
      <trkpt lat="48.79467" lon="2.23418">
        <ele>124.7</ele>
        <time>2022-06-28T11:45:37Z</time>
      </trkpt>
      <trkpt lat="48.79476" lon="2.23416">
        <ele>124.2</ele>
        <time>2022-06-28T11:45:46Z</time>
      </trkpt>
      <trkpt lat="48.79469" lon="2.23422">
        <ele>124.9</ele>
        <time>2022-06-28T11:46:10Z</time>
      </trkpt>
      <trkpt lat="48.79476" lon="2.2342">
        <ele>124.4</ele>
        <time>2022-06-28T11:46:31Z</time>
      </trkpt>
      <trkpt lat="48.79469" lon="2.2342">
        <ele>124.7</ele>
        <time>2022-06-28T11:47:25Z</time>
      </trkpt>
      <trkpt lat="48.79476" lon="2.23411">
        <ele>124.4</ele>
        <time>2022-06-28T11:47:32Z</time>
      </trkpt>
      <trkpt lat="48.79468" lon="2.23418">
        <ele>124.6</ele>
        <time>2022-06-28T11:47:50Z</time>
      </trkpt>
      <trkpt lat="48.79462" lon="2.23423">
        <ele>125.3</ele>
        <time>2022-06-28T11:48:13Z</time>
      </trkpt>
      <trkpt lat="48.79454" lon="2.23423">
        <ele>125.6</ele>
        <time>2022-06-28T11:48:22Z</time>
      </trkpt>
      <trkpt lat="48.79448" lon="2.2342">
        <ele>125.7</ele>
        <time>2022-06-28T11:48:29Z</time>
      </trkpt>
      <trkpt lat="48.79441" lon="2.2342">
        <ele>126</ele>
        <time>2022-06-28T11:48:36Z</time>
      </trkpt>
      <trkpt lat="48.79434" lon="2.23417">
        <ele>126.2</ele>
        <time>2022-06-28T11:48:47Z</time>
      </trkpt>
      <trkpt lat="48.79427" lon="2.23416">
        <ele>126.5</ele>
        <time>2022-06-28T11:49:01Z</time>
      </trkpt>
      <trkpt lat="48.79421" lon="2.23417">
        <ele>126.8</ele>
        <time>2022-06-28T11:49:11Z</time>
      </trkpt>
      <trkpt lat="48.79415" lon="2.23412">
        <ele>127.3</ele>
        <time>2022-06-28T11:49:16Z</time>
      </trkpt>
      <trkpt lat="48.79409" lon="2.23405">
        <ele>127.9</ele>
        <time>2022-06-28T11:49:22Z</time>
      </trkpt>
      <trkpt lat="48.79406" lon="2.23392">
        <ele>128.5</ele>
        <time>2022-06-28T11:49:30Z</time>
      </trkpt>
      <trkpt lat="48.79409" lon="2.23383">
        <ele>128.6</ele>
        <time>2022-06-28T11:49:38Z</time>
      </trkpt>
      <trkpt lat="48.7941" lon="2.23373">
        <ele>128.9</ele>
        <time>2022-06-28T11:50:24Z</time>
      </trkpt>
      <trkpt lat="48.79406" lon="2.23365">
        <ele>129.3</ele>
        <time>2022-06-28T11:50:34Z</time>
      </trkpt>
      <trkpt lat="48.7941" lon="2.23357">
        <ele>129.4</ele>
        <time>2022-06-28T11:50:44Z</time>
      </trkpt>
      <trkpt lat="48.79418" lon="2.23366">
        <ele>128.8</ele>
        <time>2022-06-28T11:51:12Z</time>
      </trkpt>
      <trkpt lat="48.79412" lon="2.23371">
        <ele>128.9</ele>
        <time>2022-06-28T11:51:18Z</time>
      </trkpt>
      <trkpt lat="48.79411" lon="2.23382">
        <ele>128.5</ele>
        <time>2022-06-28T11:51:26Z</time>
      </trkpt>
      <trkpt lat="48.79409" lon="2.23392">
        <ele>128.3</ele>
        <time>2022-06-28T11:51:31Z</time>
      </trkpt>
      <trkpt lat="48.79404" lon="2.23402">
        <ele>128.2</ele>
        <time>2022-06-28T11:51:37Z</time>
      </trkpt>
      <trkpt lat="48.794" lon="2.23412">
        <ele>128.1</ele>
        <time>2022-06-28T11:51:45Z</time>
      </trkpt>
      <trkpt lat="48.79394" lon="2.23418">
        <ele>128.4</ele>
        <time>2022-06-28T11:51:51Z</time>
      </trkpt>
      <trkpt lat="48.79387" lon="2.23419">
        <ele>128.9</ele>
        <time>2022-06-28T11:51:59Z</time>
      </trkpt>
      <trkpt lat="48.7938" lon="2.23422">
        <ele>129.4</ele>
        <time>2022-06-28T11:52:04Z</time>
      </trkpt>
      <trkpt lat="48.79374" lon="2.23422">
        <ele>129.8</ele>
        <time>2022-06-28T11:52:12Z</time>
      </trkpt>
      <trkpt lat="48.79368" lon="2.23427">
        <ele>130.3</ele>
        <time>2022-06-28T11:52:18Z</time>
      </trkpt>
      <trkpt lat="48.79361" lon="2.23428">
        <ele>130.8</ele>
        <time>2022-06-28T11:52:24Z</time>
      </trkpt>
      <trkpt lat="48.79355" lon="2.23431">
        <ele>131.3</ele>
        <time>2022-06-28T11:52:29Z</time>
      </trkpt>
      <trkpt lat="48.79348" lon="2.23434">
        <ele>131.8</ele>
        <time>2022-06-28T11:52:36Z</time>
      </trkpt>
      <trkpt lat="48.7934" lon="2.23437">
        <ele>132.4</ele>
        <time>2022-06-28T11:52:41Z</time>
      </trkpt>
      <trkpt lat="48.79333" lon="2.2344">
        <ele>132.9</ele>
        <time>2022-06-28T11:52:46Z</time>
      </trkpt>
      <trkpt lat="48.79327" lon="2.23444">
        <ele>133.3</ele>
        <time>2022-06-28T11:52:53Z</time>
      </trkpt>
      <trkpt lat="48.79321" lon="2.2345">
        <ele>133.7</ele>
        <time>2022-06-28T11:53:01Z</time>
      </trkpt>
      <trkpt lat="48.79314" lon="2.2345">
        <ele>134</ele>
        <time>2022-06-28T11:53:10Z</time>
      </trkpt>
      <trkpt lat="48.79309" lon="2.23455">
        <ele>134.4</ele>
        <time>2022-06-28T11:53:23Z</time>
      </trkpt>
      <trkpt lat="48.79317" lon="2.23454">
        <ele>134</ele>
        <time>2022-06-28T11:53:31Z</time>
      </trkpt>
      <trkpt lat="48.79323" lon="2.23456">
        <ele>133.9</ele>
        <time>2022-06-28T11:53:38Z</time>
      </trkpt>
      <trkpt lat="48.79328" lon="2.23461">
        <ele>133.8</ele>
        <time>2022-06-28T11:53:45Z</time>
      </trkpt>
      <trkpt lat="48.79336" lon="2.23463">
        <ele>133.5</ele>
        <time>2022-06-28T11:53:50Z</time>
      </trkpt>
      <trkpt lat="48.79343" lon="2.23465">
        <ele>133.2</ele>
        <time>2022-06-28T11:53:56Z</time>
      </trkpt>
      <trkpt lat="48.7935" lon="2.2347">
        <ele>133</ele>
        <time>2022-06-28T11:54:04Z</time>
      </trkpt>
      <trkpt lat="48.79357" lon="2.23476">
        <ele>132.9</ele>
        <time>2022-06-28T11:54:11Z</time>
      </trkpt>
      <trkpt lat="48.79363" lon="2.23478">
        <ele>132.7</ele>
        <time>2022-06-28T11:54:16Z</time>
      </trkpt>
      <trkpt lat="48.79368" lon="2.23485">
        <ele>132.7</ele>
        <time>2022-06-28T11:54:27Z</time>
      </trkpt>
      <trkpt lat="48.79373" lon="2.23494">
        <ele>132.8</ele>
        <time>2022-06-28T11:54:38Z</time>
      </trkpt>
      <trkpt lat="48.79376" lon="2.23503">
        <ele>133.1</ele>
        <time>2022-06-28T11:54:46Z</time>
      </trkpt>
      <trkpt lat="48.79373" lon="2.23514">
        <ele>134</ele>
        <time>2022-06-28T11:54:55Z</time>
      </trkpt>
      <trkpt lat="48.79374" lon="2.23524">
        <ele>134.6</ele>
        <time>2022-06-28T11:55:00Z</time>
      </trkpt>
      <trkpt lat="48.79376" lon="2.23534">
        <ele>135.2</ele>
        <time>2022-06-28T11:55:07Z</time>
      </trkpt>
      <trkpt lat="48.79369" lon="2.23535">
        <ele>135.6</ele>
        <time>2022-06-28T11:55:14Z</time>
      </trkpt>
      <trkpt lat="48.79363" lon="2.23541">
        <ele>136.4</ele>
        <time>2022-06-28T11:55:28Z</time>
      </trkpt>
      <trkpt lat="48.79356" lon="2.23542">
        <ele>136.8</ele>
        <time>2022-06-28T11:55:34Z</time>
      </trkpt>
      <trkpt lat="48.79349" lon="2.2354">
        <ele>137</ele>
        <time>2022-06-28T11:55:41Z</time>
      </trkpt>
      <trkpt lat="48.79342" lon="2.23541">
        <ele>137.5</ele>
        <time>2022-06-28T11:55:46Z</time>
      </trkpt>
      <trkpt lat="48.79334" lon="2.23543">
        <ele>138.1</ele>
        <time>2022-06-28T11:55:52Z</time>
      </trkpt>
      <trkpt lat="48.79327" lon="2.23547">
        <ele>138.7</ele>
        <time>2022-06-28T11:55:57Z</time>
      </trkpt>
      <trkpt lat="48.79319" lon="2.23548">
        <ele>139.2</ele>
        <time>2022-06-28T11:56:02Z</time>
      </trkpt>
      <trkpt lat="48.79319" lon="2.23558">
        <ele>139.9</ele>
        <time>2022-06-28T11:56:20Z</time>
      </trkpt>
      <trkpt lat="48.79312" lon="2.23557">
        <ele>140.2</ele>
        <time>2022-06-28T11:56:57Z</time>
      </trkpt>
      <trkpt lat="48.79303" lon="2.23556">
        <ele>140.6</ele>
        <time>2022-06-28T11:57:02Z</time>
      </trkpt>
      <trkpt lat="48.79299" lon="2.23565">
        <ele>141.6</ele>
        <time>2022-06-28T11:57:20Z</time>
      </trkpt>
      <trkpt lat="48.79295" lon="2.23575">
        <ele>142.6</ele>
        <time>2022-06-28T11:57:25Z</time>
      </trkpt>
      <trkpt lat="48.79291" lon="2.23583">
        <ele>143.5</ele>
        <time>2022-06-28T11:57:39Z</time>
      </trkpt>
      <trkpt lat="48.79289" lon="2.23593">
        <ele>144.2</ele>
        <time>2022-06-28T11:57:48Z</time>
      </trkpt>
      <trkpt lat="48.79281" lon="2.2358">
        <ele>143.8</ele>
        <time>2022-06-28T11:58:09Z</time>
      </trkpt>
      <trkpt lat="48.79288" lon="2.23593">
        <ele>144.3</ele>
        <time>2022-06-28T11:58:31Z</time>
      </trkpt>
      <trkpt lat="48.79288" lon="2.23604">
        <ele>144.9</ele>
        <time>2022-06-28T11:58:39Z</time>
      </trkpt>
      <trkpt lat="48.79285" lon="2.23614">
        <ele>145.6</ele>
        <time>2022-06-28T11:58:46Z</time>
      </trkpt>
      <trkpt lat="48.79285" lon="2.23624">
        <ele>146.2</ele>
        <time>2022-06-28T11:58:57Z</time>
      </trkpt>
      <trkpt lat="48.79278" lon="2.23621">
        <ele>146.6</ele>
        <time>2022-06-28T11:59:16Z</time>
      </trkpt>
      <trkpt lat="48.79263" lon="2.23624">
        <ele>147.9</ele>
        <time>2022-06-28T11:59:21Z</time>
      </trkpt>
      <trkpt lat="48.79284" lon="2.2362">
        <ele>146.1</ele>
        <time>2022-06-28T11:59:26Z</time>
      </trkpt>
      <trkpt lat="48.79287" lon="2.23629">
        <ele>146.3</ele>
        <time>2022-06-28T11:59:32Z</time>
      </trkpt>
      <trkpt lat="48.79283" lon="2.23617">
        <ele>146</ele>
        <time>2022-06-28T12:00:29Z</time>
      </trkpt>
      <trkpt lat="48.79283" lon="2.23627">
        <ele>146.5</ele>
        <time>2022-06-28T12:00:48Z</time>
      </trkpt>
      <trkpt lat="48.79279" lon="2.23634">
        <ele>147.3</ele>
        <time>2022-06-28T12:01:02Z</time>
      </trkpt>
      <trkpt lat="48.79272" lon="2.23635">
        <ele>147.9</ele>
        <time>2022-06-28T12:01:09Z</time>
      </trkpt>
      <trkpt lat="48.79265" lon="2.23637">
        <ele>148.6</ele>
        <time>2022-06-28T12:01:18Z</time>
      </trkpt>
      <trkpt lat="48.79258" lon="2.23639">
        <ele>149.3</ele>
        <time>2022-06-28T12:01:24Z</time>
      </trkpt>
      <trkpt lat="48.79251" lon="2.23643">
        <ele>150.2</ele>
        <time>2022-06-28T12:01:29Z</time>
      </trkpt>
      <trkpt lat="48.79245" lon="2.23647">
        <ele>151</ele>
        <time>2022-06-28T12:01:37Z</time>
      </trkpt>
      <trkpt lat="48.79238" lon="2.23648">
        <ele>151.8</ele>
        <time>2022-06-28T12:01:43Z</time>
      </trkpt>
      <trkpt lat="48.79231" lon="2.23651">
        <ele>152.6</ele>
        <time>2022-06-28T12:01:51Z</time>
      </trkpt>
      <trkpt lat="48.79224" lon="2.23653">
        <ele>153.4</ele>
        <time>2022-06-28T12:01:57Z</time>
      </trkpt>
      <trkpt lat="48.79217" lon="2.23655">
        <ele>154.1</ele>
        <time>2022-06-28T12:02:04Z</time>
      </trkpt>
      <trkpt lat="48.79209" lon="2.23655">
        <ele>154.8</ele>
        <time>2022-06-28T12:02:11Z</time>
      </trkpt>
      <trkpt lat="48.79204" lon="2.23649">
        <ele>154.9</ele>
        <time>2022-06-28T12:02:22Z</time>
      </trkpt>
      <trkpt lat="48.79198" lon="2.23654">
        <ele>155.7</ele>
        <time>2022-06-28T12:02:32Z</time>
      </trkpt>
      <trkpt lat="48.79191" lon="2.23658">
        <ele>156.6</ele>
        <time>2022-06-28T12:02:39Z</time>
      </trkpt>
      <trkpt lat="48.79185" lon="2.23662">
        <ele>157.3</ele>
        <time>2022-06-28T12:02:44Z</time>
      </trkpt>
      <trkpt lat="48.79178" lon="2.23665">
        <ele>158</ele>
        <time>2022-06-28T12:02:53Z</time>
      </trkpt>
      <trkpt lat="48.79171" lon="2.23666">
        <ele>158.6</ele>
        <time>2022-06-28T12:02:58Z</time>
      </trkpt>
      <trkpt lat="48.79164" lon="2.23667">
        <ele>159.3</ele>
        <time>2022-06-28T12:03:06Z</time>
      </trkpt>
      <trkpt lat="48.79157" lon="2.23668">
        <ele>160</ele>
        <time>2022-06-28T12:03:13Z</time>
      </trkpt>
      <trkpt lat="48.7915" lon="2.23671">
        <ele>160.8</ele>
        <time>2022-06-28T12:03:18Z</time>
      </trkpt>
      <trkpt lat="48.79144" lon="2.23675">
        <ele>161.5</ele>
        <time>2022-06-28T12:03:23Z</time>
      </trkpt>
      <trkpt lat="48.79143" lon="2.23665">
        <ele>161.2</ele>
        <time>2022-06-28T12:03:30Z</time>
      </trkpt>
      <trkpt lat="48.79137" lon="2.23666">
        <ele>161.8</ele>
        <time>2022-06-28T12:03:39Z</time>
      </trkpt>
      <trkpt lat="48.79131" lon="2.2367">
        <ele>162.5</ele>
        <time>2022-06-28T12:03:45Z</time>
      </trkpt>
      <trkpt lat="48.79125" lon="2.23674">
        <ele>163.2</ele>
        <time>2022-06-28T12:03:54Z</time>
      </trkpt>
      <trkpt lat="48.79118" lon="2.23678">
        <ele>164</ele>
        <time>2022-06-28T12:04:01Z</time>
      </trkpt>
      <trkpt lat="48.79111" lon="2.2368">
        <ele>164.7</ele>
        <time>2022-06-28T12:04:07Z</time>
      </trkpt>
      <trkpt lat="48.79104" lon="2.23683">
        <ele>165.4</ele>
        <time>2022-06-28T12:04:13Z</time>
      </trkpt>
      <trkpt lat="48.79097" lon="2.23687">
        <ele>166.1</ele>
        <time>2022-06-28T12:04:19Z</time>
      </trkpt>
      <trkpt lat="48.7909" lon="2.23688">
        <ele>166.7</ele>
        <time>2022-06-28T12:04:25Z</time>
      </trkpt>
      <trkpt lat="48.79083" lon="2.23689">
        <ele>167.3</ele>
        <time>2022-06-28T12:04:30Z</time>
      </trkpt>
      <trkpt lat="48.79076" lon="2.23691">
        <ele>167.5</ele>
        <time>2022-06-28T12:04:36Z</time>
      </trkpt>
      <trkpt lat="48.79069" lon="2.23691">
        <ele>167.7</ele>
        <time>2022-06-28T12:04:44Z</time>
      </trkpt>
      <trkpt lat="48.79063" lon="2.23695">
        <ele>167.8</ele>
        <time>2022-06-28T12:04:51Z</time>
      </trkpt>
      <trkpt lat="48.79056" lon="2.23698">
        <ele>168</ele>
        <time>2022-06-28T12:04:58Z</time>
      </trkpt>
      <trkpt lat="48.7905" lon="2.23701">
        <ele>168.1</ele>
        <time>2022-06-28T12:05:34Z</time>
      </trkpt>
      <trkpt lat="48.79043" lon="2.23699">
        <ele>168.3</ele>
        <time>2022-06-28T12:06:42Z</time>
      </trkpt>
      <trkpt lat="48.79036" lon="2.23698">
        <ele>168.4</ele>
        <time>2022-06-28T12:06:52Z</time>
      </trkpt>
      <trkpt lat="48.7903" lon="2.23701">
        <ele>168.5</ele>
        <time>2022-06-28T12:06:57Z</time>
      </trkpt>
      <trkpt lat="48.79035" lon="2.23695">
        <ele>168.5</ele>
        <time>2022-06-28T12:07:18Z</time>
      </trkpt>
      <trkpt lat="48.79042" lon="2.23694">
        <ele>168.3</ele>
        <time>2022-06-28T12:07:29Z</time>
      </trkpt>
      <trkpt lat="48.79048" lon="2.23692">
        <ele>168.2</ele>
        <time>2022-06-28T12:07:46Z</time>
      </trkpt>
      <trkpt lat="48.79041" lon="2.23706">
        <ele>168.3</ele>
        <time>2022-06-28T12:08:31Z</time>
      </trkpt>
      <trkpt lat="48.79033" lon="2.2371">
        <ele>168.4</ele>
        <time>2022-06-28T12:08:41Z</time>
      </trkpt>
      <trkpt lat="48.79025" lon="2.23713">
        <ele>168.5</ele>
        <time>2022-06-28T12:08:46Z</time>
      </trkpt>
      <trkpt lat="48.79019" lon="2.23707">
        <ele>168.7</ele>
        <time>2022-06-28T12:09:07Z</time>
      </trkpt>
      <trkpt lat="48.79013" lon="2.23714">
        <ele>168.7</ele>
        <time>2022-06-28T12:09:23Z</time>
      </trkpt>
      <trkpt lat="48.79006" lon="2.2371">
        <ele>168.9</ele>
        <time>2022-06-28T12:09:34Z</time>
      </trkpt>
      <trkpt lat="48.79" lon="2.23711">
        <ele>168.9</ele>
        <time>2022-06-28T12:09:42Z</time>
      </trkpt>
      <trkpt lat="48.78992" lon="2.23712">
        <ele>169.3</ele>
        <time>2022-06-28T12:09:49Z</time>
      </trkpt>
      <trkpt lat="48.78985" lon="2.23714">
        <ele>169.5</ele>
        <time>2022-06-28T12:09:57Z</time>
      </trkpt>
      <trkpt lat="48.78977" lon="2.23715">
        <ele>169.8</ele>
        <time>2022-06-28T12:10:05Z</time>
      </trkpt>
      <trkpt lat="48.7897" lon="2.23717">
        <ele>170.1</ele>
        <time>2022-06-28T12:10:10Z</time>
      </trkpt>
      <trkpt lat="48.78964" lon="2.23719">
        <ele>170.3</ele>
        <time>2022-06-28T12:10:15Z</time>
      </trkpt>
      <trkpt lat="48.78957" lon="2.23719">
        <ele>170.6</ele>
        <time>2022-06-28T12:10:20Z</time>
      </trkpt>
      <trkpt lat="48.78951" lon="2.23718">
        <ele>170.9</ele>
        <time>2022-06-28T12:10:25Z</time>
      </trkpt>
      <trkpt lat="48.78943" lon="2.23718">
        <ele>171.2</ele>
        <time>2022-06-28T12:10:33Z</time>
      </trkpt>
      <trkpt lat="48.78937" lon="2.2372">
        <ele>171.5</ele>
        <time>2022-06-28T12:10:39Z</time>
      </trkpt>
      <trkpt lat="48.78929" lon="2.23722">
        <ele>171.8</ele>
        <time>2022-06-28T12:10:45Z</time>
      </trkpt>
      <trkpt lat="48.78922" lon="2.23722">
        <ele>172.1</ele>
        <time>2022-06-28T12:10:52Z</time>
      </trkpt>
      <trkpt lat="48.78915" lon="2.23718">
        <ele>172.5</ele>
        <time>2022-06-28T12:10:58Z</time>
      </trkpt>
      <trkpt lat="48.78914" lon="2.23708">
        <ele>172.6</ele>
        <time>2022-06-28T12:11:06Z</time>
      </trkpt>
      <trkpt lat="48.78913" lon="2.23698">
        <ele>172.8</ele>
        <time>2022-06-28T12:11:17Z</time>
      </trkpt>
      <trkpt lat="48.7891" lon="2.23689">
        <ele>173</ele>
        <time>2022-06-28T12:11:25Z</time>
      </trkpt>
      <trkpt lat="48.78908" lon="2.23679">
        <ele>173.1</ele>
        <time>2022-06-28T12:11:51Z</time>
      </trkpt>
      <trkpt lat="48.78912" lon="2.23671">
        <ele>173.1</ele>
        <time>2022-06-28T12:12:05Z</time>
      </trkpt>
      <trkpt lat="48.78922" lon="2.23672">
        <ele>172.7</ele>
        <time>2022-06-28T12:12:43Z</time>
      </trkpt>
      <trkpt lat="48.78915" lon="2.23669">
        <ele>173</ele>
        <time>2022-06-28T12:13:12Z</time>
      </trkpt>
      <trkpt lat="48.78913" lon="2.2368">
        <ele>172.9</ele>
        <time>2022-06-28T12:13:59Z</time>
      </trkpt>
      <trkpt lat="48.78915" lon="2.2369">
        <ele>172.8</ele>
        <time>2022-06-28T12:14:09Z</time>
      </trkpt>
      <trkpt lat="48.78915" lon="2.237">
        <ele>172.7</ele>
        <time>2022-06-28T12:14:25Z</time>
      </trkpt>
      <trkpt lat="48.78915" lon="2.23712">
        <ele>172.5</ele>
        <time>2022-06-28T12:14:34Z</time>
      </trkpt>
      <trkpt lat="48.78918" lon="2.23722">
        <ele>172.3</ele>
        <time>2022-06-28T12:14:40Z</time>
      </trkpt>
      <trkpt lat="48.78921" lon="2.23733">
        <ele>172</ele>
        <time>2022-06-28T12:14:46Z</time>
      </trkpt>
      <trkpt lat="48.78926" lon="2.23741">
        <ele>171.7</ele>
        <time>2022-06-28T12:14:52Z</time>
      </trkpt>
      <trkpt lat="48.78931" lon="2.23749">
        <ele>171.3</ele>
        <time>2022-06-28T12:15:08Z</time>
      </trkpt>
      <trkpt lat="48.78931" lon="2.23759">
        <ele>171.4</ele>
        <time>2022-06-28T12:15:16Z</time>
      </trkpt>
      <trkpt lat="48.78934" lon="2.23769">
        <ele>171.4</ele>
        <time>2022-06-28T12:15:21Z</time>
      </trkpt>
      <trkpt lat="48.78944" lon="2.23781">
        <ele>171.2</ele>
        <time>2022-06-28T12:15:26Z</time>
      </trkpt>
      <trkpt lat="48.78941" lon="2.23792">
        <ele>171.4</ele>
        <time>2022-06-28T12:15:32Z</time>
      </trkpt>
      <trkpt lat="48.78941" lon="2.23803">
        <ele>171.6</ele>
        <time>2022-06-28T12:15:38Z</time>
      </trkpt>
      <trkpt lat="48.78943" lon="2.23812">
        <ele>171.7</ele>
        <time>2022-06-28T12:15:45Z</time>
      </trkpt>
      <trkpt lat="48.78949" lon="2.2381">
        <ele>171.6</ele>
        <time>2022-06-28T12:16:10Z</time>
      </trkpt>
      <trkpt lat="48.78936" lon="2.23817">
        <ele>171.8</ele>
        <time>2022-06-28T12:16:35Z</time>
      </trkpt>
      <trkpt lat="48.78946" lon="2.23813">
        <ele>171.7</ele>
        <time>2022-06-28T12:16:55Z</time>
      </trkpt>
      <trkpt lat="48.78946" lon="2.23824">
        <ele>171.8</ele>
        <time>2022-06-28T12:17:01Z</time>
      </trkpt>
      <trkpt lat="48.78949" lon="2.23834">
        <ele>172</ele>
        <time>2022-06-28T12:17:06Z</time>
      </trkpt>
      <trkpt lat="48.78948" lon="2.23845">
        <ele>171.9</ele>
        <time>2022-06-28T12:17:13Z</time>
      </trkpt>
      <trkpt lat="48.7895" lon="2.23857">
        <ele>171.9</ele>
        <time>2022-06-28T12:17:18Z</time>
      </trkpt>
      <trkpt lat="48.78954" lon="2.23867">
        <ele>171.8</ele>
        <time>2022-06-28T12:17:23Z</time>
      </trkpt>
      <trkpt lat="48.78957" lon="2.23875">
        <ele>171.8</ele>
        <time>2022-06-28T12:17:31Z</time>
      </trkpt>
      <trkpt lat="48.78962" lon="2.23868">
        <ele>171.8</ele>
        <time>2022-06-28T12:17:41Z</time>
      </trkpt>
      <trkpt lat="48.78966" lon="2.2386">
        <ele>171.8</ele>
        <time>2022-06-28T12:17:46Z</time>
      </trkpt>
      <trkpt lat="48.78972" lon="2.23857">
        <ele>171.8</ele>
        <time>2022-06-28T12:17:52Z</time>
      </trkpt>
      <trkpt lat="48.78979" lon="2.23857">
        <ele>171.8</ele>
        <time>2022-06-28T12:18:01Z</time>
      </trkpt>
      <trkpt lat="48.78986" lon="2.23859">
        <ele>171.7</ele>
        <time>2022-06-28T12:18:06Z</time>
      </trkpt>
      <trkpt lat="48.78991" lon="2.23865">
        <ele>171.7</ele>
        <time>2022-06-28T12:18:12Z</time>
      </trkpt>
      <trkpt lat="48.7899" lon="2.23876">
        <ele>171.5</ele>
        <time>2022-06-28T12:18:17Z</time>
      </trkpt>
      <trkpt lat="48.78989" lon="2.23887">
        <ele>171.4</ele>
        <time>2022-06-28T12:18:23Z</time>
      </trkpt>
      <trkpt lat="48.78993" lon="2.23898">
        <ele>171.3</ele>
        <time>2022-06-28T12:18:30Z</time>
      </trkpt>
      <trkpt lat="48.79001" lon="2.23903">
        <ele>171.1</ele>
        <time>2022-06-28T12:18:35Z</time>
      </trkpt>
      <trkpt lat="48.79005" lon="2.23912">
        <ele>170.7</ele>
        <time>2022-06-28T12:18:40Z</time>
      </trkpt>
      <trkpt lat="48.7901" lon="2.2392">
        <ele>170.3</ele>
        <time>2022-06-28T12:18:47Z</time>
      </trkpt>
      <trkpt lat="48.79003" lon="2.23916">
        <ele>170.8</ele>
        <time>2022-06-28T12:18:57Z</time>
      </trkpt>
      <trkpt lat="48.79005" lon="2.23929">
        <ele>170.7</ele>
        <time>2022-06-28T12:19:05Z</time>
      </trkpt>
      <trkpt lat="48.79006" lon="2.2394">
        <ele>170.6</ele>
        <time>2022-06-28T12:19:10Z</time>
      </trkpt>
      <trkpt lat="48.79015" lon="2.23942">
        <ele>170.1</ele>
        <time>2022-06-28T12:19:15Z</time>
      </trkpt>
      <trkpt lat="48.79021" lon="2.23946">
        <ele>169.8</ele>
        <time>2022-06-28T12:19:23Z</time>
      </trkpt>
      <trkpt lat="48.7903" lon="2.23948">
        <ele>169.2</ele>
        <time>2022-06-28T12:19:34Z</time>
      </trkpt>
      <trkpt lat="48.7904" lon="2.23948">
        <ele>168.7</ele>
        <time>2022-06-28T12:19:39Z</time>
      </trkpt>
      <trkpt lat="48.79047" lon="2.23955">
        <ele>168.4</ele>
        <time>2022-06-28T12:19:48Z</time>
      </trkpt>
      <trkpt lat="48.79055" lon="2.23954">
        <ele>167.9</ele>
        <time>2022-06-28T12:20:06Z</time>
      </trkpt>
      <trkpt lat="48.79062" lon="2.23955">
        <ele>167.6</ele>
        <time>2022-06-28T12:20:13Z</time>
      </trkpt>
      <trkpt lat="48.79068" lon="2.2396">
        <ele>167.4</ele>
        <time>2022-06-28T12:20:20Z</time>
      </trkpt>
      <trkpt lat="48.79075" lon="2.23963">
        <ele>167.1</ele>
        <time>2022-06-28T12:20:25Z</time>
      </trkpt>
      <trkpt lat="48.79083" lon="2.23966">
        <ele>166.8</ele>
        <time>2022-06-28T12:20:30Z</time>
      </trkpt>
      <trkpt lat="48.79095" lon="2.23969">
        <ele>165.7</ele>
        <time>2022-06-28T12:20:35Z</time>
      </trkpt>
      <trkpt lat="48.79101" lon="2.23964">
        <ele>164.9</ele>
        <time>2022-06-28T12:20:44Z</time>
      </trkpt>
      <trkpt lat="48.79108" lon="2.23964">
        <ele>164.2</ele>
        <time>2022-06-28T12:20:56Z</time>
      </trkpt>
      <trkpt lat="48.79114" lon="2.23968">
        <ele>163.8</ele>
        <time>2022-06-28T12:21:10Z</time>
      </trkpt>
      <trkpt lat="48.7912" lon="2.23976">
        <ele>163.5</ele>
        <time>2022-06-28T12:21:18Z</time>
      </trkpt>
      <trkpt lat="48.79119" lon="2.23987">
        <ele>164</ele>
        <time>2022-06-28T12:21:27Z</time>
      </trkpt>
      <trkpt lat="48.79126" lon="2.23991">
        <ele>163.5</ele>
        <time>2022-06-28T12:21:33Z</time>
      </trkpt>
      <trkpt lat="48.79131" lon="2.23998">
        <ele>163.3</ele>
        <time>2022-06-28T12:21:43Z</time>
      </trkpt>
      <trkpt lat="48.79134" lon="2.24014">
        <ele>163.9</ele>
        <time>2022-06-28T12:22:02Z</time>
      </trkpt>
      <trkpt lat="48.7914" lon="2.2402">
        <ele>163.8</ele>
        <time>2022-06-28T12:22:21Z</time>
      </trkpt>
      <trkpt lat="48.79136" lon="2.24029">
        <ele>164.6</ele>
        <time>2022-06-28T12:22:33Z</time>
      </trkpt>
      <trkpt lat="48.79136" lon="2.2404">
        <ele>165.2</ele>
        <time>2022-06-28T12:22:53Z</time>
      </trkpt>
      <trkpt lat="48.79131" lon="2.24045">
        <ele>165.8</ele>
        <time>2022-06-28T12:22:58Z</time>
      </trkpt>
      <trkpt lat="48.79135" lon="2.24055">
        <ele>166.2</ele>
        <time>2022-06-28T12:23:13Z</time>
      </trkpt>
      <trkpt lat="48.79136" lon="2.24065">
        <ele>166.7</ele>
        <time>2022-06-28T12:23:24Z</time>
      </trkpt>
      <trkpt lat="48.79143" lon="2.24071">
        <ele>166.8</ele>
        <time>2022-06-28T12:23:46Z</time>
      </trkpt>
      <trkpt lat="48.79144" lon="2.24058">
        <ele>165.9</ele>
        <time>2022-06-28T12:24:06Z</time>
      </trkpt>
      <trkpt lat="48.79147" lon="2.24066">
        <ele>166.3</ele>
        <time>2022-06-28T12:24:16Z</time>
      </trkpt>
      <trkpt lat="48.79153" lon="2.2407">
        <ele>166.4</ele>
        <time>2022-06-28T12:24:26Z</time>
      </trkpt>
      <trkpt lat="48.79148" lon="2.24063">
        <ele>166.1</ele>
        <time>2022-06-28T12:24:39Z</time>
      </trkpt>
      <trkpt lat="48.7914" lon="2.24063">
        <ele>166.4</ele>
        <time>2022-06-28T12:24:44Z</time>
      </trkpt>
      <trkpt lat="48.79146" lon="2.24068">
        <ele>166.5</ele>
        <time>2022-06-28T12:25:12Z</time>
      </trkpt>
      <trkpt lat="48.79152" lon="2.24069">
        <ele>166.3</ele>
        <time>2022-06-28T12:25:21Z</time>
      </trkpt>
      <trkpt lat="48.79145" lon="2.24063">
        <ele>166.2</ele>
        <time>2022-06-28T12:26:07Z</time>
      </trkpt>
      <trkpt lat="48.79139" lon="2.24066">
        <ele>166.6</ele>
        <time>2022-06-28T12:26:12Z</time>
      </trkpt>
      <trkpt lat="48.7914" lon="2.24079">
        <ele>167.4</ele>
        <time>2022-06-28T12:26:29Z</time>
      </trkpt>
      <trkpt lat="48.79137" lon="2.24087">
        <ele>167.5</ele>
        <time>2022-06-28T12:26:39Z</time>
      </trkpt>
      <trkpt lat="48.7914" lon="2.24096">
        <ele>167</ele>
        <time>2022-06-28T12:26:50Z</time>
      </trkpt>
      <trkpt lat="48.79143" lon="2.24106">
        <ele>166.4</ele>
        <time>2022-06-28T12:27:01Z</time>
      </trkpt>
      <trkpt lat="48.79138" lon="2.24114">
        <ele>166.2</ele>
        <time>2022-06-28T12:27:06Z</time>
      </trkpt>
      <trkpt lat="48.79136" lon="2.24123">
        <ele>165.9</ele>
        <time>2022-06-28T12:27:13Z</time>
      </trkpt>
      <trkpt lat="48.79133" lon="2.24132">
        <ele>165.6</ele>
        <time>2022-06-28T12:27:34Z</time>
      </trkpt>
      <trkpt lat="48.7913" lon="2.24142">
        <ele>165.3</ele>
        <time>2022-06-28T12:27:45Z</time>
      </trkpt>
      <trkpt lat="48.79132" lon="2.24155">
        <ele>164.6</ele>
        <time>2022-06-28T12:27:55Z</time>
      </trkpt>
      <trkpt lat="48.79137" lon="2.24166">
        <ele>163.8</ele>
        <time>2022-06-28T12:28:09Z</time>
      </trkpt>
      <trkpt lat="48.79138" lon="2.24178">
        <ele>163.9</ele>
        <time>2022-06-28T12:28:14Z</time>
      </trkpt>
      <trkpt lat="48.7914" lon="2.2419">
        <ele>164</ele>
        <time>2022-06-28T12:28:19Z</time>
      </trkpt>
      <trkpt lat="48.7914" lon="2.242">
        <ele>164.1</ele>
        <time>2022-06-28T12:28:24Z</time>
      </trkpt>
      <trkpt lat="48.79142" lon="2.24212">
        <ele>164.2</ele>
        <time>2022-06-28T12:28:30Z</time>
      </trkpt>
      <trkpt lat="48.79145" lon="2.24222">
        <ele>164.1</ele>
        <time>2022-06-28T12:28:35Z</time>
      </trkpt>
      <trkpt lat="48.79147" lon="2.24231">
        <ele>164.1</ele>
        <time>2022-06-28T12:28:42Z</time>
      </trkpt>
      <trkpt lat="48.79154" lon="2.24232">
        <ele>163.7</ele>
        <time>2022-06-28T12:29:06Z</time>
      </trkpt>
      <trkpt lat="48.7916" lon="2.24233">
        <ele>163.3</ele>
        <time>2022-06-28T12:29:13Z</time>
      </trkpt>
      <trkpt lat="48.79166" lon="2.24226">
        <ele>162.8</ele>
        <time>2022-06-28T12:29:34Z</time>
      </trkpt>
      <trkpt lat="48.79172" lon="2.24221">
        <ele>162.5</ele>
        <time>2022-06-28T12:29:42Z</time>
      </trkpt>
      <trkpt lat="48.79178" lon="2.24216">
        <ele>162.3</ele>
        <time>2022-06-28T12:29:49Z</time>
      </trkpt>
      <trkpt lat="48.7918" lon="2.24204">
        <ele>161.9</ele>
        <time>2022-06-28T12:29:58Z</time>
      </trkpt>
      <trkpt lat="48.79185" lon="2.24198">
        <ele>161.6</ele>
        <time>2022-06-28T12:30:07Z</time>
      </trkpt>
      <trkpt lat="48.7919" lon="2.24191">
        <ele>161.1</ele>
        <time>2022-06-28T12:30:14Z</time>
      </trkpt>
      <trkpt lat="48.79194" lon="2.2418">
        <ele>160.5</ele>
        <time>2022-06-28T12:30:23Z</time>
      </trkpt>
      <trkpt lat="48.792" lon="2.24177">
        <ele>160</ele>
        <time>2022-06-28T12:30:32Z</time>
      </trkpt>
      <trkpt lat="48.79205" lon="2.2417">
        <ele>159.4</ele>
        <time>2022-06-28T12:30:48Z</time>
      </trkpt>
      <trkpt lat="48.7921" lon="2.24161">
        <ele>159.1</ele>
        <time>2022-06-28T12:30:58Z</time>
      </trkpt>
      <trkpt lat="48.79217" lon="2.24156">
        <ele>158.8</ele>
        <time>2022-06-28T12:31:11Z</time>
      </trkpt>
      <trkpt lat="48.79224" lon="2.24154">
        <ele>158.3</ele>
        <time>2022-06-28T12:31:20Z</time>
      </trkpt>
      <trkpt lat="48.79231" lon="2.24152">
        <ele>157.8</ele>
        <time>2022-06-28T12:31:25Z</time>
      </trkpt>
      <trkpt lat="48.79237" lon="2.24143">
        <ele>157.6</ele>
        <time>2022-06-28T12:31:34Z</time>
      </trkpt>
      <trkpt lat="48.79238" lon="2.24132">
        <ele>157.9</ele>
        <time>2022-06-28T12:31:40Z</time>
      </trkpt>
      <trkpt lat="48.79238" lon="2.24122">
        <ele>158.2</ele>
        <time>2022-06-28T12:31:47Z</time>
      </trkpt>
      <trkpt lat="48.79236" lon="2.24112">
        <ele>158.7</ele>
        <time>2022-06-28T12:31:53Z</time>
      </trkpt>
      <trkpt lat="48.79243" lon="2.24115">
        <ele>157.9</ele>
        <time>2022-06-28T12:31:59Z</time>
      </trkpt>
      <trkpt lat="48.79246" lon="2.24104">
        <ele>157.9</ele>
        <time>2022-06-28T12:32:07Z</time>
      </trkpt>
      <trkpt lat="48.79252" lon="2.24106">
        <ele>157.2</ele>
        <time>2022-06-28T12:32:18Z</time>
      </trkpt>
      <trkpt lat="48.7926" lon="2.2411">
        <ele>155.9</ele>
        <time>2022-06-28T12:32:25Z</time>
      </trkpt>
      <trkpt lat="48.79267" lon="2.2411">
        <ele>154.9</ele>
        <time>2022-06-28T12:32:32Z</time>
      </trkpt>
      <trkpt lat="48.79266" lon="2.241">
        <ele>155.1</ele>
        <time>2022-06-28T12:32:44Z</time>
      </trkpt>
      <trkpt lat="48.79267" lon="2.24088">
        <ele>155.1</ele>
        <time>2022-06-28T12:32:50Z</time>
      </trkpt>
      <trkpt lat="48.79267" lon="2.24078">
        <ele>154.9</ele>
        <time>2022-06-28T12:32:56Z</time>
      </trkpt>
      <trkpt lat="48.79271" lon="2.2407">
        <ele>153.9</ele>
        <time>2022-06-28T12:33:03Z</time>
      </trkpt>
      <trkpt lat="48.79278" lon="2.24068">
        <ele>152.7</ele>
        <time>2022-06-28T12:33:19Z</time>
      </trkpt>
      <trkpt lat="48.79277" lon="2.24058">
        <ele>152.5</ele>
        <time>2022-06-28T12:33:26Z</time>
      </trkpt>
      <trkpt lat="48.7928" lon="2.24048">
        <ele>151.8</ele>
        <time>2022-06-28T12:33:34Z</time>
      </trkpt>
      <trkpt lat="48.79288" lon="2.24045">
        <ele>150.6</ele>
        <time>2022-06-28T12:33:39Z</time>
      </trkpt>
      <trkpt lat="48.79296" lon="2.24041">
        <ele>149.4</ele>
        <time>2022-06-28T12:33:46Z</time>
      </trkpt>
      <trkpt lat="48.79303" lon="2.24045">
        <ele>148.6</ele>
        <time>2022-06-28T12:33:51Z</time>
      </trkpt>
      <trkpt lat="48.79312" lon="2.24044">
        <ele>147.3</ele>
        <time>2022-06-28T12:33:56Z</time>
      </trkpt>
      <trkpt lat="48.79318" lon="2.24047">
        <ele>146.5</ele>
        <time>2022-06-28T12:34:01Z</time>
      </trkpt>
      <trkpt lat="48.79325" lon="2.24049">
        <ele>145.6</ele>
        <time>2022-06-28T12:34:08Z</time>
      </trkpt>
      <trkpt lat="48.79332" lon="2.24047">
        <ele>144.6</ele>
        <time>2022-06-28T12:34:13Z</time>
      </trkpt>
      <trkpt lat="48.7934" lon="2.24045">
        <ele>143.5</ele>
        <time>2022-06-28T12:34:18Z</time>
      </trkpt>
      <trkpt lat="48.79347" lon="2.2404">
        <ele>142.5</ele>
        <time>2022-06-28T12:34:23Z</time>
      </trkpt>
      <trkpt lat="48.79346" lon="2.24028">
        <ele>142.6</ele>
        <time>2022-06-28T12:34:31Z</time>
      </trkpt>
      <trkpt lat="48.79338" lon="2.24019">
        <ele>144</ele>
        <time>2022-06-28T12:34:36Z</time>
      </trkpt>
      <trkpt lat="48.79335" lon="2.2401">
        <ele>144.6</ele>
        <time>2022-06-28T12:34:44Z</time>
      </trkpt>
      <trkpt lat="48.79335" lon="2.24">
        <ele>144.7</ele>
        <time>2022-06-28T12:34:53Z</time>
      </trkpt>
      <trkpt lat="48.79335" lon="2.23989">
        <ele>144.4</ele>
        <time>2022-06-28T12:35:00Z</time>
      </trkpt>
      <trkpt lat="48.79336" lon="2.23978">
        <ele>144</ele>
        <time>2022-06-28T12:35:07Z</time>
      </trkpt>
      <trkpt lat="48.79336" lon="2.23968">
        <ele>143.8</ele>
        <time>2022-06-28T12:35:12Z</time>
      </trkpt>
      <trkpt lat="48.79337" lon="2.23957">
        <ele>143.3</ele>
        <time>2022-06-28T12:35:17Z</time>
      </trkpt>
      <trkpt lat="48.79342" lon="2.23949">
        <ele>142.3</ele>
        <time>2022-06-28T12:35:22Z</time>
      </trkpt>
      <trkpt lat="48.79349" lon="2.23945">
        <ele>141</ele>
        <time>2022-06-28T12:35:27Z</time>
      </trkpt>
      <trkpt lat="48.79356" lon="2.23946">
        <ele>139.8</ele>
        <time>2022-06-28T12:35:33Z</time>
      </trkpt>
      <trkpt lat="48.79358" lon="2.23936">
        <ele>139.3</ele>
        <time>2022-06-28T12:35:42Z</time>
      </trkpt>
      <trkpt lat="48.79364" lon="2.23927">
        <ele>138.1</ele>
        <time>2022-06-28T12:35:48Z</time>
      </trkpt>
      <trkpt lat="48.7937" lon="2.23922">
        <ele>136.9</ele>
        <time>2022-06-28T12:35:53Z</time>
      </trkpt>
      <trkpt lat="48.79377" lon="2.23918">
        <ele>135.7</ele>
        <time>2022-06-28T12:36:00Z</time>
      </trkpt>
      <trkpt lat="48.79382" lon="2.2391">
        <ele>134.9</ele>
        <time>2022-06-28T12:36:10Z</time>
      </trkpt>
      <trkpt lat="48.79388" lon="2.23904">
        <ele>134</ele>
        <time>2022-06-28T12:36:31Z</time>
      </trkpt>
      <trkpt lat="48.79394" lon="2.23903">
        <ele>133</ele>
        <time>2022-06-28T12:36:39Z</time>
      </trkpt>
      <trkpt lat="48.79401" lon="2.23902">
        <ele>131.8</ele>
        <time>2022-06-28T12:36:44Z</time>
      </trkpt>
      <trkpt lat="48.79409" lon="2.23907">
        <ele>130.4</ele>
        <time>2022-06-28T12:36:49Z</time>
      </trkpt>
      <trkpt lat="48.79415" lon="2.23913">
        <ele>129.3</ele>
        <time>2022-06-28T12:36:56Z</time>
      </trkpt>
      <trkpt lat="48.7942" lon="2.23905">
        <ele>128.8</ele>
        <time>2022-06-28T12:37:24Z</time>
      </trkpt>
      <trkpt lat="48.79426" lon="2.23903">
        <ele>128.3</ele>
        <time>2022-06-28T12:37:35Z</time>
      </trkpt>
      <trkpt lat="48.79432" lon="2.239">
        <ele>127.8</ele>
        <time>2022-06-28T12:37:45Z</time>
      </trkpt>
      <trkpt lat="48.79439" lon="2.23898">
        <ele>127.2</ele>
        <time>2022-06-28T12:37:51Z</time>
      </trkpt>
      <trkpt lat="48.7943" lon="2.23903">
        <ele>127.9</ele>
        <time>2022-06-28T12:38:15Z</time>
      </trkpt>
      <trkpt lat="48.79432" lon="2.23894">
        <ele>127.9</ele>
        <time>2022-06-28T12:38:22Z</time>
      </trkpt>
      <trkpt lat="48.79433" lon="2.23883">
        <ele>128</ele>
        <time>2022-06-28T12:38:27Z</time>
      </trkpt>
      <trkpt lat="48.79432" lon="2.23874">
        <ele>128.2</ele>
        <time>2022-06-28T12:38:34Z</time>
      </trkpt>
      <trkpt lat="48.79441" lon="2.23875">
        <ele>127.5</ele>
        <time>2022-06-28T12:38:42Z</time>
      </trkpt>
      <trkpt lat="48.79447" lon="2.23879">
        <ele>126.9</ele>
        <time>2022-06-28T12:38:47Z</time>
      </trkpt>
      <trkpt lat="48.79443" lon="2.23887">
        <ele>127.1</ele>
        <time>2022-06-28T12:38:57Z</time>
      </trkpt>
      <trkpt lat="48.7944" lon="2.239">
        <ele>127.1</ele>
        <time>2022-06-28T12:39:20Z</time>
      </trkpt>
      <trkpt lat="48.79447" lon="2.23901">
        <ele>126.4</ele>
        <time>2022-06-28T12:39:28Z</time>
      </trkpt>
      <trkpt lat="48.79454" lon="2.239">
        <ele>125.8</ele>
        <time>2022-06-28T12:39:33Z</time>
      </trkpt>
      <trkpt lat="48.79461" lon="2.23896">
        <ele>125.3</ele>
        <time>2022-06-28T12:39:44Z</time>
      </trkpt>
      <trkpt lat="48.79467" lon="2.23901">
        <ele>124.6</ele>
        <time>2022-06-28T12:39:54Z</time>
      </trkpt>
      <trkpt lat="48.79475" lon="2.23899">
        <ele>123.9</ele>
        <time>2022-06-28T12:40:24Z</time>
      </trkpt>
      <trkpt lat="48.79483" lon="2.239">
        <ele>123.2</ele>
        <time>2022-06-28T12:40:30Z</time>
      </trkpt>
      <trkpt lat="48.79488" lon="2.23908">
        <ele>122.4</ele>
        <time>2022-06-28T12:40:35Z</time>
      </trkpt>
      <trkpt lat="48.79495" lon="2.23916">
        <ele>121.5</ele>
        <time>2022-06-28T12:40:43Z</time>
      </trkpt>
      <trkpt lat="48.79504" lon="2.23919">
        <ele>121.2</ele>
        <time>2022-06-28T12:40:48Z</time>
      </trkpt>
      <trkpt lat="48.79508" lon="2.23926">
        <ele>121.7</ele>
        <time>2022-06-28T12:40:54Z</time>
      </trkpt>
      <trkpt lat="48.79509" lon="2.23936">
        <ele>122.3</ele>
        <time>2022-06-28T12:41:00Z</time>
      </trkpt>
      <trkpt lat="48.79512" lon="2.23945">
        <ele>122.8</ele>
        <time>2022-06-28T12:41:06Z</time>
      </trkpt>
      <trkpt lat="48.79514" lon="2.23955">
        <ele>123.4</ele>
        <time>2022-06-28T12:41:15Z</time>
      </trkpt>
      <trkpt lat="48.79515" lon="2.23964">
        <ele>123.9</ele>
        <time>2022-06-28T12:41:20Z</time>
      </trkpt>
      <trkpt lat="48.79517" lon="2.23976">
        <ele>124.5</ele>
        <time>2022-06-28T12:41:29Z</time>
      </trkpt>
      <trkpt lat="48.7952" lon="2.23987">
        <ele>124.9</ele>
        <time>2022-06-28T12:41:39Z</time>
      </trkpt>
      <trkpt lat="48.79522" lon="2.23997">
        <ele>125.3</ele>
        <time>2022-06-28T12:41:45Z</time>
      </trkpt>
      <trkpt lat="48.79525" lon="2.24006">
        <ele>125.6</ele>
        <time>2022-06-28T12:41:50Z</time>
      </trkpt>
      <trkpt lat="48.79526" lon="2.24017">
        <ele>126.3</ele>
        <time>2022-06-28T12:41:55Z</time>
      </trkpt>
      <trkpt lat="48.79529" lon="2.24027">
        <ele>126.7</ele>
        <time>2022-06-28T12:42:00Z</time>
      </trkpt>
      <trkpt lat="48.7953" lon="2.24038">
        <ele>127.4</ele>
        <time>2022-06-28T12:42:05Z</time>
      </trkpt>
      <trkpt lat="48.79536" lon="2.24045">
        <ele>127.3</ele>
        <time>2022-06-28T12:42:12Z</time>
      </trkpt>
      <trkpt lat="48.79538" lon="2.24056">
        <ele>127.7</ele>
        <time>2022-06-28T12:42:17Z</time>
      </trkpt>
      <trkpt lat="48.79538" lon="2.24066">
        <ele>128.4</ele>
        <time>2022-06-28T12:42:22Z</time>
      </trkpt>
      <trkpt lat="48.79537" lon="2.24076">
        <ele>129.1</ele>
        <time>2022-06-28T12:42:30Z</time>
      </trkpt>
      <trkpt lat="48.79539" lon="2.24088">
        <ele>129.6</ele>
        <time>2022-06-28T12:42:50Z</time>
      </trkpt>
      <trkpt lat="48.79539" lon="2.241">
        <ele>130.2</ele>
        <time>2022-06-28T12:43:20Z</time>
      </trkpt>
      <trkpt lat="48.79534" lon="2.24122">
        <ele>132.1</ele>
        <time>2022-06-28T12:43:53Z</time>
      </trkpt>
      <trkpt lat="48.79541" lon="2.24116">
        <ele>130.9</ele>
        <time>2022-06-28T12:44:09Z</time>
      </trkpt>
      <trkpt lat="48.79548" lon="2.24114">
        <ele>129.8</ele>
        <time>2022-06-28T12:44:22Z</time>
      </trkpt>
      <trkpt lat="48.79554" lon="2.24119">
        <ele>129.3</ele>
        <time>2022-06-28T12:44:28Z</time>
      </trkpt>
      <trkpt lat="48.7956" lon="2.24124">
        <ele>128.7</ele>
        <time>2022-06-28T12:44:34Z</time>
      </trkpt>
      <trkpt lat="48.79554" lon="2.24123">
        <ele>129.5</ele>
        <time>2022-06-28T12:45:10Z</time>
      </trkpt>
      <trkpt lat="48.79548" lon="2.24131">
        <ele>130.7</ele>
        <time>2022-06-28T12:45:16Z</time>
      </trkpt>
      <trkpt lat="48.79547" lon="2.24143">
        <ele>131.4</ele>
        <time>2022-06-28T12:45:28Z</time>
      </trkpt>
      <trkpt lat="48.79543" lon="2.24152">
        <ele>132.5</ele>
        <time>2022-06-28T12:45:42Z</time>
      </trkpt>
      <trkpt lat="48.79539" lon="2.24161">
        <ele>133.6</ele>
        <time>2022-06-28T12:45:49Z</time>
      </trkpt>
      <trkpt lat="48.79533" lon="2.24169">
        <ele>134.9</ele>
        <time>2022-06-28T12:46:05Z</time>
      </trkpt>
      <trkpt lat="48.79532" lon="2.24179">
        <ele>135.2</ele>
        <time>2022-06-28T12:46:12Z</time>
      </trkpt>
      <trkpt lat="48.79527" lon="2.24187">
        <ele>136</ele>
        <time>2022-06-28T12:46:21Z</time>
      </trkpt>
      <trkpt lat="48.79523" lon="2.24195">
        <ele>136.6</ele>
        <time>2022-06-28T12:46:29Z</time>
      </trkpt>
      <trkpt lat="48.79521" lon="2.24205">
        <ele>137</ele>
        <time>2022-06-28T12:46:38Z</time>
      </trkpt>
      <trkpt lat="48.79516" lon="2.24213">
        <ele>137.6</ele>
        <time>2022-06-28T12:46:43Z</time>
      </trkpt>
      <trkpt lat="48.79514" lon="2.24224">
        <ele>137.8</ele>
        <time>2022-06-28T12:46:49Z</time>
      </trkpt>
      <trkpt lat="48.79515" lon="2.24235">
        <ele>137.7</ele>
        <time>2022-06-28T12:46:54Z</time>
      </trkpt>
      <trkpt lat="48.79512" lon="2.24244">
        <ele>138</ele>
        <time>2022-06-28T12:46:59Z</time>
      </trkpt>
      <trkpt lat="48.7951" lon="2.24255">
        <ele>138.1</ele>
        <time>2022-06-28T12:47:05Z</time>
      </trkpt>
      <trkpt lat="48.79507" lon="2.24265">
        <ele>138.2</ele>
        <time>2022-06-28T12:47:10Z</time>
      </trkpt>
      <trkpt lat="48.79509" lon="2.24275">
        <ele>137.9</ele>
        <time>2022-06-28T12:47:16Z</time>
      </trkpt>
      <trkpt lat="48.79516" lon="2.24277">
        <ele>137.3</ele>
        <time>2022-06-28T12:47:26Z</time>
      </trkpt>
      <trkpt lat="48.79524" lon="2.24277">
        <ele>136.7</ele>
        <time>2022-06-28T12:47:31Z</time>
      </trkpt>
      <trkpt lat="48.79531" lon="2.2428">
        <ele>136</ele>
        <time>2022-06-28T12:47:46Z</time>
      </trkpt>
      <trkpt lat="48.79526" lon="2.24273">
        <ele>136.5</ele>
        <time>2022-06-28T12:48:00Z</time>
      </trkpt>
      <trkpt lat="48.79527" lon="2.2429">
        <ele>136.3</ele>
        <time>2022-06-28T12:48:31Z</time>
      </trkpt>
      <trkpt lat="48.79519" lon="2.24289">
        <ele>136.9</ele>
        <time>2022-06-28T12:48:54Z</time>
      </trkpt>
      <trkpt lat="48.79525" lon="2.24268">
        <ele>136.7</ele>
        <time>2022-06-28T12:49:19Z</time>
      </trkpt>
      <trkpt lat="48.7954" lon="2.24257">
        <ele>135.6</ele>
        <time>2022-06-28T12:49:47Z</time>
      </trkpt>
      <trkpt lat="48.79535" lon="2.24266">
        <ele>135.9</ele>
        <time>2022-06-28T12:49:54Z</time>
      </trkpt>
      <trkpt lat="48.79533" lon="2.24256">
        <ele>136.2</ele>
        <time>2022-06-28T12:50:15Z</time>
      </trkpt>
      <trkpt lat="48.79539" lon="2.24249">
        <ele>135.7</ele>
        <time>2022-06-28T12:50:21Z</time>
      </trkpt>
      <trkpt lat="48.79543" lon="2.2424">
        <ele>135.1</ele>
        <time>2022-06-28T12:50:28Z</time>
      </trkpt>
      <trkpt lat="48.79539" lon="2.24231">
        <ele>135.3</ele>
        <time>2022-06-28T12:50:35Z</time>
      </trkpt>
      <trkpt lat="48.79544" lon="2.24222">
        <ele>134.6</ele>
        <time>2022-06-28T12:50:42Z</time>
      </trkpt>
      <trkpt lat="48.79545" lon="2.24211">
        <ele>134.2</ele>
        <time>2022-06-28T12:50:49Z</time>
      </trkpt>
      <trkpt lat="48.79547" lon="2.24201">
        <ele>133.7</ele>
        <time>2022-06-28T12:50:55Z</time>
      </trkpt>
      <trkpt lat="48.79545" lon="2.24191">
        <ele>133.6</ele>
        <time>2022-06-28T12:51:01Z</time>
      </trkpt>
      <trkpt lat="48.79546" lon="2.2418">
        <ele>133.2</ele>
        <time>2022-06-28T12:51:06Z</time>
      </trkpt>
      <trkpt lat="48.79548" lon="2.2417">
        <ele>132.6</ele>
        <time>2022-06-28T12:51:16Z</time>
      </trkpt>
      <trkpt lat="48.79552" lon="2.24159">
        <ele>131.5</ele>
        <time>2022-06-28T12:51:25Z</time>
      </trkpt>
      <trkpt lat="48.79551" lon="2.24148">
        <ele>131.1</ele>
        <time>2022-06-28T12:51:32Z</time>
      </trkpt>
      <trkpt lat="48.79557" lon="2.24139">
        <ele>129.8</ele>
        <time>2022-06-28T12:51:38Z</time>
      </trkpt>
      <trkpt lat="48.79562" lon="2.24133">
        <ele>128.8</ele>
        <time>2022-06-28T12:51:43Z</time>
      </trkpt>
      <trkpt lat="48.79564" lon="2.2412">
        <ele>127.9</ele>
        <time>2022-06-28T12:51:53Z</time>
      </trkpt>
      <trkpt lat="48.79567" lon="2.2411">
        <ele>127.1</ele>
        <time>2022-06-28T12:51:58Z</time>
      </trkpt>
      <trkpt lat="48.79573" lon="2.24105">
        <ele>126.1</ele>
        <time>2022-06-28T12:52:04Z</time>
      </trkpt>
      <trkpt lat="48.79579" lon="2.24097">
        <ele>125</ele>
        <time>2022-06-28T12:52:09Z</time>
      </trkpt>
      <trkpt lat="48.79591" lon="2.24091">
        <ele>123.9</ele>
        <time>2022-06-28T12:52:14Z</time>
      </trkpt>
      <trkpt lat="48.79595" lon="2.24081">
        <ele>123.4</ele>
        <time>2022-06-28T12:52:22Z</time>
      </trkpt>
      <trkpt lat="48.79601" lon="2.24074">
        <ele>122.9</ele>
        <time>2022-06-28T12:52:31Z</time>
      </trkpt>
      <trkpt lat="48.79607" lon="2.24066">
        <ele>122.4</ele>
        <time>2022-06-28T12:52:41Z</time>
      </trkpt>
      <trkpt lat="48.79612" lon="2.24058">
        <ele>122</ele>
        <time>2022-06-28T12:52:47Z</time>
      </trkpt>
      <trkpt lat="48.79618" lon="2.24051">
        <ele>121.7</ele>
        <time>2022-06-28T12:52:52Z</time>
      </trkpt>
      <trkpt lat="48.79624" lon="2.24044">
        <ele>121.3</ele>
        <time>2022-06-28T12:52:57Z</time>
      </trkpt>
      <trkpt lat="48.79631" lon="2.24042">
        <ele>121.1</ele>
        <time>2022-06-28T12:53:04Z</time>
      </trkpt>
      <trkpt lat="48.79636" lon="2.24034">
        <ele>120.8</ele>
        <time>2022-06-28T12:53:10Z</time>
      </trkpt>
      <trkpt lat="48.79639" lon="2.24025">
        <ele>120.6</ele>
        <time>2022-06-28T12:53:16Z</time>
      </trkpt>
      <trkpt lat="48.79645" lon="2.24018">
        <ele>120.4</ele>
        <time>2022-06-28T12:53:22Z</time>
      </trkpt>
      <trkpt lat="48.79652" lon="2.24014">
        <ele>120.3</ele>
        <time>2022-06-28T12:53:27Z</time>
      </trkpt>
      <trkpt lat="48.79658" lon="2.2401">
        <ele>120.1</ele>
        <time>2022-06-28T12:53:32Z</time>
      </trkpt>
      <trkpt lat="48.79661" lon="2.24">
        <ele>120.1</ele>
        <time>2022-06-28T12:53:38Z</time>
      </trkpt>
      <trkpt lat="48.79666" lon="2.23993">
        <ele>119.9</ele>
        <time>2022-06-28T12:53:44Z</time>
      </trkpt>
      <trkpt lat="48.79672" lon="2.23988">
        <ele>119.8</ele>
        <time>2022-06-28T12:53:52Z</time>
      </trkpt>
      <trkpt lat="48.79679" lon="2.23983">
        <ele>119.6</ele>
        <time>2022-06-28T12:54:00Z</time>
      </trkpt>
      <trkpt lat="48.79666" lon="2.23974">
        <ele>119.7</ele>
        <time>2022-06-28T12:54:43Z</time>
      </trkpt>
      <trkpt lat="48.79673" lon="2.23971">
        <ele>119.5</ele>
        <time>2022-06-28T12:55:07Z</time>
      </trkpt>
      <trkpt lat="48.79681" lon="2.23968">
        <ele>119.2</ele>
        <time>2022-06-28T12:55:12Z</time>
      </trkpt>
      <trkpt lat="48.79689" lon="2.23963">
        <ele>118.8</ele>
        <time>2022-06-28T12:55:17Z</time>
      </trkpt>
      <trkpt lat="48.79696" lon="2.23957">
        <ele>118.4</ele>
        <time>2022-06-28T12:55:22Z</time>
      </trkpt>
      <trkpt lat="48.79703" lon="2.23953">
        <ele>118</ele>
        <time>2022-06-28T12:55:28Z</time>
      </trkpt>
      <trkpt lat="48.79709" lon="2.23948">
        <ele>117.5</ele>
        <time>2022-06-28T12:55:34Z</time>
      </trkpt>
      <trkpt lat="48.79714" lon="2.23941">
        <ele>116.9</ele>
        <time>2022-06-28T12:55:39Z</time>
      </trkpt>
      <trkpt lat="48.79721" lon="2.23941">
        <ele>116.5</ele>
        <time>2022-06-28T12:55:44Z</time>
      </trkpt>
      <trkpt lat="48.79725" lon="2.23933">
        <ele>115.8</ele>
        <time>2022-06-28T12:55:49Z</time>
      </trkpt>
      <trkpt lat="48.79732" lon="2.23929">
        <ele>115.1</ele>
        <time>2022-06-28T12:55:56Z</time>
      </trkpt>
      <trkpt lat="48.79734" lon="2.23919">
        <ele>114.3</ele>
        <time>2022-06-28T12:56:06Z</time>
      </trkpt>
      <trkpt lat="48.79741" lon="2.23912">
        <ele>113.4</ele>
        <time>2022-06-28T12:56:13Z</time>
      </trkpt>
      <trkpt lat="48.79748" lon="2.2391">
        <ele>112.8</ele>
        <time>2022-06-28T12:56:19Z</time>
      </trkpt>
      <trkpt lat="48.79734" lon="2.23907">
        <ele>113.8</ele>
        <time>2022-06-28T12:56:55Z</time>
      </trkpt>
      <trkpt lat="48.79743" lon="2.23903">
        <ele>112.9</ele>
        <time>2022-06-28T12:57:29Z</time>
      </trkpt>
      <trkpt lat="48.79749" lon="2.23898">
        <ele>112.2</ele>
        <time>2022-06-28T12:57:53Z</time>
      </trkpt>
      <trkpt lat="48.79742" lon="2.23889">
        <ele>112.4</ele>
        <time>2022-06-28T12:58:25Z</time>
      </trkpt>
      <trkpt lat="48.79738" lon="2.23878">
        <ele>112.3</ele>
        <time>2022-06-28T12:58:33Z</time>
      </trkpt>
      <trkpt lat="48.79749" lon="2.23871">
        <ele>110.9</ele>
        <time>2022-06-28T12:59:26Z</time>
      </trkpt>
      <trkpt lat="48.79747" lon="2.23884">
        <ele>111.7</ele>
        <time>2022-06-28T12:59:48Z</time>
      </trkpt>
      <trkpt lat="48.79755" lon="2.23885">
        <ele>111.5</ele>
        <time>2022-06-28T13:00:36Z</time>
      </trkpt>
      <trkpt lat="48.79762" lon="2.23889">
        <ele>111.7</ele>
        <time>2022-06-28T13:01:10Z</time>
      </trkpt>
      <trkpt lat="48.79768" lon="2.23891">
        <ele>111.9</ele>
        <time>2022-06-28T13:01:18Z</time>
      </trkpt>
      <trkpt lat="48.79776" lon="2.23889">
        <ele>111.8</ele>
        <time>2022-06-28T13:01:23Z</time>
      </trkpt>
      <trkpt lat="48.79779" lon="2.23878">
        <ele>111</ele>
        <time>2022-06-28T13:01:31Z</time>
      </trkpt>
      <trkpt lat="48.79786" lon="2.23877">
        <ele>110.9</ele>
        <time>2022-06-28T13:01:41Z</time>
      </trkpt>
      <trkpt lat="48.79792" lon="2.23881">
        <ele>111.2</ele>
        <time>2022-06-28T13:01:49Z</time>
      </trkpt>
      <trkpt lat="48.798" lon="2.23886">
        <ele>111.6</ele>
        <time>2022-06-28T13:01:54Z</time>
      </trkpt>
      <trkpt lat="48.79806" lon="2.2389">
        <ele>112</ele>
        <time>2022-06-28T13:02:03Z</time>
      </trkpt>
      <trkpt lat="48.79812" lon="2.23897">
        <ele>112.7</ele>
        <time>2022-06-28T13:02:08Z</time>
      </trkpt>
      <trkpt lat="48.79818" lon="2.23905">
        <ele>113.5</ele>
        <time>2022-06-28T13:02:42Z</time>
      </trkpt>
      <trkpt lat="48.79825" lon="2.23907">
        <ele>113.8</ele>
        <time>2022-06-28T13:02:50Z</time>
      </trkpt>
      <trkpt lat="48.79832" lon="2.23908">
        <ele>114</ele>
        <time>2022-06-28T13:02:55Z</time>
      </trkpt>
      <trkpt lat="48.79838" lon="2.23912">
        <ele>114.8</ele>
        <time>2022-06-28T13:03:02Z</time>
      </trkpt>
      <trkpt lat="48.79844" lon="2.23917">
        <ele>115.8</ele>
        <time>2022-06-28T13:03:10Z</time>
      </trkpt>
      <trkpt lat="48.79851" lon="2.23919">
        <ele>116.5</ele>
        <time>2022-06-28T13:03:21Z</time>
      </trkpt>
      <trkpt lat="48.79857" lon="2.23923">
        <ele>117.3</ele>
        <time>2022-06-28T13:04:05Z</time>
      </trkpt>
      <trkpt lat="48.79863" lon="2.23927">
        <ele>118</ele>
        <time>2022-06-28T13:04:10Z</time>
      </trkpt>
      <trkpt lat="48.7987" lon="2.2393">
        <ele>118.8</ele>
        <time>2022-06-28T13:04:15Z</time>
      </trkpt>
      <trkpt lat="48.79876" lon="2.23935">
        <ele>119.7</ele>
        <time>2022-06-28T13:04:21Z</time>
      </trkpt>
      <trkpt lat="48.79883" lon="2.2394">
        <ele>120.7</ele>
        <time>2022-06-28T13:04:30Z</time>
      </trkpt>
      <trkpt lat="48.79889" lon="2.23944">
        <ele>121.5</ele>
        <time>2022-06-28T13:04:39Z</time>
      </trkpt>
      <trkpt lat="48.79894" lon="2.2395">
        <ele>122.5</ele>
        <time>2022-06-28T13:04:47Z</time>
      </trkpt>
      <trkpt lat="48.799" lon="2.23957">
        <ele>123.6</ele>
        <time>2022-06-28T13:04:53Z</time>
      </trkpt>
      <trkpt lat="48.79905" lon="2.23965">
        <ele>124.7</ele>
        <time>2022-06-28T13:05:01Z</time>
      </trkpt>
      <trkpt lat="48.7991" lon="2.23971">
        <ele>125.7</ele>
        <time>2022-06-28T13:05:06Z</time>
      </trkpt>
      <trkpt lat="48.79916" lon="2.23976">
        <ele>126.6</ele>
        <time>2022-06-28T13:05:13Z</time>
      </trkpt>
      <trkpt lat="48.79921" lon="2.23986">
        <ele>127.4</ele>
        <time>2022-06-28T13:05:19Z</time>
      </trkpt>
      <trkpt lat="48.79921" lon="2.23997">
        <ele>128.5</ele>
        <time>2022-06-28T13:05:25Z</time>
      </trkpt>
      <trkpt lat="48.79926" lon="2.24006">
        <ele>128.6</ele>
        <time>2022-06-28T13:05:32Z</time>
      </trkpt>
      <trkpt lat="48.79932" lon="2.24011">
        <ele>128.5</ele>
        <time>2022-06-28T13:05:38Z</time>
      </trkpt>
      <trkpt lat="48.79936" lon="2.24019">
        <ele>128.5</ele>
        <time>2022-06-28T13:05:44Z</time>
      </trkpt>
      <trkpt lat="48.79939" lon="2.24027">
        <ele>128.5</ele>
        <time>2022-06-28T13:05:51Z</time>
      </trkpt>
      <trkpt lat="48.79947" lon="2.24029">
        <ele>128.1</ele>
        <time>2022-06-28T13:05:58Z</time>
      </trkpt>
      <trkpt lat="48.79954" lon="2.2403">
        <ele>127.7</ele>
        <time>2022-06-28T13:06:03Z</time>
      </trkpt>
      <trkpt lat="48.7996" lon="2.24034">
        <ele>127.4</ele>
        <time>2022-06-28T13:06:09Z</time>
      </trkpt>
      <trkpt lat="48.79967" lon="2.24036">
        <ele>127</ele>
        <time>2022-06-28T13:06:15Z</time>
      </trkpt>
      <trkpt lat="48.79974" lon="2.2404">
        <ele>126.7</ele>
        <time>2022-06-28T13:06:23Z</time>
      </trkpt>
      <trkpt lat="48.79981" lon="2.24041">
        <ele>126.2</ele>
        <time>2022-06-28T13:06:28Z</time>
      </trkpt>
      <trkpt lat="48.79987" lon="2.24045">
        <ele>125.9</ele>
        <time>2022-06-28T13:06:39Z</time>
      </trkpt>
      <trkpt lat="48.79993" lon="2.24048">
        <ele>125.6</ele>
        <time>2022-06-28T13:06:46Z</time>
      </trkpt>
      <trkpt lat="48.79999" lon="2.24053">
        <ele>125.3</ele>
        <time>2022-06-28T13:06:51Z</time>
      </trkpt>
      <trkpt lat="48.80006" lon="2.2406">
        <ele>125.3</ele>
        <time>2022-06-28T13:06:58Z</time>
      </trkpt>
      <trkpt lat="48.80009" lon="2.24069">
        <ele>125.5</ele>
        <time>2022-06-28T13:07:05Z</time>
      </trkpt>
      <trkpt lat="48.80015" lon="2.24072">
        <ele>125.6</ele>
        <time>2022-06-28T13:07:15Z</time>
      </trkpt>
      <trkpt lat="48.80022" lon="2.24075">
        <ele>125.6</ele>
        <time>2022-06-28T13:07:20Z</time>
      </trkpt>
      <trkpt lat="48.80029" lon="2.24077">
        <ele>125.7</ele>
        <time>2022-06-28T13:07:28Z</time>
      </trkpt>
      <trkpt lat="48.80036" lon="2.24081">
        <ele>125.9</ele>
        <time>2022-06-28T13:07:37Z</time>
      </trkpt>
      <trkpt lat="48.80042" lon="2.24086">
        <ele>126.2</ele>
        <time>2022-06-28T13:07:42Z</time>
      </trkpt>
      <trkpt lat="48.80046" lon="2.24094">
        <ele>126.6</ele>
        <time>2022-06-28T13:07:49Z</time>
      </trkpt>
      <trkpt lat="48.8005" lon="2.24104">
        <ele>127.2</ele>
        <time>2022-06-28T13:07:55Z</time>
      </trkpt>
      <trkpt lat="48.80054" lon="2.24114">
        <ele>127.8</ele>
        <time>2022-06-28T13:08:00Z</time>
      </trkpt>
      <trkpt lat="48.80056" lon="2.24124">
        <ele>128.4</ele>
        <time>2022-06-28T13:08:06Z</time>
      </trkpt>
      <trkpt lat="48.80059" lon="2.24133">
        <ele>129</ele>
        <time>2022-06-28T13:08:12Z</time>
      </trkpt>
      <trkpt lat="48.80063" lon="2.24142">
        <ele>129.5</ele>
        <time>2022-06-28T13:08:17Z</time>
      </trkpt>
      <trkpt lat="48.80066" lon="2.24151">
        <ele>130.1</ele>
        <time>2022-06-28T13:08:23Z</time>
      </trkpt>
      <trkpt lat="48.80073" lon="2.24157">
        <ele>130.4</ele>
        <time>2022-06-28T13:08:31Z</time>
      </trkpt>
      <trkpt lat="48.80074" lon="2.24166">
        <ele>131</ele>
        <time>2022-06-28T13:08:37Z</time>
      </trkpt>
      <trkpt lat="48.80081" lon="2.2417">
        <ele>131.2</ele>
        <time>2022-06-28T13:08:44Z</time>
      </trkpt>
      <trkpt lat="48.80088" lon="2.24174">
        <ele>131.1</ele>
        <time>2022-06-28T13:08:50Z</time>
      </trkpt>
      <trkpt lat="48.80092" lon="2.24182">
        <ele>131.4</ele>
        <time>2022-06-28T13:09:02Z</time>
      </trkpt>
      <trkpt lat="48.80099" lon="2.24187">
        <ele>131.4</ele>
        <time>2022-06-28T13:09:29Z</time>
      </trkpt>
      <trkpt lat="48.80105" lon="2.2419">
        <ele>131.3</ele>
        <time>2022-06-28T13:09:38Z</time>
      </trkpt>
      <trkpt lat="48.80112" lon="2.24192">
        <ele>131.1</ele>
        <time>2022-06-28T13:09:45Z</time>
      </trkpt>
      <trkpt lat="48.80119" lon="2.24196">
        <ele>131.1</ele>
        <time>2022-06-28T13:09:51Z</time>
      </trkpt>
      <trkpt lat="48.80125" lon="2.24201">
        <ele>131.3</ele>
        <time>2022-06-28T13:09:57Z</time>
      </trkpt>
      <trkpt lat="48.80131" lon="2.24203">
        <ele>131.2</ele>
        <time>2022-06-28T13:10:04Z</time>
      </trkpt>
      <trkpt lat="48.80141" lon="2.24211">
        <ele>131.7</ele>
        <time>2022-06-28T13:10:22Z</time>
      </trkpt>
      <trkpt lat="48.80148" lon="2.24211">
        <ele>131.5</ele>
        <time>2022-06-28T13:10:29Z</time>
      </trkpt>
      <trkpt lat="48.80155" lon="2.24211">
        <ele>131.2</ele>
        <time>2022-06-28T13:10:36Z</time>
      </trkpt>
      <trkpt lat="48.80162" lon="2.24211">
        <ele>131</ele>
        <time>2022-06-28T13:10:42Z</time>
      </trkpt>
      <trkpt lat="48.80168" lon="2.24208">
        <ele>130.4</ele>
        <time>2022-06-28T13:10:47Z</time>
      </trkpt>
      <trkpt lat="48.80176" lon="2.24204">
        <ele>129.4</ele>
        <time>2022-06-28T13:10:52Z</time>
      </trkpt>
      <trkpt lat="48.80182" lon="2.24198">
        <ele>128.2</ele>
        <time>2022-06-28T13:10:57Z</time>
      </trkpt>
      <trkpt lat="48.80186" lon="2.2419">
        <ele>126.9</ele>
        <time>2022-06-28T13:11:05Z</time>
      </trkpt>
      <trkpt lat="48.8019" lon="2.24182">
        <ele>125.6</ele>
        <time>2022-06-28T13:11:14Z</time>
      </trkpt>
      <trkpt lat="48.80194" lon="2.24173">
        <ele>124.2</ele>
        <time>2022-06-28T13:11:20Z</time>
      </trkpt>
      <trkpt lat="48.80197" lon="2.24164">
        <ele>122.9</ele>
        <time>2022-06-28T13:11:26Z</time>
      </trkpt>
      <trkpt lat="48.80203" lon="2.24157">
        <ele>121.9</ele>
        <time>2022-06-28T13:11:32Z</time>
      </trkpt>
      <trkpt lat="48.80211" lon="2.24153">
        <ele>120.9</ele>
        <time>2022-06-28T13:11:39Z</time>
      </trkpt>
      <trkpt lat="48.80218" lon="2.2415">
        <ele>120.2</ele>
        <time>2022-06-28T13:11:44Z</time>
      </trkpt>
      <trkpt lat="48.80225" lon="2.24149">
        <ele>119.6</ele>
        <time>2022-06-28T13:11:49Z</time>
      </trkpt>
      <trkpt lat="48.80232" lon="2.24148">
        <ele>119</ele>
        <time>2022-06-28T13:11:56Z</time>
      </trkpt>
      <trkpt lat="48.80239" lon="2.24149">
        <ele>118.6</ele>
        <time>2022-06-28T13:12:03Z</time>
      </trkpt>
      <trkpt lat="48.80246" lon="2.24151">
        <ele>118.4</ele>
        <time>2022-06-28T13:12:11Z</time>
      </trkpt>
      <trkpt lat="48.80254" lon="2.24153">
        <ele>118.2</ele>
        <time>2022-06-28T13:12:16Z</time>
      </trkpt>
      <trkpt lat="48.80261" lon="2.24157">
        <ele>118.4</ele>
        <time>2022-06-28T13:12:23Z</time>
      </trkpt>
      <trkpt lat="48.80268" lon="2.2416">
        <ele>118.6</ele>
        <time>2022-06-28T13:12:29Z</time>
      </trkpt>
      <trkpt lat="48.80275" lon="2.24159">
        <ele>118.2</ele>
        <time>2022-06-28T13:12:36Z</time>
      </trkpt>
      <trkpt lat="48.8028" lon="2.24165">
        <ele>118.7</ele>
        <time>2022-06-28T13:12:42Z</time>
      </trkpt>
      <trkpt lat="48.80287" lon="2.24171">
        <ele>119.2</ele>
        <time>2022-06-28T13:12:47Z</time>
      </trkpt>
      <trkpt lat="48.80294" lon="2.24174">
        <ele>119.3</ele>
        <time>2022-06-28T13:12:53Z</time>
      </trkpt>
      <trkpt lat="48.80301" lon="2.24178">
        <ele>119.5</ele>
        <time>2022-06-28T13:12:58Z</time>
      </trkpt>
      <trkpt lat="48.80307" lon="2.24179">
        <ele>119.4</ele>
        <time>2022-06-28T13:13:09Z</time>
      </trkpt>
      <trkpt lat="48.80312" lon="2.24187">
        <ele>120.1</ele>
        <time>2022-06-28T13:13:15Z</time>
      </trkpt>
      <trkpt lat="48.80316" lon="2.24195">
        <ele>120.8</ele>
        <time>2022-06-28T13:13:20Z</time>
      </trkpt>
      <trkpt lat="48.80323" lon="2.24206">
        <ele>121.7</ele>
        <time>2022-06-28T13:13:25Z</time>
      </trkpt>
      <trkpt lat="48.80328" lon="2.24211">
        <ele>122</ele>
        <time>2022-06-28T13:13:30Z</time>
      </trkpt>
      <trkpt lat="48.80334" lon="2.24218">
        <ele>122.5</ele>
        <time>2022-06-28T13:13:37Z</time>
      </trkpt>
      <trkpt lat="48.80339" lon="2.24225">
        <ele>122.8</ele>
        <time>2022-06-28T13:13:42Z</time>
      </trkpt>
      <trkpt lat="48.80345" lon="2.24232">
        <ele>123</ele>
        <time>2022-06-28T13:13:48Z</time>
      </trkpt>
      <trkpt lat="48.8035" lon="2.24239">
        <ele>123.2</ele>
        <time>2022-06-28T13:13:53Z</time>
      </trkpt>
      <trkpt lat="48.80355" lon="2.24246">
        <ele>123.5</ele>
        <time>2022-06-28T13:13:58Z</time>
      </trkpt>
      <trkpt lat="48.8036" lon="2.24252">
        <ele>123.7</ele>
        <time>2022-06-28T13:14:03Z</time>
      </trkpt>
      <trkpt lat="48.80364" lon="2.24261">
        <ele>124.2</ele>
        <time>2022-06-28T13:14:09Z</time>
      </trkpt>
      <trkpt lat="48.80368" lon="2.24269">
        <ele>124.7</ele>
        <time>2022-06-28T13:14:14Z</time>
      </trkpt>
      <trkpt lat="48.80374" lon="2.24273">
        <ele>124.5</ele>
        <time>2022-06-28T13:14:19Z</time>
      </trkpt>
      <trkpt lat="48.80379" lon="2.24281">
        <ele>124.7</ele>
        <time>2022-06-28T13:14:25Z</time>
      </trkpt>
      <trkpt lat="48.80384" lon="2.24289">
        <ele>125</ele>
        <time>2022-06-28T13:14:30Z</time>
      </trkpt>
      <trkpt lat="48.8039" lon="2.24292">
        <ele>124.6</ele>
        <time>2022-06-28T13:14:42Z</time>
      </trkpt>
      <trkpt lat="48.80395" lon="2.24299">
        <ele>124.7</ele>
        <time>2022-06-28T13:14:49Z</time>
      </trkpt>
      <trkpt lat="48.80401" lon="2.24303">
        <ele>124.3</ele>
        <time>2022-06-28T13:14:57Z</time>
      </trkpt>
      <trkpt lat="48.80407" lon="2.24295">
        <ele>122.9</ele>
        <time>2022-06-28T13:15:13Z</time>
      </trkpt>
      <trkpt lat="48.80412" lon="2.24288">
        <ele>121.7</ele>
        <time>2022-06-28T13:15:18Z</time>
      </trkpt>
      <trkpt lat="48.80416" lon="2.24281">
        <ele>120.7</ele>
        <time>2022-06-28T13:15:24Z</time>
      </trkpt>
      <trkpt lat="48.80417" lon="2.2427">
        <ele>119.6</ele>
        <time>2022-06-28T13:15:32Z</time>
      </trkpt>
      <trkpt lat="48.80421" lon="2.2426">
        <ele>118.3</ele>
        <time>2022-06-28T13:15:38Z</time>
      </trkpt>
      <trkpt lat="48.80425" lon="2.24251">
        <ele>117.2</ele>
        <time>2022-06-28T13:15:44Z</time>
      </trkpt>
      <trkpt lat="48.80428" lon="2.24243">
        <ele>116.1</ele>
        <time>2022-06-28T13:15:49Z</time>
      </trkpt>
      <trkpt lat="48.80429" lon="2.24233">
        <ele>115.1</ele>
        <time>2022-06-28T13:15:57Z</time>
      </trkpt>
      <trkpt lat="48.80432" lon="2.24222">
        <ele>113.8</ele>
        <time>2022-06-28T13:16:04Z</time>
      </trkpt>
      <trkpt lat="48.80429" lon="2.24213">
        <ele>113.2</ele>
        <time>2022-06-28T13:16:16Z</time>
      </trkpt>
      <trkpt lat="48.80434" lon="2.24206">
        <ele>112.1</ele>
        <time>2022-06-28T13:16:22Z</time>
      </trkpt>
      <trkpt lat="48.80441" lon="2.2421">
        <ele>111.8</ele>
        <time>2022-06-28T13:16:31Z</time>
      </trkpt>
      <trkpt lat="48.80445" lon="2.24217">
        <ele>112</ele>
        <time>2022-06-28T13:16:37Z</time>
      </trkpt>
      <trkpt lat="48.80449" lon="2.24226">
        <ele>112.4</ele>
        <time>2022-06-28T13:16:45Z</time>
      </trkpt>
      <trkpt lat="48.80455" lon="2.24231">
        <ele>112.2</ele>
        <time>2022-06-28T13:16:53Z</time>
      </trkpt>
      <trkpt lat="48.80453" lon="2.24241">
        <ele>113.3</ele>
        <time>2022-06-28T13:17:01Z</time>
      </trkpt>
      <trkpt lat="48.8046" lon="2.24238">
        <ele>112.3</ele>
        <time>2022-06-28T13:17:18Z</time>
      </trkpt>
      <trkpt lat="48.80467" lon="2.2424">
        <ele>111.7</ele>
        <time>2022-06-28T13:17:24Z</time>
      </trkpt>
      <trkpt lat="48.8047" lon="2.2425">
        <ele>112.2</ele>
        <time>2022-06-28T13:17:36Z</time>
      </trkpt>
      <trkpt lat="48.80478" lon="2.24253">
        <ele>111.5</ele>
        <time>2022-06-28T13:17:44Z</time>
      </trkpt>
      <trkpt lat="48.80484" lon="2.24253">
        <ele>110.9</ele>
        <time>2022-06-28T13:17:54Z</time>
      </trkpt>
      <trkpt lat="48.80485" lon="2.24263">
        <ele>111.2</ele>
        <time>2022-06-28T13:18:02Z</time>
      </trkpt>
      <trkpt lat="48.80487" lon="2.24274">
        <ele>111.4</ele>
        <time>2022-06-28T13:18:10Z</time>
      </trkpt>
      <trkpt lat="48.80491" lon="2.24283">
        <ele>111.3</ele>
        <time>2022-06-28T13:18:16Z</time>
      </trkpt>
      <trkpt lat="48.80492" lon="2.24294">
        <ele>111.7</ele>
        <time>2022-06-28T13:18:24Z</time>
      </trkpt>
      <trkpt lat="48.80493" lon="2.24304">
        <ele>111.9</ele>
        <time>2022-06-28T13:18:30Z</time>
      </trkpt>
      <trkpt lat="48.80491" lon="2.24313">
        <ele>112.6</ele>
        <time>2022-06-28T13:18:35Z</time>
      </trkpt>
      <trkpt lat="48.80484" lon="2.24319">
        <ele>113.8</ele>
        <time>2022-06-28T13:18:40Z</time>
      </trkpt>
      <trkpt lat="48.80479" lon="2.24327">
        <ele>115</ele>
        <time>2022-06-28T13:18:45Z</time>
      </trkpt>
      <trkpt lat="48.80475" lon="2.24334">
        <ele>115.9</ele>
        <time>2022-06-28T13:18:56Z</time>
      </trkpt>
      <trkpt lat="48.80473" lon="2.24344">
        <ele>116.9</ele>
        <time>2022-06-28T13:19:01Z</time>
      </trkpt>
      <trkpt lat="48.80469" lon="2.24353">
        <ele>118</ele>
        <time>2022-06-28T13:19:06Z</time>
      </trkpt>
      <trkpt lat="48.80467" lon="2.24364">
        <ele>119</ele>
        <time>2022-06-28T13:19:12Z</time>
      </trkpt>
      <trkpt lat="48.80471" lon="2.24373">
        <ele>118.9</ele>
        <time>2022-06-28T13:19:17Z</time>
      </trkpt>
      <trkpt lat="48.80478" lon="2.24376">
        <ele>118</ele>
        <time>2022-06-28T13:19:48Z</time>
      </trkpt>
      <trkpt lat="48.80472" lon="2.2437">
        <ele>118.6</ele>
        <time>2022-06-28T13:20:08Z</time>
      </trkpt>
      <trkpt lat="48.80474" lon="2.2436">
        <ele>117.7</ele>
        <time>2022-06-28T13:20:17Z</time>
      </trkpt>
      <trkpt lat="48.80477" lon="2.2435">
        <ele>116.6</ele>
        <time>2022-06-28T13:20:25Z</time>
      </trkpt>
      <trkpt lat="48.80481" lon="2.24339">
        <ele>115.3</ele>
        <time>2022-06-28T13:20:34Z</time>
      </trkpt>
      <trkpt lat="48.80485" lon="2.24331">
        <ele>114.2</ele>
        <time>2022-06-28T13:20:42Z</time>
      </trkpt>
      <trkpt lat="48.80487" lon="2.24321">
        <ele>113.5</ele>
        <time>2022-06-28T13:20:50Z</time>
      </trkpt>
      <trkpt lat="48.80492" lon="2.24329">
        <ele>113.1</ele>
        <time>2022-06-28T13:21:10Z</time>
      </trkpt>
      <trkpt lat="48.80499" lon="2.24329">
        <ele>112</ele>
        <time>2022-06-28T13:21:41Z</time>
      </trkpt>
      <trkpt lat="48.80489" lon="2.24324">
        <ele>113.3</ele>
        <time>2022-06-28T13:23:28Z</time>
      </trkpt>
      <trkpt lat="48.80491" lon="2.24314">
        <ele>112.6</ele>
        <time>2022-06-28T13:23:43Z</time>
      </trkpt>
      <trkpt lat="48.80496" lon="2.24307">
        <ele>111.6</ele>
        <time>2022-06-28T13:23:49Z</time>
      </trkpt>
      <trkpt lat="48.80503" lon="2.24306">
        <ele>110.8</ele>
        <time>2022-06-28T13:23:56Z</time>
      </trkpt>
      <trkpt lat="48.8051" lon="2.24306">
        <ele>110.4</ele>
        <time>2022-06-28T13:24:02Z</time>
      </trkpt>
      <trkpt lat="48.80515" lon="2.24298">
        <ele>109.8</ele>
        <time>2022-06-28T13:24:09Z</time>
      </trkpt>
      <trkpt lat="48.80508" lon="2.24294">
        <ele>110.1</ele>
        <time>2022-06-28T13:24:19Z</time>
      </trkpt>
      <trkpt lat="48.80505" lon="2.24284">
        <ele>109.9</ele>
        <time>2022-06-28T13:24:28Z</time>
      </trkpt>
      <trkpt lat="48.8051" lon="2.24277">
        <ele>109.3</ele>
        <time>2022-06-28T13:24:34Z</time>
      </trkpt>
      <trkpt lat="48.80516" lon="2.24273">
        <ele>108.7</ele>
        <time>2022-06-28T13:24:42Z</time>
      </trkpt>
      <trkpt lat="48.80524" lon="2.24266">
        <ele>107.9</ele>
        <time>2022-06-28T13:24:51Z</time>
      </trkpt>
      <trkpt lat="48.8053" lon="2.24261">
        <ele>107.3</ele>
        <time>2022-06-28T13:24:56Z</time>
      </trkpt>
      <trkpt lat="48.80539" lon="2.24258">
        <ele>106.5</ele>
        <time>2022-06-28T13:25:01Z</time>
      </trkpt>
      <trkpt lat="48.80546" lon="2.24262">
        <ele>106.2</ele>
        <time>2022-06-28T13:25:08Z</time>
      </trkpt>
      <trkpt lat="48.80538" lon="2.24257">
        <ele>106.6</ele>
        <time>2022-06-28T13:26:00Z</time>
      </trkpt>
      <trkpt lat="48.80543" lon="2.2425">
        <ele>105.9</ele>
        <time>2022-06-28T13:26:20Z</time>
      </trkpt>
      <trkpt lat="48.8055" lon="2.24248">
        <ele>105.2</ele>
        <time>2022-06-28T13:26:46Z</time>
      </trkpt>
      <trkpt lat="48.80555" lon="2.24256">
        <ele>105.3</ele>
        <time>2022-06-28T13:26:59Z</time>
      </trkpt>
      <trkpt lat="48.80557" lon="2.24243">
        <ele>104.2</ele>
        <time>2022-06-28T13:27:40Z</time>
      </trkpt>
      <trkpt lat="48.80557" lon="2.24232">
        <ele>103</ele>
        <time>2022-06-28T13:27:47Z</time>
      </trkpt>
      <trkpt lat="48.80562" lon="2.24223">
        <ele>101.6</ele>
        <time>2022-06-28T13:27:55Z</time>
      </trkpt>
      <trkpt lat="48.80569" lon="2.24221">
        <ele>100.8</ele>
        <time>2022-06-28T13:28:05Z</time>
      </trkpt>
      <trkpt lat="48.80576" lon="2.24221">
        <ele>100.2</ele>
        <time>2022-06-28T13:28:10Z</time>
      </trkpt>
      <trkpt lat="48.80583" lon="2.24223">
        <ele>99.8</ele>
        <time>2022-06-28T13:28:15Z</time>
      </trkpt>
      <trkpt lat="48.8059" lon="2.24219">
        <ele>99.1</ele>
        <time>2022-06-28T13:28:24Z</time>
      </trkpt>
      <trkpt lat="48.80595" lon="2.24211">
        <ele>98</ele>
        <time>2022-06-28T13:28:32Z</time>
      </trkpt>
      <trkpt lat="48.80601" lon="2.24207">
        <ele>97.3</ele>
        <time>2022-06-28T13:28:40Z</time>
      </trkpt>
      <trkpt lat="48.80608" lon="2.24203">
        <ele>96.6</ele>
        <time>2022-06-28T13:28:46Z</time>
      </trkpt>
      <trkpt lat="48.80615" lon="2.24205">
        <ele>96.6</ele>
        <time>2022-06-28T13:28:54Z</time>
      </trkpt>
      <trkpt lat="48.80619" lon="2.24213">
        <ele>97.5</ele>
        <time>2022-06-28T13:29:00Z</time>
      </trkpt>
      <trkpt lat="48.80613" lon="2.2422">
        <ele>98.6</ele>
        <time>2022-06-28T13:29:12Z</time>
      </trkpt>
      <trkpt lat="48.80611" lon="2.2423">
        <ele>99.9</ele>
        <time>2022-06-28T13:29:34Z</time>
      </trkpt>
      <trkpt lat="48.80606" lon="2.24239">
        <ele>101.1</ele>
        <time>2022-06-28T13:29:46Z</time>
      </trkpt>
      <trkpt lat="48.80605" lon="2.24251">
        <ele>102.5</ele>
        <time>2022-06-28T13:29:51Z</time>
      </trkpt>
      <trkpt lat="48.80602" lon="2.24261">
        <ele>103.1</ele>
        <time>2022-06-28T13:30:00Z</time>
      </trkpt>
      <trkpt lat="48.80599" lon="2.2427">
        <ele>103.6</ele>
        <time>2022-06-28T13:30:14Z</time>
      </trkpt>
      <trkpt lat="48.80606" lon="2.24271">
        <ele>103.5</ele>
        <time>2022-06-28T13:30:30Z</time>
      </trkpt>
      <trkpt lat="48.80612" lon="2.24276">
        <ele>103.7</ele>
        <time>2022-06-28T13:30:44Z</time>
      </trkpt>
      <trkpt lat="48.80616" lon="2.24267">
        <ele>103.1</ele>
        <time>2022-06-28T13:30:58Z</time>
      </trkpt>
      <trkpt lat="48.80619" lon="2.24257">
        <ele>102.5</ele>
        <time>2022-06-28T13:31:05Z</time>
      </trkpt>
      <trkpt lat="48.80621" lon="2.24248">
        <ele>101.8</ele>
        <time>2022-06-28T13:31:12Z</time>
      </trkpt>
      <trkpt lat="48.80627" lon="2.24242">
        <ele>100.9</ele>
        <time>2022-06-28T13:31:17Z</time>
      </trkpt>
      <trkpt lat="48.80626" lon="2.24231">
        <ele>99.6</ele>
        <time>2022-06-28T13:31:30Z</time>
      </trkpt>
      <trkpt lat="48.80631" lon="2.24222">
        <ele>98.3</ele>
        <time>2022-06-28T13:31:45Z</time>
      </trkpt>
      <trkpt lat="48.80634" lon="2.24213">
        <ele>97.1</ele>
        <time>2022-06-28T13:31:51Z</time>
      </trkpt>
      <trkpt lat="48.80632" lon="2.24202">
        <ele>95.7</ele>
        <time>2022-06-28T13:31:58Z</time>
      </trkpt>
      <trkpt lat="48.80627" lon="2.24196">
        <ele>95.1</ele>
        <time>2022-06-28T13:32:06Z</time>
      </trkpt>
      <trkpt lat="48.80623" lon="2.24186">
        <ele>94</ele>
        <time>2022-06-28T13:32:16Z</time>
      </trkpt>
      <trkpt lat="48.80624" lon="2.24175">
        <ele>92.6</ele>
        <time>2022-06-28T13:32:24Z</time>
      </trkpt>
      <trkpt lat="48.80625" lon="2.24165">
        <ele>91.4</ele>
        <time>2022-06-28T13:32:30Z</time>
      </trkpt>
      <trkpt lat="48.80622" lon="2.24154">
        <ele>90.5</ele>
        <time>2022-06-28T13:32:36Z</time>
      </trkpt>
      <trkpt lat="48.80617" lon="2.24146">
        <ele>89.9</ele>
        <time>2022-06-28T13:32:44Z</time>
      </trkpt>
      <trkpt lat="48.80621" lon="2.24136">
        <ele>88.9</ele>
        <time>2022-06-28T13:32:52Z</time>
      </trkpt>
      <trkpt lat="48.80627" lon="2.24131">
        <ele>88.2</ele>
        <time>2022-06-28T13:32:59Z</time>
      </trkpt>
      <trkpt lat="48.80635" lon="2.24129">
        <ele>87.8</ele>
        <time>2022-06-28T13:33:04Z</time>
      </trkpt>
      <trkpt lat="48.80641" lon="2.24123">
        <ele>87.1</ele>
        <time>2022-06-28T13:33:09Z</time>
      </trkpt>
      <trkpt lat="48.8065" lon="2.24119">
        <ele>86.5</ele>
        <time>2022-06-28T13:33:14Z</time>
      </trkpt>
      <trkpt lat="48.80656" lon="2.24112">
        <ele>85.7</ele>
        <time>2022-06-28T13:33:20Z</time>
      </trkpt>
      <trkpt lat="48.80662" lon="2.24107">
        <ele>85.1</ele>
        <time>2022-06-28T13:33:26Z</time>
      </trkpt>
      <trkpt lat="48.80669" lon="2.24106">
        <ele>84.8</ele>
        <time>2022-06-28T13:33:32Z</time>
      </trkpt>
      <trkpt lat="48.80675" lon="2.24109">
        <ele>84.8</ele>
        <time>2022-06-28T13:33:39Z</time>
      </trkpt>
      <trkpt lat="48.80682" lon="2.24113">
        <ele>84.8</ele>
        <time>2022-06-28T13:33:45Z</time>
      </trkpt>
      <trkpt lat="48.80688" lon="2.24114">
        <ele>84.6</ele>
        <time>2022-06-28T13:33:50Z</time>
      </trkpt>
      <trkpt lat="48.80695" lon="2.24111">
        <ele>84.1</ele>
        <time>2022-06-28T13:33:55Z</time>
      </trkpt>
      <trkpt lat="48.80702" lon="2.24114">
        <ele>84</ele>
        <time>2022-06-28T13:34:01Z</time>
      </trkpt>
      <trkpt lat="48.8071" lon="2.24111">
        <ele>83.4</ele>
        <time>2022-06-28T13:34:07Z</time>
      </trkpt>
      <trkpt lat="48.80716" lon="2.24117">
        <ele>83.6</ele>
        <time>2022-06-28T13:34:12Z</time>
      </trkpt>
      <trkpt lat="48.80724" lon="2.24124">
        <ele>83.7</ele>
        <time>2022-06-28T13:34:17Z</time>
      </trkpt>
      <trkpt lat="48.8073" lon="2.24124">
        <ele>83.4</ele>
        <time>2022-06-28T13:34:23Z</time>
      </trkpt>
      <trkpt lat="48.80738" lon="2.24131">
        <ele>83.5</ele>
        <time>2022-06-28T13:34:30Z</time>
      </trkpt>
      <trkpt lat="48.80744" lon="2.24136">
        <ele>83.5</ele>
        <time>2022-06-28T13:34:37Z</time>
      </trkpt>
      <trkpt lat="48.80753" lon="2.24141">
        <ele>83.4</ele>
        <time>2022-06-28T13:34:42Z</time>
      </trkpt>
      <trkpt lat="48.80762" lon="2.24144">
        <ele>83.5</ele>
        <time>2022-06-28T13:34:47Z</time>
      </trkpt>
      <trkpt lat="48.80769" lon="2.24145">
        <ele>83.5</ele>
        <time>2022-06-28T13:34:52Z</time>
      </trkpt>
      <trkpt lat="48.80777" lon="2.24147">
        <ele>83.6</ele>
        <time>2022-06-28T13:34:57Z</time>
      </trkpt>
      <trkpt lat="48.80783" lon="2.24141">
        <ele>83.2</ele>
        <time>2022-06-28T13:35:06Z</time>
      </trkpt>
      <trkpt lat="48.80769" lon="2.24144">
        <ele>83.5</ele>
        <time>2022-06-28T13:35:32Z</time>
      </trkpt>
      <trkpt lat="48.80777" lon="2.24142">
        <ele>83.3</ele>
        <time>2022-06-28T13:36:29Z</time>
      </trkpt>
      <trkpt lat="48.80766" lon="2.24149">
        <ele>83.8</ele>
        <time>2022-06-28T13:36:45Z</time>
      </trkpt>
      <trkpt lat="48.80774" lon="2.24144">
        <ele>83.4</ele>
        <time>2022-06-28T13:37:16Z</time>
      </trkpt>
      <trkpt lat="48.8078" lon="2.24136">
        <ele>82.9</ele>
        <time>2022-06-28T13:37:38Z</time>
      </trkpt>
      <trkpt lat="48.80787" lon="2.24136">
        <ele>82.9</ele>
        <time>2022-06-28T13:37:43Z</time>
      </trkpt>
      <trkpt lat="48.80792" lon="2.24128">
        <ele>82.4</ele>
        <time>2022-06-28T13:37:48Z</time>
      </trkpt>
      <trkpt lat="48.80799" lon="2.24121">
        <ele>82</ele>
        <time>2022-06-28T13:37:57Z</time>
      </trkpt>
      <trkpt lat="48.80803" lon="2.24112">
        <ele>81.5</ele>
        <time>2022-06-28T13:38:06Z</time>
      </trkpt>
      <trkpt lat="48.80806" lon="2.241">
        <ele>80.9</ele>
        <time>2022-06-28T13:38:11Z</time>
      </trkpt>
      <trkpt lat="48.80806" lon="2.24089">
        <ele>80.3</ele>
        <time>2022-06-28T13:38:18Z</time>
      </trkpt>
    </trkseg>
  </trk>
</gpx>